<?xml version="1.0" encoding="UTF-8"?>
<gpx creator="Garmin Connect" version="1.1"
  xsi:schemaLocation="http://www.topografix.com/GPX/1/1 http://www.topografix.com/GPX/11.xsd"
  xmlns:ns3="http://www.garmin.com/xmlschemas/TrackPointExtension/v1"
  xmlns="http://www.topografix.com/GPX/1/1"
  xmlns:xsi="http://www.w3.org/2001/XMLSchema-instance" xmlns:ns2="http://www.garmin.com/xmlschemas/GpxExtensions/v3">
  <metadata>
    <name>Apeldoorn 120km 2022</name>
    <link href="connect.garmin.com">
      <text>Garmin Connect</text>
    </link>
    <time>2022-03-19T19:53:20.000Z</time>
  </metadata>
  <trk>
    <name>Apeldoorn 120km 2022</name>
    <trkseg>
      <trkpt lat="52.20358" lon="5.9267">
        <ele>35.96354707981</ele>
        <time>2022-03-19T19:53:20.000Z</time>
      </trkpt>
      <trkpt lat="52.20367" lon="5.92653">
        <ele>36.51288445559</ele>
        <time>2022-03-19T19:53:20.002Z</time>
      </trkpt>
      <trkpt lat="52.2037" lon="5.9264">
        <ele>37.07829810301</ele>
        <time>2022-03-19T19:53:20.006Z</time>
      </trkpt>
      <trkpt lat="52.20368" lon="5.92617">
        <ele>37.83192880307</ele>
        <time>2022-03-19T19:53:20.012Z</time>
      </trkpt>
      <trkpt lat="52.2035" lon="5.92591">
        <ele>38.6774406043</ele>
        <time>2022-03-19T19:53:20.022Z</time>
      </trkpt>
      <trkpt lat="52.20354" lon="5.92582">
        <ele>39.51465079979</ele>
        <time>2022-03-19T19:53:20.033Z</time>
      </trkpt>
      <trkpt lat="52.20379000441" lon="5.92480000569">
        <ele>40.52686409986</ele>
        <time>2022-03-19T19:53:20.055Z</time>
      </trkpt>
      <trkpt lat="52.20404" lon="5.92378">
        <ele>41.7526555533</ele>
        <time>2022-03-19T19:53:20.087Z</time>
      </trkpt>
      <trkpt lat="52.2041" lon="5.92352">
        <ele>42.70547518894</ele>
        <time>2022-03-19T19:53:20.122Z</time>
      </trkpt>
      <trkpt lat="52.20412" lon="5.92333">
        <ele>43.57146013573</ele>
        <time>2022-03-19T19:53:20.159Z</time>
      </trkpt>
      <trkpt lat="52.20411" lon="5.92323">
        <ele>44.37227264577</ele>
        <time>2022-03-19T19:53:20.197Z</time>
      </trkpt>
      <trkpt lat="52.20404" lon="5.92307">
        <ele>45.14824436381</ele>
        <time>2022-03-19T19:53:20.237Z</time>
      </trkpt>
      <trkpt lat="52.2036" lon="5.92248">
        <ele>46.35775291564</ele>
        <time>2022-03-19T19:53:20.286Z</time>
      </trkpt>
      <trkpt lat="52.20348" lon="5.92237">
        <ele>47.23583944311</ele>
        <time>2022-03-19T19:53:20.337Z</time>
      </trkpt>
      <trkpt lat="52.20384" lon="5.92217">
        <ele>47.94737906564</ele>
        <time>2022-03-19T19:53:20.394Z</time>
      </trkpt>
      <trkpt lat="52.20401" lon="5.92203">
        <ele>48.40354032198</ele>
        <time>2022-03-19T19:53:20.454Z</time>
      </trkpt>
      <trkpt lat="52.20414" lon="5.92188">
        <ele>48.60921461643</ele>
        <time>2022-03-19T19:53:20.517Z</time>
      </trkpt>
      <trkpt lat="52.20426" lon="5.92169">
        <ele>48.71488603084</ele>
        <time>2022-03-19T19:53:20.583Z</time>
      </trkpt>
      <trkpt lat="52.20441" lon="5.9213">
        <ele>48.74867385383</ele>
        <time>2022-03-19T19:53:20.653Z</time>
      </trkpt>
      <trkpt lat="52.20449" lon="5.92078">
        <ele>48.74322161616</ele>
        <time>2022-03-19T19:53:20.729Z</time>
      </trkpt>
      <trkpt lat="52.2045" lon="5.92028">
        <ele>48.82994620384</ele>
        <time>2022-03-19T19:53:20.809Z</time>
      </trkpt>
      <trkpt lat="52.20444" lon="5.91975">
        <ele>48.98337385129</ele>
        <time>2022-03-19T19:53:20.895Z</time>
      </trkpt>
      <trkpt lat="52.20433" lon="5.91931">
        <ele>49.1170287394</ele>
        <time>2022-03-19T19:53:20.985Z</time>
      </trkpt>
      <trkpt lat="52.20395" lon="5.91811">
        <ele>49.08187177634</ele>
        <time>2022-03-19T19:53:21.089Z</time>
      </trkpt>
      <trkpt lat="52.20365" lon="5.91759">
        <ele>48.77809239524</ele>
        <time>2022-03-19T19:53:21.200Z</time>
      </trkpt>
      <trkpt lat="52.20348" lon="5.91726">
        <ele>48.76640082238</ele>
        <time>2022-03-19T19:53:21.315Z</time>
      </trkpt>
      <trkpt lat="52.20319" lon="5.91682">
        <ele>48.80637088923</ele>
        <time>2022-03-19T19:53:21.436Z</time>
      </trkpt>
      <trkpt lat="52.20304" lon="5.91664">
        <ele>48.99271856782</ele>
        <time>2022-03-19T19:53:21.560Z</time>
      </trkpt>
      <trkpt lat="52.20305" lon="5.91665">
        <ele>49.03444746009</ele>
        <time>2022-03-19T19:53:21.685Z</time>
      </trkpt>
      <trkpt lat="52.20288" lon="5.91647">
        <ele>49.27598720861</ele>
        <time>2022-03-19T19:53:21.813Z</time>
      </trkpt>
      <trkpt lat="52.20274" lon="5.91638">
        <ele>49.48616897729</ele>
        <time>2022-03-19T19:53:21.943Z</time>
      </trkpt>
      <trkpt lat="52.20257" lon="5.91631">
        <ele>49.61607543802</ele>
        <time>2022-03-19T19:53:22.076Z</time>
      </trkpt>
      <trkpt lat="52.20243" lon="5.91629">
        <ele>49.66566996905</ele>
        <time>2022-03-19T19:53:22.211Z</time>
      </trkpt>
      <trkpt lat="52.2023" lon="5.9163">
        <ele>49.59952930739</ele>
        <time>2022-03-19T19:53:22.348Z</time>
      </trkpt>
      <trkpt lat="52.20216" lon="5.91636">
        <ele>49.44147131275</ele>
        <time>2022-03-19T19:53:22.488Z</time>
      </trkpt>
      <trkpt lat="52.20194" lon="5.91652">
        <ele>49.22807226506</ele>
        <time>2022-03-19T19:53:22.632Z</time>
      </trkpt>
      <trkpt lat="52.20162" lon="5.91687">
        <ele>48.91119901996</ele>
        <time>2022-03-19T19:53:22.782Z</time>
      </trkpt>
      <trkpt lat="52.20145" lon="5.91708">
        <ele>48.56623325224</ele>
        <time>2022-03-19T19:53:22.935Z</time>
      </trkpt>
      <trkpt lat="52.20132" lon="5.91727">
        <ele>48.20291347953</ele>
        <time>2022-03-19T19:53:23.091Z</time>
      </trkpt>
      <trkpt lat="52.20104" lon="5.91793">
        <ele>47.76883009398</ele>
        <time>2022-03-19T19:53:23.255Z</time>
      </trkpt>
      <trkpt lat="52.20089" lon="5.91852">
        <ele>47.4126603569</ele>
        <time>2022-03-19T19:53:23.425Z</time>
      </trkpt>
      <trkpt lat="52.2008" lon="5.91908">
        <ele>46.94450500356</ele>
        <time>2022-03-19T19:53:23.601Z</time>
      </trkpt>
      <trkpt lat="52.20076" lon="5.91948">
        <ele>46.56166276597</ele>
        <time>2022-03-19T19:53:23.781Z</time>
      </trkpt>
      <trkpt lat="52.20072" lon="5.9197">
        <ele>46.19093064877</ele>
        <time>2022-03-19T19:53:23.963Z</time>
      </trkpt>
      <trkpt lat="52.20066" lon="5.91984">
        <ele>45.86638433121</ele>
        <time>2022-03-19T19:53:24.147Z</time>
      </trkpt>
      <trkpt lat="52.2006" lon="5.91991">
        <ele>45.61863403409</ele>
        <time>2022-03-19T19:53:24.332Z</time>
      </trkpt>
      <trkpt lat="52.20051" lon="5.91997">
        <ele>45.38165198578</ele>
        <time>2022-03-19T19:53:24.518Z</time>
      </trkpt>
      <trkpt lat="52.20037" lon="5.91998">
        <ele>45.18206424976</ele>
        <time>2022-03-19T19:53:24.707Z</time>
      </trkpt>
      <trkpt lat="52.19976" lon="5.91932">
        <ele>45.20899872896</ele>
        <time>2022-03-19T19:53:24.907Z</time>
      </trkpt>
      <trkpt lat="52.19955" lon="5.91912">
        <ele>45.16696603091</ele>
        <time>2022-03-19T19:53:25.111Z</time>
      </trkpt>
      <trkpt lat="52.19943" lon="5.91888">
        <ele>45.18732361677</ele>
        <time>2022-03-19T19:53:25.318Z</time>
      </trkpt>
      <trkpt lat="52.19927" lon="5.91845">
        <ele>45.28711445382</ele>
        <time>2022-03-19T19:53:25.530Z</time>
      </trkpt>
      <trkpt lat="52.19916" lon="5.91831">
        <ele>45.22110511724</ele>
        <time>2022-03-19T19:53:25.745Z</time>
      </trkpt>
      <trkpt lat="52.19906" lon="5.9183">
        <ele>45.16786111087</ele>
        <time>2022-03-19T19:53:25.961Z</time>
      </trkpt>
      <trkpt lat="52.19895" lon="5.91836">
        <ele>45.1109272973</ele>
        <time>2022-03-19T19:53:26.179Z</time>
      </trkpt>
      <trkpt lat="52.19884" lon="5.91847">
        <ele>44.98017831259</ele>
        <time>2022-03-19T19:53:26.399Z</time>
      </trkpt>
      <trkpt lat="52.19843" lon="5.91914">
        <ele>44.66427161627</ele>
        <time>2022-03-19T19:53:26.628Z</time>
      </trkpt>
      <trkpt lat="52.19821" lon="5.91962">
        <ele>44.27697428121</ele>
        <time>2022-03-19T19:53:26.863Z</time>
      </trkpt>
      <trkpt lat="52.19813" lon="5.92014">
        <ele>43.97187102959</ele>
        <time>2022-03-19T19:53:27.104Z</time>
      </trkpt>
      <trkpt lat="52.19809" lon="5.92064">
        <ele>43.66646840776</ele>
        <time>2022-03-19T19:53:27.350Z</time>
      </trkpt>
      <trkpt lat="52.19793" lon="5.92073">
        <ele>43.28704643351</ele>
        <time>2022-03-19T19:53:27.598Z</time>
      </trkpt>
      <trkpt lat="52.19792" lon="5.92101">
        <ele>42.78552387461</ele>
        <time>2022-03-19T19:53:27.849Z</time>
      </trkpt>
      <trkpt lat="52.19792" lon="5.92123">
        <ele>42.20082485079</ele>
        <time>2022-03-19T19:53:28.102Z</time>
      </trkpt>
      <trkpt lat="52.19796" lon="5.92132">
        <ele>41.46581457113</ele>
        <time>2022-03-19T19:53:28.356Z</time>
      </trkpt>
      <trkpt lat="52.19786" lon="5.92149">
        <ele>40.74419940186</ele>
        <time>2022-03-19T19:53:28.613Z</time>
      </trkpt>
      <trkpt lat="52.19745500367" lon="5.92242000844">
        <ele>39.75702412653</ele>
        <time>2022-03-19T19:53:28.881Z</time>
      </trkpt>
      <trkpt lat="52.19705" lon="5.92335">
        <ele>39.00407961178</ele>
        <time>2022-03-19T19:53:29.160Z</time>
      </trkpt>
      <trkpt lat="52.19698" lon="5.92367">
        <ele>37.96123908387</ele>
        <time>2022-03-19T19:53:29.442Z</time>
      </trkpt>
      <trkpt lat="52.19703000515" lon="5.92477499862">
        <ele>36.6385644899</ele>
        <time>2022-03-19T19:53:29.735Z</time>
      </trkpt>
      <trkpt lat="52.19708" lon="5.92588">
        <ele>35.40645084276</ele>
        <time>2022-03-19T19:53:30.039Z</time>
      </trkpt>
      <trkpt lat="52.1971" lon="5.92677">
        <ele>34.34585231581</ele>
        <time>2022-03-19T19:53:30.352Z</time>
      </trkpt>
      <trkpt lat="52.19721" lon="5.92684">
        <ele>33.3373921605</ele>
        <time>2022-03-19T19:53:30.667Z</time>
      </trkpt>
      <trkpt lat="52.1972" lon="5.92684">
        <ele>32.379887402</ele>
        <time>2022-03-19T19:53:30.982Z</time>
      </trkpt>
      <trkpt lat="52.19745" lon="5.92702">
        <ele>31.41471726786</ele>
        <time>2022-03-19T19:53:31.301Z</time>
      </trkpt>
      <trkpt lat="52.19746" lon="5.92702">
        <ele>30.53535833034</ele>
        <time>2022-03-19T19:53:31.621Z</time>
      </trkpt>
      <trkpt lat="52.19772" lon="5.9272">
        <ele>29.66010198145</ele>
        <time>2022-03-19T19:53:31.945Z</time>
      </trkpt>
      <trkpt lat="52.19829" lon="5.92753">
        <ele>28.7986899753</ele>
        <time>2022-03-19T19:53:32.279Z</time>
      </trkpt>
      <trkpt lat="52.19836" lon="5.9276">
        <ele>28.05437349498</ele>
        <time>2022-03-19T19:53:32.614Z</time>
      </trkpt>
      <trkpt lat="52.19837" lon="5.92761">
        <ele>27.38299904519</ele>
        <time>2022-03-19T19:53:32.949Z</time>
      </trkpt>
      <trkpt lat="52.19821" lon="5.92838">
        <ele>26.83914082773</ele>
        <time>2022-03-19T19:53:33.292Z</time>
      </trkpt>
      <trkpt lat="52.1982" lon="5.92864">
        <ele>26.3021827282</ele>
        <time>2022-03-19T19:53:33.638Z</time>
      </trkpt>
      <trkpt lat="52.19835334112" lon="5.92959999335">
        <ele>25.72203618877</ele>
        <time>2022-03-19T19:53:33.994Z</time>
      </trkpt>
      <trkpt lat="52.19850667445" lon="5.93055999333">
        <ele>25.16432379224</ele>
        <time>2022-03-19T19:53:34.359Z</time>
      </trkpt>
      <trkpt lat="52.19866" lon="5.93152">
        <ele>24.81167224301</ele>
        <time>2022-03-19T19:53:34.734Z</time>
      </trkpt>
      <trkpt lat="52.19852" lon="5.93161">
        <ele>24.46141629537</ele>
        <time>2022-03-19T19:53:35.112Z</time>
      </trkpt>
      <trkpt lat="52.19823" lon="5.93179">
        <ele>24.2027556649</ele>
        <time>2022-03-19T19:53:35.495Z</time>
      </trkpt>
      <trkpt lat="52.19787" lon="5.93206">
        <ele>23.98035783262</ele>
        <time>2022-03-19T19:53:35.884Z</time>
      </trkpt>
      <trkpt lat="52.19755" lon="5.93233">
        <ele>23.73281726427</ele>
        <time>2022-03-19T19:53:36.279Z</time>
      </trkpt>
      <trkpt lat="52.19727" lon="5.93257">
        <ele>23.6137630393</ele>
        <time>2022-03-19T19:53:36.679Z</time>
      </trkpt>
      <trkpt lat="52.19677" lon="5.93306">
        <ele>23.88111981353</ele>
        <time>2022-03-19T19:53:37.088Z</time>
      </trkpt>
      <trkpt lat="52.19666" lon="5.93318">
        <ele>23.92050150405</ele>
        <time>2022-03-19T19:53:37.499Z</time>
      </trkpt>
      <trkpt lat="52.19646" lon="5.93351">
        <ele>23.95851972155</ele>
        <time>2022-03-19T19:53:37.915Z</time>
      </trkpt>
      <trkpt lat="52.19643" lon="5.93353">
        <ele>24.07351475304</ele>
        <time>2022-03-19T19:53:38.331Z</time>
      </trkpt>
      <trkpt lat="52.19625" lon="5.93369">
        <ele>24.16593353672</ele>
        <time>2022-03-19T19:53:38.751Z</time>
      </trkpt>
      <trkpt lat="52.19622" lon="5.93372">
        <ele>24.37256218855</ele>
        <time>2022-03-19T19:53:39.171Z</time>
      </trkpt>
      <trkpt lat="52.19605" lon="5.93387">
        <ele>24.56665318882</ele>
        <time>2022-03-19T19:53:39.594Z</time>
      </trkpt>
      <trkpt lat="52.19579" lon="5.93399">
        <ele>24.90487402006</ele>
        <time>2022-03-19T19:53:40.022Z</time>
      </trkpt>
      <trkpt lat="52.19514" lon="5.93452">
        <ele>25.34021938137</ele>
        <time>2022-03-19T19:53:40.461Z</time>
      </trkpt>
      <trkpt lat="52.19477" lon="5.93479">
        <ele>25.76179650487</ele>
        <time>2022-03-19T19:53:40.907Z</time>
      </trkpt>
      <trkpt lat="52.19462" lon="5.93486">
        <ele>26.24217799141</ele>
        <time>2022-03-19T19:53:41.355Z</time>
      </trkpt>
      <trkpt lat="52.19394500035" lon="5.93515500449">
        <ele>26.81962477582</ele>
        <time>2022-03-19T19:53:41.814Z</time>
      </trkpt>
      <trkpt lat="52.19327" lon="5.93545">
        <ele>27.3097992361</ele>
        <time>2022-03-19T19:53:42.285Z</time>
      </trkpt>
      <trkpt lat="52.1930000019" lon="5.93476499562">
        <ele>27.95620721139</ele>
        <time>2022-03-19T19:53:42.764Z</time>
      </trkpt>
      <trkpt lat="52.19273" lon="5.93408">
        <ele>28.50627903196</ele>
        <time>2022-03-19T19:53:43.251Z</time>
      </trkpt>
      <trkpt lat="52.19241" lon="5.93318">
        <ele>29.21190368618</ele>
        <time>2022-03-19T19:53:43.748Z</time>
      </trkpt>
      <trkpt lat="52.19225" lon="5.93261">
        <ele>29.93474319135</ele>
        <time>2022-03-19T19:53:44.251Z</time>
      </trkpt>
      <trkpt lat="52.1919" lon="5.93159">
        <ele>30.81416775621</ele>
        <time>2022-03-19T19:53:44.766Z</time>
      </trkpt>
      <trkpt lat="52.19152202068" lon="5.93048396237">
        <ele>31.64012904442</ele>
        <time>2022-03-19T19:53:45.293Z</time>
      </trkpt>
      <trkpt lat="52.19114403101" lon="5.92937794355">
        <ele>32.34036163911</ele>
        <time>2022-03-19T19:53:45.832Z</time>
      </trkpt>
      <trkpt lat="52.19076603101" lon="5.92827194354">
        <ele>33.35596944792</ele>
        <time>2022-03-19T19:53:46.384Z</time>
      </trkpt>
      <trkpt lat="52.19038802066" lon="5.92716596233">
        <ele>33.73675368664</ele>
        <time>2022-03-19T19:53:46.948Z</time>
      </trkpt>
      <trkpt lat="52.19001" lon="5.92606">
        <ele>34.24896186771</ele>
        <time>2022-03-19T19:53:47.525Z</time>
      </trkpt>
      <trkpt lat="52.1898" lon="5.92549">
        <ele>34.85750465131</ele>
        <time>2022-03-19T19:53:48.108Z</time>
      </trkpt>
      <trkpt lat="52.18958000292" lon="5.92465999594">
        <ele>35.22034845535</ele>
        <time>2022-03-19T19:53:48.700Z</time>
      </trkpt>
      <trkpt lat="52.18936" lon="5.92383">
        <ele>35.41751208597</ele>
        <time>2022-03-19T19:53:49.301Z</time>
      </trkpt>
      <trkpt lat="52.18936" lon="5.92384">
        <ele>35.79408123262</ele>
        <time>2022-03-19T19:53:49.902Z</time>
      </trkpt>
      <trkpt lat="52.18931" lon="5.9237">
        <ele>36.14535991364</ele>
        <time>2022-03-19T19:53:50.505Z</time>
      </trkpt>
      <trkpt lat="52.18931" lon="5.92369">
        <ele>36.49140497446</ele>
        <time>2022-03-19T19:53:51.108Z</time>
      </trkpt>
      <trkpt lat="52.18912" lon="5.92325">
        <ele>36.88747724454</ele>
        <time>2022-03-19T19:53:51.716Z</time>
      </trkpt>
      <trkpt lat="52.18883" lon="5.92266">
        <ele>37.23511934619</ele>
        <time>2022-03-19T19:53:52.332Z</time>
      </trkpt>
      <trkpt lat="52.18849500318" lon="5.92179999365">
        <ele>37.49924830519</ele>
        <time>2022-03-19T19:53:52.958Z</time>
      </trkpt>
      <trkpt lat="52.18816" lon="5.92094">
        <ele>37.83670366096</ele>
        <time>2022-03-19T19:53:53.594Z</time>
      </trkpt>
      <trkpt lat="52.18785" lon="5.92029">
        <ele>38.36264785911</ele>
        <time>2022-03-19T19:53:54.238Z</time>
      </trkpt>
      <trkpt lat="52.18727500477" lon="5.91921998603">
        <ele>39.06536070769</ele>
        <time>2022-03-19T19:53:54.896Z</time>
      </trkpt>
      <trkpt lat="52.1867" lon="5.91815">
        <ele>39.43617690419</ele>
        <time>2022-03-19T19:53:55.568Z</time>
      </trkpt>
      <trkpt lat="52.18619" lon="5.91733">
        <ele>39.67331394266</ele>
        <time>2022-03-19T19:53:56.251Z</time>
      </trkpt>
      <trkpt lat="52.18596" lon="5.91711">
        <ele>39.97885853009</ele>
        <time>2022-03-19T19:53:56.939Z</time>
      </trkpt>
      <trkpt lat="52.18613500292" lon="5.91628500305">
        <ele>40.45429016033</ele>
        <time>2022-03-19T19:53:57.635Z</time>
      </trkpt>
      <trkpt lat="52.18631" lon="5.91546">
        <ele>40.93723463036</ele>
        <time>2022-03-19T19:53:58.340Z</time>
      </trkpt>
      <trkpt lat="52.18635" lon="5.91515">
        <ele>41.43684093522</ele>
        <time>2022-03-19T19:53:59.048Z</time>
      </trkpt>
      <trkpt lat="52.18636" lon="5.9148">
        <ele>41.95169734259</ele>
        <time>2022-03-19T19:53:59.759Z</time>
      </trkpt>
      <trkpt lat="52.18629752302" lon="5.91345249429">
        <ele>42.63110529113</ele>
        <time>2022-03-19T19:54:00.484Z</time>
      </trkpt>
      <trkpt lat="52.1862350307" lon="5.91210499237">
        <ele>42.79482454917</ele>
        <time>2022-03-19T19:54:01.222Z</time>
      </trkpt>
      <trkpt lat="52.18617252302" lon="5.91075749424">
        <ele>43.83757445771</ele>
        <time>2022-03-19T19:54:01.973Z</time>
      </trkpt>
      <trkpt lat="52.18611" lon="5.90941">
        <ele>44.43637540251</ele>
        <time>2022-03-19T19:54:02.738Z</time>
      </trkpt>
      <trkpt lat="52.18608000331" lon="5.90852499931">
        <ele>45.03680555043</ele>
        <time>2022-03-19T19:54:03.511Z</time>
      </trkpt>
      <trkpt lat="52.18605" lon="5.90764">
        <ele>45.63455326521</ele>
        <time>2022-03-19T19:54:04.293Z</time>
      </trkpt>
      <trkpt lat="52.18601500876" lon="5.90619999887">
        <ele>46.21735672516</ele>
        <time>2022-03-19T19:54:05.089Z</time>
      </trkpt>
      <trkpt lat="52.18598" lon="5.90476">
        <ele>46.76983607669</ele>
        <time>2022-03-19T19:54:05.900Z</time>
      </trkpt>
      <trkpt lat="52.18593500397" lon="5.90378999895">
        <ele>47.12654569567</ele>
        <time>2022-03-19T19:54:06.720Z</time>
      </trkpt>
      <trkpt lat="52.18589" lon="5.90282">
        <ele>47.55948387725</ele>
        <time>2022-03-19T19:54:07.550Z</time>
      </trkpt>
      <trkpt lat="52.18587000302" lon="5.90197499965">
        <ele>48.0596627216</ele>
        <time>2022-03-19T19:54:08.388Z</time>
      </trkpt>
      <trkpt lat="52.18585" lon="5.90113">
        <ele>48.59447482531</ele>
        <time>2022-03-19T19:54:09.234Z</time>
      </trkpt>
      <trkpt lat="52.18580251903" lon="5.89990499605">
        <ele>48.84472899673</ele>
        <time>2022-03-19T19:54:10.092Z</time>
      </trkpt>
      <trkpt lat="52.18575502537" lon="5.89867999472">
        <ele>49.0824717731</ele>
        <time>2022-03-19T19:54:10.963Z</time>
      </trkpt>
      <trkpt lat="52.18570751903" lon="5.897454996">
        <ele>49.13099222222</ele>
        <time>2022-03-19T19:54:11.846Z</time>
      </trkpt>
      <trkpt lat="52.18566" lon="5.89623">
        <ele>49.27091359642</ele>
        <time>2022-03-19T19:54:12.741Z</time>
      </trkpt>
      <trkpt lat="52.1856650026" lon="5.89544500015">
        <ele>49.40767223253</ele>
        <time>2022-03-19T19:54:13.643Z</time>
      </trkpt>
      <trkpt lat="52.18567" lon="5.89466">
        <ele>49.47412297723</ele>
        <time>2022-03-19T19:54:14.553Z</time>
      </trkpt>
      <trkpt lat="52.18574" lon="5.89396">
        <ele>49.49341950457</ele>
        <time>2022-03-19T19:54:15.470Z</time>
      </trkpt>
      <trkpt lat="52.18585" lon="5.89328">
        <ele>49.55203541134</ele>
        <time>2022-03-19T19:54:16.394Z</time>
      </trkpt>
      <trkpt lat="52.18605" lon="5.89252">
        <ele>49.54365278396</ele>
        <time>2022-03-19T19:54:17.326Z</time>
      </trkpt>
      <trkpt lat="52.1863400038" lon="5.89157000624">
        <ele>49.40864138476</ele>
        <time>2022-03-19T19:54:18.269Z</time>
      </trkpt>
      <trkpt lat="52.18663" lon="5.89062">
        <ele>49.402498584759996</ele>
        <time>2022-03-19T19:54:19.222Z</time>
      </trkpt>
      <trkpt lat="52.18672" lon="5.89007">
        <ele>49.33997287661</ele>
        <time>2022-03-19T19:54:20.181Z</time>
      </trkpt>
      <trkpt lat="52.18674" lon="5.88941">
        <ele>49.26223361001</ele>
        <time>2022-03-19T19:54:21.146Z</time>
      </trkpt>
      <trkpt lat="52.18667" lon="5.88885">
        <ele>49.17241337841</ele>
        <time>2022-03-19T19:54:22.117Z</time>
      </trkpt>
      <trkpt lat="52.18654" lon="5.88831">
        <ele>49.13454010578</ele>
        <time>2022-03-19T19:54:23.094Z</time>
      </trkpt>
      <trkpt lat="52.18638" lon="5.88789">
        <ele>49.14902358965</ele>
        <time>2022-03-19T19:54:24.075Z</time>
      </trkpt>
      <trkpt lat="52.18621" lon="5.88758">
        <ele>49.19198858392</ele>
        <time>2022-03-19T19:54:25.060Z</time>
      </trkpt>
      <trkpt lat="52.18601" lon="5.88731">
        <ele>49.26831528305</ele>
        <time>2022-03-19T19:54:26.050Z</time>
      </trkpt>
      <trkpt lat="52.18597" lon="5.88728">
        <ele>49.49720961611</ele>
        <time>2022-03-19T19:54:27.040Z</time>
      </trkpt>
      <trkpt lat="52.18592" lon="5.8873">
        <ele>49.84010394599</ele>
        <time>2022-03-19T19:54:28.031Z</time>
      </trkpt>
      <trkpt lat="52.18588" lon="5.88736">
        <ele>50.31604925915</ele>
        <time>2022-03-19T19:54:29.023Z</time>
      </trkpt>
      <trkpt lat="52.18584" lon="5.88735">
        <ele>50.88925290651</ele>
        <time>2022-03-19T19:54:30.016Z</time>
      </trkpt>
      <trkpt lat="52.18576" lon="5.88719">
        <ele>51.5455581523</ele>
        <time>2022-03-19T19:54:31.011Z</time>
      </trkpt>
      <trkpt lat="52.18518500246" lon="5.8864349903">
        <ele>52.43071521441</ele>
        <time>2022-03-19T19:54:32.018Z</time>
      </trkpt>
      <trkpt lat="52.18461" lon="5.88568">
        <ele>53.66949329412</ele>
        <time>2022-03-19T19:54:33.036Z</time>
      </trkpt>
      <trkpt lat="52.18426" lon="5.88529">
        <ele>54.8528513381</ele>
        <time>2022-03-19T19:54:34.061Z</time>
      </trkpt>
      <trkpt lat="52.1842" lon="5.8851">
        <ele>56.0892691573</ele>
        <time>2022-03-19T19:54:35.088Z</time>
      </trkpt>
      <trkpt lat="52.18406334778" lon="5.88379332541">
        <ele>57.74538687175</ele>
        <time>2022-03-19T19:54:36.128Z</time>
      </trkpt>
      <trkpt lat="52.18392668112" lon="5.88248665884">
        <ele>59.20338813481</ele>
        <time>2022-03-19T19:54:37.181Z</time>
      </trkpt>
      <trkpt lat="52.18379" lon="5.88118">
        <ele>60.81912669754</ele>
        <time>2022-03-19T19:54:38.247Z</time>
      </trkpt>
      <trkpt lat="52.18383" lon="5.88064">
        <ele>62.58784646601</ele>
        <time>2022-03-19T19:54:39.319Z</time>
      </trkpt>
      <trkpt lat="52.18377" lon="5.87988">
        <ele>64.39192605688</ele>
        <time>2022-03-19T19:54:40.398Z</time>
      </trkpt>
      <trkpt lat="52.1836" lon="5.87866">
        <ele>66.47372737974</ele>
        <time>2022-03-19T19:54:41.490Z</time>
      </trkpt>
      <trkpt lat="52.18343" lon="5.87774">
        <ele>68.04394841012</ele>
        <time>2022-03-19T19:54:42.591Z</time>
      </trkpt>
      <trkpt lat="52.18311668247" lon="5.87637331414">
        <ele>69.67571848174</ele>
        <time>2022-03-19T19:54:43.707Z</time>
      </trkpt>
      <trkpt lat="52.18280334915" lon="5.87500664754">
        <ele>71.53961964472</ele>
        <time>2022-03-19T19:54:44.837Z</time>
      </trkpt>
      <trkpt lat="52.18249" lon="5.87364">
        <ele>73.47656284045</ele>
        <time>2022-03-19T19:54:45.981Z</time>
      </trkpt>
      <trkpt lat="52.18218341232" lon="5.87233656781">
        <ele>75.23357655877</ele>
        <time>2022-03-19T19:54:47.139Z</time>
      </trkpt>
      <trkpt lat="52.18187681028" lon="5.87103315359">
        <ele>76.83498073164</ele>
        <time>2022-03-19T19:54:48.311Z</time>
      </trkpt>
      <trkpt lat="52.18157019387" lon="5.86972975735">
        <ele>78.41790770283</ele>
        <time>2022-03-19T19:54:49.497Z</time>
      </trkpt>
      <trkpt lat="52.1812635631" lon="5.86842637908">
        <ele>79.85877442768</ele>
        <time>2022-03-19T19:54:50.696Z</time>
      </trkpt>
      <trkpt lat="52.18095691798" lon="5.86712301878">
        <ele>81.43242273001</ele>
        <time>2022-03-19T19:54:51.909Z</time>
      </trkpt>
      <trkpt lat="52.18065025849" lon="5.86581967645">
        <ele>82.68696033776</ele>
        <time>2022-03-19T19:54:53.136Z</time>
      </trkpt>
      <trkpt lat="52.18034358464" lon="5.8645163521">
        <ele>84.0548268536</ele>
        <time>2022-03-19T19:54:54.376Z</time>
      </trkpt>
      <trkpt lat="52.18003689643" lon="5.86321304573">
        <ele>85.00986022496</ele>
        <time>2022-03-19T19:54:55.630Z</time>
      </trkpt>
      <trkpt lat="52.17973019386" lon="5.86190975732">
        <ele>85.92820131292</ele>
        <time>2022-03-19T19:54:56.898Z</time>
      </trkpt>
      <trkpt lat="52.17942347693" lon="5.8606064869">
        <ele>86.64323943294</ele>
        <time>2022-03-19T19:54:58.180Z</time>
      </trkpt>
      <trkpt lat="52.17911674564" lon="5.85930323444">
        <ele>87.61023066378</ele>
        <time>2022-03-19T19:54:59.475Z</time>
      </trkpt>
      <trkpt lat="52.17881" lon="5.858">
        <ele>88.05191916969</ele>
        <time>2022-03-19T19:55:00.784Z</time>
      </trkpt>
      <trkpt lat="52.17881" lon="5.85752">
        <ele>88.62697312073</ele>
        <time>2022-03-19T19:55:02.098Z</time>
      </trkpt>
      <trkpt lat="52.17886" lon="5.85721">
        <ele>89.26912337401</ele>
        <time>2022-03-19T19:55:03.415Z</time>
      </trkpt>
      <trkpt lat="52.17904" lon="5.85659">
        <ele>89.68512977712</ele>
        <time>2022-03-19T19:55:04.739Z</time>
      </trkpt>
      <trkpt lat="52.17933" lon="5.85601">
        <ele>90.1381526864</ele>
        <time>2022-03-19T19:55:06.070Z</time>
      </trkpt>
      <trkpt lat="52.17992667551" lon="5.85499002729">
        <ele>91.2310782194</ele>
        <time>2022-03-19T19:55:07.415Z</time>
      </trkpt>
      <trkpt lat="52.18052334222" lon="5.85397002721">
        <ele>91.78372917955</ele>
        <time>2022-03-19T19:55:08.774Z</time>
      </trkpt>
      <trkpt lat="52.18112" lon="5.85295">
        <ele>92.1448733792</ele>
        <time>2022-03-19T19:55:10.147Z</time>
      </trkpt>
      <trkpt lat="52.1815266711" lon="5.85222667988">
        <ele>92.308952223</ele>
        <time>2022-03-19T19:55:11.529Z</time>
      </trkpt>
      <trkpt lat="52.18193333778" lon="5.85150334653">
        <ele>92.48148755697</ele>
        <time>2022-03-19T19:55:12.921Z</time>
      </trkpt>
      <trkpt lat="52.18234" lon="5.85078">
        <ele>92.78819673201</ele>
        <time>2022-03-19T19:55:14.323Z</time>
      </trkpt>
      <trkpt lat="52.18251" lon="5.85041">
        <ele>92.84435345525</ele>
        <time>2022-03-19T19:55:15.729Z</time>
      </trkpt>
      <trkpt lat="52.18283" lon="5.84961">
        <ele>92.76447493525</ele>
        <time>2022-03-19T19:55:17.145Z</time>
      </trkpt>
      <trkpt lat="52.18301" lon="5.84904">
        <ele>92.35680223197</ele>
        <time>2022-03-19T19:55:18.567Z</time>
      </trkpt>
      <trkpt lat="52.18333000675" lon="5.84777000941">
        <ele>92.13102203355</ele>
        <time>2022-03-19T19:55:20.003Z</time>
      </trkpt>
      <trkpt lat="52.18365" lon="5.8465">
        <ele>91.75049057942</ele>
        <time>2022-03-19T19:55:21.452Z</time>
      </trkpt>
      <trkpt lat="52.18372" lon="5.84608">
        <ele>91.37863889361</ele>
        <time>2022-03-19T19:55:22.905Z</time>
      </trkpt>
      <trkpt lat="52.18376" lon="5.84541">
        <ele>90.9206288981</ele>
        <time>2022-03-19T19:55:24.365Z</time>
      </trkpt>
      <trkpt lat="52.18431500003" lon="5.84530500131">
        <ele>90.46678922284</ele>
        <time>2022-03-19T19:55:25.834Z</time>
      </trkpt>
      <trkpt lat="52.18487" lon="5.8452">
        <ele>89.84980683603</ele>
        <time>2022-03-19T19:55:27.312Z</time>
      </trkpt>
      <trkpt lat="52.18539500015" lon="5.84513500075">
        <ele>89.0323088546</ele>
        <time>2022-03-19T19:55:28.798Z</time>
      </trkpt>
      <trkpt lat="52.18592" lon="5.84507">
        <ele>88.24809269837</ele>
        <time>2022-03-19T19:55:30.293Z</time>
      </trkpt>
      <trkpt lat="52.18671400025" lon="5.84494800871">
        <ele>87.60640867355</ele>
        <time>2022-03-19T19:55:31.801Z</time>
      </trkpt>
      <trkpt lat="52.18750800038" lon="5.84482601307">
        <ele>86.65478515696</ele>
        <time>2022-03-19T19:55:33.321Z</time>
      </trkpt>
      <trkpt lat="52.18830200039" lon="5.84470401307">
        <ele>85.88991906875</ele>
        <time>2022-03-19T19:55:34.854Z</time>
      </trkpt>
      <trkpt lat="52.18909600026" lon="5.84458200871">
        <ele>85.16309179585</ele>
        <time>2022-03-19T19:55:36.400Z</time>
      </trkpt>
      <trkpt lat="52.18989" lon="5.84446">
        <ele>83.66193005813</ele>
        <time>2022-03-19T19:55:37.959Z</time>
      </trkpt>
      <trkpt lat="52.18988" lon="5.84446">
        <ele>82.81501115749</ele>
        <time>2022-03-19T19:55:39.518Z</time>
      </trkpt>
      <trkpt lat="52.19013" lon="5.84443">
        <ele>81.75382479962</ele>
        <time>2022-03-19T19:55:41.081Z</time>
      </trkpt>
      <trkpt lat="52.19012" lon="5.84443">
        <ele>80.91523167515</ele>
        <time>2022-03-19T19:55:42.644Z</time>
      </trkpt>
      <trkpt lat="52.19092500014" lon="5.84431000216">
        <ele>79.5463464715</ele>
        <time>2022-03-19T19:55:44.220Z</time>
      </trkpt>
      <trkpt lat="52.19173" lon="5.84419">
        <ele>79.18632210228</ele>
        <time>2022-03-19T19:55:45.809Z</time>
      </trkpt>
      <trkpt lat="52.19248333347" lon="5.84406333763">
        <ele>78.83026664142</ele>
        <time>2022-03-19T19:55:47.410Z</time>
      </trkpt>
      <trkpt lat="52.19323666681" lon="5.84393667096">
        <ele>78.1425205267</ele>
        <time>2022-03-19T19:55:49.023Z</time>
      </trkpt>
      <trkpt lat="52.19399" lon="5.84381">
        <ele>77.08425576281</ele>
        <time>2022-03-19T19:55:50.648Z</time>
      </trkpt>
      <trkpt lat="52.1942" lon="5.84375">
        <ele>76.03458775302</ele>
        <time>2022-03-19T19:55:52.277Z</time>
      </trkpt>
      <trkpt lat="52.19491" lon="5.84323">
        <ele>74.92896843169</ele>
        <time>2022-03-19T19:55:53.918Z</time>
      </trkpt>
      <trkpt lat="52.19552" lon="5.8429">
        <ele>73.83894952727</ele>
        <time>2022-03-19T19:55:55.570Z</time>
      </trkpt>
      <trkpt lat="52.19561" lon="5.84287">
        <ele>72.63915889553</ele>
        <time>2022-03-19T19:55:57.223Z</time>
      </trkpt>
      <trkpt lat="52.1964100006" lon="5.84259667652">
        <ele>71.45693731034</ele>
        <time>2022-03-19T19:55:58.889Z</time>
      </trkpt>
      <trkpt lat="52.19721000057" lon="5.84232334319">
        <ele>69.85690527762</ele>
        <time>2022-03-19T19:56:00.568Z</time>
      </trkpt>
      <trkpt lat="52.19801" lon="5.84205">
        <ele>68.39659932819</ele>
        <time>2022-03-19T19:56:02.260Z</time>
      </trkpt>
      <trkpt lat="52.19813" lon="5.84199">
        <ele>67.04924785757</ele>
        <time>2022-03-19T19:56:03.954Z</time>
      </trkpt>
      <trkpt lat="52.19842" lon="5.84166">
        <ele>65.60928082011</ele>
        <time>2022-03-19T19:56:05.654Z</time>
      </trkpt>
      <trkpt lat="52.19851" lon="5.84152">
        <ele>64.16470659676</ele>
        <time>2022-03-19T19:56:07.356Z</time>
      </trkpt>
      <trkpt lat="52.19886667388" lon="5.84059668148">
        <ele>62.20854891857</ele>
        <time>2022-03-19T19:56:09.069Z</time>
      </trkpt>
      <trkpt lat="52.19922334055" lon="5.83967334813">
        <ele>60.68336454933</ele>
        <time>2022-03-19T19:56:10.792Z</time>
      </trkpt>
      <trkpt lat="52.19958" lon="5.83875">
        <ele>59.69822723687</ele>
        <time>2022-03-19T19:56:12.526Z</time>
      </trkpt>
      <trkpt lat="52.19962" lon="5.83864">
        <ele>58.41359513442</ele>
        <time>2022-03-19T19:56:14.261Z</time>
      </trkpt>
      <trkpt lat="52.19996000335" lon="5.83774500693">
        <ele>56.66660379534</ele>
        <time>2022-03-19T19:56:16.007Z</time>
      </trkpt>
      <trkpt lat="52.2003" lon="5.83685">
        <ele>55.38899145816</ele>
        <time>2022-03-19T19:56:17.763Z</time>
      </trkpt>
      <trkpt lat="52.20029" lon="5.83685">
        <ele>54.33468498904</ele>
        <time>2022-03-19T19:56:19.519Z</time>
      </trkpt>
      <trkpt lat="52.20032" lon="5.83679">
        <ele>53.35801529914</ele>
        <time>2022-03-19T19:56:21.276Z</time>
      </trkpt>
      <trkpt lat="52.20042" lon="5.8366">
        <ele>52.44965133132</ele>
        <time>2022-03-19T19:56:23.036Z</time>
      </trkpt>
      <trkpt lat="52.2005" lon="5.83655">
        <ele>51.67402475566</ele>
        <time>2022-03-19T19:56:24.797Z</time>
      </trkpt>
      <trkpt lat="52.20053" lon="5.83654">
        <ele>51.02792213513</ele>
        <time>2022-03-19T19:56:26.558Z</time>
      </trkpt>
      <trkpt lat="52.20061" lon="5.83654">
        <ele>50.49607876985</ele>
        <time>2022-03-19T19:56:28.321Z</time>
      </trkpt>
      <trkpt lat="52.2007" lon="5.83658">
        <ele>50.06542436817</ele>
        <time>2022-03-19T19:56:30.085Z</time>
      </trkpt>
      <trkpt lat="52.2008" lon="5.83703">
        <ele>49.71939269385</ele>
        <time>2022-03-19T19:56:31.854Z</time>
      </trkpt>
      <trkpt lat="52.20092" lon="5.83783">
        <ele>49.43559699968</ele>
        <time>2022-03-19T19:56:33.631Z</time>
      </trkpt>
      <trkpt lat="52.20101500506" lon="5.8389249976">
        <ele>49.13377096182</ele>
        <time>2022-03-19T19:56:35.419Z</time>
      </trkpt>
      <trkpt lat="52.20111" lon="5.84002">
        <ele>49.26783372534</ele>
        <time>2022-03-19T19:56:37.218Z</time>
      </trkpt>
      <trkpt lat="52.20118667616" lon="5.84107999626">
        <ele>49.11655209536</ele>
        <time>2022-03-19T19:56:39.027Z</time>
      </trkpt>
      <trkpt lat="52.20126334282" lon="5.84213999617">
        <ele>49.07263922304</ele>
        <time>2022-03-19T19:56:40.847Z</time>
      </trkpt>
      <trkpt lat="52.20134" lon="5.8432">
        <ele>49.20660855713</ele>
        <time>2022-03-19T19:56:42.677Z</time>
      </trkpt>
      <trkpt lat="52.20134" lon="5.84321">
        <ele>49.33591146344</ele>
        <time>2022-03-19T19:56:44.507Z</time>
      </trkpt>
      <trkpt lat="52.20135" lon="5.84324">
        <ele>49.50567819352</ele>
        <time>2022-03-19T19:56:46.338Z</time>
      </trkpt>
      <trkpt lat="52.20135" lon="5.84325">
        <ele>49.71975340172</ele>
        <time>2022-03-19T19:56:48.169Z</time>
      </trkpt>
      <trkpt lat="52.20145" lon="5.84378">
        <ele>49.91170216747</ele>
        <time>2022-03-19T19:56:50.005Z</time>
      </trkpt>
      <trkpt lat="52.20151" lon="5.8443">
        <ele>50.14515203918</ele>
        <time>2022-03-19T19:56:51.847Z</time>
      </trkpt>
      <trkpt lat="52.20159402475" lon="5.84550999086">
        <ele>50.38990013715</ele>
        <time>2022-03-19T19:56:53.700Z</time>
      </trkpt>
      <trkpt lat="52.20167803713" lon="5.84671998629">
        <ele>50.94339022703</ele>
        <time>2022-03-19T19:56:55.565Z</time>
      </trkpt>
      <trkpt lat="52.20176203713" lon="5.84792998629">
        <ele>51.29147268381</ele>
        <time>2022-03-19T19:56:57.442Z</time>
      </trkpt>
      <trkpt lat="52.20184602475" lon="5.84913999087">
        <ele>51.58989409427</ele>
        <time>2022-03-19T19:56:59.331Z</time>
      </trkpt>
      <trkpt lat="52.20193" lon="5.85035">
        <ele>51.93670409989</ele>
        <time>2022-03-19T19:57:01.232Z</time>
      </trkpt>
      <trkpt lat="52.20196" lon="5.85109">
        <ele>52.33864543136</ele>
        <time>2022-03-19T19:57:03.141Z</time>
      </trkpt>
      <trkpt lat="52.20195" lon="5.8525">
        <ele>52.6860075132</ele>
        <time>2022-03-19T19:57:05.064Z</time>
      </trkpt>
      <trkpt lat="52.20198" lon="5.85315">
        <ele>52.93256602167</ele>
        <time>2022-03-19T19:57:06.993Z</time>
      </trkpt>
      <trkpt lat="52.20219" lon="5.85431">
        <ele>53.37306937577</ele>
        <time>2022-03-19T19:57:08.934Z</time>
      </trkpt>
      <trkpt lat="52.2024200028" lon="5.85511999592">
        <ele>53.58603698771</ele>
        <time>2022-03-19T19:57:10.884Z</time>
      </trkpt>
      <trkpt lat="52.20265" lon="5.85593">
        <ele>53.94365683502</ele>
        <time>2022-03-19T19:57:12.843Z</time>
      </trkpt>
      <trkpt lat="52.20301" lon="5.85711">
        <ele>54.00395432512</ele>
        <time>2022-03-19T19:57:14.814Z</time>
      </trkpt>
      <trkpt lat="52.20311" lon="5.85735">
        <ele>54.19142187419</ele>
        <time>2022-03-19T19:57:16.788Z</time>
      </trkpt>
      <trkpt lat="52.20323" lon="5.85755">
        <ele>54.38883413674</ele>
        <time>2022-03-19T19:57:18.765Z</time>
      </trkpt>
      <trkpt lat="52.20344" lon="5.85774">
        <ele>54.49230271742</ele>
        <time>2022-03-19T19:57:20.746Z</time>
      </trkpt>
      <trkpt lat="52.20379" lon="5.85794">
        <ele>54.48403414966</ele>
        <time>2022-03-19T19:57:22.733Z</time>
      </trkpt>
      <trkpt lat="52.20432" lon="5.85818">
        <ele>54.50810118717</ele>
        <time>2022-03-19T19:57:24.729Z</time>
      </trkpt>
      <trkpt lat="52.20448" lon="5.8583">
        <ele>54.50368985793</ele>
        <time>2022-03-19T19:57:26.728Z</time>
      </trkpt>
      <trkpt lat="52.20477" lon="5.85866">
        <ele>54.46186591578</ele>
        <time>2022-03-19T19:57:28.732Z</time>
      </trkpt>
      <trkpt lat="52.20524" lon="5.85914">
        <ele>54.28381078842</ele>
        <time>2022-03-19T19:57:30.745Z</time>
      </trkpt>
      <trkpt lat="52.20538" lon="5.85926">
        <ele>54.19530244256</ele>
        <time>2022-03-19T19:57:32.761Z</time>
      </trkpt>
      <trkpt lat="52.20561" lon="5.85941">
        <ele>54.17814672477</ele>
        <time>2022-03-19T19:57:34.781Z</time>
      </trkpt>
      <trkpt lat="52.20608" lon="5.8596">
        <ele>54.18055535379</ele>
        <time>2022-03-19T19:57:36.809Z</time>
      </trkpt>
      <trkpt lat="52.20637" lon="5.85974">
        <ele>54.15341312412</ele>
        <time>2022-03-19T19:57:38.841Z</time>
      </trkpt>
      <trkpt lat="52.20661" lon="5.85989">
        <ele>54.11162765212</ele>
        <time>2022-03-19T19:57:40.877Z</time>
      </trkpt>
      <trkpt lat="52.20677" lon="5.86006">
        <ele>54.02226834453</ele>
        <time>2022-03-19T19:57:42.917Z</time>
      </trkpt>
      <trkpt lat="52.20692" lon="5.86029">
        <ele>54.00160718084</ele>
        <time>2022-03-19T19:57:44.960Z</time>
      </trkpt>
      <trkpt lat="52.20743" lon="5.86116">
        <ele>54.08187490337</ele>
        <time>2022-03-19T19:57:47.015Z</time>
      </trkpt>
      <trkpt lat="52.20767" lon="5.86152">
        <ele>53.95868711126</ele>
        <time>2022-03-19T19:57:49.075Z</time>
      </trkpt>
      <trkpt lat="52.20791" lon="5.86183">
        <ele>54.01313722147</ele>
        <time>2022-03-19T19:57:51.140Z</time>
      </trkpt>
      <trkpt lat="52.20809" lon="5.8621">
        <ele>54.12537766107</ele>
        <time>2022-03-19T19:57:53.209Z</time>
      </trkpt>
      <trkpt lat="52.20828" lon="5.86253">
        <ele>54.23765435566</ele>
        <time>2022-03-19T19:57:55.283Z</time>
      </trkpt>
      <trkpt lat="52.20838" lon="5.8628">
        <ele>54.35857715482</ele>
        <time>2022-03-19T19:57:57.360Z</time>
      </trkpt>
      <trkpt lat="52.20846" lon="5.86304">
        <ele>54.5166909538</ele>
        <time>2022-03-19T19:57:59.440Z</time>
      </trkpt>
      <trkpt lat="52.20853" lon="5.86333">
        <ele>54.69690536326</ele>
        <time>2022-03-19T19:58:01.523Z</time>
      </trkpt>
      <trkpt lat="52.20856" lon="5.8637">
        <ele>54.92969981722</ele>
        <time>2022-03-19T19:58:03.610Z</time>
      </trkpt>
      <trkpt lat="52.20852" lon="5.86449">
        <ele>55.25606510616</ele>
        <time>2022-03-19T19:58:05.704Z</time>
      </trkpt>
      <trkpt lat="52.20855" lon="5.86491">
        <ele>55.60583827344</ele>
        <time>2022-03-19T19:58:07.802Z</time>
      </trkpt>
      <trkpt lat="52.20861" lon="5.86521">
        <ele>56.03373673525</ele>
        <time>2022-03-19T19:58:09.904Z</time>
      </trkpt>
      <trkpt lat="52.20871" lon="5.86547">
        <ele>56.55580648197</ele>
        <time>2022-03-19T19:58:12.009Z</time>
      </trkpt>
      <trkpt lat="52.20882" lon="5.86573">
        <ele>57.09448781994</ele>
        <time>2022-03-19T19:58:14.117Z</time>
      </trkpt>
      <trkpt lat="52.20899" lon="5.86599">
        <ele>57.69297034828</ele>
        <time>2022-03-19T19:58:16.228Z</time>
      </trkpt>
      <trkpt lat="52.20903" lon="5.86608">
        <ele>58.39160294552</ele>
        <time>2022-03-19T19:58:18.341Z</time>
      </trkpt>
      <trkpt lat="52.20905" lon="5.86636">
        <ele>59.1734680416</ele>
        <time>2022-03-19T19:58:20.456Z</time>
      </trkpt>
      <trkpt lat="52.20904" lon="5.86734">
        <ele>60.0407226708</ele>
        <time>2022-03-19T19:58:22.581Z</time>
      </trkpt>
      <trkpt lat="52.20907" lon="5.86756">
        <ele>61.01311668272</ele>
        <time>2022-03-19T19:58:24.708Z</time>
      </trkpt>
      <trkpt lat="52.20912" lon="5.86773">
        <ele>62.10351984051</ele>
        <time>2022-03-19T19:58:26.837Z</time>
      </trkpt>
      <trkpt lat="52.20948" lon="5.86856">
        <ele>63.33103015715</ele>
        <time>2022-03-19T19:58:28.976Z</time>
      </trkpt>
      <trkpt lat="52.20998" lon="5.86957">
        <ele>64.78417339321</ele>
        <time>2022-03-19T19:58:31.128Z</time>
      </trkpt>
      <trkpt lat="52.21045" lon="5.87027">
        <ele>66.38519035092</ele>
        <time>2022-03-19T19:58:33.290Z</time>
      </trkpt>
      <trkpt lat="52.21075" lon="5.8706">
        <ele>67.74319435768</ele>
        <time>2022-03-19T19:58:35.458Z</time>
      </trkpt>
      <trkpt lat="52.21092" lon="5.87072">
        <ele>69.2216429142</ele>
        <time>2022-03-19T19:58:37.629Z</time>
      </trkpt>
      <trkpt lat="52.21111" lon="5.87074">
        <ele>70.7596124149</ele>
        <time>2022-03-19T19:58:39.803Z</time>
      </trkpt>
      <trkpt lat="52.21131" lon="5.87074">
        <ele>72.39267877198</ele>
        <time>2022-03-19T19:58:41.980Z</time>
      </trkpt>
      <trkpt lat="52.21145" lon="5.87077">
        <ele>74.0710097187</ele>
        <time>2022-03-19T19:58:44.159Z</time>
      </trkpt>
      <trkpt lat="52.21192000016" lon="5.871044997">
        <ele>75.89992509845</ele>
        <time>2022-03-19T19:58:46.346Z</time>
      </trkpt>
      <trkpt lat="52.21239" lon="5.87132">
        <ele>77.74541790011</ele>
        <time>2022-03-19T19:58:48.541Z</time>
      </trkpt>
      <trkpt lat="52.21261" lon="5.87151">
        <ele>79.57802494262</ele>
        <time>2022-03-19T19:58:50.740Z</time>
      </trkpt>
      <trkpt lat="52.21277" lon="5.87178">
        <ele>81.39823038766</ele>
        <time>2022-03-19T19:58:52.943Z</time>
      </trkpt>
      <trkpt lat="52.21303000171" lon="5.8724099964">
        <ele>83.18307588797</ele>
        <time>2022-03-19T19:58:55.153Z</time>
      </trkpt>
      <trkpt lat="52.21329" lon="5.87304">
        <ele>84.76083343096</ele>
        <time>2022-03-19T19:58:57.371Z</time>
      </trkpt>
      <trkpt lat="52.21342" lon="5.87324">
        <ele>86.17861479525</ele>
        <time>2022-03-19T19:58:59.592Z</time>
      </trkpt>
      <trkpt lat="52.21352" lon="5.87336">
        <ele>87.46971439723</ele>
        <time>2022-03-19T19:59:01.815Z</time>
      </trkpt>
      <trkpt lat="52.21376" lon="5.87356">
        <ele>88.70300332988</ele>
        <time>2022-03-19T19:59:04.042Z</time>
      </trkpt>
      <trkpt lat="52.21397" lon="5.87368">
        <ele>89.75267654761</ele>
        <time>2022-03-19T19:59:06.273Z</time>
      </trkpt>
      <trkpt lat="52.21419" lon="5.87376">
        <ele>90.62136040811</ele>
        <time>2022-03-19T19:59:08.507Z</time>
      </trkpt>
      <trkpt lat="52.2145" lon="5.87381">
        <ele>91.32289421128</ele>
        <time>2022-03-19T19:59:10.746Z</time>
      </trkpt>
      <trkpt lat="52.21469" lon="5.87381">
        <ele>91.89936947415</ele>
        <time>2022-03-19T19:59:12.988Z</time>
      </trkpt>
      <trkpt lat="52.21489" lon="5.87377">
        <ele>92.35251950521</ele>
        <time>2022-03-19T19:59:15.234Z</time>
      </trkpt>
      <trkpt lat="52.21570500048" lon="5.87342000644">
        <ele>92.80451259334</ele>
        <time>2022-03-19T19:59:17.493Z</time>
      </trkpt>
      <trkpt lat="52.21652" lon="5.87307">
        <ele>92.97468359212</ele>
        <time>2022-03-19T19:59:19.766Z</time>
      </trkpt>
      <trkpt lat="52.21694" lon="5.87295">
        <ele>92.96334096333</ele>
        <time>2022-03-19T19:59:22.045Z</time>
      </trkpt>
      <trkpt lat="52.21739" lon="5.87291">
        <ele>92.95207264849</ele>
        <time>2022-03-19T19:59:24.332Z</time>
      </trkpt>
      <trkpt lat="52.21779" lon="5.87291">
        <ele>92.75747090522</ele>
        <time>2022-03-19T19:59:26.625Z</time>
      </trkpt>
      <trkpt lat="52.21778" lon="5.87291">
        <ele>92.60125850906</ele>
        <time>2022-03-19T19:59:28.918Z</time>
      </trkpt>
      <trkpt lat="52.21804" lon="5.87292">
        <ele>92.27483207962</ele>
        <time>2022-03-19T19:59:31.215Z</time>
      </trkpt>
      <trkpt lat="52.21805" lon="5.87292">
        <ele>92.02378591748</ele>
        <time>2022-03-19T19:59:33.513Z</time>
      </trkpt>
      <trkpt lat="52.21818" lon="5.87296">
        <ele>91.72277558144</ele>
        <time>2022-03-19T19:59:35.813Z</time>
      </trkpt>
      <trkpt lat="52.21832" lon="5.87305">
        <ele>91.44086149538</ele>
        <time>2022-03-19T19:59:38.115Z</time>
      </trkpt>
      <trkpt lat="52.21841" lon="5.87318">
        <ele>91.18476216007</ele>
        <time>2022-03-19T19:59:40.419Z</time>
      </trkpt>
      <trkpt lat="52.21841" lon="5.87319">
        <ele>90.91959507623</ele>
        <time>2022-03-19T19:59:42.723Z</time>
      </trkpt>
      <trkpt lat="52.21847" lon="5.87335">
        <ele>90.68891364547</ele>
        <time>2022-03-19T19:59:45.029Z</time>
      </trkpt>
      <trkpt lat="52.21847" lon="5.87334">
        <ele>90.47171831257</ele>
        <time>2022-03-19T19:59:47.335Z</time>
      </trkpt>
      <trkpt lat="52.21855" lon="5.8738">
        <ele>90.38335530609</ele>
        <time>2022-03-19T19:59:49.646Z</time>
      </trkpt>
      <trkpt lat="52.21863" lon="5.87526">
        <ele>90.45093801942</ele>
        <time>2022-03-19T19:59:51.971Z</time>
      </trkpt>
      <trkpt lat="52.21864" lon="5.87663">
        <ele>90.14233961898</ele>
        <time>2022-03-19T19:59:54.310Z</time>
      </trkpt>
      <trkpt lat="52.21868" lon="5.87702">
        <ele>90.01990626437</ele>
        <time>2022-03-19T19:59:56.653Z</time>
      </trkpt>
      <trkpt lat="52.2188" lon="5.87774">
        <ele>90.05467603706</ele>
        <time>2022-03-19T19:59:59.003Z</time>
      </trkpt>
      <trkpt lat="52.21884" lon="5.87789">
        <ele>90.13027563356</ele>
        <time>2022-03-19T20:00:01.354Z</time>
      </trkpt>
      <trkpt lat="52.21889" lon="5.87812">
        <ele>90.22209898733</ele>
        <time>2022-03-19T20:00:03.708Z</time>
      </trkpt>
      <trkpt lat="52.21902" lon="5.87833">
        <ele>90.37053207402</ele>
        <time>2022-03-19T20:00:06.065Z</time>
      </trkpt>
      <trkpt lat="52.21918" lon="5.87878">
        <ele>90.71506825212</ele>
        <time>2022-03-19T20:00:08.427Z</time>
      </trkpt>
      <trkpt lat="52.21923" lon="5.879">
        <ele>91.06882559019</ele>
        <time>2022-03-19T20:00:10.791Z</time>
      </trkpt>
      <trkpt lat="52.2193" lon="5.87999">
        <ele>91.77510198333</ele>
        <time>2022-03-19T20:00:13.165Z</time>
      </trkpt>
      <trkpt lat="52.21943" lon="5.88065">
        <ele>91.98487120749</ele>
        <time>2022-03-19T20:00:15.546Z</time>
      </trkpt>
      <trkpt lat="52.22021" lon="5.88035">
        <ele>91.87364268874</ele>
        <time>2022-03-19T20:00:17.940Z</time>
      </trkpt>
      <trkpt lat="52.22093500007" lon="5.88013000363">
        <ele>92.33796294439</ele>
        <time>2022-03-19T20:00:20.346Z</time>
      </trkpt>
      <trkpt lat="52.22166" lon="5.87991">
        <ele>92.82993983784</ele>
        <time>2022-03-19T20:00:22.763Z</time>
      </trkpt>
      <trkpt lat="52.22223000097" lon="5.87942000633">
        <ele>93.59057078813</ele>
        <time>2022-03-19T20:00:25.191Z</time>
      </trkpt>
      <trkpt lat="52.2228" lon="5.87893">
        <ele>94.5014649616</ele>
        <time>2022-03-19T20:00:27.629Z</time>
      </trkpt>
      <trkpt lat="52.22296" lon="5.87881">
        <ele>95.34032386068</ele>
        <time>2022-03-19T20:00:30.070Z</time>
      </trkpt>
      <trkpt lat="52.22363000182" lon="5.87817000957">
        <ele>96.35915795035</ele>
        <time>2022-03-19T20:00:32.523Z</time>
      </trkpt>
      <trkpt lat="52.2243" lon="5.87753">
        <ele>97.45892182878</ele>
        <time>2022-03-19T20:00:34.989Z</time>
      </trkpt>
      <trkpt lat="52.22446" lon="5.87736">
        <ele>98.39828868356</ele>
        <time>2022-03-19T20:00:37.458Z</time>
      </trkpt>
      <trkpt lat="52.22489" lon="5.87675">
        <ele>99.43339997543</ele>
        <time>2022-03-19T20:00:39.936Z</time>
      </trkpt>
      <trkpt lat="52.22525" lon="5.8762">
        <ele>100.50245542164</ele>
        <time>2022-03-19T20:00:42.422Z</time>
      </trkpt>
      <trkpt lat="52.22553" lon="5.8756">
        <ele>101.62044170035</ele>
        <time>2022-03-19T20:00:44.915Z</time>
      </trkpt>
      <trkpt lat="52.2257" lon="5.87514">
        <ele>102.57962387131</ele>
        <time>2022-03-19T20:00:47.414Z</time>
      </trkpt>
      <trkpt lat="52.22593500196" lon="5.87446500348">
        <ele>103.45755615057</ele>
        <time>2022-03-19T20:00:49.920Z</time>
      </trkpt>
      <trkpt lat="52.22617" lon="5.87379">
        <ele>104.42153917715</ele>
        <time>2022-03-19T20:00:52.434Z</time>
      </trkpt>
      <trkpt lat="52.22652000291" lon="5.87296500642">
        <ele>105.58647341502</ele>
        <time>2022-03-19T20:00:54.958Z</time>
      </trkpt>
      <trkpt lat="52.22687" lon="5.87214">
        <ele>106.56036607275</ele>
        <time>2022-03-19T20:00:57.492Z</time>
      </trkpt>
      <trkpt lat="52.22727500238" lon="5.87141000642">
        <ele>107.38392593859</ele>
        <time>2022-03-19T20:01:00.035Z</time>
      </trkpt>
      <trkpt lat="52.22768" lon="5.87068">
        <ele>108.03732672903</ele>
        <time>2022-03-19T20:01:02.588Z</time>
      </trkpt>
      <trkpt lat="52.2278" lon="5.87052">
        <ele>108.68794552503</ele>
        <time>2022-03-19T20:01:05.143Z</time>
      </trkpt>
      <trkpt lat="52.22786" lon="5.87044">
        <ele>109.18423848328</ele>
        <time>2022-03-19T20:01:07.700Z</time>
      </trkpt>
      <trkpt lat="52.22852000369" lon="5.86950001404">
        <ele>109.52299094949</ele>
        <time>2022-03-19T20:01:10.271Z</time>
      </trkpt>
      <trkpt lat="52.22918" lon="5.86856">
        <ele>109.61113536774</ele>
        <time>2022-03-19T20:01:12.856Z</time>
      </trkpt>
      <trkpt lat="52.2297" lon="5.86778">
        <ele>109.82529308572</ele>
        <time>2022-03-19T20:01:15.452Z</time>
      </trkpt>
      <trkpt lat="52.23005500143" lon="5.86721000446">
        <ele>109.98724640881</ele>
        <time>2022-03-19T20:01:18.056Z</time>
      </trkpt>
      <trkpt lat="52.23041" lon="5.86664">
        <ele>110.01514188742</ele>
        <time>2022-03-19T20:01:20.668Z</time>
      </trkpt>
      <trkpt lat="52.23081" lon="5.86593">
        <ele>109.99933605717</ele>
        <time>2022-03-19T20:01:23.289Z</time>
      </trkpt>
      <trkpt lat="52.23109" lon="5.86534">
        <ele>109.7829154042</ele>
        <time>2022-03-19T20:01:25.918Z</time>
      </trkpt>
      <trkpt lat="52.23146500288" lon="5.86451000708">
        <ele>109.46663150422</ele>
        <time>2022-03-19T20:01:28.557Z</time>
      </trkpt>
      <trkpt lat="52.23184" lon="5.86368">
        <ele>109.33208699751</ele>
        <time>2022-03-19T20:01:31.206Z</time>
      </trkpt>
      <trkpt lat="52.23214" lon="5.8629">
        <ele>109.14995347886</ele>
        <time>2022-03-19T20:01:33.864Z</time>
      </trkpt>
      <trkpt lat="52.23214" lon="5.86279">
        <ele>108.90414600105</ele>
        <time>2022-03-19T20:01:36.523Z</time>
      </trkpt>
      <trkpt lat="52.2322" lon="5.86279">
        <ele>108.61727712328</ele>
        <time>2022-03-19T20:01:39.183Z</time>
      </trkpt>
      <trkpt lat="52.23231" lon="5.86275">
        <ele>108.30674400712</ele>
        <time>2022-03-19T20:01:41.845Z</time>
      </trkpt>
      <trkpt lat="52.23231" lon="5.86274">
        <ele>108.0140889067</ele>
        <time>2022-03-19T20:01:44.507Z</time>
      </trkpt>
      <trkpt lat="52.23229" lon="5.86259">
        <ele>107.72322692819</ele>
        <time>2022-03-19T20:01:47.171Z</time>
      </trkpt>
      <trkpt lat="52.23225" lon="5.86258">
        <ele>107.43834864417</ele>
        <time>2022-03-19T20:01:49.835Z</time>
      </trkpt>
      <trkpt lat="52.23239" lon="5.86254">
        <ele>107.12220602482</ele>
        <time>2022-03-19T20:01:52.502Z</time>
      </trkpt>
      <trkpt lat="52.2324" lon="5.86255">
        <ele>106.83926427645</ele>
        <time>2022-03-19T20:01:55.169Z</time>
      </trkpt>
      <trkpt lat="52.23223" lon="5.86162">
        <ele>106.56971872047</ele>
        <time>2022-03-19T20:01:57.845Z</time>
      </trkpt>
      <trkpt lat="52.23198" lon="5.86046">
        <ele>106.30325628373</ele>
        <time>2022-03-19T20:02:00.533Z</time>
      </trkpt>
      <trkpt lat="52.23164002972" lon="5.85913395938">
        <ele>106.17106024724</ele>
        <time>2022-03-19T20:02:03.235Z</time>
      </trkpt>
      <trkpt lat="52.23130004457" lon="5.85780793907">
        <ele>106.08048892174</ele>
        <time>2022-03-19T20:02:05.952Z</time>
      </trkpt>
      <trkpt lat="52.23096004457" lon="5.85648193907">
        <ele>105.59534691516</ele>
        <time>2022-03-19T20:02:08.683Z</time>
      </trkpt>
      <trkpt lat="52.23062002972" lon="5.85515595939">
        <ele>105.2855388576</ele>
        <time>2022-03-19T20:02:11.428Z</time>
      </trkpt>
      <trkpt lat="52.23028" lon="5.85383">
        <ele>104.75178342784</ele>
        <time>2022-03-19T20:02:14.187Z</time>
      </trkpt>
      <trkpt lat="52.22997003" lon="5.85263829174">
        <ele>104.91404765103</ele>
        <time>2022-03-19T20:02:16.959Z</time>
      </trkpt>
      <trkpt lat="52.22966004801" lon="5.85144660013">
        <ele>104.88874100363</ele>
        <time>2022-03-19T20:02:19.744Z</time>
      </trkpt>
      <trkpt lat="52.22935005401" lon="5.85025492516">
        <ele>104.8292536566</ele>
        <time>2022-03-19T20:02:22.541Z</time>
      </trkpt>
      <trkpt lat="52.22904004802" lon="5.84906326683">
        <ele>104.9691554971</ele>
        <time>2022-03-19T20:02:25.351Z</time>
      </trkpt>
      <trkpt lat="52.22873003002" lon="5.84787162514">
        <ele>104.8248050635</ele>
        <time>2022-03-19T20:02:28.174Z</time>
      </trkpt>
      <trkpt lat="52.22842" lon="5.84668">
        <ele>104.66930586848</ele>
        <time>2022-03-19T20:02:31.009Z</time>
      </trkpt>
      <trkpt lat="52.2281650036" lon="5.8457599948">
        <ele>104.68031084099</ele>
        <time>2022-03-19T20:02:33.854Z</time>
      </trkpt>
      <trkpt lat="52.22791" lon="5.84484">
        <ele>104.76215798461</ele>
        <time>2022-03-19T20:02:36.709Z</time>
      </trkpt>
      <trkpt lat="52.22761500311" lon="5.84397999425">
        <ele>104.53788435974</ele>
        <time>2022-03-19T20:02:39.574Z</time>
      </trkpt>
      <trkpt lat="52.22732" lon="5.84312">
        <ele>104.62322694996</ele>
        <time>2022-03-19T20:02:42.449Z</time>
      </trkpt>
      <trkpt lat="52.22697667615" lon="5.84205998356">
        <ele>104.57745637487</ele>
        <time>2022-03-19T20:02:45.335Z</time>
      </trkpt>
      <trkpt lat="52.2266333428" lon="5.84099998352">
        <ele>104.39383522988</ele>
        <time>2022-03-19T20:02:48.233Z</time>
      </trkpt>
      <trkpt lat="52.22629" lon="5.83994">
        <ele>104.13383715169</ele>
        <time>2022-03-19T20:02:51.143Z</time>
      </trkpt>
      <trkpt lat="52.22607500218" lon="5.83921499634">
        <ele>103.76021800855</ele>
        <time>2022-03-19T20:02:54.061Z</time>
      </trkpt>
      <trkpt lat="52.22586" lon="5.83849">
        <ele>103.37044622315</ele>
        <time>2022-03-19T20:02:56.987Z</time>
      </trkpt>
      <trkpt lat="52.22554" lon="5.83751">
        <ele>102.96977907844</ele>
        <time>2022-03-19T20:02:59.924Z</time>
      </trkpt>
      <trkpt lat="52.22575" lon="5.83747">
        <ele>102.44759224464</ele>
        <time>2022-03-19T20:03:02.864Z</time>
      </trkpt>
      <trkpt lat="52.22585" lon="5.83743">
        <ele>101.86840608962</ele>
        <time>2022-03-19T20:03:05.806Z</time>
      </trkpt>
      <trkpt lat="52.22625" lon="5.83699">
        <ele>101.20711370479</ele>
        <time>2022-03-19T20:03:08.756Z</time>
      </trkpt>
      <trkpt lat="52.22686000337" lon="5.83611001195">
        <ele>100.20312588955</ele>
        <time>2022-03-19T20:03:11.719Z</time>
      </trkpt>
      <trkpt lat="52.22747" lon="5.83523">
        <ele>99.25422310094</ele>
        <time>2022-03-19T20:03:14.695Z</time>
      </trkpt>
      <trkpt lat="52.22779" lon="5.83486">
        <ele>98.38729322977</ele>
        <time>2022-03-19T20:03:17.677Z</time>
      </trkpt>
      <trkpt lat="52.22791" lon="5.83476">
        <ele>97.53769814802</ele>
        <time>2022-03-19T20:03:20.661Z</time>
      </trkpt>
      <trkpt lat="52.2282" lon="5.83457">
        <ele>96.66130107941</ele>
        <time>2022-03-19T20:03:23.650Z</time>
      </trkpt>
      <trkpt lat="52.2289716696" lon="5.83419836563">
        <ele>95.63800496431</ele>
        <time>2022-03-19T20:03:26.652Z</time>
      </trkpt>
      <trkpt lat="52.22974333803" lon="5.83382671834">
        <ele>94.56999399331</ele>
        <time>2022-03-19T20:03:29.667Z</time>
      </trkpt>
      <trkpt lat="52.23051500529" lon="5.83345505812">
        <ele>93.69401320577</ele>
        <time>2022-03-19T20:03:32.695Z</time>
      </trkpt>
      <trkpt lat="52.23128667139" lon="5.83308338499">
        <ele>92.71463230645</ele>
        <time>2022-03-19T20:03:35.736Z</time>
      </trkpt>
      <trkpt lat="52.23205833632" lon="5.83271169894">
        <ele>91.90980586583</ele>
        <time>2022-03-19T20:03:38.790Z</time>
      </trkpt>
      <trkpt lat="52.23283" lon="5.83234">
        <ele>91.32169605718</ele>
        <time>2022-03-19T20:03:41.857Z</time>
      </trkpt>
      <trkpt lat="52.23342" lon="5.832">
        <ele>90.5899135121</ele>
        <time>2022-03-19T20:03:44.934Z</time>
      </trkpt>
      <trkpt lat="52.23363" lon="5.83185">
        <ele>89.65866318527</ele>
        <time>2022-03-19T20:03:48.014Z</time>
      </trkpt>
      <trkpt lat="52.23396" lon="5.8315">
        <ele>88.73281360874</ele>
        <time>2022-03-19T20:03:51.101Z</time>
      </trkpt>
      <trkpt lat="52.2346750009" lon="5.83105000722">
        <ele>88.1436011892</ele>
        <time>2022-03-19T20:03:54.200Z</time>
      </trkpt>
      <trkpt lat="52.23539" lon="5.8306">
        <ele>87.0802617589</ele>
        <time>2022-03-19T20:03:57.311Z</time>
      </trkpt>
      <trkpt lat="52.2360850007" lon="5.8301750067">
        <ele>86.4179253601</ele>
        <time>2022-03-19T20:04:00.434Z</time>
      </trkpt>
      <trkpt lat="52.23678" lon="5.82975">
        <ele>85.66184559613</ele>
        <time>2022-03-19T20:04:03.569Z</time>
      </trkpt>
      <trkpt lat="52.23707" lon="5.8296">
        <ele>85.04737295454</ele>
        <time>2022-03-19T20:04:06.709Z</time>
      </trkpt>
      <trkpt lat="52.2377125018" lon="5.8292225164">
        <ele>84.37505437515</ele>
        <time>2022-03-19T20:04:09.860Z</time>
      </trkpt>
      <trkpt lat="52.2383550024" lon="5.82884502187">
        <ele>83.56613773853</ele>
        <time>2022-03-19T20:04:13.022Z</time>
      </trkpt>
      <trkpt lat="52.23899750179" lon="5.82846751641">
        <ele>82.9531864851</ele>
        <time>2022-03-19T20:04:16.195Z</time>
      </trkpt>
      <trkpt lat="52.23964" lon="5.82809">
        <ele>82.12591526486</ele>
        <time>2022-03-19T20:04:19.379Z</time>
      </trkpt>
      <trkpt lat="52.24044" lon="5.8276">
        <ele>81.34141799115</ele>
        <time>2022-03-19T20:04:22.576Z</time>
      </trkpt>
      <trkpt lat="52.24071" lon="5.8273">
        <ele>80.57168859113</ele>
        <time>2022-03-19T20:04:25.778Z</time>
      </trkpt>
      <trkpt lat="52.241" lon="5.82679">
        <ele>79.79705564376</ele>
        <time>2022-03-19T20:04:28.987Z</time>
      </trkpt>
      <trkpt lat="52.24119" lon="5.82651">
        <ele>78.93408462137</ele>
        <time>2022-03-19T20:04:32.200Z</time>
      </trkpt>
      <trkpt lat="52.24145" lon="5.8263">
        <ele>78.03942655774</ele>
        <time>2022-03-19T20:04:35.418Z</time>
      </trkpt>
      <trkpt lat="52.24194" lon="5.8263">
        <ele>77.11574548381</ele>
        <time>2022-03-19T20:04:38.644Z</time>
      </trkpt>
      <trkpt lat="52.24237" lon="5.82609">
        <ele>76.21510807956</ele>
        <time>2022-03-19T20:04:41.877Z</time>
      </trkpt>
      <trkpt lat="52.2428" lon="5.82578">
        <ele>75.23880295145</ele>
        <time>2022-03-19T20:04:45.118Z</time>
      </trkpt>
      <trkpt lat="52.24354" lon="5.82507">
        <ele>74.22470282377</ele>
        <time>2022-03-19T20:04:48.372Z</time>
      </trkpt>
      <trkpt lat="52.24404000134" lon="5.82453500589">
        <ele>73.18343545457</ele>
        <time>2022-03-19T20:04:51.636Z</time>
      </trkpt>
      <trkpt lat="52.24454" lon="5.824">
        <ele>72.07998997201</ele>
        <time>2022-03-19T20:04:54.910Z</time>
      </trkpt>
      <trkpt lat="52.24461" lon="5.82388">
        <ele>71.01537078506</ele>
        <time>2022-03-19T20:04:58.185Z</time>
      </trkpt>
      <trkpt lat="52.24485" lon="5.82361">
        <ele>69.85770390782</ele>
        <time>2022-03-19T20:05:01.465Z</time>
      </trkpt>
      <trkpt lat="52.24529000087" lon="5.82318000417">
        <ele>68.77195247705</ele>
        <time>2022-03-19T20:05:04.753Z</time>
      </trkpt>
      <trkpt lat="52.24573" lon="5.82275">
        <ele>67.46629640073</ele>
        <time>2022-03-19T20:05:08.049Z</time>
      </trkpt>
      <trkpt lat="52.24609" lon="5.82234">
        <ele>66.22521164104</ele>
        <time>2022-03-19T20:05:11.352Z</time>
      </trkpt>
      <trkpt lat="52.24651" lon="5.82181">
        <ele>64.9392905525</ele>
        <time>2022-03-19T20:05:14.664Z</time>
      </trkpt>
      <trkpt lat="52.24655" lon="5.82176">
        <ele>63.69503724652</ele>
        <time>2022-03-19T20:05:17.977Z</time>
      </trkpt>
      <trkpt lat="52.24687" lon="5.82134">
        <ele>62.11618150585</ele>
        <time>2022-03-19T20:05:21.296Z</time>
      </trkpt>
      <trkpt lat="52.24719500133" lon="5.82078500401">
        <ele>60.67255701468</ele>
        <time>2022-03-19T20:05:24.623Z</time>
      </trkpt>
      <trkpt lat="52.24752" lon="5.82023">
        <ele>59.43840654354</ele>
        <time>2022-03-19T20:05:27.957Z</time>
      </trkpt>
      <trkpt lat="52.24793" lon="5.8194">
        <ele>58.33658718375</ele>
        <time>2022-03-19T20:05:31.302Z</time>
      </trkpt>
      <trkpt lat="52.24829" lon="5.81853">
        <ele>57.14506539523</ele>
        <time>2022-03-19T20:05:34.657Z</time>
      </trkpt>
      <trkpt lat="52.2486" lon="5.81769">
        <ele>55.84001381419</ele>
        <time>2022-03-19T20:05:38.022Z</time>
      </trkpt>
      <trkpt lat="52.24901894216" lon="5.81643453929">
        <ele>54.4491517323</ele>
        <time>2022-03-19T20:05:41.401Z</time>
      </trkpt>
      <trkpt lat="52.24943787101" lon="5.81517905486">
        <ele>53.29309481611</ele>
        <time>2022-03-19T20:05:44.794Z</time>
      </trkpt>
      <trkpt lat="52.24985678653" lon="5.81392354673">
        <ele>52.29437483174</ele>
        <time>2022-03-19T20:05:48.201Z</time>
      </trkpt>
      <trkpt lat="52.25027568874" lon="5.81266801488">
        <ele>51.16281224207</ele>
        <time>2022-03-19T20:05:51.622Z</time>
      </trkpt>
      <trkpt lat="52.25069457763" lon="5.81141245933">
        <ele>50.34494954587</ele>
        <time>2022-03-19T20:05:55.057Z</time>
      </trkpt>
      <trkpt lat="52.25111345321" lon="5.81015688006">
        <ele>49.32925812394</ele>
        <time>2022-03-19T20:05:58.506Z</time>
      </trkpt>
      <trkpt lat="52.25153231546" lon="5.80890127708">
        <ele>48.15231008709</ele>
        <time>2022-03-19T20:06:01.969Z</time>
      </trkpt>
      <trkpt lat="52.25195116439" lon="5.80764565039">
        <ele>47.13094014707</ele>
        <time>2022-03-19T20:06:05.446Z</time>
      </trkpt>
      <trkpt lat="52.25237" lon="5.80639">
        <ele>46.53439670401</ele>
        <time>2022-03-19T20:06:08.937Z</time>
      </trkpt>
      <trkpt lat="52.25242" lon="5.80598">
        <ele>45.92924926648</ele>
        <time>2022-03-19T20:06:12.432Z</time>
      </trkpt>
      <trkpt lat="52.25263" lon="5.80524">
        <ele>45.38150261012</ele>
        <time>2022-03-19T20:06:15.935Z</time>
      </trkpt>
      <trkpt lat="52.2530416994" lon="5.80399505778">
        <ele>44.76721930744</ele>
        <time>2022-03-19T20:06:19.452Z</time>
      </trkpt>
      <trkpt lat="52.25345338571" lon="5.80275009245">
        <ele>44.36077100063</ele>
        <time>2022-03-19T20:06:22.983Z</time>
      </trkpt>
      <trkpt lat="52.25386505892" lon="5.80150510401">
        <ele>43.79574883657</ele>
        <time>2022-03-19T20:06:26.528Z</time>
      </trkpt>
      <trkpt lat="52.25427671904" lon="5.80026009246">
        <ele>43.10196450011</ele>
        <time>2022-03-19T20:06:30.087Z</time>
      </trkpt>
      <trkpt lat="52.25468836606" lon="5.7990150578">
        <ele>42.5350017203</ele>
        <time>2022-03-19T20:06:33.660Z</time>
      </trkpt>
      <trkpt lat="52.2551" lon="5.79777">
        <ele>41.90037155634</ele>
        <time>2022-03-19T20:06:37.247Z</time>
      </trkpt>
      <trkpt lat="52.25535000239" lon="5.79700000468">
        <ele>41.4185292447</ele>
        <time>2022-03-19T20:06:40.842Z</time>
      </trkpt>
      <trkpt lat="52.2556" lon="5.79623">
        <ele>40.88964136912</ele>
        <time>2022-03-19T20:06:44.446Z</time>
      </trkpt>
      <trkpt lat="52.2558" lon="5.79553">
        <ele>40.48672339704</ele>
        <time>2022-03-19T20:06:48.058Z</time>
      </trkpt>
      <trkpt lat="52.25592" lon="5.795">
        <ele>40.14368121527</ele>
        <time>2022-03-19T20:06:51.675Z</time>
      </trkpt>
      <trkpt lat="52.25597" lon="5.7949">
        <ele>39.7335612117</ele>
        <time>2022-03-19T20:06:55.293Z</time>
      </trkpt>
      <trkpt lat="52.25619" lon="5.79468">
        <ele>39.23144280228</ele>
        <time>2022-03-19T20:06:58.916Z</time>
      </trkpt>
      <trkpt lat="52.25626" lon="5.79454">
        <ele>38.80042047171</ele>
        <time>2022-03-19T20:07:02.540Z</time>
      </trkpt>
      <trkpt lat="52.2566" lon="5.79349">
        <ele>38.29192025771</ele>
        <time>2022-03-19T20:07:06.176Z</time>
      </trkpt>
      <trkpt lat="52.25664" lon="5.79346">
        <ele>37.9670610577</ele>
        <time>2022-03-19T20:07:09.813Z</time>
      </trkpt>
      <trkpt lat="52.25695" lon="5.79237">
        <ele>37.74455504154</ele>
        <time>2022-03-19T20:07:13.462Z</time>
      </trkpt>
      <trkpt lat="52.25698" lon="5.79189">
        <ele>37.38086895719</ele>
        <time>2022-03-19T20:07:17.115Z</time>
      </trkpt>
      <trkpt lat="52.25695" lon="5.79162">
        <ele>37.08761397565</ele>
        <time>2022-03-19T20:07:20.771Z</time>
      </trkpt>
      <trkpt lat="52.25689" lon="5.79131">
        <ele>36.81099884383</ele>
        <time>2022-03-19T20:07:24.430Z</time>
      </trkpt>
      <trkpt lat="52.25650500611" lon="5.79010998966">
        <ele>36.66048130973</ele>
        <time>2022-03-19T20:07:28.102Z</time>
      </trkpt>
      <trkpt lat="52.25612" lon="5.78891">
        <ele>36.57603649584</ele>
        <time>2022-03-19T20:07:31.788Z</time>
      </trkpt>
      <trkpt lat="52.25609" lon="5.78868">
        <ele>36.33273417547</ele>
        <time>2022-03-19T20:07:35.476Z</time>
      </trkpt>
      <trkpt lat="52.25611" lon="5.78849">
        <ele>36.12404144213</ele>
        <time>2022-03-19T20:07:39.166Z</time>
      </trkpt>
      <trkpt lat="52.25627" lon="5.78749">
        <ele>35.83240634976</ele>
        <time>2022-03-19T20:07:42.866Z</time>
      </trkpt>
      <trkpt lat="52.25629" lon="5.78721">
        <ele>35.6332728928</ele>
        <time>2022-03-19T20:07:46.569Z</time>
      </trkpt>
      <trkpt lat="52.2563" lon="5.78695">
        <ele>35.4065327286</ele>
        <time>2022-03-19T20:07:50.274Z</time>
      </trkpt>
      <trkpt lat="52.25628" lon="5.78636">
        <ele>35.26625056665</ele>
        <time>2022-03-19T20:07:53.985Z</time>
      </trkpt>
      <trkpt lat="52.25629" lon="5.78604">
        <ele>35.1583636551</ele>
        <time>2022-03-19T20:07:57.699Z</time>
      </trkpt>
      <trkpt lat="52.25636" lon="5.78586">
        <ele>35.00754082826</ele>
        <time>2022-03-19T20:08:01.416Z</time>
      </trkpt>
      <trkpt lat="52.25643" lon="5.78576">
        <ele>34.87703507371</ele>
        <time>2022-03-19T20:08:05.134Z</time>
      </trkpt>
      <trkpt lat="52.25665" lon="5.78556">
        <ele>34.76195666613</ele>
        <time>2022-03-19T20:08:08.856Z</time>
      </trkpt>
      <trkpt lat="52.25672" lon="5.78545">
        <ele>34.66533885865</ele>
        <time>2022-03-19T20:08:12.580Z</time>
      </trkpt>
      <trkpt lat="52.25687" lon="5.78516">
        <ele>34.59085670812</ele>
        <time>2022-03-19T20:08:16.307Z</time>
      </trkpt>
      <trkpt lat="52.25714" lon="5.78403">
        <ele>34.48145798862</ele>
        <time>2022-03-19T20:08:20.046Z</time>
      </trkpt>
      <trkpt lat="52.2573" lon="5.78317">
        <ele>34.33284421557</ele>
        <time>2022-03-19T20:08:23.794Z</time>
      </trkpt>
      <trkpt lat="52.25762" lon="5.78255">
        <ele>34.35729137003</ele>
        <time>2022-03-19T20:08:27.550Z</time>
      </trkpt>
      <trkpt lat="52.2581" lon="5.78311">
        <ele>34.39995259759</ele>
        <time>2022-03-19T20:08:31.316Z</time>
      </trkpt>
      <trkpt lat="52.25872" lon="5.78369">
        <ele>34.4780089828</ele>
        <time>2022-03-19T20:08:35.093Z</time>
      </trkpt>
      <trkpt lat="52.25886" lon="5.78378">
        <ele>34.6548192204</ele>
        <time>2022-03-19T20:08:38.872Z</time>
      </trkpt>
      <trkpt lat="52.25909" lon="5.78387">
        <ele>34.92814554017</ele>
        <time>2022-03-19T20:08:42.655Z</time>
      </trkpt>
      <trkpt lat="52.25946" lon="5.78398">
        <ele>35.32979890508</ele>
        <time>2022-03-19T20:08:46.444Z</time>
      </trkpt>
      <trkpt lat="52.25988" lon="5.78406">
        <ele>35.61446032343</ele>
        <time>2022-03-19T20:08:50.240Z</time>
      </trkpt>
      <trkpt lat="52.26053333343" lon="5.78415333059">
        <ele>35.94000774537</ele>
        <time>2022-03-19T20:08:54.047Z</time>
      </trkpt>
      <trkpt lat="52.26118666679" lon="5.78424666392">
        <ele>36.30797826326</ele>
        <time>2022-03-19T20:08:57.864Z</time>
      </trkpt>
      <trkpt lat="52.26184" lon="5.78434">
        <ele>36.70646655393</ele>
        <time>2022-03-19T20:09:01.692Z</time>
      </trkpt>
      <trkpt lat="52.26269700054" lon="5.7844589793">
        <ele>37.29894061946</ele>
        <time>2022-03-19T20:09:05.533Z</time>
      </trkpt>
      <trkpt lat="52.26355400096" lon="5.7845779632">
        <ele>37.80971805131</ele>
        <time>2022-03-19T20:09:09.388Z</time>
      </trkpt>
      <trkpt lat="52.26441100125" lon="5.7846969517">
        <ele>38.30087794543</ele>
        <time>2022-03-19T20:09:13.257Z</time>
      </trkpt>
      <trkpt lat="52.26526800143" lon="5.7848159448">
        <ele>38.98555987129</ele>
        <time>2022-03-19T20:09:17.140Z</time>
      </trkpt>
      <trkpt lat="52.26612500149" lon="5.7849349425">
        <ele>39.66469090898</ele>
        <time>2022-03-19T20:09:21.036Z</time>
      </trkpt>
      <trkpt lat="52.26698200143" lon="5.78505394479">
        <ele>40.1963009887</ele>
        <time>2022-03-19T20:09:24.946Z</time>
      </trkpt>
      <trkpt lat="52.26783900125" lon="5.78517295169">
        <ele>40.81053339024</ele>
        <time>2022-03-19T20:09:28.870Z</time>
      </trkpt>
      <trkpt lat="52.26869600095" lon="5.78529196319">
        <ele>41.41029462764</ele>
        <time>2022-03-19T20:09:32.808Z</time>
      </trkpt>
      <trkpt lat="52.26955300053" lon="5.7854109793">
        <ele>41.63889642718</ele>
        <time>2022-03-19T20:09:36.760Z</time>
      </trkpt>
      <trkpt lat="52.27041" lon="5.78553">
        <ele>41.75252488168</ele>
        <time>2022-03-19T20:09:40.725Z</time>
      </trkpt>
      <trkpt lat="52.27053" lon="5.78558">
        <ele>41.97821810455</ele>
        <time>2022-03-19T20:09:44.692Z</time>
      </trkpt>
      <trkpt lat="52.2708" lon="5.78585">
        <ele>42.20075377409</ele>
        <time>2022-03-19T20:09:48.664Z</time>
      </trkpt>
      <trkpt lat="52.27094" lon="5.78591">
        <ele>42.38862801904</ele>
        <time>2022-03-19T20:09:52.639Z</time>
      </trkpt>
      <trkpt lat="52.27160500008" lon="5.78598499888">
        <ele>42.3883220129</ele>
        <time>2022-03-19T20:09:56.624Z</time>
      </trkpt>
      <trkpt lat="52.27227" lon="5.78606">
        <ele>42.50161864468</ele>
        <time>2022-03-19T20:10:00.620Z</time>
      </trkpt>
      <trkpt lat="52.27237" lon="5.78604">
        <ele>42.50059834249</ele>
        <time>2022-03-19T20:10:04.618Z</time>
      </trkpt>
      <trkpt lat="52.27247" lon="5.78593">
        <ele>42.40186943088</ele>
        <time>2022-03-19T20:10:08.618Z</time>
      </trkpt>
      <trkpt lat="52.27253" lon="5.78589">
        <ele>42.27129339049</ele>
        <time>2022-03-19T20:10:12.619Z</time>
      </trkpt>
      <trkpt lat="52.27327500023" lon="5.78602499776">
        <ele>42.12926551119</ele>
        <time>2022-03-19T20:10:16.632Z</time>
      </trkpt>
      <trkpt lat="52.27402" lon="5.78616">
        <ele>41.85724125462</ele>
        <time>2022-03-19T20:10:20.657Z</time>
      </trkpt>
      <trkpt lat="52.27421" lon="5.78619">
        <ele>41.62508429071</ele>
        <time>2022-03-19T20:10:24.685Z</time>
      </trkpt>
      <trkpt lat="52.27497" lon="5.78633">
        <ele>41.38094046597</ele>
        <time>2022-03-19T20:10:28.725Z</time>
      </trkpt>
      <trkpt lat="52.27585333341" lon="5.78643666241">
        <ele>41.03947206451</ele>
        <time>2022-03-19T20:10:32.779Z</time>
      </trkpt>
      <trkpt lat="52.27673666673" lon="5.78654332908">
        <ele>40.81031507197</ele>
        <time>2022-03-19T20:10:36.847Z</time>
      </trkpt>
      <trkpt lat="52.27762" lon="5.78665">
        <ele>40.5844829118</ele>
        <time>2022-03-19T20:10:40.930Z</time>
      </trkpt>
      <trkpt lat="52.27839000007" lon="5.78675999617">
        <ele>40.22174145161</ele>
        <time>2022-03-19T20:10:45.025Z</time>
      </trkpt>
      <trkpt lat="52.27916000004" lon="5.78686999617">
        <ele>39.9497255104</ele>
        <time>2022-03-19T20:10:49.132Z</time>
      </trkpt>
      <trkpt lat="52.27993" lon="5.78698">
        <ele>39.78999230303</ele>
        <time>2022-03-19T20:10:53.252Z</time>
      </trkpt>
      <trkpt lat="52.28059333339" lon="5.78706333084">
        <ele>39.45701785503</ele>
        <time>2022-03-19T20:10:57.382Z</time>
      </trkpt>
      <trkpt lat="52.28125666672" lon="5.78714666417">
        <ele>39.25102328821</ele>
        <time>2022-03-19T20:11:01.523Z</time>
      </trkpt>
      <trkpt lat="52.28192" lon="5.78723">
        <ele>38.92791391172</ele>
        <time>2022-03-19T20:11:05.675Z</time>
      </trkpt>
      <trkpt lat="52.28243500008" lon="5.78728999931">
        <ele>38.59594094081</ele>
        <time>2022-03-19T20:11:09.835Z</time>
      </trkpt>
      <trkpt lat="52.28295" lon="5.78735">
        <ele>38.21598490406</ele>
        <time>2022-03-19T20:11:14.003Z</time>
      </trkpt>
      <trkpt lat="52.28366999996" lon="5.78741499894">
        <ele>37.96295457964</ele>
        <time>2022-03-19T20:11:18.183Z</time>
      </trkpt>
      <trkpt lat="52.28439" lon="5.78748">
        <ele>37.57496956952</ele>
        <time>2022-03-19T20:11:22.374Z</time>
      </trkpt>
      <trkpt lat="52.28471" lon="5.78756">
        <ele>37.2760316039</ele>
        <time>2022-03-19T20:11:26.571Z</time>
      </trkpt>
      <trkpt lat="52.28529500002" lon="5.78764499888">
        <ele>37.00979101698</ele>
        <time>2022-03-19T20:11:30.777Z</time>
      </trkpt>
      <trkpt lat="52.28588" lon="5.78773">
        <ele>36.89338706221</ele>
        <time>2022-03-19T20:11:34.992Z</time>
      </trkpt>
      <trkpt lat="52.28650000016" lon="5.78778999917">
        <ele>36.60536947164</ele>
        <time>2022-03-19T20:11:39.217Z</time>
      </trkpt>
      <trkpt lat="52.28712" lon="5.78785">
        <ele>36.22801327173</ele>
        <time>2022-03-19T20:11:43.452Z</time>
      </trkpt>
      <trkpt lat="52.2873" lon="5.78782">
        <ele>35.97345070886</ele>
        <time>2022-03-19T20:11:47.690Z</time>
      </trkpt>
      <trkpt lat="52.28741" lon="5.78775">
        <ele>35.72561723195</ele>
        <time>2022-03-19T20:11:51.930Z</time>
      </trkpt>
      <trkpt lat="52.2879" lon="5.78788">
        <ele>35.48257870718</ele>
        <time>2022-03-19T20:11:56.178Z</time>
      </trkpt>
      <trkpt lat="52.28836" lon="5.78794">
        <ele>35.2634276523</ele>
        <time>2022-03-19T20:12:00.433Z</time>
      </trkpt>
      <trkpt lat="52.28914499997" lon="5.78809499723">
        <ele>35.00167276094</ele>
        <time>2022-03-19T20:12:04.701Z</time>
      </trkpt>
      <trkpt lat="52.28993" lon="5.78825">
        <ele>34.71683237931</ele>
        <time>2022-03-19T20:12:08.982Z</time>
      </trkpt>
      <trkpt lat="52.29002" lon="5.78826">
        <ele>34.49524748356</ele>
        <time>2022-03-19T20:12:13.264Z</time>
      </trkpt>
      <trkpt lat="52.29003" lon="5.78826">
        <ele>34.28141515637</ele>
        <time>2022-03-19T20:12:17.546Z</time>
      </trkpt>
      <trkpt lat="52.29055" lon="5.78837">
        <ele>34.07611254664</ele>
        <time>2022-03-19T20:12:21.837Z</time>
      </trkpt>
      <trkpt lat="52.29054" lon="5.78837">
        <ele>33.88028094146</ele>
        <time>2022-03-19T20:12:26.128Z</time>
      </trkpt>
      <trkpt lat="52.29074" lon="5.78835">
        <ele>33.69509675946</ele>
        <time>2022-03-19T20:12:30.422Z</time>
      </trkpt>
      <trkpt lat="52.29097" lon="5.78831">
        <ele>33.52203478114</ele>
        <time>2022-03-19T20:12:34.720Z</time>
      </trkpt>
      <trkpt lat="52.29103" lon="5.78866">
        <ele>33.36292210355</ele>
        <time>2022-03-19T20:12:39.021Z</time>
      </trkpt>
      <trkpt lat="52.29112" lon="5.78897">
        <ele>33.21998133112</ele>
        <time>2022-03-19T20:12:43.326Z</time>
      </trkpt>
      <trkpt lat="52.29112" lon="5.78898">
        <ele>33.09586154</ele>
        <time>2022-03-19T20:12:47.631Z</time>
      </trkpt>
      <trkpt lat="52.2912" lon="5.78912">
        <ele>32.99365558417</ele>
        <time>2022-03-19T20:12:51.938Z</time>
      </trkpt>
      <trkpt lat="52.29119" lon="5.78911">
        <ele>32.91690235288</ele>
        <time>2022-03-19T20:12:56.245Z</time>
      </trkpt>
      <trkpt lat="52.29128" lon="5.78924">
        <ele>32.86957264489</ele>
        <time>2022-03-19T20:13:00.554Z</time>
      </trkpt>
      <trkpt lat="52.29138" lon="5.78933">
        <ele>32.85603740215</ele>
        <time>2022-03-19T20:13:04.865Z</time>
      </trkpt>
      <trkpt lat="52.2915" lon="5.78939">
        <ele>32.88101714812</ele>
        <time>2022-03-19T20:13:09.178Z</time>
      </trkpt>
      <trkpt lat="52.29219000023" lon="5.78958499698">
        <ele>32.81991528487</ele>
        <time>2022-03-19T20:13:13.502Z</time>
      </trkpt>
      <trkpt lat="52.29288" lon="5.78978">
        <ele>33.00436385863</ele>
        <time>2022-03-19T20:13:17.837Z</time>
      </trkpt>
      <trkpt lat="52.29313" lon="5.78993">
        <ele>33.17838279574</ele>
        <time>2022-03-19T20:13:22.176Z</time>
      </trkpt>
      <trkpt lat="52.2933" lon="5.79009">
        <ele>33.41636568196</ele>
        <time>2022-03-19T20:13:26.519Z</time>
      </trkpt>
      <trkpt lat="52.29391" lon="5.79087">
        <ele>33.81607022187</ele>
        <time>2022-03-19T20:13:30.874Z</time>
      </trkpt>
      <trkpt lat="52.29408" lon="5.79112">
        <ele>34.18073752791</ele>
        <time>2022-03-19T20:13:35.233Z</time>
      </trkpt>
      <trkpt lat="52.2942" lon="5.79136">
        <ele>34.61155725616</ele>
        <time>2022-03-19T20:13:39.595Z</time>
      </trkpt>
      <trkpt lat="52.29449000238" lon="5.79209999533">
        <ele>35.139878478</ele>
        <time>2022-03-19T20:13:43.965Z</time>
      </trkpt>
      <trkpt lat="52.29478" lon="5.79284">
        <ele>35.65389929449</ele>
        <time>2022-03-19T20:13:48.344Z</time>
      </trkpt>
      <trkpt lat="52.295" lon="5.79345">
        <ele>36.25665767913</ele>
        <time>2022-03-19T20:13:52.730Z</time>
      </trkpt>
      <trkpt lat="52.29533000502" lon="5.79453999188">
        <ele>36.7672620336</ele>
        <time>2022-03-19T20:13:57.128Z</time>
      </trkpt>
      <trkpt lat="52.29566" lon="5.79563">
        <ele>37.64686964823</ele>
        <time>2022-03-19T20:14:01.538Z</time>
      </trkpt>
      <trkpt lat="52.29605000737" lon="5.7969499884">
        <ele>38.63632026887</ele>
        <time>2022-03-19T20:14:05.962Z</time>
      </trkpt>
      <trkpt lat="52.29644" lon="5.79827">
        <ele>39.46102918506</ele>
        <time>2022-03-19T20:14:10.401Z</time>
      </trkpt>
      <trkpt lat="52.29659" lon="5.79913">
        <ele>40.40537934034</ele>
        <time>2022-03-19T20:14:14.848Z</time>
      </trkpt>
      <trkpt lat="52.29671" lon="5.79959">
        <ele>41.42168086186</ele>
        <time>2022-03-19T20:14:19.300Z</time>
      </trkpt>
      <trkpt lat="52.29705" lon="5.80043">
        <ele>42.40218398274</ele>
        <time>2022-03-19T20:14:23.762Z</time>
      </trkpt>
      <trkpt lat="52.2973400017" lon="5.80105999593">
        <ele>43.56695608797</ele>
        <time>2022-03-19T20:14:28.232Z</time>
      </trkpt>
      <trkpt lat="52.29763" lon="5.80169">
        <ele>44.91777468872</ele>
        <time>2022-03-19T20:14:32.710Z</time>
      </trkpt>
      <trkpt lat="52.29817500888" lon="5.80252746908">
        <ele>46.25717685401</ele>
        <time>2022-03-19T20:14:37.200Z</time>
      </trkpt>
      <trkpt lat="52.29872001184" lon="5.80336495877">
        <ele>47.32376878086</ele>
        <time>2022-03-19T20:14:41.702Z</time>
      </trkpt>
      <trkpt lat="52.29926500888" lon="5.80420246907">
        <ele>48.19500273215</ele>
        <time>2022-03-19T20:14:46.216Z</time>
      </trkpt>
      <trkpt lat="52.29981" lon="5.80504">
        <ele>48.74652406699</ele>
        <time>2022-03-19T20:14:50.742Z</time>
      </trkpt>
      <trkpt lat="52.30042" lon="5.80585">
        <ele>49.25244536078</ele>
        <time>2022-03-19T20:14:55.280Z</time>
      </trkpt>
      <trkpt lat="52.30066" lon="5.80606">
        <ele>49.8603000371</ele>
        <time>2022-03-19T20:14:59.823Z</time>
      </trkpt>
      <trkpt lat="52.301" lon="5.80624">
        <ele>50.41583746475</ele>
        <time>2022-03-19T20:15:04.371Z</time>
      </trkpt>
      <trkpt lat="52.30122" lon="5.80629">
        <ele>50.78597314999</ele>
        <time>2022-03-19T20:15:08.923Z</time>
      </trkpt>
      <trkpt lat="52.30172999994" lon="5.80627500017">
        <ele>51.18451882627</ele>
        <time>2022-03-19T20:15:13.483Z</time>
      </trkpt>
      <trkpt lat="52.30224" lon="5.80626">
        <ele>51.04308889851</ele>
        <time>2022-03-19T20:15:18.051Z</time>
      </trkpt>
      <trkpt lat="52.30247" lon="5.80628">
        <ele>50.74182240754</ele>
        <time>2022-03-19T20:15:22.623Z</time>
      </trkpt>
      <trkpt lat="52.30286" lon="5.80638">
        <ele>50.27103728703</ele>
        <time>2022-03-19T20:15:27.201Z</time>
      </trkpt>
      <trkpt lat="52.30309" lon="5.80647">
        <ele>49.84929169154</ele>
        <time>2022-03-19T20:15:31.783Z</time>
      </trkpt>
      <trkpt lat="52.30349" lon="5.80672">
        <ele>49.23791365825</ele>
        <time>2022-03-19T20:15:36.372Z</time>
      </trkpt>
      <trkpt lat="52.30417" lon="5.80733">
        <ele>48.6781174475</ele>
        <time>2022-03-19T20:15:40.973Z</time>
      </trkpt>
      <trkpt lat="52.30418" lon="5.80733">
        <ele>48.0792439179</ele>
        <time>2022-03-19T20:15:45.575Z</time>
      </trkpt>
      <trkpt lat="52.30426" lon="5.8074">
        <ele>47.43187796053</ele>
        <time>2022-03-19T20:15:50.178Z</time>
      </trkpt>
      <trkpt lat="52.30425" lon="5.8074">
        <ele>46.74946335181</ele>
        <time>2022-03-19T20:15:54.781Z</time>
      </trkpt>
      <trkpt lat="52.30448" lon="5.80755">
        <ele>46.00348773394</ele>
        <time>2022-03-19T20:15:59.388Z</time>
      </trkpt>
      <trkpt lat="52.30447" lon="5.80755">
        <ele>45.29669037445</ele>
        <time>2022-03-19T20:16:03.995Z</time>
      </trkpt>
      <trkpt lat="52.3046" lon="5.80763">
        <ele>44.53038852742</ele>
        <time>2022-03-19T20:16:08.604Z</time>
      </trkpt>
      <trkpt lat="52.30541500814" lon="5.80815493234">
        <ele>43.64221100916</ele>
        <time>2022-03-19T20:16:13.228Z</time>
      </trkpt>
      <trkpt lat="52.30623001395" lon="5.80867988401">
        <ele>42.88096021846</ele>
        <time>2022-03-19T20:16:17.866Z</time>
      </trkpt>
      <trkpt lat="52.30704501743" lon="5.80920485501">
        <ele>42.28963119357</ele>
        <time>2022-03-19T20:16:22.518Z</time>
      </trkpt>
      <trkpt lat="52.30786001859" lon="5.80972984534">
        <ele>41.80185677127</ele>
        <time>2022-03-19T20:16:27.184Z</time>
      </trkpt>
      <trkpt lat="52.30867501741" lon="5.810254855">
        <ele>41.26837441579</ele>
        <time>2022-03-19T20:16:31.864Z</time>
      </trkpt>
      <trkpt lat="52.30949001392" lon="5.81077988398">
        <ele>40.83941753703</ele>
        <time>2022-03-19T20:16:36.558Z</time>
      </trkpt>
      <trkpt lat="52.31030500809" lon="5.8113049323">
        <ele>40.57083277806</ele>
        <time>2022-03-19T20:16:41.266Z</time>
      </trkpt>
      <trkpt lat="52.31112" lon="5.81183">
        <ele>40.25907598295</ele>
        <time>2022-03-19T20:16:45.988Z</time>
      </trkpt>
      <trkpt lat="52.3115" lon="5.81213">
        <ele>40.03758474699</ele>
        <time>2022-03-19T20:16:50.717Z</time>
      </trkpt>
      <trkpt lat="52.31227572706" lon="5.81283992535">
        <ele>39.99482706317</ele>
        <time>2022-03-19T20:16:55.460Z</time>
      </trkpt>
      <trkpt lat="52.31305144986" lon="5.81354987558">
        <ele>39.93038291858</ele>
        <time>2022-03-19T20:17:00.217Z</time>
      </trkpt>
      <trkpt lat="52.31382716841" lon="5.81425985069">
        <ele>40.03674683672</ele>
        <time>2022-03-19T20:17:04.988Z</time>
      </trkpt>
      <trkpt lat="52.3146028827" lon="5.81496985069">
        <ele>40.04258002039</ele>
        <time>2022-03-19T20:17:09.774Z</time>
      </trkpt>
      <trkpt lat="52.31537859273" lon="5.81567987558">
        <ele>40.48672032155</ele>
        <time>2022-03-19T20:17:14.574Z</time>
      </trkpt>
      <trkpt lat="52.31615429851" lon="5.81638992536">
        <ele>40.59219897502</ele>
        <time>2022-03-19T20:17:19.388Z</time>
      </trkpt>
      <trkpt lat="52.31693" lon="5.8171">
        <ele>40.82815870248</ele>
        <time>2022-03-19T20:17:24.216Z</time>
      </trkpt>
      <trkpt lat="52.31762500532" lon="5.8177474695">
        <ele>41.22888287667</ele>
        <time>2022-03-19T20:17:29.057Z</time>
      </trkpt>
      <trkpt lat="52.3183200071" lon="5.81839495934">
        <ele>41.653192701</ele>
        <time>2022-03-19T20:17:33.911Z</time>
      </trkpt>
      <trkpt lat="52.31901500534" lon="5.81904246952">
        <ele>41.8554153116</ele>
        <time>2022-03-19T20:17:38.778Z</time>
      </trkpt>
      <trkpt lat="52.31971" lon="5.81969">
        <ele>41.94471393762</ele>
        <time>2022-03-19T20:17:43.658Z</time>
      </trkpt>
      <trkpt lat="52.32047" lon="5.82033">
        <ele>42.36059913824</ele>
        <time>2022-03-19T20:17:48.551Z</time>
      </trkpt>
      <trkpt lat="52.32096" lon="5.82064">
        <ele>42.47272602521</ele>
        <time>2022-03-19T20:17:53.453Z</time>
      </trkpt>
      <trkpt lat="52.32165000046" lon="5.82100499425">
        <ele>42.60032735848</ele>
        <time>2022-03-19T20:17:58.366Z</time>
      </trkpt>
      <trkpt lat="52.32234" lon="5.82137">
        <ele>42.50858635874</ele>
        <time>2022-03-19T20:18:03.291Z</time>
      </trkpt>
      <trkpt lat="52.32241" lon="5.82144">
        <ele>42.5245822492</ele>
        <time>2022-03-19T20:18:08.217Z</time>
      </trkpt>
      <trkpt lat="52.32281" lon="5.82227">
        <ele>42.5476323194</ele>
        <time>2022-03-19T20:18:13.154Z</time>
      </trkpt>
      <trkpt lat="52.32312" lon="5.82274">
        <ele>42.3230257165</ele>
        <time>2022-03-19T20:18:18.097Z</time>
      </trkpt>
      <trkpt lat="52.32344" lon="5.82312">
        <ele>42.28668503472</ele>
        <time>2022-03-19T20:18:23.047Z</time>
      </trkpt>
      <trkpt lat="52.3236" lon="5.82325">
        <ele>42.12391989961</ele>
        <time>2022-03-19T20:18:28.000Z</time>
      </trkpt>
      <trkpt lat="52.32373" lon="5.82329">
        <ele>41.83650423528</ele>
        <time>2022-03-19T20:18:32.955Z</time>
      </trkpt>
      <trkpt lat="52.32429" lon="5.82335">
        <ele>41.48085008453</ele>
        <time>2022-03-19T20:18:37.919Z</time>
      </trkpt>
      <trkpt lat="52.32444" lon="5.82339">
        <ele>41.04693163912</ele>
        <time>2022-03-19T20:18:42.885Z</time>
      </trkpt>
      <trkpt lat="52.32497000025" lon="5.82361499732">
        <ele>40.52548794255</ele>
        <time>2022-03-19T20:18:47.860Z</time>
      </trkpt>
      <trkpt lat="52.3255" lon="5.82384">
        <ele>39.80923185157</ele>
        <time>2022-03-19T20:18:52.844Z</time>
      </trkpt>
      <trkpt lat="52.32574" lon="5.82396">
        <ele>39.26878561495</ele>
        <time>2022-03-19T20:18:57.832Z</time>
      </trkpt>
      <trkpt lat="52.32655" lon="5.82446">
        <ele>38.71368213792</ele>
        <time>2022-03-19T20:19:02.834Z</time>
      </trkpt>
      <trkpt lat="52.32726" lon="5.82504">
        <ele>38.15285716582</ele>
        <time>2022-03-19T20:19:07.848Z</time>
      </trkpt>
      <trkpt lat="52.32748" lon="5.82527">
        <ele>37.45160935802</ele>
        <time>2022-03-19T20:19:12.867Z</time>
      </trkpt>
      <trkpt lat="52.32766" lon="5.82551">
        <ele>36.86916426454</ele>
        <time>2022-03-19T20:19:17.889Z</time>
      </trkpt>
      <trkpt lat="52.32788" lon="5.826">
        <ele>36.34746040283</ele>
        <time>2022-03-19T20:19:22.917Z</time>
      </trkpt>
      <trkpt lat="52.32788" lon="5.82599">
        <ele>35.79567570307</ele>
        <time>2022-03-19T20:19:27.945Z</time>
      </trkpt>
      <trkpt lat="52.32796" lon="5.82614">
        <ele>35.26934215621</ele>
        <time>2022-03-19T20:19:32.975Z</time>
      </trkpt>
      <trkpt lat="52.32795" lon="5.82615">
        <ele>34.73112632194</ele>
        <time>2022-03-19T20:19:38.006Z</time>
      </trkpt>
      <trkpt lat="52.32806" lon="5.82629">
        <ele>34.19016296668</ele>
        <time>2022-03-19T20:19:43.039Z</time>
      </trkpt>
      <trkpt lat="52.32844" lon="5.82665">
        <ele>33.49020018894</ele>
        <time>2022-03-19T20:19:48.079Z</time>
      </trkpt>
      <trkpt lat="52.32878" lon="5.82693">
        <ele>32.93135985717</ele>
        <time>2022-03-19T20:19:53.125Z</time>
      </trkpt>
      <trkpt lat="52.32914" lon="5.82716">
        <ele>32.4655463128</ele>
        <time>2022-03-19T20:19:58.177Z</time>
      </trkpt>
      <trkpt lat="52.3293" lon="5.82724">
        <ele>31.97019221244</ele>
        <time>2022-03-19T20:20:03.232Z</time>
      </trkpt>
      <trkpt lat="52.32951" lon="5.82726">
        <ele>31.51377982763</ele>
        <time>2022-03-19T20:20:08.290Z</time>
      </trkpt>
      <trkpt lat="52.32971" lon="5.82717">
        <ele>31.08406631191</ele>
        <time>2022-03-19T20:20:13.351Z</time>
      </trkpt>
      <trkpt lat="52.32999" lon="5.82679">
        <ele>30.60299207138</ele>
        <time>2022-03-19T20:20:18.418Z</time>
      </trkpt>
      <trkpt lat="52.33004" lon="5.82674">
        <ele>30.14664814937</ele>
        <time>2022-03-19T20:20:23.486Z</time>
      </trkpt>
      <trkpt lat="52.33013" lon="5.8267">
        <ele>29.6948808183</ele>
        <time>2022-03-19T20:20:28.556Z</time>
      </trkpt>
      <trkpt lat="52.33023" lon="5.8267">
        <ele>29.26603387887</ele>
        <time>2022-03-19T20:20:33.627Z</time>
      </trkpt>
      <trkpt lat="52.33044" lon="5.82674">
        <ele>28.87140714084</ele>
        <time>2022-03-19T20:20:38.702Z</time>
      </trkpt>
      <trkpt lat="52.33065" lon="5.82691">
        <ele>28.44047490042</ele>
        <time>2022-03-19T20:20:43.780Z</time>
      </trkpt>
      <trkpt lat="52.33087" lon="5.82725">
        <ele>28.00142382197</ele>
        <time>2022-03-19T20:20:48.863Z</time>
      </trkpt>
      <trkpt lat="52.33096" lon="5.82746">
        <ele>27.55683922601</ele>
        <time>2022-03-19T20:20:53.949Z</time>
      </trkpt>
      <trkpt lat="52.33106" lon="5.82817">
        <ele>27.08485919389</ele>
        <time>2022-03-19T20:20:59.042Z</time>
      </trkpt>
      <trkpt lat="52.33126" lon="5.82863">
        <ele>26.53759957814</ele>
        <time>2022-03-19T20:21:04.141Z</time>
      </trkpt>
      <trkpt lat="52.33135" lon="5.8288">
        <ele>26.07037223239</ele>
        <time>2022-03-19T20:21:09.242Z</time>
      </trkpt>
      <trkpt lat="52.33148" lon="5.82898">
        <ele>25.60207049738</ele>
        <time>2022-03-19T20:21:14.345Z</time>
      </trkpt>
      <trkpt lat="52.33192" lon="5.82948">
        <ele>25.09557391266</ele>
        <time>2022-03-19T20:21:19.457Z</time>
      </trkpt>
      <trkpt lat="52.33192" lon="5.82949">
        <ele>24.78804348408</ele>
        <time>2022-03-19T20:21:24.569Z</time>
      </trkpt>
      <trkpt lat="52.33195" lon="5.82952">
        <ele>24.53808394865</ele>
        <time>2022-03-19T20:21:29.682Z</time>
      </trkpt>
      <trkpt lat="52.33209" lon="5.82954">
        <ele>24.36346630991</ele>
        <time>2022-03-19T20:21:34.797Z</time>
      </trkpt>
      <trkpt lat="52.33214" lon="5.82968">
        <ele>24.27388337407</ele>
        <time>2022-03-19T20:21:39.914Z</time>
      </trkpt>
      <trkpt lat="52.33223" lon="5.83021">
        <ele>24.28684910394</ele>
        <time>2022-03-19T20:21:45.036Z</time>
      </trkpt>
      <trkpt lat="52.33242" lon="5.83089">
        <ele>24.42889742327</ele>
        <time>2022-03-19T20:21:50.165Z</time>
      </trkpt>
      <trkpt lat="52.33245" lon="5.83125">
        <ele>24.63811868698</ele>
        <time>2022-03-19T20:21:55.298Z</time>
      </trkpt>
      <trkpt lat="52.33237" lon="5.83139">
        <ele>24.94948100158</ele>
        <time>2022-03-19T20:22:00.433Z</time>
      </trkpt>
      <trkpt lat="52.33192" lon="5.83198">
        <ele>25.37124218272</ele>
        <time>2022-03-19T20:22:05.577Z</time>
      </trkpt>
      <trkpt lat="52.33184" lon="5.83205">
        <ele>25.92058170914</ele>
        <time>2022-03-19T20:22:10.722Z</time>
      </trkpt>
      <trkpt lat="52.33143" lon="5.83227">
        <ele>26.60496797661</ele>
        <time>2022-03-19T20:22:15.874Z</time>
      </trkpt>
      <trkpt lat="52.33137" lon="5.83234">
        <ele>27.38469794961</ele>
        <time>2022-03-19T20:22:21.028Z</time>
      </trkpt>
      <trkpt lat="52.33127" lon="5.83267">
        <ele>28.31217244851</ele>
        <time>2022-03-19T20:22:26.185Z</time>
      </trkpt>
      <trkpt lat="52.33115" lon="5.83372">
        <ele>29.35684674206</ele>
        <time>2022-03-19T20:22:31.353Z</time>
      </trkpt>
      <trkpt lat="52.33091001361" lon="5.83499001379">
        <ele>30.48395768343</ele>
        <time>2022-03-19T20:22:36.534Z</time>
      </trkpt>
      <trkpt lat="52.33067001361" lon="5.8362600138">
        <ele>31.93695734917</ele>
        <time>2022-03-19T20:22:41.728Z</time>
      </trkpt>
      <trkpt lat="52.33043" lon="5.83753">
        <ele>33.4783725493</ele>
        <time>2022-03-19T20:22:46.935Z</time>
      </trkpt>
      <trkpt lat="52.33033" lon="5.838">
        <ele>35.14898068139</ele>
        <time>2022-03-19T20:22:52.147Z</time>
      </trkpt>
      <trkpt lat="52.33021" lon="5.83837">
        <ele>36.83238552366</ele>
        <time>2022-03-19T20:22:57.363Z</time>
      </trkpt>
      <trkpt lat="52.32991" lon="5.839">
        <ele>38.5902264527</ele>
        <time>2022-03-19T20:23:02.587Z</time>
      </trkpt>
      <trkpt lat="52.3294633396" lon="5.83986335082">
        <ele>40.11134447035</ele>
        <time>2022-03-19T20:23:07.822Z</time>
      </trkpt>
      <trkpt lat="52.32901667291" lon="5.8407266842">
        <ele>41.55826544682</ele>
        <time>2022-03-19T20:23:13.068Z</time>
      </trkpt>
      <trkpt lat="52.32857" lon="5.84159">
        <ele>43.18808879765</ele>
        <time>2022-03-19T20:23:18.325Z</time>
      </trkpt>
      <trkpt lat="52.3282100027" lon="5.84239000652">
        <ele>44.90906776568</ele>
        <time>2022-03-19T20:23:23.592Z</time>
      </trkpt>
      <trkpt lat="52.32785" lon="5.84319">
        <ele>46.48631613142</ele>
        <time>2022-03-19T20:23:28.868Z</time>
      </trkpt>
      <trkpt lat="52.32748" lon="5.84382">
        <ele>48.18976748954</ele>
        <time>2022-03-19T20:23:34.153Z</time>
      </trkpt>
      <trkpt lat="52.32724" lon="5.84422">
        <ele>49.65612620638</ele>
        <time>2022-03-19T20:23:39.443Z</time>
      </trkpt>
      <trkpt lat="52.32676000156" lon="5.84484500689">
        <ele>51.10557530046</ele>
        <time>2022-03-19T20:23:44.743Z</time>
      </trkpt>
      <trkpt lat="52.32628" lon="5.84547">
        <ele>52.34579015454</ele>
        <time>2022-03-19T20:23:50.053Z</time>
      </trkpt>
      <trkpt lat="52.32587" lon="5.84617">
        <ele>53.35227413189</ele>
        <time>2022-03-19T20:23:55.373Z</time>
      </trkpt>
      <trkpt lat="52.32535334041" lon="5.84708668811">
        <ele>54.1230557951</ele>
        <time>2022-03-19T20:24:00.705Z</time>
      </trkpt>
      <trkpt lat="52.32483667372" lon="5.84800335481">
        <ele>54.658298229</ele>
        <time>2022-03-19T20:24:06.049Z</time>
      </trkpt>
      <trkpt lat="52.32432" lon="5.84892">
        <ele>54.83921209416</ele>
        <time>2022-03-19T20:24:11.405Z</time>
      </trkpt>
      <trkpt lat="52.32401500134" lon="5.84948000383">
        <ele>55.0936575555</ele>
        <time>2022-03-19T20:24:16.769Z</time>
      </trkpt>
      <trkpt lat="52.32371" lon="5.85004">
        <ele>55.30172262901</ele>
        <time>2022-03-19T20:24:22.140Z</time>
      </trkpt>
      <trkpt lat="52.32327" lon="5.85075">
        <ele>55.32968001312</ele>
        <time>2022-03-19T20:24:27.521Z</time>
      </trkpt>
      <trkpt lat="52.32303" lon="5.85122">
        <ele>55.18179658523</ele>
        <time>2022-03-19T20:24:32.908Z</time>
      </trkpt>
      <trkpt lat="52.32269" lon="5.85201">
        <ele>54.92185697949</ele>
        <time>2022-03-19T20:24:38.304Z</time>
      </trkpt>
      <trkpt lat="52.3225" lon="5.85241">
        <ele>54.73134475473</ele>
        <time>2022-03-19T20:24:43.705Z</time>
      </trkpt>
      <trkpt lat="52.32213" lon="5.85285">
        <ele>54.43862838735</ele>
        <time>2022-03-19T20:24:49.114Z</time>
      </trkpt>
      <trkpt lat="52.32203" lon="5.85304">
        <ele>53.9571682956</ele>
        <time>2022-03-19T20:24:54.525Z</time>
      </trkpt>
      <trkpt lat="52.32184" lon="5.85352">
        <ele>53.41677236524</ele>
        <time>2022-03-19T20:24:59.942Z</time>
      </trkpt>
      <trkpt lat="52.32167000302" lon="5.8543650032">
        <ele>52.81738096329</ele>
        <time>2022-03-19T20:25:05.368Z</time>
      </trkpt>
      <trkpt lat="52.3215" lon="5.85521">
        <ele>52.03957579652</ele>
        <time>2022-03-19T20:25:10.802Z</time>
      </trkpt>
      <trkpt lat="52.32147" lon="5.8556">
        <ele>51.4574992389</ele>
        <time>2022-03-19T20:25:16.240Z</time>
      </trkpt>
      <trkpt lat="52.32152000655" lon="5.85684499872">
        <ele>51.12022810431</ele>
        <time>2022-03-19T20:25:21.690Z</time>
      </trkpt>
      <trkpt lat="52.32157" lon="5.85809">
        <ele>50.66742010089</ele>
        <time>2022-03-19T20:25:27.153Z</time>
      </trkpt>
      <trkpt lat="52.32155" lon="5.85848">
        <ele>50.3645303554</ele>
        <time>2022-03-19T20:25:32.619Z</time>
      </trkpt>
      <trkpt lat="52.32148" lon="5.85865">
        <ele>50.16407359604</ele>
        <time>2022-03-19T20:25:38.087Z</time>
      </trkpt>
      <trkpt lat="52.32113" lon="5.85918">
        <ele>50.05013043288</ele>
        <time>2022-03-19T20:25:43.563Z</time>
      </trkpt>
      <trkpt lat="52.321" lon="5.85946">
        <ele>50.11350207257</ele>
        <time>2022-03-19T20:25:49.043Z</time>
      </trkpt>
      <trkpt lat="52.32062" lon="5.8607">
        <ele>50.11434120608</ele>
        <time>2022-03-19T20:25:54.536Z</time>
      </trkpt>
      <trkpt lat="52.3202550135" lon="5.86173252556">
        <ele>50.30720245506</ele>
        <time>2022-03-19T20:26:00.041Z</time>
      </trkpt>
      <trkpt lat="52.319890018" lon="5.86276503408">
        <ele>50.75312996603</ele>
        <time>2022-03-19T20:26:05.558Z</time>
      </trkpt>
      <trkpt lat="52.31952501349" lon="5.86379752558">
        <ele>50.8722464353</ele>
        <time>2022-03-19T20:26:11.086Z</time>
      </trkpt>
      <trkpt lat="52.31916" lon="5.86483">
        <ele>51.38469040259</ele>
        <time>2022-03-19T20:26:16.626Z</time>
      </trkpt>
      <trkpt lat="52.31908" lon="5.86502">
        <ele>52.03831318047</ele>
        <time>2022-03-19T20:26:22.168Z</time>
      </trkpt>
      <trkpt lat="52.31908" lon="5.86501">
        <ele>52.69184228747</ele>
        <time>2022-03-19T20:26:27.710Z</time>
      </trkpt>
      <trkpt lat="52.31879000248" lon="5.865775005">
        <ele>53.50626959122</ele>
        <time>2022-03-19T20:26:33.261Z</time>
      </trkpt>
      <trkpt lat="52.3185" lon="5.86654">
        <ele>54.28110729368</ele>
        <time>2022-03-19T20:26:38.821Z</time>
      </trkpt>
      <trkpt lat="52.31812500438" lon="5.86755500852">
        <ele>55.06451477357</ele>
        <time>2022-03-19T20:26:44.393Z</time>
      </trkpt>
      <trkpt lat="52.31775" lon="5.86857">
        <ele>56.02738398491</ele>
        <time>2022-03-19T20:26:49.976Z</time>
      </trkpt>
      <trkpt lat="52.31764" lon="5.86892">
        <ele>57.07127359294</ele>
        <time>2022-03-19T20:26:55.563Z</time>
      </trkpt>
      <trkpt lat="52.31763" lon="5.8693">
        <ele>57.98658430619</ele>
        <time>2022-03-19T20:27:01.154Z</time>
      </trkpt>
      <trkpt lat="52.31765" lon="5.86953">
        <ele>58.65082318273</ele>
        <time>2022-03-19T20:27:06.747Z</time>
      </trkpt>
      <trkpt lat="52.31782" lon="5.87053">
        <ele>59.01573329254</ele>
        <time>2022-03-19T20:27:12.350Z</time>
      </trkpt>
      <trkpt lat="52.31805500396" lon="5.8714999948">
        <ele>59.14033296758</ele>
        <time>2022-03-19T20:27:17.964Z</time>
      </trkpt>
      <trkpt lat="52.31829" lon="5.87247">
        <ele>59.39729347123</ele>
        <time>2022-03-19T20:27:23.588Z</time>
      </trkpt>
      <trkpt lat="52.31831" lon="5.87274">
        <ele>59.43880543275</ele>
        <time>2022-03-19T20:27:29.215Z</time>
      </trkpt>
      <trkpt lat="52.31818" lon="5.87383">
        <ele>59.30542576446</ele>
        <time>2022-03-19T20:27:34.852Z</time>
      </trkpt>
      <trkpt lat="52.31785333989" lon="5.87471334645">
        <ele>58.93651635422</ele>
        <time>2022-03-19T20:27:40.500Z</time>
      </trkpt>
      <trkpt lat="52.3175266732" lon="5.87559667986">
        <ele>58.29128900554</ele>
        <time>2022-03-19T20:27:46.158Z</time>
      </trkpt>
      <trkpt lat="52.3172" lon="5.87648">
        <ele>57.19724329727</ele>
        <time>2022-03-19T20:27:51.826Z</time>
      </trkpt>
      <trkpt lat="52.3171" lon="5.87696">
        <ele>56.14586889793</ele>
        <time>2022-03-19T20:27:57.499Z</time>
      </trkpt>
      <trkpt lat="52.31707" lon="5.87721">
        <ele>55.10242408409</ele>
        <time>2022-03-19T20:28:03.174Z</time>
      </trkpt>
      <trkpt lat="52.31713" lon="5.87805">
        <ele>53.88817803955</ele>
        <time>2022-03-19T20:28:08.858Z</time>
      </trkpt>
      <trkpt lat="52.31726" lon="5.87907">
        <ele>52.30609478497</ele>
        <time>2022-03-19T20:28:14.552Z</time>
      </trkpt>
      <trkpt lat="52.31733" lon="5.87984">
        <ele>50.77950393094</ele>
        <time>2022-03-19T20:28:20.253Z</time>
      </trkpt>
      <trkpt lat="52.31732" lon="5.88037">
        <ele>49.59602394617</ele>
        <time>2022-03-19T20:28:25.960Z</time>
      </trkpt>
      <trkpt lat="52.31717" lon="5.88138">
        <ele>48.67073151591</ele>
        <time>2022-03-19T20:28:31.677Z</time>
      </trkpt>
      <trkpt lat="52.31714" lon="5.88204">
        <ele>47.1184040635</ele>
        <time>2022-03-19T20:28:37.400Z</time>
      </trkpt>
      <trkpt lat="52.31717" lon="5.88306">
        <ele>45.63099465731</ele>
        <time>2022-03-19T20:28:43.133Z</time>
      </trkpt>
      <trkpt lat="52.3169" lon="5.88437">
        <ele>44.11633955663</ele>
        <time>2022-03-19T20:28:48.880Z</time>
      </trkpt>
      <trkpt lat="52.3169150073" lon="5.8856849995">
        <ele>42.03228508557</ele>
        <time>2022-03-19T20:28:54.640Z</time>
      </trkpt>
      <trkpt lat="52.31693" lon="5.887">
        <ele>40.48276641199</ele>
        <time>2022-03-19T20:29:00.413Z</time>
      </trkpt>
      <trkpt lat="52.31692500492" lon="5.88808000026">
        <ele>39.13347158778</ele>
        <time>2022-03-19T20:29:06.196Z</time>
      </trkpt>
      <trkpt lat="52.31692" lon="5.88916">
        <ele>37.72909833779</ele>
        <time>2022-03-19T20:29:11.990Z</time>
      </trkpt>
      <trkpt lat="52.31686752051" lon="5.89043250448">
        <ele>36.1187975443</ele>
        <time>2022-03-19T20:29:17.797Z</time>
      </trkpt>
      <trkpt lat="52.31687542051" lon="5.89043333195">
        <ele>33.87742393007</ele>
        <time>2022-03-19T20:29:23.604Z</time>
      </trkpt>
      <trkpt lat="52.31679797173" lon="5.89235186577">
        <ele>32.91595220954</ele>
        <time>2022-03-19T20:29:29.430Z</time>
      </trkpt>
      <trkpt lat="52.31690534391" lon="5.89234113693">
        <ele>31.25230750505</ele>
        <time>2022-03-19T20:29:35.257Z</time>
      </trkpt>
      <trkpt lat="52.31680870056" lon="5.89416503906">
        <ele>30.55664662269</ele>
        <time>2022-03-19T20:29:41.102Z</time>
      </trkpt>
      <trkpt lat="52.31676578522" lon="5.89431524277">
        <ele>29.99185188746</ele>
        <time>2022-03-19T20:29:46.949Z</time>
      </trkpt>
      <trkpt lat="52.31676586904" lon="5.89431524277">
        <ele>29.49060138241</ele>
        <time>2022-03-19T20:29:52.796Z</time>
      </trkpt>
      <trkpt lat="52.31677651405" lon="5.89447617531">
        <ele>29.06033515767</ele>
        <time>2022-03-19T20:29:58.644Z</time>
      </trkpt>
      <trkpt lat="52.3167551402" lon="5.89481949806">
        <ele>28.71269345135</ele>
        <time>2022-03-19T20:30:04.496Z</time>
      </trkpt>
      <trkpt lat="52.31665849686" lon="5.89675068855">
        <ele>28.27071116314</ele>
        <time>2022-03-19T20:30:10.367Z</time>
      </trkpt>
      <trkpt lat="52.31664776802" lon="5.89682579041">
        <ele>28.01234603943</ele>
        <time>2022-03-19T20:30:16.239Z</time>
      </trkpt>
      <trkpt lat="52.31664785184" lon="5.89682579041">
        <ele>27.81031755611</ele>
        <time>2022-03-19T20:30:22.111Z</time>
      </trkpt>
      <trkpt lat="52.31647619046" lon="5.90058088303">
        <ele>27.7661817658</ele>
        <time>2022-03-19T20:30:28.020Z</time>
      </trkpt>
      <trkpt lat="52.31641173363" lon="5.90162158012">
        <ele>27.62411628304</ele>
        <time>2022-03-19T20:30:33.939Z</time>
      </trkpt>
      <trkpt lat="52.31640100479" lon="5.90197563171">
        <ele>27.40805989359</ele>
        <time>2022-03-19T20:30:39.861Z</time>
      </trkpt>
      <trkpt lat="52.31642246246" lon="5.90231895447">
        <ele>27.22235062438</ele>
        <time>2022-03-19T20:30:45.787Z</time>
      </trkpt>
      <trkpt lat="52.31645464897" lon="5.90272665024">
        <ele>27.05226055902</ele>
        <time>2022-03-19T20:30:51.717Z</time>
      </trkpt>
      <trkpt lat="52.31678724289" lon="5.90489387512">
        <ele>26.9196114265</ele>
        <time>2022-03-19T20:30:57.669Z</time>
      </trkpt>
      <trkpt lat="52.31678732671" lon="5.90489387512">
        <ele>26.77213545047</ele>
        <time>2022-03-19T20:31:03.621Z</time>
      </trkpt>
      <trkpt lat="52.3169696331" lon="5.9061062336">
        <ele>26.71498398414</ele>
        <time>2022-03-19T20:31:09.585Z</time>
      </trkpt>
      <trkpt lat="52.31743097305" lon="5.90871334076">
        <ele>26.57034540376</ele>
        <time>2022-03-19T20:31:15.576Z</time>
      </trkpt>
      <trkpt lat="52.31745243073" lon="5.90883135796">
        <ele>26.30721853027</ele>
        <time>2022-03-19T20:31:21.568Z</time>
      </trkpt>
      <trkpt lat="52.31745251454" lon="5.90884208679">
        <ele>26.04877950722</ele>
        <time>2022-03-19T20:31:27.560Z</time>
      </trkpt>
      <trkpt lat="52.31879361905" lon="5.91414213181">
        <ele>25.41179501785</ele>
        <time>2022-03-19T20:31:33.608Z</time>
      </trkpt>
      <trkpt lat="52.31879353523" lon="5.91414213181">
        <ele>25.10138633994</ele>
        <time>2022-03-19T20:31:39.656Z</time>
      </trkpt>
      <trkpt lat="52.31915831566" lon="5.915569067">
        <ele>24.74988057843</ele>
        <time>2022-03-19T20:31:45.719Z</time>
      </trkpt>
      <trkpt lat="52.31940507889" lon="5.9167599678">
        <ele>24.59662747484</ele>
        <time>2022-03-19T20:31:51.795Z</time>
      </trkpt>
      <trkpt lat="52.31950163841" lon="5.9174144268">
        <ele>24.20943668574</ele>
        <time>2022-03-19T20:31:57.877Z</time>
      </trkpt>
      <trkpt lat="52.31960892677" lon="5.91826200485">
        <ele>23.74773706476</ele>
        <time>2022-03-19T20:32:03.968Z</time>
      </trkpt>
      <trkpt lat="52.3197592143" lon="5.91957092285">
        <ele>23.23802276763</ele>
        <time>2022-03-19T20:32:10.072Z</time>
      </trkpt>
      <trkpt lat="52.32026338577" lon="5.92435598373">
        <ele>23.03294050398</ele>
        <time>2022-03-19T20:32:16.224Z</time>
      </trkpt>
      <trkpt lat="52.32034930028" lon="5.92503190041">
        <ele>22.55428737834</ele>
        <time>2022-03-19T20:32:22.382Z</time>
      </trkpt>
      <trkpt lat="52.32105740346" lon="5.93070745468">
        <ele>21.79790528156</ele>
        <time>2022-03-19T20:32:28.597Z</time>
      </trkpt>
      <trkpt lat="52.32108950615" lon="5.93090057373">
        <ele>21.43282822629</ele>
        <time>2022-03-19T20:32:34.814Z</time>
      </trkpt>
      <trkpt lat="52.32115387917" lon="5.93150138855">
        <ele>21.02012383169</ele>
        <time>2022-03-19T20:32:41.037Z</time>
      </trkpt>
      <trkpt lat="52.32125043869" lon="5.93292832375">
        <ele>20.75379007038</ele>
        <time>2022-03-19T20:32:47.274Z</time>
      </trkpt>
      <trkpt lat="52.32135772705" lon="5.93671560287">
        <ele>20.49523199289</ele>
        <time>2022-03-19T20:32:53.549Z</time>
      </trkpt>
      <trkpt lat="52.32137918472" lon="5.93715548515">
        <ele>20.2267808809</ele>
        <time>2022-03-19T20:32:59.828Z</time>
      </trkpt>
      <trkpt lat="52.32144355774" lon="5.93769192696">
        <ele>20.05427353268</ele>
        <time>2022-03-19T20:33:06.112Z</time>
      </trkpt>
      <trkpt lat="52.32161521912" lon="5.93866825104">
        <ele>19.99589108718</ele>
        <time>2022-03-19T20:33:12.406Z</time>
      </trkpt>
      <trkpt lat="52.32173323631" lon="5.93911886215">
        <ele>19.868602033</ele>
        <time>2022-03-19T20:33:18.705Z</time>
      </trkpt>
      <trkpt lat="52.32186198235" lon="5.93955874443">
        <ele>19.71531957718</ele>
        <time>2022-03-19T20:33:25.009Z</time>
      </trkpt>
      <trkpt lat="52.32239842415" lon="5.9412753582">
        <ele>19.82135767087</ele>
        <time>2022-03-19T20:33:31.332Z</time>
      </trkpt>
      <trkpt lat="52.32249498367" lon="5.94165086746">
        <ele>19.89781615791</ele>
        <time>2022-03-19T20:33:37.659Z</time>
      </trkpt>
      <trkpt lat="52.32260227203" lon="5.94223022461">
        <ele>19.98841081998</ele>
        <time>2022-03-19T20:33:43.992Z</time>
      </trkpt>
      <trkpt lat="52.32263445854" lon="5.94247698784">
        <ele>20.11934236551</ele>
        <time>2022-03-19T20:33:50.327Z</time>
      </trkpt>
      <trkpt lat="52.32276328839" lon="5.94341039658">
        <ele>20.27006628038</ele>
        <time>2022-03-19T20:33:56.672Z</time>
      </trkpt>
      <trkpt lat="52.32328900136" lon="5.94694018364">
        <ele>20.51049006488</ele>
        <time>2022-03-19T20:34:03.052Z</time>
      </trkpt>
      <trkpt lat="52.32328891754" lon="5.94694018364">
        <ele>20.70052819888</ele>
        <time>2022-03-19T20:34:09.432Z</time>
      </trkpt>
      <trkpt lat="52.32346057892" lon="5.94820618629">
        <ele>21.02846771832</ele>
        <time>2022-03-19T20:34:15.825Z</time>
      </trkpt>
      <trkpt lat="52.32357859612" lon="5.94950437546">
        <ele>21.45008972448</ele>
        <time>2022-03-19T20:34:22.231Z</time>
      </trkpt>
      <trkpt lat="52.32357867993" lon="5.95029830933">
        <ele>21.58525817849</ele>
        <time>2022-03-19T20:34:28.645Z</time>
      </trkpt>
      <trkpt lat="52.32357859612" lon="5.95118880272">
        <ele>21.74878742678</ele>
        <time>2022-03-19T20:34:35.067Z</time>
      </trkpt>
      <trkpt lat="52.32354640961" lon="5.95170378685">
        <ele>21.73838315309</ele>
        <time>2022-03-19T20:34:41.494Z</time>
      </trkpt>
      <trkpt lat="52.32347130775" lon="5.95258355141">
        <ele>21.73467554541</ele>
        <time>2022-03-19T20:34:47.930Z</time>
      </trkpt>
      <trkpt lat="52.3233962059" lon="5.95318436623">
        <ele>21.7076155224</ele>
        <time>2022-03-19T20:34:54.372Z</time>
      </trkpt>
      <trkpt lat="52.32326754369" lon="5.95411777496">
        <ele>21.36283075285</ele>
        <time>2022-03-19T20:35:00.824Z</time>
      </trkpt>
      <trkpt lat="52.32334256172" lon="5.95437526703">
        <ele>21.16258552085</ele>
        <time>2022-03-19T20:35:07.278Z</time>
      </trkpt>
      <trkpt lat="52.32334256172" lon="5.95461130142">
        <ele>20.93629359489</ele>
        <time>2022-03-19T20:35:13.735Z</time>
      </trkpt>
      <trkpt lat="52.32331045903" lon="5.95468640327">
        <ele>20.6999229338</ele>
        <time>2022-03-19T20:35:20.193Z</time>
      </trkpt>
      <trkpt lat="52.32324608602" lon="5.95479369164">
        <ele>20.42277373388</ele>
        <time>2022-03-19T20:35:26.652Z</time>
      </trkpt>
      <trkpt lat="52.32316017151" lon="5.95482587814">
        <ele>20.12149628096</ele>
        <time>2022-03-19T20:35:33.113Z</time>
      </trkpt>
      <trkpt lat="52.32304215431" lon="5.9553194046">
        <ele>19.74483614539</ele>
        <time>2022-03-19T20:35:39.579Z</time>
      </trkpt>
      <trkpt lat="52.32292413712" lon="5.95596313477">
        <ele>19.36724296761</ele>
        <time>2022-03-19T20:35:46.051Z</time>
      </trkpt>
      <trkpt lat="52.32239850797" lon="5.95910668373">
        <ele>19.06312669811</ele>
        <time>2022-03-19T20:35:52.555Z</time>
      </trkpt>
      <trkpt lat="52.32239842415" lon="5.95910668373">
        <ele>18.73824465836</ele>
        <time>2022-03-19T20:35:59.059Z</time>
      </trkpt>
      <trkpt lat="52.32222676277" lon="5.96022248268">
        <ele>18.30492398421</ele>
        <time>2022-03-19T20:36:05.575Z</time>
      </trkpt>
      <trkpt lat="52.32216247357" lon="5.96074819565">
        <ele>18.06285848032</ele>
        <time>2022-03-19T20:36:12.096Z</time>
      </trkpt>
      <trkpt lat="52.32216238976" lon="5.96074819565">
        <ele>17.74914096553</ele>
        <time>2022-03-19T20:36:18.617Z</time>
      </trkpt>
      <trkpt lat="52.32206591405" lon="5.96155285835">
        <ele>17.53488384885</ele>
        <time>2022-03-19T20:36:25.146Z</time>
      </trkpt>
      <trkpt lat="52.32206583023" lon="5.96155285835">
        <ele>17.23553532462</ele>
        <time>2022-03-19T20:36:31.675Z</time>
      </trkpt>
      <trkpt lat="52.32186198235" lon="5.96369862556">
        <ele>16.84778148332</ele>
        <time>2022-03-19T20:36:38.225Z</time>
      </trkpt>
      <trkpt lat="52.32174404897" lon="5.96525430679">
        <ele>16.49685839925</ele>
        <time>2022-03-19T20:36:44.791Z</time>
      </trkpt>
      <trkpt lat="52.32174396515" lon="5.96525430679">
        <ele>16.23412315846</ele>
        <time>2022-03-19T20:36:51.357Z</time>
      </trkpt>
      <trkpt lat="52.32149720192" lon="5.9688270092">
        <ele>15.9885600316</ele>
        <time>2022-03-19T20:36:57.958Z</time>
      </trkpt>
      <trkpt lat="52.32148647308" lon="5.9694814682">
        <ele>15.79560087758</ele>
        <time>2022-03-19T20:37:04.565Z</time>
      </trkpt>
      <trkpt lat="52.32156157494" lon="5.9717130661">
        <ele>15.41605167762</ele>
        <time>2022-03-19T20:37:11.194Z</time>
      </trkpt>
      <trkpt lat="52.32155092992" lon="5.97218513489">
        <ele>15.32683654898</ele>
        <time>2022-03-19T20:37:17.828Z</time>
      </trkpt>
      <trkpt lat="52.32146501541" lon="5.97308635712">
        <ele>15.23568361913</ele>
        <time>2022-03-19T20:37:24.471Z</time>
      </trkpt>
      <trkpt lat="52.32136845589" lon="5.97427725792">
        <ele>14.9930612337</ele>
        <time>2022-03-19T20:37:31.126Z</time>
      </trkpt>
      <trkpt lat="52.32138991356" lon="5.97521066666">
        <ele>14.86757920238</ele>
        <time>2022-03-19T20:37:37.790Z</time>
      </trkpt>
      <trkpt lat="52.32145428658" lon="5.97654104233">
        <ele>14.72672570665</ele>
        <time>2022-03-19T20:37:44.467Z</time>
      </trkpt>
      <trkpt lat="52.32144355774" lon="5.97691655159">
        <ele>14.57646758907</ele>
        <time>2022-03-19T20:37:51.148Z</time>
      </trkpt>
      <trkpt lat="52.32138991356" lon="5.97697019577">
        <ele>14.52060754928</ele>
        <time>2022-03-19T20:37:57.830Z</time>
      </trkpt>
      <trkpt lat="52.3213363532" lon="5.97754955292">
        <ele>14.52768147301</ele>
        <time>2022-03-19T20:38:04.517Z</time>
      </trkpt>
      <trkpt lat="52.32127189636" lon="5.97757101059">
        <ele>14.50957284963</ele>
        <time>2022-03-19T20:38:11.205Z</time>
      </trkpt>
      <trkpt lat="52.32122906484" lon="5.97764611244">
        <ele>14.48390061614</ele>
        <time>2022-03-19T20:38:17.894Z</time>
      </trkpt>
      <trkpt lat="52.32122898102" lon="5.97774267197">
        <ele>14.46683676845</ele>
        <time>2022-03-19T20:38:24.584Z</time>
      </trkpt>
      <trkpt lat="52.32126125135" lon="5.97782850266">
        <ele>14.45593613339</ele>
        <time>2022-03-19T20:38:31.275Z</time>
      </trkpt>
      <trkpt lat="52.32131481171" lon="5.97784996033">
        <ele>14.44887798907</ele>
        <time>2022-03-19T20:38:37.967Z</time>
      </trkpt>
      <trkpt lat="52.32135772705" lon="5.97782850266">
        <ele>14.43920478074</ele>
        <time>2022-03-19T20:38:44.660Z</time>
      </trkpt>
      <trkpt lat="52.32184060849" lon="5.97809672356">
        <ele>14.32104216151</ele>
        <time>2022-03-19T20:38:51.361Z</time>
      </trkpt>
      <trkpt lat="52.32209801674" lon="5.9781396389">
        <ele>14.35037093235</ele>
        <time>2022-03-19T20:38:58.066Z</time>
      </trkpt>
      <trkpt lat="52.32255935669" lon="5.97832202911">
        <ele>14.42461893601</ele>
        <time>2022-03-19T20:39:04.779Z</time>
      </trkpt>
      <trkpt lat="52.32303142548" lon="5.97853660583">
        <ele>14.40996941009</ele>
        <time>2022-03-19T20:39:11.500Z</time>
      </trkpt>
      <trkpt lat="52.3234499339" lon="5.97876191139">
        <ele>14.42105908676</ele>
        <time>2022-03-19T20:39:18.228Z</time>
      </trkpt>
      <trkpt lat="52.32392191887" lon="5.97905158997">
        <ele>14.46260455789</ele>
        <time>2022-03-19T20:39:24.964Z</time>
      </trkpt>
      <trkpt lat="52.32442122884" lon="5.97945258021">
        <ele>14.29812265888</ele>
        <time>2022-03-19T20:39:31.709Z</time>
      </trkpt>
      <trkpt lat="52.32442139648" lon="5.97945266403">
        <ele>14.23878592539</ele>
        <time>2022-03-19T20:39:38.454Z</time>
      </trkpt>
      <trkpt lat="52.32442122884" lon="5.97945258021">
        <ele>14.29812265888</ele>
        <time>2022-03-19T20:39:45.199Z</time>
      </trkpt>
      <trkpt lat="52.32457637787" lon="5.97957730293">
        <ele>14.05290950204</ele>
        <time>2022-03-19T20:39:51.947Z</time>
      </trkpt>
      <trkpt lat="52.32471593656" lon="5.97972750664">
        <ele>13.93307726613</ele>
        <time>2022-03-19T20:39:58.697Z</time>
      </trkpt>
      <trkpt lat="52.325091362" lon="5.98014593124">
        <ele>13.85044615432</ele>
        <time>2022-03-19T20:40:05.455Z</time>
      </trkpt>
      <trkpt lat="52.32547768392" lon="5.98059654236">
        <ele>13.7542662926</ele>
        <time>2022-03-19T20:40:12.220Z</time>
      </trkpt>
      <trkpt lat="52.32581019402" lon="5.98099350929">
        <ele>13.65630897314</ele>
        <time>2022-03-19T20:40:18.992Z</time>
      </trkpt>
      <trkpt lat="52.32615351677" lon="5.9812939167">
        <ele>13.53743466362</ele>
        <time>2022-03-19T20:40:25.770Z</time>
      </trkpt>
      <trkpt lat="52.32650756836" lon="5.9815299511">
        <ele>13.39886230085</ele>
        <time>2022-03-19T20:40:32.554Z</time>
      </trkpt>
      <trkpt lat="52.32688316144" lon="5.98169088364">
        <ele>13.30971956266</ele>
        <time>2022-03-19T20:40:39.344Z</time>
      </trkpt>
      <trkpt lat="52.32688307762" lon="5.98169088364">
        <ele>13.22826857746</ele>
        <time>2022-03-19T20:40:46.134Z</time>
      </trkpt>
      <trkpt lat="52.32751607895" lon="5.98187327385">
        <ele>13.20397979909</ele>
        <time>2022-03-19T20:40:52.935Z</time>
      </trkpt>
      <trkpt lat="52.32784867287" lon="5.98183035851">
        <ele>13.15869822608</ele>
        <time>2022-03-19T20:40:59.741Z</time>
      </trkpt>
      <trkpt lat="52.32857823372" lon="5.98149776459">
        <ele>13.10399636112</ele>
        <time>2022-03-19T20:41:06.559Z</time>
      </trkpt>
      <trkpt lat="52.32887872495" lon="5.98147630692">
        <ele>12.9953603909</ele>
        <time>2022-03-19T20:41:13.382Z</time>
      </trkpt>
      <trkpt lat="52.32887864113" lon="5.98147630692">
        <ele>12.97265186348</ele>
        <time>2022-03-19T20:41:20.205Z</time>
      </trkpt>
      <trkpt lat="52.32926496305" lon="5.98147630692">
        <ele>12.91113777097</ele>
        <time>2022-03-19T20:41:27.034Z</time>
      </trkpt>
      <trkpt lat="52.32968338765" lon="5.98155140877">
        <ele>12.92526964553</ele>
        <time>2022-03-19T20:41:33.870Z</time>
      </trkpt>
      <trkpt lat="52.33052023686" lon="5.98171234131">
        <ele>13.02420808406</ele>
        <time>2022-03-19T20:41:40.719Z</time>
      </trkpt>
      <trkpt lat="52.33115315437" lon="5.98187327385">
        <ele>13.0731198854</ele>
        <time>2022-03-19T20:41:47.579Z</time>
      </trkpt>
      <trkpt lat="52.33126044273" lon="5.98187327385">
        <ele>13.11883098746</ele>
        <time>2022-03-19T20:41:54.440Z</time>
      </trkpt>
      <trkpt lat="52.33208656311" lon="5.98203420639">
        <ele>13.06484447595</ele>
        <time>2022-03-19T20:42:01.315Z</time>
      </trkpt>
      <trkpt lat="52.3324943427" lon="5.98207712173">
        <ele>13.41729133174</ele>
        <time>2022-03-19T20:42:08.196Z</time>
      </trkpt>
      <trkpt lat="52.33249425888" lon="5.98207712173">
        <ele>13.53593710112</ele>
        <time>2022-03-19T20:42:15.077Z</time>
      </trkpt>
      <trkpt lat="52.33284831047" lon="5.98192691803">
        <ele>13.69154892779</ele>
        <time>2022-03-19T20:42:21.964Z</time>
      </trkpt>
      <trkpt lat="52.33441472054" lon="5.981143713">
        <ele>13.8243052792</ele>
        <time>2022-03-19T20:42:28.877Z</time>
      </trkpt>
      <trkpt lat="52.33457565308" lon="5.98110079765">
        <ele>13.9329553952</ele>
        <time>2022-03-19T20:42:35.793Z</time>
      </trkpt>
      <trkpt lat="52.33485460281" lon="5.98093986511">
        <ele>14.12525740572</ele>
        <time>2022-03-19T20:42:42.714Z</time>
      </trkpt>
      <trkpt lat="52.33504772186" lon="5.98077893257">
        <ele>14.28323919992</ele>
        <time>2022-03-19T20:42:49.638Z</time>
      </trkpt>
      <trkpt lat="52.3353266716" lon="5.98069310188">
        <ele>14.45891586191</ele>
        <time>2022-03-19T20:42:56.567Z</time>
      </trkpt>
      <trkpt lat="52.33557343483" lon="5.98091840744">
        <ele>14.58621160942</ele>
        <time>2022-03-19T20:43:03.500Z</time>
      </trkpt>
      <trkpt lat="52.33554124832" lon="5.98055362701">
        <ele>14.70040484569</ele>
        <time>2022-03-19T20:43:10.437Z</time>
      </trkpt>
      <trkpt lat="52.33549833298" lon="5.98023176193">
        <ele>14.78203972739</ele>
        <time>2022-03-19T20:43:17.377Z</time>
      </trkpt>
      <trkpt lat="52.33539104462" lon="5.97988843918">
        <ele>14.87143953781</ele>
        <time>2022-03-19T20:43:24.321Z</time>
      </trkpt>
      <trkpt lat="52.33572363853" lon="5.97757101059">
        <ele>14.86695722976</ele>
        <time>2022-03-19T20:43:31.288Z</time>
      </trkpt>
      <trkpt lat="52.33572372235" lon="5.97730278969">
        <ele>14.97836348905</ele>
        <time>2022-03-19T20:43:38.258Z</time>
      </trkpt>
      <trkpt lat="52.33572363853" lon="5.9770989418">
        <ele>15.09163692074</ele>
        <time>2022-03-19T20:43:45.230Z</time>
      </trkpt>
      <trkpt lat="52.33570218086" lon="5.97686290741">
        <ele>15.24148870957</ele>
        <time>2022-03-19T20:43:52.204Z</time>
      </trkpt>
      <trkpt lat="52.33562707901" lon="5.97647666931">
        <ele>15.4086977121</ele>
        <time>2022-03-19T20:43:59.182Z</time>
      </trkpt>
      <trkpt lat="52.33531594276" lon="5.97533941269">
        <ele>15.59663096017</ele>
        <time>2022-03-19T20:44:06.173Z</time>
      </trkpt>
      <trkpt lat="52.33528384008" lon="5.97501754761">
        <ele>15.66655162983</ele>
        <time>2022-03-19T20:44:13.167Z</time>
      </trkpt>
      <trkpt lat="52.33531594276" lon="5.97484588623">
        <ele>15.75361116723</ele>
        <time>2022-03-19T20:44:20.162Z</time>
      </trkpt>
      <trkpt lat="52.33555197716" lon="5.97392320633">
        <ele>15.86675155393</ele>
        <time>2022-03-19T20:44:27.167Z</time>
      </trkpt>
      <trkpt lat="52.33557351865" lon="5.97376227379">
        <ele>15.97330004679</ele>
        <time>2022-03-19T20:44:34.174Z</time>
      </trkpt>
      <trkpt lat="52.33557343483" lon="5.97376227379">
        <ele>16.03886836097</ele>
        <time>2022-03-19T20:44:41.181Z</time>
      </trkpt>
      <trkpt lat="52.3355948925" lon="5.97368717194">
        <ele>16.08374475008</ele>
        <time>2022-03-19T20:44:48.189Z</time>
      </trkpt>
      <trkpt lat="52.33562707901" lon="5.97138047218">
        <ele>16.09135592751</ele>
        <time>2022-03-19T20:44:55.219Z</time>
      </trkpt>
      <trkpt lat="52.33579874039" lon="5.97002863884">
        <ele>16.17381116274</ele>
        <time>2022-03-19T20:45:02.263Z</time>
      </trkpt>
      <trkpt lat="52.33584165573" lon="5.96752882004">
        <ele>16.14243522739</ele>
        <time>2022-03-19T20:45:09.331Z</time>
      </trkpt>
      <trkpt lat="52.33745098114" lon="5.96853733063">
        <ele>16.28779114099</ele>
        <time>2022-03-19T20:45:16.427Z</time>
      </trkpt>
      <trkpt lat="52.33765482903" lon="5.96871972084">
        <ele>16.19039469423</ele>
        <time>2022-03-19T20:45:23.527Z</time>
      </trkpt>
      <trkpt lat="52.33811625279" lon="5.96927762032">
        <ele>16.01381727117</ele>
        <time>2022-03-19T20:45:30.636Z</time>
      </trkpt>
      <trkpt lat="52.33811616898" lon="5.96927762032">
        <ele>15.90975969833</ele>
        <time>2022-03-19T20:45:37.745Z</time>
      </trkpt>
      <trkpt lat="52.33880281448" lon="5.97011446953">
        <ele>15.73618460625</ele>
        <time>2022-03-19T20:45:44.868Z</time>
      </trkpt>
      <trkpt lat="52.33902812004" lon="5.97032904625">
        <ele>15.6028220686</ele>
        <time>2022-03-19T20:45:51.995Z</time>
      </trkpt>
      <trkpt lat="52.33933925629" lon="5.97057580948">
        <ele>15.3641158458</ele>
        <time>2022-03-19T20:45:59.127Z</time>
      </trkpt>
      <trkpt lat="52.33946808614" lon="5.9706401825">
        <ele>15.17501112355</ele>
        <time>2022-03-19T20:46:06.262Z</time>
      </trkpt>
      <trkpt lat="52.33974695206" lon="5.97080111504">
        <ele>15.01678299335</ele>
        <time>2022-03-19T20:46:13.401Z</time>
      </trkpt>
      <trkpt lat="52.3403263092" lon="5.97100496292">
        <ele>14.93221378187</ele>
        <time>2022-03-19T20:46:20.550Z</time>
      </trkpt>
      <trkpt lat="52.34043359756" lon="5.97101569176">
        <ele>14.79572813464</ele>
        <time>2022-03-19T20:46:27.701Z</time>
      </trkpt>
      <trkpt lat="52.34062671661" lon="5.97098350525">
        <ele>14.66751745105</ele>
        <time>2022-03-19T20:46:34.855Z</time>
      </trkpt>
      <trkpt lat="52.34080910683" lon="5.97084403038">
        <ele>14.51699700753</ele>
        <time>2022-03-19T20:46:42.012Z</time>
      </trkpt>
      <trkpt lat="52.34092712402" lon="5.97069382668">
        <ele>14.3080889312</ele>
        <time>2022-03-19T20:46:49.171Z</time>
      </trkpt>
      <trkpt lat="52.34103441238" lon="5.97053289413">
        <ele>14.14256474104</ele>
        <time>2022-03-19T20:46:56.333Z</time>
      </trkpt>
      <trkpt lat="52.34114170074" lon="5.97032904625">
        <ele>14.03220289725</ele>
        <time>2022-03-19T20:47:03.497Z</time>
      </trkpt>
      <trkpt lat="52.34124898911" lon="5.97005009651">
        <ele>13.94757387398</ele>
        <time>2022-03-19T20:47:10.665Z</time>
      </trkpt>
      <trkpt lat="52.34144210815" lon="5.96927762032">
        <ele>13.89361755676</ele>
        <time>2022-03-19T20:47:17.841Z</time>
      </trkpt>
      <trkpt lat="52.3416352272" lon="5.9682905674">
        <ele>13.83490920172</ele>
        <time>2022-03-19T20:47:25.027Z</time>
      </trkpt>
      <trkpt lat="52.34176405706" lon="5.96761465073">
        <ele>13.86609797347</ele>
        <time>2022-03-19T20:47:32.220Z</time>
      </trkpt>
      <trkpt lat="52.34178543091" lon="5.96745371819">
        <ele>13.924840302</ele>
        <time>2022-03-19T20:47:39.414Z</time>
      </trkpt>
      <trkpt lat="52.34176397324" lon="5.96708893776">
        <ele>13.95710703866</ele>
        <time>2022-03-19T20:47:46.612Z</time>
      </trkpt>
      <trkpt lat="52.34176405706" lon="5.96694946289">
        <ele>14.09614715682</ele>
        <time>2022-03-19T20:47:53.811Z</time>
      </trkpt>
      <trkpt lat="52.34178543091" lon="5.96654176712">
        <ele>14.35365988182</ele>
        <time>2022-03-19T20:48:01.014Z</time>
      </trkpt>
      <trkpt lat="52.34177470207" lon="5.96629500389">
        <ele>14.7430831642</ele>
        <time>2022-03-19T20:48:08.220Z</time>
      </trkpt>
      <trkpt lat="52.34153866768" lon="5.96321582794">
        <ele>15.23704398758</ele>
        <time>2022-03-19T20:48:15.456Z</time>
      </trkpt>
      <trkpt lat="52.34151721001" lon="5.96269011497">
        <ele>15.68971770588</ele>
        <time>2022-03-19T20:48:22.697Z</time>
      </trkpt>
      <trkpt lat="52.3415387515" lon="5.96219658852">
        <ele>16.00296905102</ele>
        <time>2022-03-19T20:48:29.943Z</time>
      </trkpt>
      <trkpt lat="52.34156012535" lon="5.96182107925">
        <ele>16.45880352168</ele>
        <time>2022-03-19T20:48:37.193Z</time>
      </trkpt>
      <trkpt lat="52.34156020917" lon="5.96182107925">
        <ele>16.98273739035</ele>
        <time>2022-03-19T20:48:44.443Z</time>
      </trkpt>
      <trkpt lat="52.34168887138" lon="5.95796942711">
        <ele>17.69155755741</ele>
        <time>2022-03-19T20:48:51.731Z</time>
      </trkpt>
      <trkpt lat="52.3416889552" lon="5.95796942711">
        <ele>18.28961145999</ele>
        <time>2022-03-19T20:48:59.019Z</time>
      </trkpt>
      <trkpt lat="52.34173187055" lon="5.95684289932">
        <ele>18.98084452088</ele>
        <time>2022-03-19T20:49:06.318Z</time>
      </trkpt>
      <trkpt lat="52.34177470207" lon="5.95563054085">
        <ele>19.69363405571</ele>
        <time>2022-03-19T20:49:13.629Z</time>
      </trkpt>
      <trkpt lat="52.34183907509" lon="5.95431089401">
        <ele>20.45273197522</ele>
        <time>2022-03-19T20:49:20.953Z</time>
      </trkpt>
      <trkpt lat="52.3418712616" lon="5.95399975777">
        <ele>21.14769184097</ele>
        <time>2022-03-19T20:49:28.280Z</time>
      </trkpt>
      <trkpt lat="52.34205365181" lon="5.95316290855">
        <ele>21.85945116744</ele>
        <time>2022-03-19T20:49:35.616Z</time>
      </trkpt>
      <trkpt lat="52.34225758351" lon="5.95241189003">
        <ele>22.5888145927</ele>
        <time>2022-03-19T20:49:42.960Z</time>
      </trkpt>
      <trkpt lat="52.34225749969" lon="5.95241189003">
        <ele>23.23996022622</ele>
        <time>2022-03-19T20:49:50.304Z</time>
      </trkpt>
      <trkpt lat="52.3425794486" lon="5.95127463341">
        <ele>24.09845728209</ele>
        <time>2022-03-19T20:49:57.660Z</time>
      </trkpt>
      <trkpt lat="52.34257936478" lon="5.95127463341">
        <ele>24.7082414906</ele>
        <time>2022-03-19T20:50:05.016Z</time>
      </trkpt>
      <trkpt lat="52.34312661923" lon="5.94846367836">
        <ele>25.22319982526</ele>
        <time>2022-03-19T20:50:12.401Z</time>
      </trkpt>
      <trkpt lat="52.34312653542" lon="5.94846367836">
        <ele>25.77898649899</ele>
        <time>2022-03-19T20:50:19.786Z</time>
      </trkpt>
      <trkpt lat="52.34334119596" lon="5.9474337101">
        <ele>26.29706842225</ele>
        <time>2022-03-19T20:50:27.182Z</time>
      </trkpt>
      <trkpt lat="52.34351285733" lon="5.94662904739">
        <ele>26.79840711595</ele>
        <time>2022-03-19T20:50:34.586Z</time>
      </trkpt>
      <trkpt lat="52.34357287176" lon="5.94593376853">
        <ele>27.28730268602</ele>
        <time>2022-03-19T20:50:41.997Z</time>
      </trkpt>
      <trkpt lat="52.34357287176" lon="5.94593360089">
        <ele>27.73767917779</ele>
        <time>2022-03-19T20:50:49.408Z</time>
      </trkpt>
      <trkpt lat="52.34357287176" lon="5.94593376853">
        <ele>27.28730268602</ele>
        <time>2022-03-19T20:50:56.819Z</time>
      </trkpt>
      <trkpt lat="52.34368451871" lon="5.94464421272">
        <ele>28.60952750774</ele>
        <time>2022-03-19T20:51:04.243Z</time>
      </trkpt>
      <trkpt lat="52.34368443489" lon="5.94464421272">
        <ele>28.98277672815</ele>
        <time>2022-03-19T20:51:11.667Z</time>
      </trkpt>
      <trkpt lat="52.34379172325" lon="5.94351768494">
        <ele>29.52661340347</ele>
        <time>2022-03-19T20:51:19.102Z</time>
      </trkpt>
      <trkpt lat="52.34384536743" lon="5.94242334366">
        <ele>29.78964441584</ele>
        <time>2022-03-19T20:51:26.548Z</time>
      </trkpt>
      <trkpt lat="52.34408140182" lon="5.93939781189">
        <ele>30.09659129306</ele>
        <time>2022-03-19T20:51:34.024Z</time>
      </trkpt>
      <trkpt lat="52.34417796135" lon="5.93796014786">
        <ele>30.19145256184</ele>
        <time>2022-03-19T20:51:41.514Z</time>
      </trkpt>
      <trkpt lat="52.34457492828" lon="5.93281030655">
        <ele>30.43242472985</ele>
        <time>2022-03-19T20:51:49.055Z</time>
      </trkpt>
      <trkpt lat="52.34462865628" lon="5.93239188194">
        <ele>30.65939104003</ele>
        <time>2022-03-19T20:51:56.600Z</time>
      </trkpt>
      <trkpt lat="52.34473586082" lon="5.93187689781">
        <ele>30.81499989551</ele>
        <time>2022-03-19T20:52:04.150Z</time>
      </trkpt>
      <trkpt lat="52.34499335289" lon="5.93090057373">
        <ele>31.30985393668</ele>
        <time>2022-03-19T20:52:11.711Z</time>
      </trkpt>
      <trkpt lat="52.34507918358" lon="5.93057870865">
        <ele>31.39010827356</ele>
        <time>2022-03-19T20:52:19.275Z</time>
      </trkpt>
      <trkpt lat="52.3453474883" lon="5.92977404594">
        <ele>31.16334977895</ele>
        <time>2022-03-19T20:52:26.848Z</time>
      </trkpt>
      <trkpt lat="52.34548696317" lon="5.92924833298">
        <ele>30.87144466789</ele>
        <time>2022-03-19T20:52:34.427Z</time>
      </trkpt>
      <trkpt lat="52.34548687935" lon="5.92924833298">
        <ele>30.8109971604</ele>
        <time>2022-03-19T20:52:42.006Z</time>
      </trkpt>
      <trkpt lat="52.34554052353" lon="5.92906594276">
        <ele>30.67551958734</ele>
        <time>2022-03-19T20:52:49.587Z</time>
      </trkpt>
      <trkpt lat="52.34616287984" lon="5.92635154724">
        <ele>31.32964173799</ele>
        <time>2022-03-19T20:52:57.196Z</time>
      </trkpt>
      <trkpt lat="52.34694600105" lon="5.92297196388">
        <ele>31.04945389965</ele>
        <time>2022-03-19T20:53:04.841Z</time>
      </trkpt>
      <trkpt lat="52.34734305181" lon="5.92121243477">
        <ele>30.86258206172</ele>
        <time>2022-03-19T20:53:12.504Z</time>
      </trkpt>
      <trkpt lat="52.34734305181" lon="5.92120170593">
        <ele>30.56173623129</ele>
        <time>2022-03-19T20:53:20.167Z</time>
      </trkpt>
      <trkpt lat="52.34780430794" lon="5.91954946518">
        <ele>29.77338523613</ele>
        <time>2022-03-19T20:53:27.848Z</time>
      </trkpt>
      <trkpt lat="52.34819054604" lon="5.91820836067">
        <ele>29.20091949275</ele>
        <time>2022-03-19T20:53:35.544Z</time>
      </trkpt>
      <trkpt lat="52.34824419022" lon="5.91813325882">
        <ele>28.78060329349</ele>
        <time>2022-03-19T20:53:43.241Z</time>
      </trkpt>
      <trkpt lat="52.34869480133" lon="5.91799378395">
        <ele>28.47291877899</ele>
        <time>2022-03-19T20:53:50.945Z</time>
      </trkpt>
      <trkpt lat="52.34938144684" lon="5.91761827469">
        <ele>28.02319674108</ele>
        <time>2022-03-19T20:53:58.661Z</time>
      </trkpt>
      <trkpt lat="52.34953173436" lon="5.91755390167">
        <ele>27.68237016356</ele>
        <time>2022-03-19T20:54:06.379Z</time>
      </trkpt>
      <trkpt lat="52.34953165054" lon="5.91755390167">
        <ele>27.37001541946</ele>
        <time>2022-03-19T20:54:14.097Z</time>
      </trkpt>
      <trkpt lat="52.3496067524" lon="5.91755390167">
        <ele>27.09265308315</ele>
        <time>2022-03-19T20:54:21.816Z</time>
      </trkpt>
      <trkpt lat="52.34972476959" lon="5.91760754585">
        <ele>26.855664977</ele>
        <time>2022-03-19T20:54:29.537Z</time>
      </trkpt>
      <trkpt lat="52.34988570213" lon="5.91776847839">
        <ele>26.66332386041</ele>
        <time>2022-03-19T20:54:37.261Z</time>
      </trkpt>
      <trkpt lat="52.35047587194" lon="5.91858386993">
        <ele>26.73778727651</ele>
        <time>2022-03-19T20:54:44.998Z</time>
      </trkpt>
      <trkpt lat="52.35047578812" lon="5.91858386993">
        <ele>26.63910924215</ele>
        <time>2022-03-19T20:54:52.735Z</time>
      </trkpt>
      <trkpt lat="52.35063672066" lon="5.91881990433">
        <ele>26.52110892799</ele>
        <time>2022-03-19T20:55:00.475Z</time>
      </trkpt>
      <trkpt lat="52.35082983971" lon="5.91908812523">
        <ele>26.39822823287</ele>
        <time>2022-03-19T20:55:08.219Z</time>
      </trkpt>
      <trkpt lat="52.35170088708" lon="5.9198988229">
        <ele>26.44240130686</ele>
        <time>2022-03-19T20:55:15.979Z</time>
      </trkpt>
      <trkpt lat="52.3517009709" lon="5.91989890672">
        <ele>26.56219900273</ele>
        <time>2022-03-19T20:55:23.739Z</time>
      </trkpt>
      <trkpt lat="52.35253572464" lon="5.92067599297">
        <ele>26.84560681726</ele>
        <time>2022-03-19T20:55:31.515Z</time>
      </trkpt>
      <trkpt lat="52.35295414925" lon="5.92100858688">
        <ele>27.1789932789</ele>
        <time>2022-03-19T20:55:39.298Z</time>
      </trkpt>
      <trkpt lat="52.35364079475" lon="5.92149138451">
        <ele>27.18081188579</ele>
        <time>2022-03-19T20:55:47.093Z</time>
      </trkpt>
      <trkpt lat="52.354005659" lon="5.92169523239">
        <ele>27.57874338956</ele>
        <time>2022-03-19T20:55:54.894Z</time>
      </trkpt>
      <trkpt lat="52.35400557518" lon="5.92169523239">
        <ele>27.98981055249</ele>
        <time>2022-03-19T20:56:02.695Z</time>
      </trkpt>
      <trkpt lat="52.35457428731" lon="5.92202782631">
        <ele>28.62481884727</ele>
        <time>2022-03-19T20:56:10.506Z</time>
      </trkpt>
      <trkpt lat="52.35513210297" lon="5.922768116">
        <ele>29.12767904826</ele>
        <time>2022-03-19T20:56:18.328Z</time>
      </trkpt>
      <trkpt lat="52.35534667969" lon="5.92301487923">
        <ele>29.66592284397</ele>
        <time>2022-03-19T20:56:26.155Z</time>
      </trkpt>
      <trkpt lat="52.35541113652" lon="5.92304706573">
        <ele>30.22943531311</ele>
        <time>2022-03-19T20:56:33.983Z</time>
      </trkpt>
      <trkpt lat="52.35549688339" lon="5.92310070992">
        <ele>30.80841905523</ele>
        <time>2022-03-19T20:56:41.812Z</time>
      </trkpt>
      <trkpt lat="52.35595822334" lon="5.92327237129">
        <ele>31.57208360457</ele>
        <time>2022-03-19T20:56:49.649Z</time>
      </trkpt>
      <trkpt lat="52.35619434156" lon="5.92340111732">
        <ele>32.25213282691</ele>
        <time>2022-03-19T20:56:57.490Z</time>
      </trkpt>
      <trkpt lat="52.35691317357" lon="5.92402338982">
        <ele>32.97238940976</ele>
        <time>2022-03-19T20:57:05.344Z</time>
      </trkpt>
      <trkpt lat="52.3573744297" lon="5.92437744141">
        <ele>33.70965135741</ele>
        <time>2022-03-19T20:57:13.206Z</time>
      </trkpt>
      <trkpt lat="52.35763192177" lon="5.9246134758">
        <ele>34.20828398991</ele>
        <time>2022-03-19T20:57:21.073Z</time>
      </trkpt>
      <trkpt lat="52.35796451569" lon="5.92496752739">
        <ele>34.53729189106</ele>
        <time>2022-03-19T20:57:28.946Z</time>
      </trkpt>
      <trkpt lat="52.35825427808" lon="5.92522501945">
        <ele>34.82784029172</ele>
        <time>2022-03-19T20:57:36.824Z</time>
      </trkpt>
      <trkpt lat="52.35825419426" lon="5.92522501945">
        <ele>35.08023715221</ele>
        <time>2022-03-19T20:57:44.702Z</time>
      </trkpt>
      <trkpt lat="52.35861897469" lon="5.92547178268">
        <ele>35.2361241552</ele>
        <time>2022-03-19T20:57:52.587Z</time>
      </trkpt>
      <trkpt lat="52.35866189003" lon="5.92555761337">
        <ele>35.32949007869</ele>
        <time>2022-03-19T20:58:00.473Z</time>
      </trkpt>
      <trkpt lat="52.35884428024" lon="5.92583656311">
        <ele>35.30878138389</ele>
        <time>2022-03-19T20:58:08.363Z</time>
      </trkpt>
      <trkpt lat="52.35896229744" lon="5.92600822449">
        <ele>35.24907460831</ele>
        <time>2022-03-19T20:58:16.255Z</time>
      </trkpt>
      <trkpt lat="52.35906966962" lon="5.92611551285">
        <ele>35.17993964934</ele>
        <time>2022-03-19T20:58:24.149Z</time>
      </trkpt>
      <trkpt lat="52.35914477147" lon="5.92626571655">
        <ele>35.06598483854</ele>
        <time>2022-03-19T20:58:32.045Z</time>
      </trkpt>
      <trkpt lat="52.35925205983" lon="5.92635154724">
        <ele>34.98323521102</ele>
        <time>2022-03-19T20:58:39.943Z</time>
      </trkpt>
      <trkpt lat="52.35925197601" lon="5.92635154724">
        <ele>34.90478542683</ele>
        <time>2022-03-19T20:58:47.841Z</time>
      </trkpt>
      <trkpt lat="52.35931643285" lon="5.92639446259">
        <ele>34.81188726697</ele>
        <time>2022-03-19T20:58:55.740Z</time>
      </trkpt>
      <trkpt lat="52.35939145088" lon="5.92643737793">
        <ele>34.72066741409</ele>
        <time>2022-03-19T20:59:03.641Z</time>
      </trkpt>
      <trkpt lat="52.35948801041" lon="5.92639446259">
        <ele>34.6947552177</ele>
        <time>2022-03-19T20:59:11.543Z</time>
      </trkpt>
      <trkpt lat="52.35953100957" lon="5.92652320862">
        <ele>34.62362799969</ele>
        <time>2022-03-19T20:59:19.447Z</time>
      </trkpt>
      <trkpt lat="52.35956319608" lon="5.92664122581">
        <ele>34.58636988429</ele>
        <time>2022-03-19T20:59:27.352Z</time>
      </trkpt>
      <trkpt lat="52.35956311226" lon="5.92664122581">
        <ele>34.54832471102</ele>
        <time>2022-03-19T20:59:35.257Z</time>
      </trkpt>
      <trkpt lat="52.35970258713" lon="5.92655539513">
        <ele>34.58174008144</ele>
        <time>2022-03-19T20:59:43.164Z</time>
      </trkpt>
      <trkpt lat="52.35974550247" lon="5.92648029327">
        <ele>34.58823658858</ele>
        <time>2022-03-19T20:59:51.072Z</time>
      </trkpt>
      <trkpt lat="52.35998153687" lon="5.92636227608">
        <ele>34.67845215841</ele>
        <time>2022-03-19T20:59:58.984Z</time>
      </trkpt>
      <trkpt lat="52.36136564054" lon="5.92550396919">
        <ele>34.72748081519</ele>
        <time>2022-03-19T21:00:06.920Z</time>
      </trkpt>
      <trkpt lat="52.36136555672" lon="5.92550396919">
        <ele>34.75648505361</ele>
        <time>2022-03-19T21:00:14.856Z</time>
      </trkpt>
      <trkpt lat="52.36184843816" lon="5.92521429062">
        <ele>34.79637286333</ele>
        <time>2022-03-19T21:00:22.800Z</time>
      </trkpt>
      <trkpt lat="52.36184835434" lon="5.92521429062">
        <ele>34.84742839446</ele>
        <time>2022-03-19T21:00:30.744Z</time>
      </trkpt>
      <trkpt lat="52.36276038922" lon="5.92466711998">
        <ele>34.82953321221</ele>
        <time>2022-03-19T21:00:38.704Z</time>
      </trkpt>
      <trkpt lat="52.36325391568" lon="5.92435598373">
        <ele>34.87437873985</ele>
        <time>2022-03-19T21:00:46.672Z</time>
      </trkpt>
      <trkpt lat="52.36325383186" lon="5.92435598373">
        <ele>34.96688071196</ele>
        <time>2022-03-19T21:00:54.640Z</time>
      </trkpt>
      <trkpt lat="52.36361869611" lon="5.92408776283">
        <ele>35.02303089943</ele>
        <time>2022-03-19T21:01:02.615Z</time>
      </trkpt>
      <trkpt lat="52.36404784955" lon="5.9238088131">
        <ele>35.22820965417</ele>
        <time>2022-03-19T21:01:10.597Z</time>
      </trkpt>
      <trkpt lat="52.36468085088" lon="5.923422575">
        <ele>35.45545213029</ele>
        <time>2022-03-19T21:01:18.590Z</time>
      </trkpt>
      <trkpt lat="52.36468076706" lon="5.923422575">
        <ele>35.60283003835</ele>
        <time>2022-03-19T21:01:26.583Z</time>
      </trkpt>
      <trkpt lat="52.36492761411" lon="5.92328310013">
        <ele>35.81749467878</ele>
        <time>2022-03-19T21:01:34.580Z</time>
      </trkpt>
      <trkpt lat="52.36607559957" lon="5.92257499695">
        <ele>36.10813472245</ele>
        <time>2022-03-19T21:01:42.597Z</time>
      </trkpt>
      <trkpt lat="52.3665905837" lon="5.92225313187">
        <ele>36.28012132428</ele>
        <time>2022-03-19T21:01:50.623Z</time>
      </trkpt>
      <trkpt lat="52.36659049988" lon="5.92225313187">
        <ele>36.44469079007</ele>
        <time>2022-03-19T21:01:58.649Z</time>
      </trkpt>
      <trkpt lat="52.36854314804" lon="5.92105150223">
        <ele>36.63680505258</ele>
        <time>2022-03-19T21:02:06.708Z</time>
      </trkpt>
      <trkpt lat="52.36891874112" lon="5.92090129852">
        <ele>36.78236920241</ele>
        <time>2022-03-19T21:02:14.773Z</time>
      </trkpt>
      <trkpt lat="52.36914404668" lon="5.920804739">
        <ele>36.99577630317</ele>
        <time>2022-03-19T21:02:22.842Z</time>
      </trkpt>
      <trkpt lat="52.36958392896" lon="5.9205365181">
        <ele>37.33342054016</ele>
        <time>2022-03-19T21:02:30.918Z</time>
      </trkpt>
      <trkpt lat="52.36958384514" lon="5.9205365181">
        <ele>37.54075071082</ele>
        <time>2022-03-19T21:02:38.994Z</time>
      </trkpt>
      <trkpt lat="52.37103223801" lon="5.91966748238">
        <ele>37.60441398323</ele>
        <time>2022-03-19T21:02:47.095Z</time>
      </trkpt>
      <trkpt lat="52.37118244171" lon="5.91953873634">
        <ele>37.8208008388</ele>
        <time>2022-03-19T21:02:55.199Z</time>
      </trkpt>
      <trkpt lat="52.37152584828" lon="5.91933488846">
        <ele>38.01974114889</ele>
        <time>2022-03-19T21:03:03.309Z</time>
      </trkpt>
      <trkpt lat="52.37197637558" lon="5.91907739639">
        <ele>38.31068694489</ele>
        <time>2022-03-19T21:03:11.426Z</time>
      </trkpt>
      <trkpt lat="52.37285622396" lon="5.91854095459">
        <ele>38.62363877107</ele>
        <time>2022-03-19T21:03:19.558Z</time>
      </trkpt>
      <trkpt lat="52.37352141179" lon="5.91814398766">
        <ele>39.20984023298</ele>
        <time>2022-03-19T21:03:27.702Z</time>
      </trkpt>
      <trkpt lat="52.37352132797" lon="5.91814398766">
        <ele>39.76021809627</ele>
        <time>2022-03-19T21:03:35.846Z</time>
      </trkpt>
      <trkpt lat="52.37546333112" lon="5.91694235802">
        <ele>40.90625692578</ele>
        <time>2022-03-19T21:03:44.023Z</time>
      </trkpt>
      <trkpt lat="52.3754632473" lon="5.91694235802">
        <ele>41.5772898897</ele>
        <time>2022-03-19T21:03:52.200Z</time>
      </trkpt>
      <trkpt lat="52.37669706345" lon="5.91625571251">
        <ele>42.41888917896</ele>
        <time>2022-03-19T21:04:00.398Z</time>
      </trkpt>
      <trkpt lat="52.37772703171" lon="5.91555833817">
        <ele>43.13107203397</ele>
        <time>2022-03-19T21:04:08.614Z</time>
      </trkpt>
      <trkpt lat="52.37996935844" lon="5.91419577599">
        <ele>43.87454562429</ele>
        <time>2022-03-19T21:04:16.868Z</time>
      </trkpt>
      <trkpt lat="52.38109588623" lon="5.91351985931">
        <ele>44.62278339897</ele>
        <time>2022-03-19T21:04:25.141Z</time>
      </trkpt>
      <trkpt lat="52.38133192062" lon="5.91388463974">
        <ele>45.61587964866</ele>
        <time>2022-03-19T21:04:33.420Z</time>
      </trkpt>
      <trkpt lat="52.38219031133" lon="5.91653466225">
        <ele>46.46349315186</ele>
        <time>2022-03-19T21:04:41.728Z</time>
      </trkpt>
      <trkpt lat="52.38255500793" lon="5.91767191887">
        <ele>47.56220308469</ele>
        <time>2022-03-19T21:04:50.049Z</time>
      </trkpt>
      <trkpt lat="52.38306999207" lon="5.91920614243">
        <ele>48.61419707871</ele>
        <time>2022-03-19T21:04:58.387Z</time>
      </trkpt>
      <trkpt lat="52.38308080472" lon="5.91923832893">
        <ele>49.64958854252</ele>
        <time>2022-03-19T21:05:06.725Z</time>
      </trkpt>
      <trkpt lat="52.38364934921" lon="5.92103004456">
        <ele>50.96310013576</ele>
        <time>2022-03-19T21:05:15.083Z</time>
      </trkpt>
      <trkpt lat="52.38364943303" lon="5.92103004456">
        <ele>51.98337720729</ele>
        <time>2022-03-19T21:05:23.441Z</time>
      </trkpt>
      <trkpt lat="52.38471150398" lon="5.92439889908">
        <ele>53.05237874178</ele>
        <time>2022-03-19T21:05:31.836Z</time>
      </trkpt>
      <trkpt lat="52.38587021828" lon="5.92778921127">
        <ele>54.19397908782</ele>
        <time>2022-03-19T21:05:40.269Z</time>
      </trkpt>
      <trkpt lat="52.38652467728" lon="5.9298491478">
        <ele>55.1622023635</ele>
        <time>2022-03-19T21:05:48.725Z</time>
      </trkpt>
      <trkpt lat="52.3865247611" lon="5.9298491478">
        <ele>55.95383424401</ele>
        <time>2022-03-19T21:05:57.181Z</time>
      </trkpt>
      <trkpt lat="52.3889708519" lon="5.93740224838">
        <ele>57.0611907716</ele>
        <time>2022-03-19T21:06:05.721Z</time>
      </trkpt>
      <trkpt lat="52.38964676857" lon="5.93929052353">
        <ele>57.80625064383</ele>
        <time>2022-03-19T21:06:14.282Z</time>
      </trkpt>
      <trkpt lat="52.39008665085" lon="5.94058871269">
        <ele>58.13940863801</ele>
        <time>2022-03-19T21:06:22.858Z</time>
      </trkpt>
      <trkpt lat="52.39008673467" lon="5.94058871269">
        <ele>58.4371378698</ele>
        <time>2022-03-19T21:06:31.434Z</time>
      </trkpt>
      <trkpt lat="52.39080548286" lon="5.94278812408">
        <ele>58.27698834225</ele>
        <time>2022-03-19T21:06:40.034Z</time>
      </trkpt>
      <trkpt lat="52.39080556668" lon="5.94278812408">
        <ele>58.3016274885</ele>
        <time>2022-03-19T21:06:48.634Z</time>
      </trkpt>
      <trkpt lat="52.39206075668" lon="5.9466612339">
        <ele>58.13220305152</ele>
        <time>2022-03-19T21:06:57.277Z</time>
      </trkpt>
      <trkpt lat="52.39332675934" lon="5.95034122467">
        <ele>57.8396665942</ele>
        <time>2022-03-19T21:07:05.961Z</time>
      </trkpt>
      <trkpt lat="52.39349842072" lon="5.95161795616">
        <ele>57.63841051588</ele>
        <time>2022-03-19T21:07:14.658Z</time>
      </trkpt>
      <trkpt lat="52.39364862442" lon="5.95305562019">
        <ele>57.09391762707</ele>
        <time>2022-03-19T21:07:23.370Z</time>
      </trkpt>
      <trkpt lat="52.39376664162" lon="5.95342040062">
        <ele>56.53905632975</ele>
        <time>2022-03-19T21:07:32.086Z</time>
      </trkpt>
      <trkpt lat="52.39391684532" lon="5.9537422657">
        <ele>55.88594322142</ele>
        <time>2022-03-19T21:07:40.806Z</time>
      </trkpt>
      <trkpt lat="52.39485025406" lon="5.95530867577">
        <ele>55.00015652737</ele>
        <time>2022-03-19T21:07:49.547Z</time>
      </trkpt>
      <trkpt lat="52.39599823952" lon="5.95729351044">
        <ele>53.89454463603</ele>
        <time>2022-03-19T21:07:58.315Z</time>
      </trkpt>
      <trkpt lat="52.39641666412" lon="5.95817327499">
        <ele>53.05560096951</ele>
        <time>2022-03-19T21:08:07.094Z</time>
      </trkpt>
      <trkpt lat="52.39641674794" lon="5.95817327499">
        <ele>52.16992951518</ele>
        <time>2022-03-19T21:08:15.873Z</time>
      </trkpt>
      <trkpt lat="52.39675998688" lon="5.95903158188">
        <ele>51.14524858627</ele>
        <time>2022-03-19T21:08:24.662Z</time>
      </trkpt>
      <trkpt lat="52.39692091942" lon="5.95920324326">
        <ele>50.14004195531</ele>
        <time>2022-03-19T21:08:33.454Z</time>
      </trkpt>
      <trkpt lat="52.3969745636" lon="5.95929980278">
        <ele>49.18894739508</ele>
        <time>2022-03-19T21:08:42.247Z</time>
      </trkpt>
      <trkpt lat="52.39704966545" lon="5.95958948135">
        <ele>48.2925158632</ele>
        <time>2022-03-19T21:08:51.043Z</time>
      </trkpt>
      <trkpt lat="52.39719986916" lon="5.95986843109">
        <ele>47.32043686919</ele>
        <time>2022-03-19T21:08:59.843Z</time>
      </trkpt>
      <trkpt lat="52.39748954773" lon="5.96058726311">
        <ele>46.37730143759</ele>
        <time>2022-03-19T21:09:08.651Z</time>
      </trkpt>
      <trkpt lat="52.39765048027" lon="5.96155285835">
        <ele>45.36212102872</ele>
        <time>2022-03-19T21:09:17.469Z</time>
      </trkpt>
      <trkpt lat="52.39751108922" lon="5.96218585968">
        <ele>44.42963513679</ele>
        <time>2022-03-19T21:09:26.294Z</time>
      </trkpt>
      <trkpt lat="52.3975110054" lon="5.96226096153">
        <ele>43.5129084273</ele>
        <time>2022-03-19T21:09:35.119Z</time>
      </trkpt>
      <trkpt lat="52.39761829376" lon="5.96277594566">
        <ele>42.52962886013</ele>
        <time>2022-03-19T21:09:43.950Z</time>
      </trkpt>
      <trkpt lat="52.39759683609" lon="5.96375226974">
        <ele>41.67462286227</ele>
        <time>2022-03-19T21:09:52.790Z</time>
      </trkpt>
      <trkpt lat="52.39765048027" lon="5.96404194832">
        <ele>40.81908049094</ele>
        <time>2022-03-19T21:10:01.633Z</time>
      </trkpt>
      <trkpt lat="52.39766120911" lon="5.96428871155">
        <ele>39.94623981072</ele>
        <time>2022-03-19T21:10:10.479Z</time>
      </trkpt>
      <trkpt lat="52.39772558212" lon="5.96452474594">
        <ele>39.14424056954</ele>
        <time>2022-03-19T21:10:19.327Z</time>
      </trkpt>
      <trkpt lat="52.3978329543" lon="5.9646320343">
        <ele>38.33021822681</ele>
        <time>2022-03-19T21:10:28.177Z</time>
      </trkpt>
      <trkpt lat="52.39788651466" lon="5.9644818306">
        <ele>37.59587669741</ele>
        <time>2022-03-19T21:10:37.029Z</time>
      </trkpt>
      <trkpt lat="52.3980152607" lon="5.96480369568">
        <ele>36.79454947661</ele>
        <time>2022-03-19T21:10:45.885Z</time>
      </trkpt>
      <trkpt lat="52.39818692207" lon="5.96510410309">
        <ele>36.01900044139</ele>
        <time>2022-03-19T21:10:54.745Z</time>
      </trkpt>
      <trkpt lat="52.39834785461" lon="5.96530795097">
        <ele>35.35662902825</ele>
        <time>2022-03-19T21:11:03.608Z</time>
      </trkpt>
      <trkpt lat="52.39854097366" lon="5.96539378166">
        <ele>34.73416208109</ele>
        <time>2022-03-19T21:11:12.474Z</time>
      </trkpt>
      <trkpt lat="52.39874482155" lon="5.96551179886">
        <ele>34.14151455333</ele>
        <time>2022-03-19T21:11:21.344Z</time>
      </trkpt>
      <trkpt lat="52.3989379406" lon="5.96578001976">
        <ele>33.60883131534</ele>
        <time>2022-03-19T21:11:30.218Z</time>
      </trkpt>
      <trkpt lat="52.39914178848" lon="5.96618771553">
        <ele>33.11715984616</ele>
        <time>2022-03-19T21:11:39.097Z</time>
      </trkpt>
      <trkpt lat="52.39924907684" lon="5.96650958061">
        <ele>32.79093045931</ele>
        <time>2022-03-19T21:11:47.980Z</time>
      </trkpt>
      <trkpt lat="52.39931344986" lon="5.96678853035">
        <ele>32.49451242257</ele>
        <time>2022-03-19T21:11:56.865Z</time>
      </trkpt>
      <trkpt lat="52.3993241787" lon="5.96697092056">
        <ele>32.32105267134</ele>
        <time>2022-03-19T21:12:05.752Z</time>
      </trkpt>
      <trkpt lat="52.39929199219" lon="5.96761465073">
        <ele>32.33579956418</ele>
        <time>2022-03-19T21:12:14.646Z</time>
      </trkpt>
      <trkpt lat="52.39930272102" lon="5.96772193909">
        <ele>32.15566303193</ele>
        <time>2022-03-19T21:12:23.541Z</time>
      </trkpt>
      <trkpt lat="52.40003228188" lon="5.97022175789">
        <ele>31.92469429354</ele>
        <time>2022-03-19T21:12:32.463Z</time>
      </trkpt>
      <trkpt lat="52.40008600987" lon="5.97035050392">
        <ele>31.77713277863</ele>
        <time>2022-03-19T21:12:41.386Z</time>
      </trkpt>
      <trkpt lat="52.40008592606" lon="5.97035050392">
        <ele>31.58122717849</ele>
        <time>2022-03-19T21:12:50.309Z</time>
      </trkpt>
      <trkpt lat="52.40019321442" lon="5.97051143646">
        <ele>31.41308086707</ele>
        <time>2022-03-19T21:12:59.235Z</time>
      </trkpt>
      <trkpt lat="52.40037560463" lon="5.97074747086">
        <ele>31.17555967243</ele>
        <time>2022-03-19T21:13:08.164Z</time>
      </trkpt>
      <trkpt lat="52.40125536919" lon="5.97173452377">
        <ele>30.92806798225</ele>
        <time>2022-03-19T21:13:17.110Z</time>
      </trkpt>
      <trkpt lat="52.40134119987" lon="5.97187399864">
        <ele>30.7107882007</ele>
        <time>2022-03-19T21:13:26.058Z</time>
      </trkpt>
      <trkpt lat="52.40140557289" lon="5.97202420235">
        <ele>30.45105292865</ele>
        <time>2022-03-19T21:13:35.008Z</time>
      </trkpt>
      <trkpt lat="52.40181335248" lon="5.97333312035">
        <ele>29.83118648697</ele>
        <time>2022-03-19T21:13:43.973Z</time>
      </trkpt>
      <trkpt lat="52.40181326866" lon="5.97333312035">
        <ele>29.56670494226</ele>
        <time>2022-03-19T21:13:52.938Z</time>
      </trkpt>
      <trkpt lat="52.40212448873" lon="5.97427725792">
        <ele>29.38509767653</ele>
        <time>2022-03-19T21:14:01.913Z</time>
      </trkpt>
      <trkpt lat="52.40212440491" lon="5.97427725792">
        <ele>29.15794480109</ele>
        <time>2022-03-19T21:14:10.888Z</time>
      </trkpt>
      <trkpt lat="52.40229606628" lon="5.97470641136">
        <ele>29.04794991575</ele>
        <time>2022-03-19T21:14:19.868Z</time>
      </trkpt>
      <trkpt lat="52.4040555954" lon="5.97797870636">
        <ele>28.40192596709</ele>
        <time>2022-03-19T21:14:28.891Z</time>
      </trkpt>
      <trkpt lat="52.40440964699" lon="5.97866535187">
        <ele>28.32119615617</ele>
        <time>2022-03-19T21:14:37.923Z</time>
      </trkpt>
      <trkpt lat="52.40547180176" lon="5.98131537437">
        <ele>28.47750473242</ele>
        <time>2022-03-19T21:14:46.986Z</time>
      </trkpt>
      <trkpt lat="52.4055147171" lon="5.98146557808">
        <ele>28.52819119148</ele>
        <time>2022-03-19T21:14:56.050Z</time>
      </trkpt>
      <trkpt lat="52.40630865097" lon="5.98370790482">
        <ele>28.41380792831</ele>
        <time>2022-03-19T21:15:05.140Z</time>
      </trkpt>
      <trkpt lat="52.4063092377" lon="5.98370966502">
        <ele>28.60465475761</ele>
        <time>2022-03-19T21:15:14.230Z</time>
      </trkpt>
      <trkpt lat="52.40631" lon="5.98371">
        <ele>28.87822592919</ele>
        <time>2022-03-19T21:15:23.320Z</time>
      </trkpt>
      <trkpt lat="52.40667" lon="5.98481">
        <ele>29.37532551611</ele>
        <time>2022-03-19T21:15:32.422Z</time>
      </trkpt>
      <trkpt lat="52.40675" lon="5.98588">
        <ele>30.19272299726</ele>
        <time>2022-03-19T21:15:41.535Z</time>
      </trkpt>
      <trkpt lat="52.40692001193" lon="5.98706999072">
        <ele>30.77804171022</ele>
        <time>2022-03-19T21:15:50.660Z</time>
      </trkpt>
      <trkpt lat="52.40709001192" lon="5.98825999062">
        <ele>31.35161112937</ele>
        <time>2022-03-19T21:15:59.796Z</time>
      </trkpt>
      <trkpt lat="52.40726" lon="5.98945">
        <ele>31.78061249118</ele>
        <time>2022-03-19T21:16:08.944Z</time>
      </trkpt>
      <trkpt lat="52.40727" lon="5.98968">
        <ele>32.40260236679</ele>
        <time>2022-03-19T21:16:18.095Z</time>
      </trkpt>
      <trkpt lat="52.40743501463" lon="5.99075498794">
        <ele>33.09532340602</ele>
        <time>2022-03-19T21:16:27.257Z</time>
      </trkpt>
      <trkpt lat="52.4076000195" lon="5.99182998393">
        <ele>34.00616769365</ele>
        <time>2022-03-19T21:16:36.429Z</time>
      </trkpt>
      <trkpt lat="52.40776501463" lon="5.99290498795">
        <ele>34.69720927147</ele>
        <time>2022-03-19T21:16:45.612Z</time>
      </trkpt>
      <trkpt lat="52.40793" lon="5.99398">
        <ele>35.38775690433</ele>
        <time>2022-03-19T21:16:54.806Z</time>
      </trkpt>
      <trkpt lat="52.40797" lon="5.99412">
        <ele>36.21599929881</ele>
        <time>2022-03-19T21:17:04.002Z</time>
      </trkpt>
      <trkpt lat="52.40804" lon="5.99431">
        <ele>37.07375072042</ele>
        <time>2022-03-19T21:17:13.200Z</time>
      </trkpt>
      <trkpt lat="52.40850251178" lon="5.99527496963">
        <ele>38.23129529331</ele>
        <time>2022-03-19T21:17:22.410Z</time>
      </trkpt>
      <trkpt lat="52.4089650157" lon="5.9962399595">
        <ele>39.22166120519</ele>
        <time>2022-03-19T21:17:31.632Z</time>
      </trkpt>
      <trkpt lat="52.40942751177" lon="5.99720496961">
        <ele>40.10170371434</ele>
        <time>2022-03-19T21:17:40.866Z</time>
      </trkpt>
      <trkpt lat="52.40989" lon="5.99817">
        <ele>41.02244945285</ele>
        <time>2022-03-19T21:17:50.112Z</time>
      </trkpt>
      <trkpt lat="52.40997" lon="5.99839">
        <ele>41.73523514687</ele>
        <time>2022-03-19T21:17:59.360Z</time>
      </trkpt>
      <trkpt lat="52.41031752272" lon="5.99972996832">
        <ele>42.35442926683</ele>
        <time>2022-03-19T21:18:08.623Z</time>
      </trkpt>
      <trkpt lat="52.41066503029" lon="6.00106995775">
        <ele>42.79930483365</ele>
        <time>2022-03-19T21:18:17.900Z</time>
      </trkpt>
      <trkpt lat="52.41101252271" lon="6.0024099683">
        <ele>43.58124744514</ele>
        <time>2022-03-19T21:18:27.191Z</time>
      </trkpt>
      <trkpt lat="52.41136" lon="6.00375">
        <ele>44.06813992915</ele>
        <time>2022-03-19T21:18:36.496Z</time>
      </trkpt>
      <trkpt lat="52.41164836131" lon="6.00490162902">
        <ele>44.16709350972</ele>
        <time>2022-03-19T21:18:45.814Z</time>
      </trkpt>
      <trkpt lat="52.41193671142" lon="6.00605327309">
        <ele>44.44673125228</ele>
        <time>2022-03-19T21:18:55.144Z</time>
      </trkpt>
      <trkpt lat="52.41222505035" lon="6.00720493223">
        <ele>44.5773182359</ele>
        <time>2022-03-19T21:19:04.486Z</time>
      </trkpt>
      <trkpt lat="52.41251337809" lon="6.00835660642">
        <ele>44.89885565641</ele>
        <time>2022-03-19T21:19:13.840Z</time>
      </trkpt>
      <trkpt lat="52.41280169464" lon="6.00950829567">
        <ele>45.24197534689</ele>
        <time>2022-03-19T21:19:23.206Z</time>
      </trkpt>
      <trkpt lat="52.41309" lon="6.01066">
        <ele>45.05329025004</ele>
        <time>2022-03-19T21:19:32.585Z</time>
      </trkpt>
      <trkpt lat="52.41309" lon="6.01065">
        <ele>45.13154227559</ele>
        <time>2022-03-19T21:19:41.964Z</time>
      </trkpt>
      <trkpt lat="52.41328" lon="6.01145">
        <ele>45.02781698075</ele>
        <time>2022-03-19T21:19:51.351Z</time>
      </trkpt>
      <trkpt lat="52.41336" lon="6.01164">
        <ele>45.04849519445</ele>
        <time>2022-03-19T21:20:00.740Z</time>
      </trkpt>
      <trkpt lat="52.41352" lon="6.01193">
        <ele>45.07934920645</ele>
        <time>2022-03-19T21:20:10.133Z</time>
      </trkpt>
      <trkpt lat="52.41381" lon="6.01219">
        <ele>45.14140526458</ele>
        <time>2022-03-19T21:20:19.532Z</time>
      </trkpt>
      <trkpt lat="52.41389" lon="6.01222">
        <ele>45.17208531439</ele>
        <time>2022-03-19T21:20:28.932Z</time>
      </trkpt>
      <trkpt lat="52.41418" lon="6.01228">
        <ele>45.28519625263</ele>
        <time>2022-03-19T21:20:38.337Z</time>
      </trkpt>
      <trkpt lat="52.41478" lon="6.01224">
        <ele>45.31900724344</ele>
        <time>2022-03-19T21:20:47.751Z</time>
      </trkpt>
      <trkpt lat="52.415" lon="6.01225">
        <ele>45.33096388834</ele>
        <time>2022-03-19T21:20:57.169Z</time>
      </trkpt>
      <trkpt lat="52.41516" lon="6.01228">
        <ele>45.30795105192</ele>
        <time>2022-03-19T21:21:06.589Z</time>
      </trkpt>
      <trkpt lat="52.41532" lon="6.01236">
        <ele>45.26744871247</ele>
        <time>2022-03-19T21:21:16.012Z</time>
      </trkpt>
      <trkpt lat="52.41537" lon="6.0124">
        <ele>45.1470369192</ele>
        <time>2022-03-19T21:21:25.436Z</time>
      </trkpt>
      <trkpt lat="52.4156" lon="6.01289">
        <ele>44.99991163864</ele>
        <time>2022-03-19T21:21:34.866Z</time>
      </trkpt>
      <trkpt lat="52.41575" lon="6.01374">
        <ele>44.69246322894</ele>
        <time>2022-03-19T21:21:44.305Z</time>
      </trkpt>
      <trkpt lat="52.41561" lon="6.01375">
        <ele>44.48097477118</ele>
        <time>2022-03-19T21:21:53.746Z</time>
      </trkpt>
      <trkpt lat="52.41525" lon="6.01366">
        <ele>44.23885244181</ele>
        <time>2022-03-19T21:22:03.193Z</time>
      </trkpt>
      <trkpt lat="52.41507" lon="6.01369">
        <ele>43.83304763596</ele>
        <time>2022-03-19T21:22:12.643Z</time>
      </trkpt>
      <trkpt lat="52.41464" lon="6.01385">
        <ele>43.28701324148</ele>
        <time>2022-03-19T21:22:22.100Z</time>
      </trkpt>
      <trkpt lat="52.41429" lon="6.014">
        <ele>42.84746839594</ele>
        <time>2022-03-19T21:22:31.562Z</time>
      </trkpt>
      <trkpt lat="52.41365" lon="6.01439">
        <ele>42.34547677125</ele>
        <time>2022-03-19T21:22:41.035Z</time>
      </trkpt>
      <trkpt lat="52.41344" lon="6.01451">
        <ele>42.00395499639</ele>
        <time>2022-03-19T21:22:50.512Z</time>
      </trkpt>
      <trkpt lat="52.41334" lon="6.01452">
        <ele>41.62833567168</ele>
        <time>2022-03-19T21:22:59.991Z</time>
      </trkpt>
      <trkpt lat="52.41327" lon="6.01448">
        <ele>41.22894530253</ele>
        <time>2022-03-19T21:23:09.471Z</time>
      </trkpt>
      <trkpt lat="52.4132" lon="6.01438">
        <ele>40.81529003322</ele>
        <time>2022-03-19T21:23:18.952Z</time>
      </trkpt>
      <trkpt lat="52.41316" lon="6.01429">
        <ele>40.39479694695</ele>
        <time>2022-03-19T21:23:28.434Z</time>
      </trkpt>
      <trkpt lat="52.41315" lon="6.01404">
        <ele>39.94176719795</ele>
        <time>2022-03-19T21:23:37.919Z</time>
      </trkpt>
      <trkpt lat="52.41319" lon="6.01393">
        <ele>39.47312605493</ele>
        <time>2022-03-19T21:23:47.405Z</time>
      </trkpt>
      <trkpt lat="52.41329" lon="6.01382">
        <ele>38.98473018177</ele>
        <time>2022-03-19T21:23:56.893Z</time>
      </trkpt>
      <trkpt lat="52.41338" lon="6.01379">
        <ele>38.52883631778</ele>
        <time>2022-03-19T21:24:06.382Z</time>
      </trkpt>
      <trkpt lat="52.41347" lon="6.01382">
        <ele>38.08630689046</ele>
        <time>2022-03-19T21:24:15.873Z</time>
      </trkpt>
      <trkpt lat="52.41353" lon="6.01389">
        <ele>37.64741593365</ele>
        <time>2022-03-19T21:24:25.365Z</time>
      </trkpt>
      <trkpt lat="52.41365" lon="6.01419">
        <ele>37.21896777796</ele>
        <time>2022-03-19T21:24:34.861Z</time>
      </trkpt>
      <trkpt lat="52.41377" lon="6.01467">
        <ele>36.68882809994</ele>
        <time>2022-03-19T21:24:44.362Z</time>
      </trkpt>
      <trkpt lat="52.41376" lon="6.01489">
        <ele>36.161323315</ele>
        <time>2022-03-19T21:24:53.865Z</time>
      </trkpt>
      <trkpt lat="52.41365" lon="6.01505">
        <ele>35.63775626772</ele>
        <time>2022-03-19T21:25:03.370Z</time>
      </trkpt>
      <trkpt lat="52.41351" lon="6.01513">
        <ele>35.15973406229</ele>
        <time>2022-03-19T21:25:12.878Z</time>
      </trkpt>
      <trkpt lat="52.41274666842" lon="6.01558668248">
        <ele>34.5348435101</ele>
        <time>2022-03-19T21:25:22.399Z</time>
      </trkpt>
      <trkpt lat="52.41198333508" lon="6.01604334915">
        <ele>33.92795420755</ele>
        <time>2022-03-19T21:25:31.933Z</time>
      </trkpt>
      <trkpt lat="52.41122" lon="6.0165">
        <ele>33.65503423165</ele>
        <time>2022-03-19T21:25:41.480Z</time>
      </trkpt>
      <trkpt lat="52.41042000073" lon="6.01693500793">
        <ele>33.16040747875</ele>
        <time>2022-03-19T21:25:51.040Z</time>
      </trkpt>
      <trkpt lat="52.40962" lon="6.01737">
        <ele>32.75412640732</ele>
        <time>2022-03-19T21:26:00.614Z</time>
      </trkpt>
      <trkpt lat="52.40878000209" lon="6.01787001905">
        <ele>32.34420812621</ele>
        <time>2022-03-19T21:26:10.202Z</time>
      </trkpt>
      <trkpt lat="52.40794000208" lon="6.01837001906">
        <ele>31.89083676119</ele>
        <time>2022-03-19T21:26:19.804Z</time>
      </trkpt>
      <trkpt lat="52.4071" lon="6.01887">
        <ele>31.40452573055</ele>
        <time>2022-03-19T21:26:29.421Z</time>
      </trkpt>
      <trkpt lat="52.40706" lon="6.01874">
        <ele>31.07464155595</ele>
        <time>2022-03-19T21:26:39.039Z</time>
      </trkpt>
      <trkpt lat="52.40685" lon="6.01837">
        <ele>30.78386328488</ele>
        <time>2022-03-19T21:26:48.662Z</time>
      </trkpt>
      <trkpt lat="52.40677" lon="6.01804">
        <ele>30.55646503569</ele>
        <time>2022-03-19T21:26:58.288Z</time>
      </trkpt>
      <trkpt lat="52.40660000211" lon="6.01732999718">
        <ele>30.34499588386</ele>
        <time>2022-03-19T21:27:07.922Z</time>
      </trkpt>
      <trkpt lat="52.40643" lon="6.01662">
        <ele>30.25355013761</ele>
        <time>2022-03-19T21:27:17.563Z</time>
      </trkpt>
      <trkpt lat="52.40622334329" lon="6.01553332314">
        <ele>29.61231592359</ele>
        <time>2022-03-19T21:27:27.216Z</time>
      </trkpt>
      <trkpt lat="52.40601667662" lon="6.01444665646">
        <ele>29.43019477666</ele>
        <time>2022-03-19T21:27:36.880Z</time>
      </trkpt>
      <trkpt lat="52.40581" lon="6.01336">
        <ele>29.51758835476</ele>
        <time>2022-03-19T21:27:46.555Z</time>
      </trkpt>
      <trkpt lat="52.4057" lon="6.01263">
        <ele>29.42326427988</ele>
        <time>2022-03-19T21:27:56.237Z</time>
      </trkpt>
      <trkpt lat="52.40543500657" lon="6.01137999241">
        <ele>29.10426400737</ele>
        <time>2022-03-19T21:28:05.932Z</time>
      </trkpt>
      <trkpt lat="52.40517" lon="6.01013">
        <ele>28.87541772455</ele>
        <time>2022-03-19T21:28:15.640Z</time>
      </trkpt>
      <trkpt lat="52.4051" lon="6.01003">
        <ele>28.81673477864</ele>
        <time>2022-03-19T21:28:25.350Z</time>
      </trkpt>
      <trkpt lat="52.40503" lon="6.01003">
        <ele>28.79191233229</ele>
        <time>2022-03-19T21:28:35.061Z</time>
      </trkpt>
      <trkpt lat="52.40496" lon="6.00983">
        <ele>28.79303507938</ele>
        <time>2022-03-19T21:28:44.774Z</time>
      </trkpt>
      <trkpt lat="52.40483" lon="6.00999">
        <ele>28.84307215669</ele>
        <time>2022-03-19T21:28:54.490Z</time>
      </trkpt>
      <trkpt lat="52.40465" lon="6.00966">
        <ele>28.86880853482</ele>
        <time>2022-03-19T21:29:04.210Z</time>
      </trkpt>
      <trkpt lat="52.40465" lon="6.00965">
        <ele>28.9691497765</ele>
        <time>2022-03-19T21:29:13.930Z</time>
      </trkpt>
      <trkpt lat="52.40445" lon="6.00929">
        <ele>29.07080373868</ele>
        <time>2022-03-19T21:29:23.655Z</time>
      </trkpt>
      <trkpt lat="52.40437" lon="6.00897">
        <ele>29.18954529544</ele>
        <time>2022-03-19T21:29:33.383Z</time>
      </trkpt>
      <trkpt lat="52.40431" lon="6.00887">
        <ele>29.3825225415</ele>
        <time>2022-03-19T21:29:43.113Z</time>
      </trkpt>
      <trkpt lat="52.40390000179" lon="6.00822999415">
        <ele>29.81191853242</ele>
        <time>2022-03-19T21:29:52.852Z</time>
      </trkpt>
      <trkpt lat="52.40349" lon="6.00759">
        <ele>30.15663482495</ele>
        <time>2022-03-19T21:30:02.600Z</time>
      </trkpt>
      <trkpt lat="52.40336" lon="6.00749">
        <ele>30.2669340152</ele>
        <time>2022-03-19T21:30:12.350Z</time>
      </trkpt>
      <trkpt lat="52.40331" lon="6.00742">
        <ele>30.38332190024</ele>
        <time>2022-03-19T21:30:22.101Z</time>
      </trkpt>
      <trkpt lat="52.4032" lon="6.00714">
        <ele>30.43935981478</ele>
        <time>2022-03-19T21:30:31.855Z</time>
      </trkpt>
      <trkpt lat="52.40308" lon="6.00706">
        <ele>30.43931273822</ele>
        <time>2022-03-19T21:30:41.611Z</time>
      </trkpt>
      <trkpt lat="52.40301" lon="6.00697">
        <ele>30.41833480286</ele>
        <time>2022-03-19T21:30:51.369Z</time>
      </trkpt>
      <trkpt lat="52.40287" lon="6.00674">
        <ele>30.34198700701</ele>
        <time>2022-03-19T21:31:01.130Z</time>
      </trkpt>
      <trkpt lat="52.40274" lon="6.0064">
        <ele>30.27717584439</ele>
        <time>2022-03-19T21:31:10.895Z</time>
      </trkpt>
      <trkpt lat="52.40241" lon="6.00595">
        <ele>30.26034507453</ele>
        <time>2022-03-19T21:31:20.667Z</time>
      </trkpt>
      <trkpt lat="52.40237" lon="6.00571">
        <ele>30.13253778494</ele>
        <time>2022-03-19T21:31:30.441Z</time>
      </trkpt>
      <trkpt lat="52.40229" lon="6.00558">
        <ele>29.96868020274</ele>
        <time>2022-03-19T21:31:40.217Z</time>
      </trkpt>
      <trkpt lat="52.40222" lon="6.00538">
        <ele>29.78064888408</ele>
        <time>2022-03-19T21:31:49.995Z</time>
      </trkpt>
      <trkpt lat="52.40212" lon="6.00522">
        <ele>29.56159645639</ele>
        <time>2022-03-19T21:31:59.776Z</time>
      </trkpt>
      <trkpt lat="52.40208" lon="6.00511">
        <ele>29.31888141468</ele>
        <time>2022-03-19T21:32:09.558Z</time>
      </trkpt>
      <trkpt lat="52.40202" lon="6.00462">
        <ele>29.06567256661</ele>
        <time>2022-03-19T21:32:19.345Z</time>
      </trkpt>
      <trkpt lat="52.4019" lon="6.00393">
        <ele>28.61069836165</ele>
        <time>2022-03-19T21:32:29.139Z</time>
      </trkpt>
      <trkpt lat="52.40185" lon="6.0034">
        <ele>28.18155167536</ele>
        <time>2022-03-19T21:32:38.938Z</time>
      </trkpt>
      <trkpt lat="52.40179" lon="6.00312">
        <ele>27.84769280661</ele>
        <time>2022-03-19T21:32:48.740Z</time>
      </trkpt>
      <trkpt lat="52.40171" lon="6.00299">
        <ele>27.50947885968</ele>
        <time>2022-03-19T21:32:58.544Z</time>
      </trkpt>
      <trkpt lat="52.40163" lon="6.00286">
        <ele>27.14605535592</ele>
        <time>2022-03-19T21:33:08.350Z</time>
      </trkpt>
      <trkpt lat="52.40113" lon="6.00244">
        <ele>26.65327318059</ele>
        <time>2022-03-19T21:33:18.165Z</time>
      </trkpt>
      <trkpt lat="52.4009" lon="6.00211">
        <ele>26.2423430219</ele>
        <time>2022-03-19T21:33:27.984Z</time>
      </trkpt>
      <trkpt lat="52.40069" lon="6.00255">
        <ele>25.76486470297</ele>
        <time>2022-03-19T21:33:37.809Z</time>
      </trkpt>
      <trkpt lat="52.40046" lon="6.0029">
        <ele>25.21965230869</ele>
        <time>2022-03-19T21:33:47.639Z</time>
      </trkpt>
      <trkpt lat="52.40041" lon="6.00299">
        <ele>24.73354655215</ele>
        <time>2022-03-19T21:33:57.470Z</time>
      </trkpt>
      <trkpt lat="52.40003" lon="6.00314">
        <ele>24.23765176605</ele>
        <time>2022-03-19T21:34:07.307Z</time>
      </trkpt>
      <trkpt lat="52.39958" lon="6.00358">
        <ele>23.73625259964</ele>
        <time>2022-03-19T21:34:17.153Z</time>
      </trkpt>
      <trkpt lat="52.39947" lon="6.00391">
        <ele>23.11909282931</ele>
        <time>2022-03-19T21:34:27.003Z</time>
      </trkpt>
      <trkpt lat="52.39937" lon="6.0043">
        <ele>22.63180161933</ele>
        <time>2022-03-19T21:34:36.857Z</time>
      </trkpt>
      <trkpt lat="52.39955" lon="6.00436">
        <ele>22.17377627558</ele>
        <time>2022-03-19T21:34:46.714Z</time>
      </trkpt>
      <trkpt lat="52.39948" lon="6.00483">
        <ele>21.8391215884</ele>
        <time>2022-03-19T21:34:56.575Z</time>
      </trkpt>
      <trkpt lat="52.39947" lon="6.00551">
        <ele>21.91923325944</ele>
        <time>2022-03-19T21:35:06.443Z</time>
      </trkpt>
      <trkpt lat="52.39941" lon="6.00628">
        <ele>21.29310561225</ele>
        <time>2022-03-19T21:35:16.319Z</time>
      </trkpt>
      <trkpt lat="52.39933" lon="6.00678">
        <ele>21.17071348518</ele>
        <time>2022-03-19T21:35:26.200Z</time>
      </trkpt>
      <trkpt lat="52.39928" lon="6.00696">
        <ele>21.02299162954</ele>
        <time>2022-03-19T21:35:36.083Z</time>
      </trkpt>
      <trkpt lat="52.39919" lon="6.00718">
        <ele>20.84235815187</ele>
        <time>2022-03-19T21:35:45.968Z</time>
      </trkpt>
      <trkpt lat="52.39903" lon="6.00741">
        <ele>20.7172974525</ele>
        <time>2022-03-19T21:35:55.857Z</time>
      </trkpt>
      <trkpt lat="52.39878" lon="6.00752">
        <ele>20.7097054175</ele>
        <time>2022-03-19T21:36:05.750Z</time>
      </trkpt>
      <trkpt lat="52.39866" lon="6.00761">
        <ele>20.65427953845</ele>
        <time>2022-03-19T21:36:15.645Z</time>
      </trkpt>
      <trkpt lat="52.39858" lon="6.00754">
        <ele>20.65590949284</ele>
        <time>2022-03-19T21:36:25.541Z</time>
      </trkpt>
      <trkpt lat="52.39848" lon="6.00753">
        <ele>20.64710373213</ele>
        <time>2022-03-19T21:36:35.439Z</time>
      </trkpt>
      <trkpt lat="52.39804" lon="6.00778">
        <ele>20.66877354213</ele>
        <time>2022-03-19T21:36:45.344Z</time>
      </trkpt>
      <trkpt lat="52.3979" lon="6.00798">
        <ele>20.6076766539</ele>
        <time>2022-03-19T21:36:55.252Z</time>
      </trkpt>
      <trkpt lat="52.39768" lon="6.00879">
        <ele>20.4496804353</ele>
        <time>2022-03-19T21:37:05.169Z</time>
      </trkpt>
      <trkpt lat="52.39762" lon="6.00916">
        <ele>20.41136761632</ele>
        <time>2022-03-19T21:37:15.090Z</time>
      </trkpt>
      <trkpt lat="52.39756" lon="6.00987">
        <ele>20.44819953142</ele>
        <time>2022-03-19T21:37:25.018Z</time>
      </trkpt>
      <trkpt lat="52.39748" lon="6.01026">
        <ele>20.5447242709</ele>
        <time>2022-03-19T21:37:34.950Z</time>
      </trkpt>
      <trkpt lat="52.39752" lon="6.01069">
        <ele>20.63819343142</ele>
        <time>2022-03-19T21:37:44.886Z</time>
      </trkpt>
      <trkpt lat="52.39758" lon="6.01101">
        <ele>20.75188868145</ele>
        <time>2022-03-19T21:37:54.825Z</time>
      </trkpt>
      <trkpt lat="52.3977" lon="6.01122">
        <ele>20.8757886772</ele>
        <time>2022-03-19T21:38:04.767Z</time>
      </trkpt>
      <trkpt lat="52.39776" lon="6.01177">
        <ele>21.1013790039</ele>
        <time>2022-03-19T21:38:14.715Z</time>
      </trkpt>
      <trkpt lat="52.39782" lon="6.01201">
        <ele>21.28120035087</ele>
        <time>2022-03-19T21:38:24.665Z</time>
      </trkpt>
      <trkpt lat="52.39788" lon="6.01217">
        <ele>21.47662226066</ele>
        <time>2022-03-19T21:38:34.617Z</time>
      </trkpt>
      <trkpt lat="52.39817" lon="6.01267">
        <ele>21.69448021604</ele>
        <time>2022-03-19T21:38:44.576Z</time>
      </trkpt>
      <trkpt lat="52.39822" lon="6.01289">
        <ele>21.90925170044</ele>
        <time>2022-03-19T21:38:54.537Z</time>
      </trkpt>
      <trkpt lat="52.39828" lon="6.01323">
        <ele>22.29788537845</ele>
        <time>2022-03-19T21:39:04.502Z</time>
      </trkpt>
      <trkpt lat="52.3983" lon="6.01356">
        <ele>22.54236038267</ele>
        <time>2022-03-19T21:39:14.470Z</time>
      </trkpt>
      <trkpt lat="52.3982900033" lon="6.01444500019">
        <ele>22.62225424727</ele>
        <time>2022-03-19T21:39:24.447Z</time>
      </trkpt>
      <trkpt lat="52.39828" lon="6.01533">
        <ele>22.86707721666</ele>
        <time>2022-03-19T21:39:34.432Z</time>
      </trkpt>
      <trkpt lat="52.39825" lon="6.01557">
        <ele>23.07113558872</ele>
        <time>2022-03-19T21:39:44.420Z</time>
      </trkpt>
      <trkpt lat="52.39808" lon="6.01617">
        <ele>23.29721787857</ele>
        <time>2022-03-19T21:39:54.414Z</time>
      </trkpt>
      <trkpt lat="52.39793" lon="6.01602">
        <ele>23.37023157286</ele>
        <time>2022-03-19T21:40:04.411Z</time>
      </trkpt>
      <trkpt lat="52.3979" lon="6.01592">
        <ele>23.34195016807</ele>
        <time>2022-03-19T21:40:14.409Z</time>
      </trkpt>
      <trkpt lat="52.3979" lon="6.01575">
        <ele>23.2162121444</ele>
        <time>2022-03-19T21:40:24.409Z</time>
      </trkpt>
      <trkpt lat="52.39791" lon="6.01574">
        <ele>23.05993534863</ele>
        <time>2022-03-19T21:40:34.409Z</time>
      </trkpt>
      <trkpt lat="52.39791" lon="6.01548">
        <ele>22.78167731721</ele>
        <time>2022-03-19T21:40:44.411Z</time>
      </trkpt>
      <trkpt lat="52.39785" lon="6.01536">
        <ele>22.48631603686</ele>
        <time>2022-03-19T21:40:54.415Z</time>
      </trkpt>
      <trkpt lat="52.39782" lon="6.01534">
        <ele>22.14630192862</ele>
        <time>2022-03-19T21:41:04.419Z</time>
      </trkpt>
      <trkpt lat="52.39727" lon="6.01538">
        <ele>21.74524889018</ele>
        <time>2022-03-19T21:41:14.432Z</time>
      </trkpt>
      <trkpt lat="52.3967" lon="6.01532">
        <ele>21.2334733102</ele>
        <time>2022-03-19T21:41:24.454Z</time>
      </trkpt>
      <trkpt lat="52.39623" lon="6.01535">
        <ele>20.54637521312</ele>
        <time>2022-03-19T21:41:34.484Z</time>
      </trkpt>
      <trkpt lat="52.39549" lon="6.01526">
        <ele>20.00367830303</ele>
        <time>2022-03-19T21:41:44.526Z</time>
      </trkpt>
      <trkpt lat="52.3952" lon="6.01536">
        <ele>19.34699748655</ele>
        <time>2022-03-19T21:41:54.573Z</time>
      </trkpt>
      <trkpt lat="52.39506" lon="6.01538">
        <ele>18.68364572416</ele>
        <time>2022-03-19T21:42:04.622Z</time>
      </trkpt>
      <trkpt lat="52.39429" lon="6.01536">
        <ele>18.12436154965</ele>
        <time>2022-03-19T21:42:14.683Z</time>
      </trkpt>
      <trkpt lat="52.39424" lon="6.01538">
        <ele>17.57671741888</ele>
        <time>2022-03-19T21:42:24.745Z</time>
      </trkpt>
      <trkpt lat="52.39416500425" lon="6.01638500189">
        <ele>17.07644544519</ele>
        <time>2022-03-19T21:42:34.817Z</time>
      </trkpt>
      <trkpt lat="52.39409" lon="6.01739">
        <ele>16.507378216</ele>
        <time>2022-03-19T21:42:44.899Z</time>
      </trkpt>
      <trkpt lat="52.39403" lon="6.0175">
        <ele>15.99557826979</ele>
        <time>2022-03-19T21:42:54.982Z</time>
      </trkpt>
      <trkpt lat="52.39353500115" lon="6.01803500606">
        <ele>15.34903737975</ele>
        <time>2022-03-19T21:43:05.075Z</time>
      </trkpt>
      <trkpt lat="52.39304" lon="6.01857">
        <ele>14.75871166134</ele>
        <time>2022-03-19T21:43:15.177Z</time>
      </trkpt>
      <trkpt lat="52.39301" lon="6.01866">
        <ele>14.33203850079</ele>
        <time>2022-03-19T21:43:25.280Z</time>
      </trkpt>
      <trkpt lat="52.39302" lon="6.01887">
        <ele>13.94338300962</ele>
        <time>2022-03-19T21:43:35.385Z</time>
      </trkpt>
      <trkpt lat="52.39318" lon="6.0196">
        <ele>13.66268560361</ele>
        <time>2022-03-19T21:43:45.498Z</time>
      </trkpt>
      <trkpt lat="52.39319" lon="6.0197">
        <ele>13.35987406734</ele>
        <time>2022-03-19T21:43:55.612Z</time>
      </trkpt>
      <trkpt lat="52.39314" lon="6.01986">
        <ele>13.09995117934</ele>
        <time>2022-03-19T21:44:05.728Z</time>
      </trkpt>
      <trkpt lat="52.39307" lon="6.01996">
        <ele>12.8609330204</ele>
        <time>2022-03-19T21:44:15.845Z</time>
      </trkpt>
      <trkpt lat="52.39234750332" lon="6.02047252517">
        <ele>12.44880989841</ele>
        <time>2022-03-19T21:44:25.975Z</time>
      </trkpt>
      <trkpt lat="52.39162500443" lon="6.02098503356">
        <ele>12.45096150007</ele>
        <time>2022-03-19T21:44:36.118Z</time>
      </trkpt>
      <trkpt lat="52.39090250332" lon="6.02149752517">
        <ele>12.38561589188</ele>
        <time>2022-03-19T21:44:46.273Z</time>
      </trkpt>
      <trkpt lat="52.39018" lon="6.02201">
        <ele>12.3120846051</ele>
        <time>2022-03-19T21:44:56.441Z</time>
      </trkpt>
      <trkpt lat="52.39013" lon="6.02212">
        <ele>12.29523594024</ele>
        <time>2022-03-19T21:45:06.610Z</time>
      </trkpt>
      <trkpt lat="52.39004" lon="6.02209">
        <ele>12.30709515844</ele>
        <time>2022-03-19T21:45:16.781Z</time>
      </trkpt>
      <trkpt lat="52.38925" lon="6.02267">
        <ele>12.44528643156</ele>
        <time>2022-03-19T21:45:26.965Z</time>
      </trkpt>
      <trkpt lat="52.38895" lon="6.02286">
        <ele>12.45784750854</ele>
        <time>2022-03-19T21:45:37.155Z</time>
      </trkpt>
      <trkpt lat="52.38836" lon="6.02329">
        <ele>12.61458955723</ele>
        <time>2022-03-19T21:45:47.355Z</time>
      </trkpt>
      <trkpt lat="52.38819" lon="6.02344">
        <ele>12.71006087686</ele>
        <time>2022-03-19T21:45:57.558Z</time>
      </trkpt>
      <trkpt lat="52.38806" lon="6.02364">
        <ele>12.78647661347</ele>
        <time>2022-03-19T21:46:07.764Z</time>
      </trkpt>
      <trkpt lat="52.38772000604" lon="6.02483000895">
        <ele>12.71122059346</ele>
        <time>2022-03-19T21:46:17.983Z</time>
      </trkpt>
      <trkpt lat="52.38738" lon="6.02602">
        <ele>12.88141455425</ele>
        <time>2022-03-19T21:46:28.215Z</time>
      </trkpt>
      <trkpt lat="52.38739" lon="6.02609">
        <ele>12.91948799763</ele>
        <time>2022-03-19T21:46:38.447Z</time>
      </trkpt>
      <trkpt lat="52.38722" lon="6.0267">
        <ele>12.93795915208</ele>
        <time>2022-03-19T21:46:48.686Z</time>
      </trkpt>
      <trkpt lat="52.38712" lon="6.02687">
        <ele>12.91063066914</ele>
        <time>2022-03-19T21:46:58.927Z</time>
      </trkpt>
      <trkpt lat="52.38687" lon="6.02703">
        <ele>12.76740207819</ele>
        <time>2022-03-19T21:47:09.173Z</time>
      </trkpt>
      <trkpt lat="52.3867" lon="6.02697">
        <ele>12.71350954224</ele>
        <time>2022-03-19T21:47:19.421Z</time>
      </trkpt>
      <trkpt lat="52.38661" lon="6.02783">
        <ele>12.59875581859</ele>
        <time>2022-03-19T21:47:29.678Z</time>
      </trkpt>
      <trkpt lat="52.38651000407" lon="6.02881000207">
        <ele>12.81761075088</ele>
        <time>2022-03-19T21:47:39.945Z</time>
      </trkpt>
      <trkpt lat="52.38641" lon="6.02979">
        <ele>12.86581740529</ele>
        <time>2022-03-19T21:47:50.221Z</time>
      </trkpt>
      <trkpt lat="52.38637000365" lon="6.03072000074">
        <ele>12.863407964</ele>
        <time>2022-03-19T21:48:00.507Z</time>
      </trkpt>
      <trkpt lat="52.38633" lon="6.03165">
        <ele>12.87820933865</ele>
        <time>2022-03-19T21:48:10.802Z</time>
      </trkpt>
      <trkpt lat="52.38634668258" lon="6.03302333228">
        <ele>12.50511376318</ele>
        <time>2022-03-19T21:48:21.110Z</time>
      </trkpt>
      <trkpt lat="52.38636334925" lon="6.03439666559">
        <ele>12.48156240164</ele>
        <time>2022-03-19T21:48:31.432Z</time>
      </trkpt>
      <trkpt lat="52.38638" lon="6.03577">
        <ele>12.4314792284</ele>
        <time>2022-03-19T21:48:41.767Z</time>
      </trkpt>
      <trkpt lat="52.3864" lon="6.03588">
        <ele>12.37414314636</ele>
        <time>2022-03-19T21:48:52.103Z</time>
      </trkpt>
      <trkpt lat="52.3865" lon="6.03603">
        <ele>12.3436047301</ele>
        <time>2022-03-19T21:49:02.441Z</time>
      </trkpt>
      <trkpt lat="52.38652" lon="6.03613">
        <ele>12.32452992169</ele>
        <time>2022-03-19T21:49:12.780Z</time>
      </trkpt>
      <trkpt lat="52.38653" lon="6.03613">
        <ele>12.30836957005</ele>
        <time>2022-03-19T21:49:23.120Z</time>
      </trkpt>
      <trkpt lat="52.38648" lon="6.03635">
        <ele>12.31785602287</ele>
        <time>2022-03-19T21:49:33.462Z</time>
      </trkpt>
      <trkpt lat="52.38633" lon="6.03657">
        <ele>12.36917544434</ele>
        <time>2022-03-19T21:49:43.807Z</time>
      </trkpt>
      <trkpt lat="52.38651" lon="6.03705">
        <ele>12.43345089704</ele>
        <time>2022-03-19T21:49:54.158Z</time>
      </trkpt>
      <trkpt lat="52.38672" lon="6.03797">
        <ele>12.50720936476</ele>
        <time>2022-03-19T21:50:04.518Z</time>
      </trkpt>
      <trkpt lat="52.38673" lon="6.03838">
        <ele>12.43604589325</ele>
        <time>2022-03-19T21:50:14.882Z</time>
      </trkpt>
      <trkpt lat="52.38677" lon="6.03863">
        <ele>12.35496104003</ele>
        <time>2022-03-19T21:50:25.249Z</time>
      </trkpt>
      <trkpt lat="52.38676" lon="6.03867">
        <ele>12.27511296281</ele>
        <time>2022-03-19T21:50:35.616Z</time>
      </trkpt>
      <trkpt lat="52.38673" lon="6.03884">
        <ele>12.14700478097</ele>
        <time>2022-03-19T21:50:45.985Z</time>
      </trkpt>
      <trkpt lat="52.38668" lon="6.03986">
        <ele>11.92406370018</ele>
        <time>2022-03-19T21:50:56.364Z</time>
      </trkpt>
      <trkpt lat="52.38669" lon="6.04">
        <ele>11.80912825886</ele>
        <time>2022-03-19T21:51:06.744Z</time>
      </trkpt>
      <trkpt lat="52.38693" lon="6.04088">
        <ele>11.71776588487</ele>
        <time>2022-03-19T21:51:17.134Z</time>
      </trkpt>
      <trkpt lat="52.38661" lon="6.04133">
        <ele>11.6156722131</ele>
        <time>2022-03-19T21:51:27.531Z</time>
      </trkpt>
      <trkpt lat="52.3858" lon="6.04156">
        <ele>11.56334444146</ele>
        <time>2022-03-19T21:51:37.941Z</time>
      </trkpt>
      <trkpt lat="52.38556" lon="6.0416">
        <ele>11.39333515247</ele>
        <time>2022-03-19T21:51:48.355Z</time>
      </trkpt>
      <trkpt lat="52.38483999997" lon="6.04171500189">
        <ele>11.33462207205</ele>
        <time>2022-03-19T21:51:58.780Z</time>
      </trkpt>
      <trkpt lat="52.38412" lon="6.04183">
        <ele>11.07951922019</ele>
        <time>2022-03-19T21:52:09.217Z</time>
      </trkpt>
      <trkpt lat="52.3839" lon="6.04185">
        <ele>10.90554212612</ele>
        <time>2022-03-19T21:52:19.657Z</time>
      </trkpt>
      <trkpt lat="52.38346" lon="6.04189">
        <ele>10.78509822928</ele>
        <time>2022-03-19T21:52:30.104Z</time>
      </trkpt>
      <trkpt lat="52.38272250013" lon="6.04199250514">
        <ele>10.8277544706</ele>
        <time>2022-03-19T21:52:40.563Z</time>
      </trkpt>
      <trkpt lat="52.38198500018" lon="6.04209500685">
        <ele>10.72468094637</ele>
        <time>2022-03-19T21:52:51.034Z</time>
      </trkpt>
      <trkpt lat="52.38124750014" lon="6.04219750514">
        <ele>10.50741347626</ele>
        <time>2022-03-19T21:53:01.517Z</time>
      </trkpt>
      <trkpt lat="52.38051" lon="6.0423">
        <ele>10.4543072303</ele>
        <time>2022-03-19T21:53:12.012Z</time>
      </trkpt>
      <trkpt lat="52.38041" lon="6.04226">
        <ele>10.35060582427</ele>
        <time>2022-03-19T21:53:22.508Z</time>
      </trkpt>
      <trkpt lat="52.38031" lon="6.04209">
        <ele>10.24383468975</ele>
        <time>2022-03-19T21:53:33.007Z</time>
      </trkpt>
      <trkpt lat="52.38013" lon="6.04242">
        <ele>10.06744328982</ele>
        <time>2022-03-19T21:53:43.510Z</time>
      </trkpt>
      <trkpt lat="52.38" lon="6.04259">
        <ele>9.95047760845</ele>
        <time>2022-03-19T21:53:54.016Z</time>
      </trkpt>
      <trkpt lat="52.37964000103" lon="6.04310500433">
        <ele>9.84876720238</ele>
        <time>2022-03-19T21:54:04.529Z</time>
      </trkpt>
      <trkpt lat="52.37928" lon="6.04362">
        <ele>9.91348112409</ele>
        <time>2022-03-19T21:54:15.050Z</time>
      </trkpt>
      <trkpt lat="52.37884500138" lon="6.04421000593">
        <ele>9.62969807124</ele>
        <time>2022-03-19T21:54:25.580Z</time>
      </trkpt>
      <trkpt lat="52.37841" lon="6.0448">
        <ele>9.51595922619</ele>
        <time>2022-03-19T21:54:36.119Z</time>
      </trkpt>
      <trkpt lat="52.37821" lon="6.04515">
        <ele>9.44883299991</ele>
        <time>2022-03-19T21:54:46.663Z</time>
      </trkpt>
      <trkpt lat="52.37791500154" lon="6.04575500405">
        <ele>9.12365967641</ele>
        <time>2022-03-19T21:54:57.215Z</time>
      </trkpt>
      <trkpt lat="52.37762" lon="6.04636">
        <ele>8.68406656718</ele>
        <time>2022-03-19T21:55:07.774Z</time>
      </trkpt>
      <trkpt lat="52.37741" lon="6.04693">
        <ele>8.41924964462</ele>
        <time>2022-03-19T21:55:18.340Z</time>
      </trkpt>
      <trkpt lat="52.37728" lon="6.0482">
        <ele>8.1955694393</ele>
        <time>2022-03-19T21:55:28.918Z</time>
      </trkpt>
      <trkpt lat="52.37721" lon="6.04858">
        <ele>7.96260807567</ele>
        <time>2022-03-19T21:55:39.500Z</time>
      </trkpt>
      <trkpt lat="52.37691" lon="6.04955">
        <ele>7.7542026105</ele>
        <time>2022-03-19T21:55:50.093Z</time>
      </trkpt>
      <trkpt lat="52.37666" lon="6.05025">
        <ele>7.39819132621</ele>
        <time>2022-03-19T21:56:00.694Z</time>
      </trkpt>
      <trkpt lat="52.37644" lon="6.05065">
        <ele>7.16257689388</ele>
        <time>2022-03-19T21:56:11.300Z</time>
      </trkpt>
      <trkpt lat="52.37621" lon="6.05101">
        <ele>6.96750542246</ele>
        <time>2022-03-19T21:56:21.911Z</time>
      </trkpt>
      <trkpt lat="52.37579" lon="6.05155">
        <ele>6.76818095646</ele>
        <time>2022-03-19T21:56:32.531Z</time>
      </trkpt>
      <trkpt lat="52.37565" lon="6.0519">
        <ele>6.66406306269</ele>
        <time>2022-03-19T21:56:43.155Z</time>
      </trkpt>
      <trkpt lat="52.37546500351" lon="6.05281000373">
        <ele>6.71121308242</ele>
        <time>2022-03-19T21:56:53.788Z</time>
      </trkpt>
      <trkpt lat="52.37528" lon="6.05372">
        <ele>6.6796470858</ele>
        <time>2022-03-19T21:57:04.431Z</time>
      </trkpt>
      <trkpt lat="52.37503752009" lon="6.05498002079">
        <ele>6.0451409117</ele>
        <time>2022-03-19T21:57:15.087Z</time>
      </trkpt>
      <trkpt lat="52.37479502678" lon="6.05624002774">
        <ele>5.79682730515</ele>
        <time>2022-03-19T21:57:25.756Z</time>
      </trkpt>
      <trkpt lat="52.37455252008" lon="6.05750002085">
        <ele>5.57703919852</ele>
        <time>2022-03-19T21:57:36.437Z</time>
      </trkpt>
      <trkpt lat="52.37431" lon="6.05876">
        <ele>5.27797058996</ele>
        <time>2022-03-19T21:57:47.131Z</time>
      </trkpt>
      <trkpt lat="52.37408500674" lon="6.06002500651">
        <ele>5.15618807827</ele>
        <time>2022-03-19T21:57:57.838Z</time>
      </trkpt>
      <trkpt lat="52.37386" lon="6.06129">
        <ele>4.81862440324</ele>
        <time>2022-03-19T21:58:08.558Z</time>
      </trkpt>
      <trkpt lat="52.37367" lon="6.06261">
        <ele>4.43129384323</ele>
        <time>2022-03-19T21:58:19.292Z</time>
      </trkpt>
      <trkpt lat="52.37363" lon="6.0627">
        <ele>4.25062100449</ele>
        <time>2022-03-19T21:58:30.027Z</time>
      </trkpt>
      <trkpt lat="52.37356" lon="6.06312">
        <ele>4.09080789568</ele>
        <time>2022-03-19T21:58:40.766Z</time>
      </trkpt>
      <trkpt lat="52.37337" lon="6.06455">
        <ele>4.13002450323</ele>
        <time>2022-03-19T21:58:51.519Z</time>
      </trkpt>
      <trkpt lat="52.37328" lon="6.06545">
        <ele>4.0214660517</ele>
        <time>2022-03-19T21:59:02.281Z</time>
      </trkpt>
      <trkpt lat="52.37325" lon="6.06566">
        <ele>3.90977595381</ele>
        <time>2022-03-19T21:59:13.045Z</time>
      </trkpt>
      <trkpt lat="52.37319" lon="6.06589">
        <ele>3.80701707005</ele>
        <time>2022-03-19T21:59:23.812Z</time>
      </trkpt>
      <trkpt lat="52.37317" lon="6.06612">
        <ele>3.69913299199</ele>
        <time>2022-03-19T21:59:34.581Z</time>
      </trkpt>
      <trkpt lat="52.37326" lon="6.06614">
        <ele>3.65842293339</ele>
        <time>2022-03-19T21:59:45.352Z</time>
      </trkpt>
      <trkpt lat="52.37322" lon="6.06616">
        <ele>3.60260899624</ele>
        <time>2022-03-19T21:59:56.123Z</time>
      </trkpt>
      <trkpt lat="52.37318" lon="6.06627">
        <ele>3.56875310956</ele>
        <time>2022-03-19T22:00:06.895Z</time>
      </trkpt>
      <trkpt lat="52.37313500337" lon="6.06716500106">
        <ele>3.6093859161</ele>
        <time>2022-03-19T22:00:17.676Z</time>
      </trkpt>
      <trkpt lat="52.37309" lon="6.06806">
        <ele>3.55769804051</ele>
        <time>2022-03-19T22:00:28.466Z</time>
      </trkpt>
      <trkpt lat="52.3730800052" lon="6.06917000042">
        <ele>3.60877252442</ele>
        <time>2022-03-19T22:00:39.267Z</time>
      </trkpt>
      <trkpt lat="52.37307" lon="6.07028">
        <ele>3.53577788971</ele>
        <time>2022-03-19T22:00:50.079Z</time>
      </trkpt>
      <trkpt lat="52.37310500457" lon="6.07131999943">
        <ele>3.57846562881</ele>
        <time>2022-03-19T22:01:00.901Z</time>
      </trkpt>
      <trkpt lat="52.37314" lon="6.07236">
        <ele>3.72808941431</ele>
        <time>2022-03-19T22:01:11.733Z</time>
      </trkpt>
      <trkpt lat="52.3732" lon="6.07313">
        <ele>3.81043335473</ele>
        <time>2022-03-19T22:01:22.573Z</time>
      </trkpt>
      <trkpt lat="52.3732" lon="6.07312">
        <ele>3.88904927773</ele>
        <time>2022-03-19T22:01:33.413Z</time>
      </trkpt>
      <trkpt lat="52.37331" lon="6.07431">
        <ele>3.93252911192</ele>
        <time>2022-03-19T22:01:44.265Z</time>
      </trkpt>
      <trkpt lat="52.37342000358" lon="6.07522999775">
        <ele>3.9036692665</ele>
        <time>2022-03-19T22:01:55.126Z</time>
      </trkpt>
      <trkpt lat="52.37353" lon="6.07615">
        <ele>4.12520674807</ele>
        <time>2022-03-19T22:02:05.996Z</time>
      </trkpt>
      <trkpt lat="52.37369000429" lon="6.07715499652">
        <ele>4.3363472717</ele>
        <time>2022-03-19T22:02:16.876Z</time>
      </trkpt>
      <trkpt lat="52.37385" lon="6.07816">
        <ele>4.38282664796</ele>
        <time>2022-03-19T22:02:27.767Z</time>
      </trkpt>
      <trkpt lat="52.37382" lon="6.07837">
        <ele>4.5574366176</ele>
        <time>2022-03-19T22:02:38.660Z</time>
      </trkpt>
      <trkpt lat="52.37358" lon="6.07775">
        <ele>4.75906110374</ele>
        <time>2022-03-19T22:02:49.560Z</time>
      </trkpt>
      <trkpt lat="52.3733" lon="6.07718">
        <ele>4.94838777928</ele>
        <time>2022-03-19T22:03:00.467Z</time>
      </trkpt>
      <trkpt lat="52.37303" lon="6.07678">
        <ele>5.06694049146</ele>
        <time>2022-03-19T22:03:11.380Z</time>
      </trkpt>
      <trkpt lat="52.3726" lon="6.07627">
        <ele>5.04880008733</ele>
        <time>2022-03-19T22:03:22.301Z</time>
      </trkpt>
      <trkpt lat="52.37259" lon="6.07626">
        <ele>5.15701285712</ele>
        <time>2022-03-19T22:03:33.223Z</time>
      </trkpt>
      <trkpt lat="52.37239" lon="6.07602">
        <ele>5.26338700899</ele>
        <time>2022-03-19T22:03:44.149Z</time>
      </trkpt>
      <trkpt lat="52.37213" lon="6.07576">
        <ele>5.43183786105</ele>
        <time>2022-03-19T22:03:55.079Z</time>
      </trkpt>
      <trkpt lat="52.37181" lon="6.07552">
        <ele>5.52511940935</ele>
        <time>2022-03-19T22:04:06.015Z</time>
      </trkpt>
      <trkpt lat="52.37138" lon="6.0753">
        <ele>5.52977156429</ele>
        <time>2022-03-19T22:04:16.958Z</time>
      </trkpt>
      <trkpt lat="52.37070000028" lon="6.07511332758">
        <ele>5.60723103098</ele>
        <time>2022-03-19T22:04:27.912Z</time>
      </trkpt>
      <trkpt lat="52.37002000027" lon="6.07492666091">
        <ele>5.77977003108</ele>
        <time>2022-03-19T22:04:38.877Z</time>
      </trkpt>
      <trkpt lat="52.36934" lon="6.07474">
        <ele>5.79674499308</ele>
        <time>2022-03-19T22:04:49.853Z</time>
      </trkpt>
      <trkpt lat="52.36892" lon="6.0746">
        <ele>5.94032260061</ele>
        <time>2022-03-19T22:05:00.836Z</time>
      </trkpt>
      <trkpt lat="52.36828333423" lon="6.07428332423">
        <ele>5.94916540921</ele>
        <time>2022-03-19T22:05:11.830Z</time>
      </trkpt>
      <trkpt lat="52.36764666761" lon="6.07396665759">
        <ele>6.28857818735</ele>
        <time>2022-03-19T22:05:22.835Z</time>
      </trkpt>
      <trkpt lat="52.36701" lon="6.07365">
        <ele>6.43981321441</ele>
        <time>2022-03-19T22:05:33.850Z</time>
      </trkpt>
      <trkpt lat="52.36697" lon="6.07359">
        <ele>6.53775132493</ele>
        <time>2022-03-19T22:05:44.866Z</time>
      </trkpt>
      <trkpt lat="52.36697" lon="6.07345">
        <ele>6.63451124804</ele>
        <time>2022-03-19T22:05:55.884Z</time>
      </trkpt>
      <trkpt lat="52.36662" lon="6.07335">
        <ele>6.78042881775</ele>
        <time>2022-03-19T22:06:06.907Z</time>
      </trkpt>
      <trkpt lat="52.36639" lon="6.07331">
        <ele>6.83710999934</ele>
        <time>2022-03-19T22:06:17.934Z</time>
      </trkpt>
      <trkpt lat="52.36611" lon="6.07329">
        <ele>6.80456700091</ele>
        <time>2022-03-19T22:06:28.965Z</time>
      </trkpt>
      <trkpt lat="52.36561" lon="6.07328">
        <ele>6.57319659259</ele>
        <time>2022-03-19T22:06:40.004Z</time>
      </trkpt>
      <trkpt lat="52.36509" lon="6.07332">
        <ele>6.20101116113</ele>
        <time>2022-03-19T22:06:51.052Z</time>
      </trkpt>
      <trkpt lat="52.36464000007" lon="6.07342000101">
        <ele>5.95124029939</ele>
        <time>2022-03-19T22:07:02.107Z</time>
      </trkpt>
      <trkpt lat="52.36419" lon="6.07352">
        <ele>5.85830173836</ele>
        <time>2022-03-19T22:07:13.169Z</time>
      </trkpt>
      <trkpt lat="52.36348000048" lon="6.07386500556">
        <ele>5.66136530125</ele>
        <time>2022-03-19T22:07:24.243Z</time>
      </trkpt>
      <trkpt lat="52.36277" lon="6.07421">
        <ele>5.68137609737</ele>
        <time>2022-03-19T22:07:35.329Z</time>
      </trkpt>
      <trkpt lat="52.36229" lon="6.07453">
        <ele>5.47826527587</ele>
        <time>2022-03-19T22:07:46.423Z</time>
      </trkpt>
      <trkpt lat="52.36194" lon="6.0748">
        <ele>5.32257489148</ele>
        <time>2022-03-19T22:07:57.524Z</time>
      </trkpt>
      <trkpt lat="52.36166" lon="6.07489">
        <ele>5.19918160899</ele>
        <time>2022-03-19T22:08:08.629Z</time>
      </trkpt>
      <trkpt lat="52.36115" lon="6.07498">
        <ele>5.06573211353</ele>
        <time>2022-03-19T22:08:19.742Z</time>
      </trkpt>
      <trkpt lat="52.36061" lon="6.07513">
        <ele>5.03841940121</ele>
        <time>2022-03-19T22:08:30.864Z</time>
      </trkpt>
      <trkpt lat="52.36031" lon="6.07526">
        <ele>4.90167585394</ele>
        <time>2022-03-19T22:08:41.991Z</time>
      </trkpt>
      <trkpt lat="52.36009" lon="6.07538">
        <ele>4.83379200953</ele>
        <time>2022-03-19T22:08:53.122Z</time>
      </trkpt>
      <trkpt lat="52.35981" lon="6.07559">
        <ele>4.79196648676</ele>
        <time>2022-03-19T22:09:04.258Z</time>
      </trkpt>
      <trkpt lat="52.3596" lon="6.07579">
        <ele>4.7631316284</ele>
        <time>2022-03-19T22:09:15.398Z</time>
      </trkpt>
      <trkpt lat="52.35939" lon="6.07603">
        <ele>4.69957900522</ele>
        <time>2022-03-19T22:09:26.542Z</time>
      </trkpt>
      <trkpt lat="52.35904000149" lon="6.0766300048">
        <ele>4.52536617816</ele>
        <time>2022-03-19T22:09:37.694Z</time>
      </trkpt>
      <trkpt lat="52.35869" lon="6.07723">
        <ele>4.50914235274</ele>
        <time>2022-03-19T22:09:48.854Z</time>
      </trkpt>
      <trkpt lat="52.35814" lon="6.07823">
        <ele>4.42414711006</ele>
        <time>2022-03-19T22:10:00.027Z</time>
      </trkpt>
      <trkpt lat="52.35783" lon="6.07889">
        <ele>4.40982190571</ele>
        <time>2022-03-19T22:10:11.208Z</time>
      </trkpt>
      <trkpt lat="52.35771" lon="6.07896">
        <ele>4.38885163156</ele>
        <time>2022-03-19T22:10:22.391Z</time>
      </trkpt>
      <trkpt lat="52.35733" lon="6.0791">
        <ele>4.38759928933</ele>
        <time>2022-03-19T22:10:33.581Z</time>
      </trkpt>
      <trkpt lat="52.35718" lon="6.07918">
        <ele>4.37492664606</ele>
        <time>2022-03-19T22:10:44.773Z</time>
      </trkpt>
      <trkpt lat="52.35701" lon="6.07935">
        <ele>4.37794042073</ele>
        <time>2022-03-19T22:10:55.968Z</time>
      </trkpt>
      <trkpt lat="52.35686" lon="6.07955">
        <ele>4.34754060421</ele>
        <time>2022-03-19T22:11:07.166Z</time>
      </trkpt>
      <trkpt lat="52.35653" lon="6.07997">
        <ele>4.23079158433</ele>
        <time>2022-03-19T22:11:18.371Z</time>
      </trkpt>
      <trkpt lat="52.35648" lon="6.08009">
        <ele>4.1937532998</ele>
        <time>2022-03-19T22:11:29.578Z</time>
      </trkpt>
      <trkpt lat="52.35635" lon="6.08069">
        <ele>4.08514876342</ele>
        <time>2022-03-19T22:11:40.791Z</time>
      </trkpt>
      <trkpt lat="52.35624" lon="6.08084">
        <ele>4.06432279714</ele>
        <time>2022-03-19T22:11:52.006Z</time>
      </trkpt>
      <trkpt lat="52.35616" lon="6.0809">
        <ele>4.06775583911</ele>
        <time>2022-03-19T22:12:03.223Z</time>
      </trkpt>
      <trkpt lat="52.35602" lon="6.08092">
        <ele>4.0925482978</ele>
        <time>2022-03-19T22:12:14.442Z</time>
      </trkpt>
      <trkpt lat="52.35586" lon="6.08091">
        <ele>4.14240609035</ele>
        <time>2022-03-19T22:12:25.663Z</time>
      </trkpt>
      <trkpt lat="52.35579" lon="6.08092">
        <ele>4.18465530739</ele>
        <time>2022-03-19T22:12:36.885Z</time>
      </trkpt>
      <trkpt lat="52.35566" lon="6.08103">
        <ele>4.2391141882</ele>
        <time>2022-03-19T22:12:48.110Z</time>
      </trkpt>
      <trkpt lat="52.35525" lon="6.0816">
        <ele>4.30367511137</ele>
        <time>2022-03-19T22:12:59.343Z</time>
      </trkpt>
      <trkpt lat="52.35498" lon="6.08184">
        <ele>4.29054021664</ele>
        <time>2022-03-19T22:13:10.581Z</time>
      </trkpt>
      <trkpt lat="52.35479" lon="6.08209">
        <ele>4.335889386</ele>
        <time>2022-03-19T22:13:21.823Z</time>
      </trkpt>
      <trkpt lat="52.3546" lon="6.0825">
        <ele>4.42592453503</ele>
        <time>2022-03-19T22:13:33.070Z</time>
      </trkpt>
      <trkpt lat="52.35399" lon="6.08339">
        <ele>4.48735703723</ele>
        <time>2022-03-19T22:13:44.330Z</time>
      </trkpt>
      <trkpt lat="52.35384" lon="6.08347">
        <ele>4.52920113849</ele>
        <time>2022-03-19T22:13:55.593Z</time>
      </trkpt>
      <trkpt lat="52.35337" lon="6.08357">
        <ele>4.56314720566</ele>
        <time>2022-03-19T22:14:06.864Z</time>
      </trkpt>
      <trkpt lat="52.35307" lon="6.0838">
        <ele>4.60041691519</ele>
        <time>2022-03-19T22:14:18.140Z</time>
      </trkpt>
      <trkpt lat="52.35293" lon="6.08403">
        <ele>4.66472610692</ele>
        <time>2022-03-19T22:14:29.419Z</time>
      </trkpt>
      <trkpt lat="52.35269" lon="6.08467">
        <ele>4.67775911132</ele>
        <time>2022-03-19T22:14:40.705Z</time>
      </trkpt>
      <trkpt lat="52.35253" lon="6.08521">
        <ele>4.64027422112</ele>
        <time>2022-03-19T22:14:51.997Z</time>
      </trkpt>
      <trkpt lat="52.35245" lon="6.08534">
        <ele>4.61814774313</ele>
        <time>2022-03-19T22:15:03.291Z</time>
      </trkpt>
      <trkpt lat="52.35222" lon="6.0856">
        <ele>4.62743905268</ele>
        <time>2022-03-19T22:15:14.590Z</time>
      </trkpt>
      <trkpt lat="52.35181" lon="6.0859">
        <ele>4.64685237999</ele>
        <time>2022-03-19T22:15:25.896Z</time>
      </trkpt>
      <trkpt lat="52.35166" lon="6.08616">
        <ele>4.63022509595</ele>
        <time>2022-03-19T22:15:37.205Z</time>
      </trkpt>
      <trkpt lat="52.3516" lon="6.08649">
        <ele>4.60392755492</ele>
        <time>2022-03-19T22:15:48.518Z</time>
      </trkpt>
      <trkpt lat="52.35161" lon="6.08706">
        <ele>4.66597224799</ele>
        <time>2022-03-19T22:15:59.836Z</time>
      </trkpt>
      <trkpt lat="52.35152" lon="6.08751">
        <ele>4.67032074093</ele>
        <time>2022-03-19T22:16:11.159Z</time>
      </trkpt>
      <trkpt lat="52.35148" lon="6.08796">
        <ele>4.66708488044</ele>
        <time>2022-03-19T22:16:22.486Z</time>
      </trkpt>
      <trkpt lat="52.35143" lon="6.08818">
        <ele>4.65467711065</ele>
        <time>2022-03-19T22:16:33.816Z</time>
      </trkpt>
      <trkpt lat="52.35138" lon="6.08827">
        <ele>4.65918949935</ele>
        <time>2022-03-19T22:16:45.147Z</time>
      </trkpt>
      <trkpt lat="52.35132" lon="6.08833">
        <ele>4.66065720732</ele>
        <time>2022-03-19T22:16:56.479Z</time>
      </trkpt>
      <trkpt lat="52.35097" lon="6.08854">
        <ele>4.62364101898</ele>
        <time>2022-03-19T22:17:07.817Z</time>
      </trkpt>
      <trkpt lat="52.35081" lon="6.08867">
        <ele>4.61094288761</ele>
        <time>2022-03-19T22:17:19.158Z</time>
      </trkpt>
      <trkpt lat="52.35052" lon="6.08899">
        <ele>4.62384406036</ele>
        <time>2022-03-19T22:17:30.504Z</time>
      </trkpt>
      <trkpt lat="52.35041" lon="6.08914">
        <ele>4.6245940098</ele>
        <time>2022-03-19T22:17:41.853Z</time>
      </trkpt>
      <trkpt lat="52.35024" lon="6.08948">
        <ele>4.67567614236</ele>
        <time>2022-03-19T22:17:53.206Z</time>
      </trkpt>
      <trkpt lat="52.35002500259" lon="6.09026500386">
        <ele>4.78222776452</ele>
        <time>2022-03-19T22:18:04.568Z</time>
      </trkpt>
      <trkpt lat="52.34981" lon="6.09105">
        <ele>4.88666990817</ele>
        <time>2022-03-19T22:18:15.938Z</time>
      </trkpt>
      <trkpt lat="52.34953500263" lon="6.09184500506">
        <ele>5.02044394745</ele>
        <time>2022-03-19T22:18:27.317Z</time>
      </trkpt>
      <trkpt lat="52.34926" lon="6.09264">
        <ele>5.01794085941</ele>
        <time>2022-03-19T22:18:38.705Z</time>
      </trkpt>
      <trkpt lat="52.34916" lon="6.09285">
        <ele>5.02688511301</ele>
        <time>2022-03-19T22:18:50.095Z</time>
      </trkpt>
      <trkpt lat="52.349" lon="6.09298">
        <ele>4.99136743359</ele>
        <time>2022-03-19T22:19:01.488Z</time>
      </trkpt>
      <trkpt lat="52.3485" lon="6.09324">
        <ele>4.9054798286</ele>
        <time>2022-03-19T22:19:12.890Z</time>
      </trkpt>
      <trkpt lat="52.34814" lon="6.09347">
        <ele>4.93143902319</ele>
        <time>2022-03-19T22:19:24.298Z</time>
      </trkpt>
      <trkpt lat="52.34779" lon="6.09377">
        <ele>5.00143808398</ele>
        <time>2022-03-19T22:19:35.712Z</time>
      </trkpt>
      <trkpt lat="52.34775" lon="6.09378">
        <ele>4.96955055507</ele>
        <time>2022-03-19T22:19:47.127Z</time>
      </trkpt>
      <trkpt lat="52.3473" lon="6.09417">
        <ele>4.91045915236</ele>
        <time>2022-03-19T22:19:58.550Z</time>
      </trkpt>
      <trkpt lat="52.34680500108" lon="6.09468500581">
        <ele>4.76798512106</ele>
        <time>2022-03-19T22:20:09.982Z</time>
      </trkpt>
      <trkpt lat="52.34631" lon="6.0952">
        <ele>4.61191252025</ele>
        <time>2022-03-19T22:20:21.424Z</time>
      </trkpt>
      <trkpt lat="52.34573" lon="6.09578">
        <ele>4.4518396025</ele>
        <time>2022-03-19T22:20:32.877Z</time>
      </trkpt>
      <trkpt lat="52.34499" lon="6.0966">
        <ele>4.4184596014</ele>
        <time>2022-03-19T22:20:44.344Z</time>
      </trkpt>
      <trkpt lat="52.34472" lon="6.09718">
        <ele>4.14306581958</ele>
        <time>2022-03-19T22:20:55.818Z</time>
      </trkpt>
      <trkpt lat="52.34461" lon="6.09733">
        <ele>4.07879651859</ele>
        <time>2022-03-19T22:21:07.295Z</time>
      </trkpt>
      <trkpt lat="52.34449" lon="6.09743">
        <ele>4.02984298517</ele>
        <time>2022-03-19T22:21:18.774Z</time>
      </trkpt>
      <trkpt lat="52.34429" lon="6.09752">
        <ele>4.03221341983</ele>
        <time>2022-03-19T22:21:30.256Z</time>
      </trkpt>
      <trkpt lat="52.34418" lon="6.09754">
        <ele>4.01343133803</ele>
        <time>2022-03-19T22:21:41.740Z</time>
      </trkpt>
      <trkpt lat="52.34392" lon="6.0975">
        <ele>3.96218033252</ele>
        <time>2022-03-19T22:21:53.228Z</time>
      </trkpt>
      <trkpt lat="52.34375" lon="6.09745">
        <ele>3.9409588747</ele>
        <time>2022-03-19T22:22:04.719Z</time>
      </trkpt>
      <trkpt lat="52.34349" lon="6.0973">
        <ele>3.93406961285</ele>
        <time>2022-03-19T22:22:16.214Z</time>
      </trkpt>
      <trkpt lat="52.3433" lon="6.09716">
        <ele>3.9325945117</ele>
        <time>2022-03-19T22:22:27.713Z</time>
      </trkpt>
      <trkpt lat="52.34298" lon="6.09688">
        <ele>3.88852669276</ele>
        <time>2022-03-19T22:22:39.217Z</time>
      </trkpt>
      <trkpt lat="52.34244500086" lon="6.09644499479">
        <ele>4.05409252971</ele>
        <time>2022-03-19T22:22:50.731Z</time>
      </trkpt>
      <trkpt lat="52.34191" lon="6.09601">
        <ele>4.18375310668</ele>
        <time>2022-03-19T22:23:02.255Z</time>
      </trkpt>
      <trkpt lat="52.34143000055" lon="6.09560999555">
        <ele>4.2003928485</ele>
        <time>2022-03-19T22:23:13.787Z</time>
      </trkpt>
      <trkpt lat="52.34095" lon="6.09521">
        <ele>4.17792957149</ele>
        <time>2022-03-19T22:23:25.328Z</time>
      </trkpt>
      <trkpt lat="52.34055" lon="6.0949">
        <ele>4.27999523096</ele>
        <time>2022-03-19T22:23:36.876Z</time>
      </trkpt>
      <trkpt lat="52.34028" lon="6.09478">
        <ele>4.28897412431</ele>
        <time>2022-03-19T22:23:48.428Z</time>
      </trkpt>
      <trkpt lat="52.33979" lon="6.0947">
        <ele>4.33250262267</ele>
        <time>2022-03-19T22:23:59.988Z</time>
      </trkpt>
      <trkpt lat="52.33963" lon="6.09465">
        <ele>4.50060555497</ele>
        <time>2022-03-19T22:24:11.551Z</time>
      </trkpt>
      <trkpt lat="52.33921" lon="6.09445">
        <ele>4.78683315805</ele>
        <time>2022-03-19T22:24:23.121Z</time>
      </trkpt>
      <trkpt lat="52.33904" lon="6.09443">
        <ele>4.96423392823</ele>
        <time>2022-03-19T22:24:34.694Z</time>
      </trkpt>
      <trkpt lat="52.33839" lon="6.09444">
        <ele>5.10505747052</ele>
        <time>2022-03-19T22:24:46.277Z</time>
      </trkpt>
      <trkpt lat="52.33811" lon="6.09439">
        <ele>5.1706956629</ele>
        <time>2022-03-19T22:24:57.865Z</time>
      </trkpt>
      <trkpt lat="52.33778" lon="6.09429">
        <ele>5.28056708645</ele>
        <time>2022-03-19T22:25:09.458Z</time>
      </trkpt>
      <trkpt lat="52.33731" lon="6.09397">
        <ele>5.54638702026</ele>
        <time>2022-03-19T22:25:21.059Z</time>
      </trkpt>
      <trkpt lat="52.33711" lon="6.09378">
        <ele>5.68712728088</ele>
        <time>2022-03-19T22:25:32.664Z</time>
      </trkpt>
      <trkpt lat="52.33673" lon="6.09335">
        <ele>5.80319418113</ele>
        <time>2022-03-19T22:25:44.276Z</time>
      </trkpt>
      <trkpt lat="52.33631" lon="6.09291">
        <ele>5.79734803077</ele>
        <time>2022-03-19T22:25:55.896Z</time>
      </trkpt>
      <trkpt lat="52.33618" lon="6.09281">
        <ele>5.84838342299</ele>
        <time>2022-03-19T22:26:07.518Z</time>
      </trkpt>
      <trkpt lat="52.33554" lon="6.09242">
        <ele>5.82026727833</ele>
        <time>2022-03-19T22:26:19.151Z</time>
      </trkpt>
      <trkpt lat="52.33479000045" lon="6.0920899944">
        <ele>5.8615002863</ele>
        <time>2022-03-19T22:26:30.797Z</time>
      </trkpt>
      <trkpt lat="52.33404" lon="6.09176">
        <ele>5.67224549215</ele>
        <time>2022-03-19T22:26:42.455Z</time>
      </trkpt>
      <trkpt lat="52.33349000013" lon="6.0915299971">
        <ele>5.63093867481</ele>
        <time>2022-03-19T22:26:54.122Z</time>
      </trkpt>
      <trkpt lat="52.33294" lon="6.0913">
        <ele>5.50747826773</ele>
        <time>2022-03-19T22:27:05.799Z</time>
      </trkpt>
      <trkpt lat="52.3327" lon="6.09124">
        <ele>5.46727344199</ele>
        <time>2022-03-19T22:27:17.479Z</time>
      </trkpt>
      <trkpt lat="52.33225" lon="6.09117">
        <ele>5.20613517369</ele>
        <time>2022-03-19T22:27:29.167Z</time>
      </trkpt>
      <trkpt lat="52.33202" lon="6.09107">
        <ele>5.03864265604</ele>
        <time>2022-03-19T22:27:40.858Z</time>
      </trkpt>
      <trkpt lat="52.33143" lon="6.09069">
        <ele>4.92448540411</ele>
        <time>2022-03-19T22:27:52.560Z</time>
      </trkpt>
      <trkpt lat="52.3309" lon="6.0903">
        <ele>4.85491708078</ele>
        <time>2022-03-19T22:28:04.271Z</time>
      </trkpt>
      <trkpt lat="52.33068" lon="6.0901">
        <ele>4.80504901196</ele>
        <time>2022-03-19T22:28:15.986Z</time>
      </trkpt>
      <trkpt lat="52.3301" lon="6.08933">
        <ele>4.81173702183</ele>
        <time>2022-03-19T22:28:27.713Z</time>
      </trkpt>
      <trkpt lat="52.32986" lon="6.08907">
        <ele>4.77273743538</ele>
        <time>2022-03-19T22:28:39.445Z</time>
      </trkpt>
      <trkpt lat="52.32946" lon="6.08881">
        <ele>4.84876310509</ele>
        <time>2022-03-19T22:28:51.183Z</time>
      </trkpt>
      <trkpt lat="52.32865" lon="6.08838">
        <ele>4.91582571075</ele>
        <time>2022-03-19T22:29:02.935Z</time>
      </trkpt>
      <trkpt lat="52.32820500025" lon="6.08819999823">
        <ele>4.99291781317</ele>
        <time>2022-03-19T22:29:14.694Z</time>
      </trkpt>
      <trkpt lat="52.32776" lon="6.08802">
        <ele>5.02359334372</ele>
        <time>2022-03-19T22:29:26.461Z</time>
      </trkpt>
      <trkpt lat="52.32711" lon="6.08785">
        <ele>5.33374409148</ele>
        <time>2022-03-19T22:29:38.238Z</time>
      </trkpt>
      <trkpt lat="52.32657" lon="6.08776">
        <ele>5.38687194222</ele>
        <time>2022-03-19T22:29:50.024Z</time>
      </trkpt>
      <trkpt lat="52.32618" lon="6.08772">
        <ele>5.47576118378</ele>
        <time>2022-03-19T22:30:01.816Z</time>
      </trkpt>
      <trkpt lat="52.32575" lon="6.0877">
        <ele>5.6829106967</ele>
        <time>2022-03-19T22:30:13.615Z</time>
      </trkpt>
      <trkpt lat="52.32558" lon="6.08771">
        <ele>5.80618969233</ele>
        <time>2022-03-19T22:30:25.417Z</time>
      </trkpt>
      <trkpt lat="52.32484" lon="6.08798">
        <ele>5.85071038776</ele>
        <time>2022-03-19T22:30:37.231Z</time>
      </trkpt>
      <trkpt lat="52.32427" lon="6.08824">
        <ele>5.91164581007</ele>
        <time>2022-03-19T22:30:49.055Z</time>
      </trkpt>
      <trkpt lat="52.32363" lon="6.08865">
        <ele>5.98845826467</ele>
        <time>2022-03-19T22:31:00.890Z</time>
      </trkpt>
      <trkpt lat="52.32321500044" lon="6.08894500271">
        <ele>6.14121770171</ele>
        <time>2022-03-19T22:31:12.732Z</time>
      </trkpt>
      <trkpt lat="52.3228" lon="6.08924">
        <ele>6.38923901033</ele>
        <time>2022-03-19T22:31:24.581Z</time>
      </trkpt>
      <trkpt lat="52.32259" lon="6.08932">
        <ele>6.54829859927</ele>
        <time>2022-03-19T22:31:36.434Z</time>
      </trkpt>
      <trkpt lat="52.32231" lon="6.08932">
        <ele>6.60751471775</ele>
        <time>2022-03-19T22:31:48.291Z</time>
      </trkpt>
      <trkpt lat="52.32181499988" lon="6.08921499879">
        <ele>6.5864626814</ele>
        <time>2022-03-19T22:32:00.156Z</time>
      </trkpt>
      <trkpt lat="52.32132" lon="6.08911">
        <ele>6.71866033319</ele>
        <time>2022-03-19T22:32:12.029Z</time>
      </trkpt>
      <trkpt lat="52.3211" lon="6.08909">
        <ele>6.81789846407</ele>
        <time>2022-03-19T22:32:23.906Z</time>
      </trkpt>
      <trkpt lat="52.32088" lon="6.08912">
        <ele>6.87417186504</ele>
        <time>2022-03-19T22:32:35.786Z</time>
      </trkpt>
      <trkpt lat="52.32057" lon="6.08924">
        <ele>6.80250253431</ele>
        <time>2022-03-19T22:32:47.671Z</time>
      </trkpt>
      <trkpt lat="52.32036" lon="6.08928">
        <ele>6.79793031556</ele>
        <time>2022-03-19T22:32:59.560Z</time>
      </trkpt>
      <trkpt lat="52.32014" lon="6.08924">
        <ele>6.79780059686</ele>
        <time>2022-03-19T22:33:11.452Z</time>
      </trkpt>
      <trkpt lat="52.3195000003" lon="6.08895499586">
        <ele>6.64839265997</ele>
        <time>2022-03-19T22:33:23.355Z</time>
      </trkpt>
      <trkpt lat="52.31886" lon="6.08867">
        <ele>6.74200366882</ele>
        <time>2022-03-19T22:33:35.268Z</time>
      </trkpt>
      <trkpt lat="52.31861" lon="6.08853">
        <ele>6.60345998398</ele>
        <time>2022-03-19T22:33:47.186Z</time>
      </trkpt>
      <trkpt lat="52.31807" lon="6.08817">
        <ele>6.70318804973</ele>
        <time>2022-03-19T22:33:59.113Z</time>
      </trkpt>
      <trkpt lat="52.31781" lon="6.08803">
        <ele>6.64053811826</ele>
        <time>2022-03-19T22:34:11.044Z</time>
      </trkpt>
      <trkpt lat="52.31745" lon="6.08791">
        <ele>6.43284728773</ele>
        <time>2022-03-19T22:34:22.981Z</time>
      </trkpt>
      <trkpt lat="52.31698999997" lon="6.08774999829">
        <ele>6.40630649723</ele>
        <time>2022-03-19T22:34:34.926Z</time>
      </trkpt>
      <trkpt lat="52.31653" lon="6.08759">
        <ele>6.48465535577</ele>
        <time>2022-03-19T22:34:46.878Z</time>
      </trkpt>
      <trkpt lat="52.31626" lon="6.08751">
        <ele>6.41592147807</ele>
        <time>2022-03-19T22:34:58.835Z</time>
      </trkpt>
      <trkpt lat="52.31588" lon="6.08745">
        <ele>6.30128087909</ele>
        <time>2022-03-19T22:35:10.798Z</time>
      </trkpt>
      <trkpt lat="52.31571" lon="6.08749">
        <ele>6.24638242852</ele>
        <time>2022-03-19T22:35:22.764Z</time>
      </trkpt>
      <trkpt lat="52.3156" lon="6.08756">
        <ele>6.23105401379</ele>
        <time>2022-03-19T22:35:34.731Z</time>
      </trkpt>
      <trkpt lat="52.31522" lon="6.08797">
        <ele>6.23048052852</ele>
        <time>2022-03-19T22:35:46.706Z</time>
      </trkpt>
      <trkpt lat="52.31476" lon="6.08832">
        <ele>6.1826030693</ele>
        <time>2022-03-19T22:35:58.689Z</time>
      </trkpt>
      <trkpt lat="52.31428" lon="6.08862">
        <ele>6.08202770403</ele>
        <time>2022-03-19T22:36:10.680Z</time>
      </trkpt>
      <trkpt lat="52.31386500048" lon="6.08899500362">
        <ele>6.08481678467</ele>
        <time>2022-03-19T22:36:22.679Z</time>
      </trkpt>
      <trkpt lat="52.31345" lon="6.08937">
        <ele>6.04446260397</ele>
        <time>2022-03-19T22:36:34.685Z</time>
      </trkpt>
      <trkpt lat="52.31316" lon="6.08957">
        <ele>6.02312232103</ele>
        <time>2022-03-19T22:36:46.696Z</time>
      </trkpt>
      <trkpt lat="52.31289" lon="6.08971">
        <ele>6.04245689227</ele>
        <time>2022-03-19T22:36:58.712Z</time>
      </trkpt>
      <trkpt lat="52.31263" lon="6.08981">
        <ele>6.04937192338</ele>
        <time>2022-03-19T22:37:10.732Z</time>
      </trkpt>
      <trkpt lat="52.31219000048" lon="6.09009500274">
        <ele>6.02912187294</ele>
        <time>2022-03-19T22:37:22.760Z</time>
      </trkpt>
      <trkpt lat="52.31175" lon="6.09038">
        <ele>6.30630377487</ele>
        <time>2022-03-19T22:37:34.795Z</time>
      </trkpt>
      <trkpt lat="52.31129000054" lon="6.09074000375">
        <ele>6.44712300909</ele>
        <time>2022-03-19T22:37:46.839Z</time>
      </trkpt>
      <trkpt lat="52.31083" lon="6.0911">
        <ele>6.37637662967</ele>
        <time>2022-03-19T22:37:58.891Z</time>
      </trkpt>
      <trkpt lat="52.31011" lon="6.09154">
        <ele>6.35152023876</ele>
        <time>2022-03-19T22:38:10.955Z</time>
      </trkpt>
      <trkpt lat="52.30992" lon="6.09167">
        <ele>6.38166591597</ele>
        <time>2022-03-19T22:38:23.022Z</time>
      </trkpt>
      <trkpt lat="52.30974" lon="6.09175">
        <ele>6.40082676112</ele>
        <time>2022-03-19T22:38:35.092Z</time>
      </trkpt>
      <trkpt lat="52.30897" lon="6.09159">
        <ele>6.55223822405</ele>
        <time>2022-03-19T22:38:47.175Z</time>
      </trkpt>
      <trkpt lat="52.30833000013" lon="6.09151499893">
        <ele>6.59926795598</ele>
        <time>2022-03-19T22:38:59.268Z</time>
      </trkpt>
      <trkpt lat="52.30769" lon="6.09144">
        <ele>6.65054643332</ele>
        <time>2022-03-19T22:39:11.371Z</time>
      </trkpt>
      <trkpt lat="52.30724" lon="6.09143">
        <ele>6.56458814241</ele>
        <time>2022-03-19T22:39:23.482Z</time>
      </trkpt>
      <trkpt lat="52.30679" lon="6.09149">
        <ele>6.49857957757</ele>
        <time>2022-03-19T22:39:35.600Z</time>
      </trkpt>
      <trkpt lat="52.30655" lon="6.09149">
        <ele>6.46942952881</ele>
        <time>2022-03-19T22:39:47.722Z</time>
      </trkpt>
      <trkpt lat="52.30625" lon="6.09146">
        <ele>6.37071222845</ele>
        <time>2022-03-19T22:39:59.848Z</time>
      </trkpt>
      <trkpt lat="52.30579" lon="6.09138">
        <ele>6.32970565804</ele>
        <time>2022-03-19T22:40:11.982Z</time>
      </trkpt>
      <trkpt lat="52.30555" lon="6.09137">
        <ele>6.28942796753</ele>
        <time>2022-03-19T22:40:24.120Z</time>
      </trkpt>
      <trkpt lat="52.30515" lon="6.09145">
        <ele>6.2327687938</ele>
        <time>2022-03-19T22:40:36.264Z</time>
      </trkpt>
      <trkpt lat="52.30442" lon="6.09178">
        <ele>6.1416785841</ele>
        <time>2022-03-19T22:40:48.420Z</time>
      </trkpt>
      <trkpt lat="52.30392" lon="6.09212">
        <ele>6.07287629276</ele>
        <time>2022-03-19T22:41:00.585Z</time>
      </trkpt>
      <trkpt lat="52.30378" lon="6.09228">
        <ele>6.06913675803</ele>
        <time>2022-03-19T22:41:12.753Z</time>
      </trkpt>
      <trkpt lat="52.30367" lon="6.09245">
        <ele>6.07736607247</ele>
        <time>2022-03-19T22:41:24.923Z</time>
      </trkpt>
      <trkpt lat="52.30341" lon="6.09308">
        <ele>6.19830535527</ele>
        <time>2022-03-19T22:41:37.101Z</time>
      </trkpt>
      <trkpt lat="52.30326" lon="6.09328">
        <ele>6.18766618162</ele>
        <time>2022-03-19T22:41:49.282Z</time>
      </trkpt>
      <trkpt lat="52.30308" lon="6.0934">
        <ele>6.1571529776</ele>
        <time>2022-03-19T22:42:01.466Z</time>
      </trkpt>
      <trkpt lat="52.30287" lon="6.09345">
        <ele>6.06027842989</ele>
        <time>2022-03-19T22:42:13.653Z</time>
      </trkpt>
      <trkpt lat="52.30215" lon="6.09347">
        <ele>6.10706758183</ele>
        <time>2022-03-19T22:42:25.852Z</time>
      </trkpt>
      <trkpt lat="52.30151" lon="6.09365">
        <ele>6.16420275874</ele>
        <time>2022-03-19T22:42:38.061Z</time>
      </trkpt>
      <trkpt lat="52.30123" lon="6.09369">
        <ele>6.14290595319</ele>
        <time>2022-03-19T22:42:50.275Z</time>
      </trkpt>
      <trkpt lat="52.30077999984" lon="6.09371500026">
        <ele>5.96980256892</ele>
        <time>2022-03-19T22:43:02.496Z</time>
      </trkpt>
      <trkpt lat="52.30033" lon="6.09374">
        <ele>5.93572736218</ele>
        <time>2022-03-19T22:43:14.724Z</time>
      </trkpt>
      <trkpt lat="52.29988" lon="6.09357">
        <ele>6.04297004372</ele>
        <time>2022-03-19T22:43:26.960Z</time>
      </trkpt>
      <trkpt lat="52.29978" lon="6.09356">
        <ele>6.11442557036</ele>
        <time>2022-03-19T22:43:39.197Z</time>
      </trkpt>
      <trkpt lat="52.29969" lon="6.09359">
        <ele>6.15361172512</ele>
        <time>2022-03-19T22:43:51.436Z</time>
      </trkpt>
      <trkpt lat="52.29961" lon="6.09364">
        <ele>6.16666188996</ele>
        <time>2022-03-19T22:44:03.676Z</time>
      </trkpt>
      <trkpt lat="52.29924" lon="6.09415">
        <ele>6.10893477974</ele>
        <time>2022-03-19T22:44:15.924Z</time>
      </trkpt>
      <trkpt lat="52.29916" lon="6.09423">
        <ele>6.03500288004</ele>
        <time>2022-03-19T22:44:28.173Z</time>
      </trkpt>
      <trkpt lat="52.29868" lon="6.09439">
        <ele>6.01781963082</ele>
        <time>2022-03-19T22:44:40.430Z</time>
      </trkpt>
      <trkpt lat="52.2985" lon="6.09443">
        <ele>5.9424408966</ele>
        <time>2022-03-19T22:44:52.690Z</time>
      </trkpt>
      <trkpt lat="52.298" lon="6.09448">
        <ele>5.71566130082</ele>
        <time>2022-03-19T22:45:04.958Z</time>
      </trkpt>
      <trkpt lat="52.29783" lon="6.09459">
        <ele>5.62715004128</ele>
        <time>2022-03-19T22:45:17.229Z</time>
      </trkpt>
      <trkpt lat="52.29751" lon="6.09492">
        <ele>5.53306677094</ele>
        <time>2022-03-19T22:45:29.506Z</time>
      </trkpt>
      <trkpt lat="52.29741" lon="6.095">
        <ele>5.39267490893</ele>
        <time>2022-03-19T22:45:41.785Z</time>
      </trkpt>
      <trkpt lat="52.2967350007" lon="6.09542500652">
        <ele>5.24000854022</ele>
        <time>2022-03-19T22:45:54.075Z</time>
      </trkpt>
      <trkpt lat="52.29606" lon="6.09585">
        <ele>5.29616027078</ele>
        <time>2022-03-19T22:46:06.377Z</time>
      </trkpt>
      <trkpt lat="52.29571" lon="6.096">
        <ele>5.19279120508</ele>
        <time>2022-03-19T22:46:18.685Z</time>
      </trkpt>
      <trkpt lat="52.29559" lon="6.09608">
        <ele>5.08517121023</ele>
        <time>2022-03-19T22:46:30.995Z</time>
      </trkpt>
      <trkpt lat="52.29531" lon="6.09636">
        <ele>4.9962066488</ele>
        <time>2022-03-19T22:46:43.310Z</time>
      </trkpt>
      <trkpt lat="52.29524" lon="6.09647">
        <ele>4.90949638163</ele>
        <time>2022-03-19T22:46:55.627Z</time>
      </trkpt>
      <trkpt lat="52.29502500377" lon="6.09551999522">
        <ele>4.64307494498</ele>
        <time>2022-03-19T22:47:07.954Z</time>
      </trkpt>
      <trkpt lat="52.29481" lon="6.09457">
        <ele>4.45394049972</ele>
        <time>2022-03-19T22:47:20.291Z</time>
      </trkpt>
      <trkpt lat="52.29477" lon="6.09428">
        <ele>4.3582989334</ele>
        <time>2022-03-19T22:47:32.631Z</time>
      </trkpt>
      <trkpt lat="52.29476" lon="6.09426">
        <ele>4.27382255381</ele>
        <time>2022-03-19T22:47:44.971Z</time>
      </trkpt>
      <trkpt lat="52.29466000256" lon="6.09348499842">
        <ele>4.26614110845</ele>
        <time>2022-03-19T22:47:57.319Z</time>
      </trkpt>
      <trkpt lat="52.29456" lon="6.09271">
        <ele>4.20453530993</ele>
        <time>2022-03-19T22:48:09.674Z</time>
      </trkpt>
      <trkpt lat="52.29449" lon="6.09242">
        <ele>4.13742149345</ele>
        <time>2022-03-19T22:48:22.032Z</time>
      </trkpt>
      <trkpt lat="52.29454" lon="6.09219">
        <ele>4.07766067339</ele>
        <time>2022-03-19T22:48:34.393Z</time>
      </trkpt>
      <trkpt lat="52.29455500539" lon="6.09106000032">
        <ele>4.08305117735</ele>
        <time>2022-03-19T22:48:46.765Z</time>
      </trkpt>
      <trkpt lat="52.29457" lon="6.08993">
        <ele>4.11567908915</ele>
        <time>2022-03-19T22:48:59.148Z</time>
      </trkpt>
      <trkpt lat="52.2946" lon="6.08984">
        <ele>4.12060600417</ele>
        <time>2022-03-19T22:49:11.532Z</time>
      </trkpt>
      <trkpt lat="52.29466" lon="6.08975">
        <ele>4.12985008188</ele>
        <time>2022-03-19T22:49:23.917Z</time>
      </trkpt>
      <trkpt lat="52.29471" lon="6.08972">
        <ele>4.12823209478</ele>
        <time>2022-03-19T22:49:36.303Z</time>
      </trkpt>
      <trkpt lat="52.295285" lon="6.08962000131">
        <ele>4.0686619161</ele>
        <time>2022-03-19T22:49:48.698Z</time>
      </trkpt>
      <trkpt lat="52.29586" lon="6.08952">
        <ele>3.97162004699</ele>
        <time>2022-03-19T22:50:01.103Z</time>
      </trkpt>
      <trkpt lat="52.29592" lon="6.08948">
        <ele>3.99015951274</ele>
        <time>2022-03-19T22:50:13.509Z</time>
      </trkpt>
      <trkpt lat="52.29596" lon="6.08942">
        <ele>4.01030128658</ele>
        <time>2022-03-19T22:50:25.916Z</time>
      </trkpt>
      <trkpt lat="52.29601" lon="6.08923">
        <ele>4.04908491255</ele>
        <time>2022-03-19T22:50:38.325Z</time>
      </trkpt>
      <trkpt lat="52.29603001202" lon="6.08803666784">
        <ele>4.14146511426</ele>
        <time>2022-03-19T22:50:50.745Z</time>
      </trkpt>
      <trkpt lat="52.29605001202" lon="6.0868433346">
        <ele>4.09613205241</ele>
        <time>2022-03-19T22:51:03.177Z</time>
      </trkpt>
      <trkpt lat="52.29607" lon="6.08565">
        <ele>4.12577617351</ele>
        <time>2022-03-19T22:51:15.621Z</time>
      </trkpt>
      <trkpt lat="52.29613" lon="6.08534">
        <ele>4.15962802137</ele>
        <time>2022-03-19T22:51:28.068Z</time>
      </trkpt>
      <trkpt lat="52.29623" lon="6.08511">
        <ele>4.19730076199</ele>
        <time>2022-03-19T22:51:40.518Z</time>
      </trkpt>
      <trkpt lat="52.29632" lon="6.08496">
        <ele>4.23827900808</ele>
        <time>2022-03-19T22:51:52.970Z</time>
      </trkpt>
      <trkpt lat="52.2964" lon="6.08487">
        <ele>4.29769249233</ele>
        <time>2022-03-19T22:52:05.423Z</time>
      </trkpt>
      <trkpt lat="52.29703333607" lon="6.0842966831">
        <ele>4.26230655822</ele>
        <time>2022-03-19T22:52:17.888Z</time>
      </trkpt>
      <trkpt lat="52.29766666937" lon="6.0837233498">
        <ele>4.41487988051</ele>
        <time>2022-03-19T22:52:30.365Z</time>
      </trkpt>
      <trkpt lat="52.2983" lon="6.08315">
        <ele>4.59416750235</ele>
        <time>2022-03-19T22:52:42.853Z</time>
      </trkpt>
      <trkpt lat="52.29834" lon="6.08302">
        <ele>4.59583207104</ele>
        <time>2022-03-19T22:52:55.343Z</time>
      </trkpt>
      <trkpt lat="52.29835" lon="6.08281">
        <ele>4.61151990413</ele>
        <time>2022-03-19T22:53:07.835Z</time>
      </trkpt>
      <trkpt lat="52.29833" lon="6.08245">
        <ele>4.5996758482</ele>
        <time>2022-03-19T22:53:20.330Z</time>
      </trkpt>
      <trkpt lat="52.29833" lon="6.08208">
        <ele>4.61508457871</ele>
        <time>2022-03-19T22:53:32.829Z</time>
      </trkpt>
      <trkpt lat="52.29846500265" lon="6.08129000231">
        <ele>4.61772934491</ele>
        <time>2022-03-19T22:53:45.336Z</time>
      </trkpt>
      <trkpt lat="52.2986" lon="6.0805">
        <ele>4.6237054338</ele>
        <time>2022-03-19T22:53:57.851Z</time>
      </trkpt>
      <trkpt lat="52.29861" lon="6.07984">
        <ele>4.64720152422</ele>
        <time>2022-03-19T22:54:10.372Z</time>
      </trkpt>
      <trkpt lat="52.29847" lon="6.07839">
        <ele>4.56922614665</ele>
        <time>2022-03-19T22:54:22.908Z</time>
      </trkpt>
      <trkpt lat="52.29826001092" lon="6.07725332261">
        <ele>4.73759668705</ele>
        <time>2022-03-19T22:54:35.456Z</time>
      </trkpt>
      <trkpt lat="52.29805001093" lon="6.076116656">
        <ele>4.76674583741</ele>
        <time>2022-03-19T22:54:48.015Z</time>
      </trkpt>
      <trkpt lat="52.29784" lon="6.07498">
        <ele>4.89200990784</ele>
        <time>2022-03-19T22:55:00.586Z</time>
      </trkpt>
      <trkpt lat="52.29784" lon="6.07497">
        <ele>4.93700952733</ele>
        <time>2022-03-19T22:55:13.157Z</time>
      </trkpt>
      <trkpt lat="52.2977" lon="6.07427">
        <ele>4.92418997374</ele>
        <time>2022-03-19T22:55:25.735Z</time>
      </trkpt>
      <trkpt lat="52.29703500047" lon="6.07462000528">
        <ele>4.93569237764</ele>
        <time>2022-03-19T22:55:38.324Z</time>
      </trkpt>
      <trkpt lat="52.29637" lon="6.07497">
        <ele>5.2606338021</ele>
        <time>2022-03-19T22:55:50.925Z</time>
      </trkpt>
      <trkpt lat="52.29566000085" lon="6.07541500712">
        <ele>5.21389175826</ele>
        <time>2022-03-19T22:56:03.538Z</time>
      </trkpt>
      <trkpt lat="52.29495" lon="6.07586">
        <ele>5.20309407258</ele>
        <time>2022-03-19T22:56:16.163Z</time>
      </trkpt>
      <trkpt lat="52.29442000047" lon="6.07615500347">
        <ele>5.1461899145</ele>
        <time>2022-03-19T22:56:28.797Z</time>
      </trkpt>
      <trkpt lat="52.29389" lon="6.07645">
        <ele>5.0395079403</ele>
        <time>2022-03-19T22:56:41.440Z</time>
      </trkpt>
      <trkpt lat="52.29324000155" lon="6.07687001229">
        <ele>5.02522681145</ele>
        <time>2022-03-19T22:56:54.094Z</time>
      </trkpt>
      <trkpt lat="52.29259000161" lon="6.07729001225">
        <ele>4.84437061021</ele>
        <time>2022-03-19T22:57:06.759Z</time>
      </trkpt>
      <trkpt lat="52.29194" lon="6.07771">
        <ele>4.85044139979</ele>
        <time>2022-03-19T22:57:19.436Z</time>
      </trkpt>
      <trkpt lat="52.29128666901" lon="6.07824001565">
        <ele>4.90645845792</ele>
        <time>2022-03-19T22:57:32.124Z</time>
      </trkpt>
      <trkpt lat="52.29063333566" lon="6.07877001567">
        <ele>5.0744008173</ele>
        <time>2022-03-19T22:57:44.824Z</time>
      </trkpt>
      <trkpt lat="52.28998" lon="6.0793">
        <ele>5.18447442505</ele>
        <time>2022-03-19T22:57:57.536Z</time>
      </trkpt>
      <trkpt lat="52.28955000006" lon="6.07957500283">
        <ele>5.04685148155</ele>
        <time>2022-03-19T22:58:10.255Z</time>
      </trkpt>
      <trkpt lat="52.28912" lon="6.07985">
        <ele>4.81592631272</ele>
        <time>2022-03-19T22:58:22.981Z</time>
      </trkpt>
      <trkpt lat="52.28832400377" lon="6.08032203392">
        <ele>5.05533492912</ele>
        <time>2022-03-19T22:58:35.721Z</time>
      </trkpt>
      <trkpt lat="52.28752800565" lon="6.08079405088">
        <ele>4.49824329835</ele>
        <time>2022-03-19T22:58:48.475Z</time>
      </trkpt>
      <trkpt lat="52.28673200566" lon="6.08126605087">
        <ele>4.34236973469</ele>
        <time>2022-03-19T22:59:01.242Z</time>
      </trkpt>
      <trkpt lat="52.28593600378" lon="6.08173803391">
        <ele>4.11229427606</ele>
        <time>2022-03-19T22:59:14.023Z</time>
      </trkpt>
      <trkpt lat="52.28514" lon="6.08221">
        <ele>4.00122538224</ele>
        <time>2022-03-19T22:59:26.817Z</time>
      </trkpt>
      <trkpt lat="52.2852" lon="6.08258">
        <ele>3.86950091733</ele>
        <time>2022-03-19T22:59:39.615Z</time>
      </trkpt>
      <trkpt lat="52.28519" lon="6.08287">
        <ele>3.71531348587</ele>
        <time>2022-03-19T22:59:52.416Z</time>
      </trkpt>
      <trkpt lat="52.28532500515" lon="6.083969997">
        <ele>3.59989023265</ele>
        <time>2022-03-19T23:00:05.228Z</time>
      </trkpt>
      <trkpt lat="52.28546" lon="6.08507">
        <ele>3.57176393324</ele>
        <time>2022-03-19T23:00:18.051Z</time>
      </trkpt>
      <trkpt lat="52.28546" lon="6.08539">
        <ele>3.59535911179</ele>
        <time>2022-03-19T23:00:30.877Z</time>
      </trkpt>
      <trkpt lat="52.28539" lon="6.08562">
        <ele>3.63687412678</ele>
        <time>2022-03-19T23:00:43.706Z</time>
      </trkpt>
      <trkpt lat="52.28527" lon="6.08582">
        <ele>3.69304111649</ele>
        <time>2022-03-19T23:00:56.537Z</time>
      </trkpt>
      <trkpt lat="52.28503" lon="6.0861">
        <ele>3.70171971528</ele>
        <time>2022-03-19T23:01:09.373Z</time>
      </trkpt>
      <trkpt lat="52.28491" lon="6.08628">
        <ele>3.74284332075</ele>
        <time>2022-03-19T23:01:22.212Z</time>
      </trkpt>
      <trkpt lat="52.28482" lon="6.08645">
        <ele>3.83769885582</ele>
        <time>2022-03-19T23:01:35.053Z</time>
      </trkpt>
      <trkpt lat="52.28462" lon="6.08703">
        <ele>4.02167759694</ele>
        <time>2022-03-19T23:01:47.900Z</time>
      </trkpt>
      <trkpt lat="52.28436500152" lon="6.08765500392">
        <ele>4.19956235859</ele>
        <time>2022-03-19T23:02:00.755Z</time>
      </trkpt>
      <trkpt lat="52.28411" lon="6.08828">
        <ele>4.34764818389</ele>
        <time>2022-03-19T23:02:13.617Z</time>
      </trkpt>
      <trkpt lat="52.28405" lon="6.08847">
        <ele>4.50241803048</ele>
        <time>2022-03-19T23:02:26.481Z</time>
      </trkpt>
      <trkpt lat="52.28399" lon="6.08893">
        <ele>4.7167804166</ele>
        <time>2022-03-19T23:02:39.350Z</time>
      </trkpt>
      <trkpt lat="52.28398" lon="6.08913">
        <ele>4.87747123172</ele>
        <time>2022-03-19T23:02:52.221Z</time>
      </trkpt>
      <trkpt lat="52.28399000235" lon="6.08987500004">
        <ele>4.98402178997</ele>
        <time>2022-03-19T23:03:05.099Z</time>
      </trkpt>
      <trkpt lat="52.284" lon="6.09062">
        <ele>5.11001393173</ele>
        <time>2022-03-19T23:03:17.985Z</time>
      </trkpt>
      <trkpt lat="52.28396" lon="6.09114">
        <ele>5.37218445815</ele>
        <time>2022-03-19T23:03:30.876Z</time>
      </trkpt>
      <trkpt lat="52.28381" lon="6.09206">
        <ele>5.5055395432</ele>
        <time>2022-03-19T23:03:43.776Z</time>
      </trkpt>
      <trkpt lat="52.28373" lon="6.09308">
        <ele>5.85649609284</ele>
        <time>2022-03-19T23:03:56.686Z</time>
      </trkpt>
      <trkpt lat="52.28346" lon="6.09414">
        <ele>6.00870272929</ele>
        <time>2022-03-19T23:04:09.607Z</time>
      </trkpt>
      <trkpt lat="52.28324" lon="6.09488">
        <ele>6.32858270167</ele>
        <time>2022-03-19T23:04:22.537Z</time>
      </trkpt>
      <trkpt lat="52.2828" lon="6.09596">
        <ele>6.52470876448</ele>
        <time>2022-03-19T23:04:35.479Z</time>
      </trkpt>
      <trkpt lat="52.28276" lon="6.09612">
        <ele>6.62313108416</ele>
        <time>2022-03-19T23:04:48.423Z</time>
      </trkpt>
      <trkpt lat="52.28269" lon="6.09624">
        <ele>6.71969439115</ele>
        <time>2022-03-19T23:05:01.369Z</time>
      </trkpt>
      <trkpt lat="52.28254" lon="6.09578">
        <ele>6.78291220698</ele>
        <time>2022-03-19T23:05:14.320Z</time>
      </trkpt>
      <trkpt lat="52.28245" lon="6.09529">
        <ele>6.85968482172</ele>
        <time>2022-03-19T23:05:27.276Z</time>
      </trkpt>
      <trkpt lat="52.2824" lon="6.09505">
        <ele>6.8050053928</ele>
        <time>2022-03-19T23:05:40.234Z</time>
      </trkpt>
      <trkpt lat="52.28237" lon="6.09501">
        <ele>6.73951886726</ele>
        <time>2022-03-19T23:05:53.193Z</time>
      </trkpt>
      <trkpt lat="52.28236" lon="6.095">
        <ele>6.65573826057</ele>
        <time>2022-03-19T23:06:06.152Z</time>
      </trkpt>
      <trkpt lat="52.28209" lon="6.09491">
        <ele>6.46142586462</ele>
        <time>2022-03-19T23:06:19.115Z</time>
      </trkpt>
      <trkpt lat="52.28164" lon="6.09486">
        <ele>6.23197225192</ele>
        <time>2022-03-19T23:06:32.086Z</time>
      </trkpt>
      <trkpt lat="52.28144" lon="6.09488">
        <ele>6.04874337214</ele>
        <time>2022-03-19T23:06:45.060Z</time>
      </trkpt>
      <trkpt lat="52.28126" lon="6.09497">
        <ele>5.86404865339</ele>
        <time>2022-03-19T23:06:58.037Z</time>
      </trkpt>
      <trkpt lat="52.2811" lon="6.095">
        <ele>5.6978026156</ele>
        <time>2022-03-19T23:07:11.016Z</time>
      </trkpt>
      <trkpt lat="52.28102" lon="6.09498">
        <ele>5.55272536173</ele>
        <time>2022-03-19T23:07:23.997Z</time>
      </trkpt>
      <trkpt lat="52.28094" lon="6.09493">
        <ele>5.4064949552</ele>
        <time>2022-03-19T23:07:36.979Z</time>
      </trkpt>
      <trkpt lat="52.28089" lon="6.09487">
        <ele>5.26963944252</ele>
        <time>2022-03-19T23:07:49.962Z</time>
      </trkpt>
      <trkpt lat="52.28053" lon="6.09424">
        <ele>5.20754441123</ele>
        <time>2022-03-19T23:08:02.954Z</time>
      </trkpt>
      <trkpt lat="52.28033" lon="6.09403">
        <ele>5.14219227939</ele>
        <time>2022-03-19T23:08:15.949Z</time>
      </trkpt>
      <trkpt lat="52.27971000095" lon="6.09356499352">
        <ele>5.12590917966</ele>
        <time>2022-03-19T23:08:28.955Z</time>
      </trkpt>
      <trkpt lat="52.27909" lon="6.0931">
        <ele>5.11249529997</ele>
        <time>2022-03-19T23:08:41.972Z</time>
      </trkpt>
      <trkpt lat="52.27895" lon="6.09294">
        <ele>5.04058781947</ele>
        <time>2022-03-19T23:08:54.992Z</time>
      </trkpt>
      <trkpt lat="52.27891" lon="6.0928">
        <ele>4.89722895047</ele>
        <time>2022-03-19T23:09:08.014Z</time>
      </trkpt>
      <trkpt lat="52.27879" lon="6.09213">
        <ele>4.62055464998</ele>
        <time>2022-03-19T23:09:21.042Z</time>
      </trkpt>
      <trkpt lat="52.27852" lon="6.09125">
        <ele>4.45122970011</ele>
        <time>2022-03-19T23:09:34.080Z</time>
      </trkpt>
      <trkpt lat="52.27826000238" lon="6.09049499548">
        <ele>4.30017256907</ele>
        <time>2022-03-19T23:09:47.127Z</time>
      </trkpt>
      <trkpt lat="52.278" lon="6.08974">
        <ele>4.19873794452</ele>
        <time>2022-03-19T23:10:00.182Z</time>
      </trkpt>
      <trkpt lat="52.27791" lon="6.08959">
        <ele>4.14139625026</ele>
        <time>2022-03-19T23:10:13.239Z</time>
      </trkpt>
      <trkpt lat="52.27785" lon="6.08954">
        <ele>4.0908142563</ele>
        <time>2022-03-19T23:10:26.297Z</time>
      </trkpt>
      <trkpt lat="52.27776" lon="6.08953">
        <ele>4.05932685777</ele>
        <time>2022-03-19T23:10:39.357Z</time>
      </trkpt>
      <trkpt lat="52.27768" lon="6.08956">
        <ele>4.02839483056</ele>
        <time>2022-03-19T23:10:52.418Z</time>
      </trkpt>
      <trkpt lat="52.27710000101" lon="6.08990667575">
        <ele>4.06243196226</ele>
        <time>2022-03-19T23:11:05.489Z</time>
      </trkpt>
      <trkpt lat="52.276520001" lon="6.09025334242">
        <ele>3.97520716097</ele>
        <time>2022-03-19T23:11:18.570Z</time>
      </trkpt>
      <trkpt lat="52.27594" lon="6.0906">
        <ele>3.92234402377</ele>
        <time>2022-03-19T23:11:31.661Z</time>
      </trkpt>
      <trkpt lat="52.27589" lon="6.09059">
        <ele>3.92951055483</ele>
        <time>2022-03-19T23:11:44.753Z</time>
      </trkpt>
      <trkpt lat="52.27578" lon="6.09043">
        <ele>3.96107616413</ele>
        <time>2022-03-19T23:11:57.847Z</time>
      </trkpt>
      <trkpt lat="52.27499500095" lon="6.09089000811">
        <ele>4.04750415804</ele>
        <time>2022-03-19T23:12:10.954Z</time>
      </trkpt>
      <trkpt lat="52.27421" lon="6.09135">
        <ele>4.01374063532</ele>
        <time>2022-03-19T23:12:24.075Z</time>
      </trkpt>
      <trkpt lat="52.2736" lon="6.09161">
        <ele>4.04696796035</ele>
        <time>2022-03-19T23:12:37.206Z</time>
      </trkpt>
      <trkpt lat="52.27283" lon="6.09215">
        <ele>4.07607841633</ele>
        <time>2022-03-19T23:12:50.350Z</time>
      </trkpt>
      <trkpt lat="52.272096003" lon="6.09257202796">
        <ele>4.02783077201</ele>
        <time>2022-03-19T23:13:03.507Z</time>
      </trkpt>
      <trkpt lat="52.27136200449" lon="6.09299404194">
        <ele>4.11090774916</ele>
        <time>2022-03-19T23:13:16.676Z</time>
      </trkpt>
      <trkpt lat="52.27062800448" lon="6.09341604194">
        <ele>4.06467531947</ele>
        <time>2022-03-19T23:13:29.858Z</time>
      </trkpt>
      <trkpt lat="52.26989400296" lon="6.09383802798">
        <ele>4.26485617561</ele>
        <time>2022-03-19T23:13:43.052Z</time>
      </trkpt>
      <trkpt lat="52.26916" lon="6.09426">
        <ele>4.28449800957</ele>
        <time>2022-03-19T23:13:56.258Z</time>
      </trkpt>
      <trkpt lat="52.2687" lon="6.09444">
        <ele>4.10302176881</ele>
        <time>2022-03-19T23:14:09.472Z</time>
      </trkpt>
      <trkpt lat="52.26865" lon="6.09445">
        <ele>4.10102463297</ele>
        <time>2022-03-19T23:14:22.687Z</time>
      </trkpt>
      <trkpt lat="52.26857" lon="6.09443">
        <ele>4.10004570281</ele>
        <time>2022-03-19T23:14:35.903Z</time>
      </trkpt>
      <trkpt lat="52.26847" lon="6.09428">
        <ele>4.13605908197</ele>
        <time>2022-03-19T23:14:49.121Z</time>
      </trkpt>
      <trkpt lat="52.26839" lon="6.09409">
        <ele>4.19014607194</ele>
        <time>2022-03-19T23:15:02.342Z</time>
      </trkpt>
      <trkpt lat="52.26818" lon="6.09272">
        <ele>4.33577129367</ele>
        <time>2022-03-19T23:15:15.577Z</time>
      </trkpt>
      <trkpt lat="52.26801" lon="6.09176">
        <ele>4.408689527</ele>
        <time>2022-03-19T23:15:28.821Z</time>
      </trkpt>
      <trkpt lat="52.26792" lon="6.09141">
        <ele>4.48944621391</ele>
        <time>2022-03-19T23:15:42.069Z</time>
      </trkpt>
      <trkpt lat="52.2677" lon="6.09075">
        <ele>4.5767271612</ele>
        <time>2022-03-19T23:15:55.324Z</time>
      </trkpt>
      <trkpt lat="52.26750002092" lon="6.08946498261">
        <ele>4.65384137774</ele>
        <time>2022-03-19T23:16:08.592Z</time>
      </trkpt>
      <trkpt lat="52.2673000279" lon="6.0881799768">
        <ele>4.8848272914</ele>
        <time>2022-03-19T23:16:21.874Z</time>
      </trkpt>
      <trkpt lat="52.26710002092" lon="6.0868949826">
        <ele>4.85804960274</ele>
        <time>2022-03-19T23:16:35.169Z</time>
      </trkpt>
      <trkpt lat="52.2669" lon="6.08561">
        <ele>5.05476542063</ele>
        <time>2022-03-19T23:16:48.477Z</time>
      </trkpt>
      <trkpt lat="52.26607500087" lon="6.08605000816">
        <ele>5.15423333211</ele>
        <time>2022-03-19T23:17:01.798Z</time>
      </trkpt>
      <trkpt lat="52.26525" lon="6.08649">
        <ele>5.23705931559</ele>
        <time>2022-03-19T23:17:15.133Z</time>
      </trkpt>
      <trkpt lat="52.26504" lon="6.0867">
        <ele>5.35561714335</ele>
        <time>2022-03-19T23:17:28.472Z</time>
      </trkpt>
      <trkpt lat="52.26488" lon="6.08689">
        <ele>5.45104593154</ele>
        <time>2022-03-19T23:17:41.815Z</time>
      </trkpt>
      <trkpt lat="52.26486" lon="6.08694">
        <ele>5.50123220113</ele>
        <time>2022-03-19T23:17:55.158Z</time>
      </trkpt>
      <trkpt lat="52.26425" lon="6.08616">
        <ele>5.52529038919</ele>
        <time>2022-03-19T23:18:08.514Z</time>
      </trkpt>
      <trkpt lat="52.26408" lon="6.08598">
        <ele>5.46908670261</ele>
        <time>2022-03-19T23:18:21.873Z</time>
      </trkpt>
      <trkpt lat="52.26371" lon="6.08572">
        <ele>5.39965332922</ele>
        <time>2022-03-19T23:18:35.238Z</time>
      </trkpt>
      <trkpt lat="52.26295" lon="6.08544">
        <ele>5.30126308632</ele>
        <time>2022-03-19T23:18:48.616Z</time>
      </trkpt>
      <trkpt lat="52.26210999995" lon="6.08528499704">
        <ele>5.40141838334</ele>
        <time>2022-03-19T23:19:02.007Z</time>
      </trkpt>
      <trkpt lat="52.26127" lon="6.08513">
        <ele>5.54476805324</ele>
        <time>2022-03-19T23:19:15.412Z</time>
      </trkpt>
      <trkpt lat="52.26046000002" lon="6.08510999927">
        <ele>5.48103640643</ele>
        <time>2022-03-19T23:19:28.830Z</time>
      </trkpt>
      <trkpt lat="52.25965000004" lon="6.08508999927">
        <ele>5.37847315115</ele>
        <time>2022-03-19T23:19:42.261Z</time>
      </trkpt>
      <trkpt lat="52.25884" lon="6.08507">
        <ele>5.57123267808</ele>
        <time>2022-03-19T23:19:55.705Z</time>
      </trkpt>
      <trkpt lat="52.2585" lon="6.08503">
        <ele>5.55798182959</ele>
        <time>2022-03-19T23:20:09.154Z</time>
      </trkpt>
      <trkpt lat="52.25787" lon="6.08491">
        <ele>5.51858501212</ele>
        <time>2022-03-19T23:20:22.613Z</time>
      </trkpt>
      <trkpt lat="52.25711000019" lon="6.08470999658">
        <ele>5.61241129974</ele>
        <time>2022-03-19T23:20:36.085Z</time>
      </trkpt>
      <trkpt lat="52.25635" lon="6.08451">
        <ele>5.69428491183</ele>
        <time>2022-03-19T23:20:49.569Z</time>
      </trkpt>
      <trkpt lat="52.25582" lon="6.08432">
        <ele>5.67228217762</ele>
        <time>2022-03-19T23:21:03.062Z</time>
      </trkpt>
      <trkpt lat="52.25553" lon="6.08424">
        <ele>5.69564313599</ele>
        <time>2022-03-19T23:21:16.559Z</time>
      </trkpt>
      <trkpt lat="52.25545" lon="6.08424">
        <ele>5.71361493127</ele>
        <time>2022-03-19T23:21:30.058Z</time>
      </trkpt>
      <trkpt lat="52.25483500015" lon="6.08436500172">
        <ele>5.75516068511</ele>
        <time>2022-03-19T23:21:43.567Z</time>
      </trkpt>
      <trkpt lat="52.25422" lon="6.08449">
        <ele>5.94722911991</ele>
        <time>2022-03-19T23:21:57.086Z</time>
      </trkpt>
      <trkpt lat="52.25415500329" lon="6.08360999893">
        <ele>5.67066876433</ele>
        <time>2022-03-19T23:22:10.613Z</time>
      </trkpt>
      <trkpt lat="52.25409" lon="6.08273">
        <ele>5.67911981675</ele>
        <time>2022-03-19T23:22:24.149Z</time>
      </trkpt>
      <trkpt lat="52.25409" lon="6.08271">
        <ele>5.63759679372</ele>
        <time>2022-03-19T23:22:37.685Z</time>
      </trkpt>
      <trkpt lat="52.25406" lon="6.08226">
        <ele>5.59393111021</ele>
        <time>2022-03-19T23:22:51.226Z</time>
      </trkpt>
      <trkpt lat="52.25411" lon="6.08203">
        <ele>5.57980410037</ele>
        <time>2022-03-19T23:23:04.769Z</time>
      </trkpt>
      <trkpt lat="52.25416" lon="6.08196">
        <ele>5.5107827419</ele>
        <time>2022-03-19T23:23:18.313Z</time>
      </trkpt>
      <trkpt lat="52.25433" lon="6.08181">
        <ele>5.4775658008</ele>
        <time>2022-03-19T23:23:31.860Z</time>
      </trkpt>
      <trkpt lat="52.25439" lon="6.08172">
        <ele>5.33649771999</ele>
        <time>2022-03-19T23:23:45.409Z</time>
      </trkpt>
      <trkpt lat="52.25442" lon="6.08139">
        <ele>5.14576593216</ele>
        <time>2022-03-19T23:23:58.961Z</time>
      </trkpt>
      <trkpt lat="52.25442" lon="6.08138">
        <ele>4.97434652593</ele>
        <time>2022-03-19T23:24:12.513Z</time>
      </trkpt>
      <trkpt lat="52.25431752233" lon="6.08005249081">
        <ele>4.60880229669</ele>
        <time>2022-03-19T23:24:26.078Z</time>
      </trkpt>
      <trkpt lat="52.25421502978" lon="6.07872498776">
        <ele>4.37772141443</ele>
        <time>2022-03-19T23:24:39.656Z</time>
      </trkpt>
      <trkpt lat="52.25411252234" lon="6.07739749084">
        <ele>4.22134599675</ele>
        <time>2022-03-19T23:24:53.247Z</time>
      </trkpt>
      <trkpt lat="52.25401" lon="6.07607">
        <ele>4.0103144199</ele>
        <time>2022-03-19T23:25:06.852Z</time>
      </trkpt>
      <trkpt lat="52.2539850027" lon="6.0752699995">
        <ele>3.87627453732</ele>
        <time>2022-03-19T23:25:20.464Z</time>
      </trkpt>
      <trkpt lat="52.25396" lon="6.07447">
        <ele>3.65020888543</ele>
        <time>2022-03-19T23:25:34.084Z</time>
      </trkpt>
      <trkpt lat="52.25397" lon="6.07422">
        <ele>3.47229832869</ele>
        <time>2022-03-19T23:25:47.707Z</time>
      </trkpt>
      <trkpt lat="52.25409" lon="6.07367">
        <ele>3.27389200798</ele>
        <time>2022-03-19T23:26:01.335Z</time>
      </trkpt>
      <trkpt lat="52.25411" lon="6.07344">
        <ele>3.16633733318</ele>
        <time>2022-03-19T23:26:14.966Z</time>
      </trkpt>
      <trkpt lat="52.25411" lon="6.0731">
        <ele>3.08775415725</ele>
        <time>2022-03-19T23:26:28.600Z</time>
      </trkpt>
      <trkpt lat="52.25406" lon="6.07266">
        <ele>3.11098622024</ele>
        <time>2022-03-19T23:26:42.239Z</time>
      </trkpt>
      <trkpt lat="52.25387806405" lon="6.07136195207">
        <ele>3.01436768146</ele>
        <time>2022-03-19T23:26:55.891Z</time>
      </trkpt>
      <trkpt lat="52.25369611387" lon="6.07006391479">
        <ele>3.14942399435</ele>
        <time>2022-03-19T23:27:09.556Z</time>
      </trkpt>
      <trkpt lat="52.25351414946" lon="6.06876588816">
        <ele>3.23814806275</ele>
        <time>2022-03-19T23:27:23.234Z</time>
      </trkpt>
      <trkpt lat="52.25333217081" lon="6.06746787217">
        <ele>3.14825543833</ele>
        <time>2022-03-19T23:27:36.925Z</time>
      </trkpt>
      <trkpt lat="52.25315017792" lon="6.06616986684">
        <ele>3.36190492901</ele>
        <time>2022-03-19T23:27:50.629Z</time>
      </trkpt>
      <trkpt lat="52.2529681708" lon="6.06487187216">
        <ele>3.34716880341</ele>
        <time>2022-03-19T23:28:04.346Z</time>
      </trkpt>
      <trkpt lat="52.25278614945" lon="6.06357388814">
        <ele>3.51447215885</ele>
        <time>2022-03-19T23:28:18.076Z</time>
      </trkpt>
      <trkpt lat="52.25260411387" lon="6.06227591476">
        <ele>3.65214536049</ele>
        <time>2022-03-19T23:28:31.819Z</time>
      </trkpt>
      <trkpt lat="52.25242206405" lon="6.06097795204">
        <ele>3.90320588577</ele>
        <time>2022-03-19T23:28:45.575Z</time>
      </trkpt>
      <trkpt lat="52.25224" lon="6.05968">
        <ele>3.99218344838</ele>
        <time>2022-03-19T23:28:59.344Z</time>
      </trkpt>
      <trkpt lat="52.25221" lon="6.05961">
        <ele>4.19726236625</ele>
        <time>2022-03-19T23:29:13.114Z</time>
      </trkpt>
      <trkpt lat="52.25217" lon="6.05957">
        <ele>4.40700295473</ele>
        <time>2022-03-19T23:29:26.885Z</time>
      </trkpt>
      <trkpt lat="52.25212" lon="6.05954">
        <ele>4.62341226105</ele>
        <time>2022-03-19T23:29:40.657Z</time>
      </trkpt>
      <trkpt lat="52.25207" lon="6.05955">
        <ele>4.83661035637</ele>
        <time>2022-03-19T23:29:54.430Z</time>
      </trkpt>
      <trkpt lat="52.25142250137" lon="6.05987501422">
        <ele>5.1247028305</ele>
        <time>2022-03-19T23:30:08.214Z</time>
      </trkpt>
      <trkpt lat="52.25077500184" lon="6.06020001895">
        <ele>5.33066177997</ele>
        <time>2022-03-19T23:30:22.008Z</time>
      </trkpt>
      <trkpt lat="52.25012750142" lon="6.06052501419">
        <ele>5.51681275864</ele>
        <time>2022-03-19T23:30:35.813Z</time>
      </trkpt>
      <trkpt lat="52.24948" lon="6.06085">
        <ele>5.75141339449</ele>
        <time>2022-03-19T23:30:49.629Z</time>
      </trkpt>
      <trkpt lat="52.24919669468" lon="6.05969829656">
        <ele>6.10758617458</ele>
        <time>2022-03-19T23:31:03.457Z</time>
      </trkpt>
      <trkpt lat="52.24891337816" lon="6.05854660784">
        <ele>6.2118035876</ele>
        <time>2022-03-19T23:31:17.298Z</time>
      </trkpt>
      <trkpt lat="52.24863005043" lon="6.05739493382">
        <ele>6.50715257295</ele>
        <time>2022-03-19T23:31:31.151Z</time>
      </trkpt>
      <trkpt lat="52.2483467115" lon="6.05624327452">
        <ele>6.57530895713</ele>
        <time>2022-03-19T23:31:45.016Z</time>
      </trkpt>
      <trkpt lat="52.24806336135" lon="6.05509162992">
        <ele>6.65142079677</ele>
        <time>2022-03-19T23:31:58.893Z</time>
      </trkpt>
      <trkpt lat="52.24778" lon="6.05394">
        <ele>6.61588758255</ele>
        <time>2022-03-19T23:32:12.782Z</time>
      </trkpt>
      <trkpt lat="52.24799" lon="6.05344">
        <ele>6.73092222885</ele>
        <time>2022-03-19T23:32:26.677Z</time>
      </trkpt>
      <trkpt lat="52.24816" lon="6.05294">
        <ele>6.85068946069</ele>
        <time>2022-03-19T23:32:40.578Z</time>
      </trkpt>
      <trkpt lat="52.24833" lon="6.05222">
        <ele>6.97560207963</ele>
        <time>2022-03-19T23:32:54.487Z</time>
      </trkpt>
      <trkpt lat="52.24853334419" lon="6.05108667705">
        <ele>6.9950680483</ele>
        <time>2022-03-19T23:33:08.407Z</time>
      </trkpt>
      <trkpt lat="52.24873667752" lon="6.0499533437">
        <ele>6.79742435952</ele>
        <time>2022-03-19T23:33:22.339Z</time>
      </trkpt>
      <trkpt lat="52.24894" lon="6.04882">
        <ele>6.66200059512</ele>
        <time>2022-03-19T23:33:36.282Z</time>
      </trkpt>
      <trkpt lat="52.24894" lon="6.0488">
        <ele>6.61754143596</ele>
        <time>2022-03-19T23:33:50.226Z</time>
      </trkpt>
      <trkpt lat="52.2491250043" lon="6.04779000426">
        <ele>6.57560514822</ele>
        <time>2022-03-19T23:34:04.180Z</time>
      </trkpt>
      <trkpt lat="52.24931" lon="6.04678">
        <ele>6.61022530555</ele>
        <time>2022-03-19T23:34:18.144Z</time>
      </trkpt>
      <trkpt lat="52.24945" lon="6.04579">
        <ele>6.40880302721</ele>
        <time>2022-03-19T23:34:32.118Z</time>
      </trkpt>
      <trkpt lat="52.24951" lon="6.04509">
        <ele>6.33558622452</ele>
        <time>2022-03-19T23:34:46.099Z</time>
      </trkpt>
      <trkpt lat="52.24955" lon="6.04398">
        <ele>6.37965592871</ele>
        <time>2022-03-19T23:35:00.091Z</time>
      </trkpt>
      <trkpt lat="52.2496" lon="6.04351">
        <ele>6.37837669951</ele>
        <time>2022-03-19T23:35:14.088Z</time>
      </trkpt>
      <trkpt lat="52.24979" lon="6.04275">
        <ele>6.2795876622</ele>
        <time>2022-03-19T23:35:28.093Z</time>
      </trkpt>
      <trkpt lat="52.25008" lon="6.04177">
        <ele>6.22762045393</ele>
        <time>2022-03-19T23:35:42.109Z</time>
      </trkpt>
      <trkpt lat="52.25043252011" lon="6.04051003006">
        <ele>6.11724295688</ele>
        <time>2022-03-19T23:35:56.138Z</time>
      </trkpt>
      <trkpt lat="52.25078502681" lon="6.0392500401">
        <ele>6.32103971738</ele>
        <time>2022-03-19T23:36:10.181Z</time>
      </trkpt>
      <trkpt lat="52.2511375201" lon="6.03799003011">
        <ele>6.27755801314</ele>
        <time>2022-03-19T23:36:24.237Z</time>
      </trkpt>
      <trkpt lat="52.25149" lon="6.03673">
        <ele>6.24323749373</ele>
        <time>2022-03-19T23:36:38.307Z</time>
      </trkpt>
      <trkpt lat="52.25219000131" lon="6.03728999115">
        <ele>6.16736520323</ele>
        <time>2022-03-19T23:36:52.390Z</time>
      </trkpt>
      <trkpt lat="52.25289" lon="6.03785">
        <ele>6.16893030195</ele>
        <time>2022-03-19T23:37:06.485Z</time>
      </trkpt>
      <trkpt lat="52.25356500124" lon="6.03836999216">
        <ele>6.05409805603</ele>
        <time>2022-03-19T23:37:20.592Z</time>
      </trkpt>
      <trkpt lat="52.25424" lon="6.03889">
        <ele>6.19864040478</ele>
        <time>2022-03-19T23:37:34.711Z</time>
      </trkpt>
      <trkpt lat="52.25473500073" lon="6.03926499592">
        <ele>6.10870783542</ele>
        <time>2022-03-19T23:37:48.839Z</time>
      </trkpt>
      <trkpt lat="52.25523" lon="6.03964">
        <ele>6.20733385967</ele>
        <time>2022-03-19T23:38:02.975Z</time>
      </trkpt>
      <trkpt lat="52.25543" lon="6.03977">
        <ele>6.33233670156</ele>
        <time>2022-03-19T23:38:17.115Z</time>
      </trkpt>
      <trkpt lat="52.25568" lon="6.03983">
        <ele>6.35871764236</ele>
        <time>2022-03-19T23:38:31.259Z</time>
      </trkpt>
      <trkpt lat="52.25614" lon="6.03987">
        <ele>6.414549425</ele>
        <time>2022-03-19T23:38:45.410Z</time>
      </trkpt>
      <trkpt lat="52.25678500015" lon="6.03997999842">
        <ele>6.49705271902</ele>
        <time>2022-03-19T23:38:59.572Z</time>
      </trkpt>
      <trkpt lat="52.25743" lon="6.04009">
        <ele>6.5308636605</ele>
        <time>2022-03-19T23:39:13.744Z</time>
      </trkpt>
      <trkpt lat="52.25766" lon="6.04015">
        <ele>6.60909988575</ele>
        <time>2022-03-19T23:39:27.920Z</time>
      </trkpt>
      <trkpt lat="52.25765" lon="6.04015">
        <ele>6.62054905925</ele>
        <time>2022-03-19T23:39:42.096Z</time>
      </trkpt>
      <trkpt lat="52.25799" lon="6.04025">
        <ele>6.61260708663</ele>
        <time>2022-03-19T23:39:56.278Z</time>
      </trkpt>
      <trkpt lat="52.25812" lon="6.04027">
        <ele>6.59365669062</ele>
        <time>2022-03-19T23:40:10.462Z</time>
      </trkpt>
      <trkpt lat="52.25801" lon="6.03966">
        <ele>6.54578962122</ele>
        <time>2022-03-19T23:40:24.652Z</time>
      </trkpt>
      <trkpt lat="52.2579" lon="6.03886">
        <ele>6.43546063159</ele>
        <time>2022-03-19T23:40:38.850Z</time>
      </trkpt>
      <trkpt lat="52.25776500682" lon="6.03758999619">
        <ele>6.39157944079</ele>
        <time>2022-03-19T23:40:53.061Z</time>
      </trkpt>
      <trkpt lat="52.25763" lon="6.03632">
        <ele>6.38629117753</ele>
        <time>2022-03-19T23:41:07.284Z</time>
      </trkpt>
      <trkpt lat="52.25763" lon="6.03604">
        <ele>6.32780116906</ele>
        <time>2022-03-19T23:41:21.510Z</time>
      </trkpt>
      <trkpt lat="52.25779" lon="6.0353">
        <ele>6.18797930809</ele>
        <time>2022-03-19T23:41:35.744Z</time>
      </trkpt>
      <trkpt lat="52.25815" lon="6.03421">
        <ele>6.08567768541</ele>
        <time>2022-03-19T23:41:49.990Z</time>
      </trkpt>
      <trkpt lat="52.25838500578" lon="6.03304000619">
        <ele>6.04571580311</ele>
        <time>2022-03-19T23:42:04.248Z</time>
      </trkpt>
      <trkpt lat="52.25862" lon="6.03187">
        <ele>6.07497433953</ele>
        <time>2022-03-19T23:42:18.518Z</time>
      </trkpt>
      <trkpt lat="52.25868" lon="6.03133">
        <ele>5.94569983049</ele>
        <time>2022-03-19T23:42:32.794Z</time>
      </trkpt>
      <trkpt lat="52.25863" lon="6.03089">
        <ele>5.92210705318</ele>
        <time>2022-03-19T23:42:47.074Z</time>
      </trkpt>
      <trkpt lat="52.25856" lon="6.03064">
        <ele>5.85651496937</ele>
        <time>2022-03-19T23:43:01.357Z</time>
      </trkpt>
      <trkpt lat="52.25839" lon="6.03027">
        <ele>5.70921833895</ele>
        <time>2022-03-19T23:43:15.644Z</time>
      </trkpt>
      <trkpt lat="52.25822" lon="6.03001">
        <ele>5.62165499027</ele>
        <time>2022-03-19T23:43:29.935Z</time>
      </trkpt>
      <trkpt lat="52.25811" lon="6.0299">
        <ele>5.57054156667</ele>
        <time>2022-03-19T23:43:44.228Z</time>
      </trkpt>
      <trkpt lat="52.25799" lon="6.02981">
        <ele>5.52839092786</ele>
        <time>2022-03-19T23:43:58.523Z</time>
      </trkpt>
      <trkpt lat="52.25735" lon="6.02944">
        <ele>5.46650074037</ele>
        <time>2022-03-19T23:44:12.829Z</time>
      </trkpt>
      <trkpt lat="52.25718" lon="6.02931">
        <ele>5.47413265893</ele>
        <time>2022-03-19T23:44:27.138Z</time>
      </trkpt>
      <trkpt lat="52.25703" lon="6.02914">
        <ele>5.46219866982</ele>
        <time>2022-03-19T23:44:41.450Z</time>
      </trkpt>
      <trkpt lat="52.25695" lon="6.02901">
        <ele>5.45959472202</ele>
        <time>2022-03-19T23:44:55.764Z</time>
      </trkpt>
      <trkpt lat="52.25659" lon="6.02805">
        <ele>5.46542629299</ele>
        <time>2022-03-19T23:45:10.089Z</time>
      </trkpt>
      <trkpt lat="52.25633" lon="6.02742">
        <ele>5.47847006894</ele>
        <time>2022-03-19T23:45:24.421Z</time>
      </trkpt>
      <trkpt lat="52.25602" lon="6.02696">
        <ele>5.53691225974</ele>
        <time>2022-03-19T23:45:38.760Z</time>
      </trkpt>
      <trkpt lat="52.25579" lon="6.02672">
        <ele>5.57809734594</ele>
        <time>2022-03-19T23:45:53.103Z</time>
      </trkpt>
      <trkpt lat="52.25525" lon="6.02629">
        <ele>5.66955675713</ele>
        <time>2022-03-19T23:46:07.456Z</time>
      </trkpt>
      <trkpt lat="52.25512" lon="6.02617">
        <ele>5.67094279547</ele>
        <time>2022-03-19T23:46:21.811Z</time>
      </trkpt>
      <trkpt lat="52.25499" lon="6.026">
        <ele>5.64953587176</ele>
        <time>2022-03-19T23:46:36.169Z</time>
      </trkpt>
      <trkpt lat="52.25489" lon="6.02581">
        <ele>5.62005061513</ele>
        <time>2022-03-19T23:46:50.530Z</time>
      </trkpt>
      <trkpt lat="52.25472" lon="6.02526">
        <ele>5.65658246937</ele>
        <time>2022-03-19T23:47:04.897Z</time>
      </trkpt>
      <trkpt lat="52.25466" lon="6.02472">
        <ele>5.64502258655</ele>
        <time>2022-03-19T23:47:19.269Z</time>
      </trkpt>
      <trkpt lat="52.25462" lon="6.02417">
        <ele>5.65488398657</ele>
        <time>2022-03-19T23:47:33.646Z</time>
      </trkpt>
      <trkpt lat="52.25464" lon="6.02348">
        <ele>5.6881119025</ele>
        <time>2022-03-19T23:47:48.030Z</time>
      </trkpt>
      <trkpt lat="52.25476" lon="6.02219">
        <ele>5.72487956139</ele>
        <time>2022-03-19T23:48:02.427Z</time>
      </trkpt>
      <trkpt lat="52.25481" lon="6.02195">
        <ele>5.70395439271</ele>
        <time>2022-03-19T23:48:16.827Z</time>
      </trkpt>
      <trkpt lat="52.25487" lon="6.02177">
        <ele>5.67523811913</ele>
        <time>2022-03-19T23:48:31.229Z</time>
      </trkpt>
      <trkpt lat="52.25526" lon="6.0207">
        <ele>5.5353963898</ele>
        <time>2022-03-19T23:48:45.643Z</time>
      </trkpt>
      <trkpt lat="52.25536" lon="6.02024">
        <ele>5.59868160094</ele>
        <time>2022-03-19T23:49:00.062Z</time>
      </trkpt>
      <trkpt lat="52.25556" lon="6.01898">
        <ele>5.56690266008</ele>
        <time>2022-03-19T23:49:14.493Z</time>
      </trkpt>
      <trkpt lat="52.25568" lon="6.01802">
        <ele>5.55033568156</ele>
        <time>2022-03-19T23:49:28.934Z</time>
      </trkpt>
      <trkpt lat="52.25578" lon="6.01707">
        <ele>5.6120654608</ele>
        <time>2022-03-19T23:49:43.385Z</time>
      </trkpt>
      <trkpt lat="52.25589000584" lon="6.0158950028">
        <ele>5.49986826346</ele>
        <time>2022-03-19T23:49:57.847Z</time>
      </trkpt>
      <trkpt lat="52.256" lon="6.01472">
        <ele>5.48093187108</ele>
        <time>2022-03-19T23:50:12.321Z</time>
      </trkpt>
      <trkpt lat="52.25616500347" lon="6.01381500332">
        <ele>5.46478537168</ele>
        <time>2022-03-19T23:50:26.804Z</time>
      </trkpt>
      <trkpt lat="52.25633" lon="6.01291">
        <ele>5.50414065298</ele>
        <time>2022-03-19T23:50:41.296Z</time>
      </trkpt>
      <trkpt lat="52.25642" lon="6.01254">
        <ele>5.41612537756</ele>
        <time>2022-03-19T23:50:55.792Z</time>
      </trkpt>
      <trkpt lat="52.25654" lon="6.01226">
        <ele>5.34631453245</ele>
        <time>2022-03-19T23:51:10.292Z</time>
      </trkpt>
      <trkpt lat="52.25668" lon="6.01207">
        <ele>5.25625112891</ele>
        <time>2022-03-19T23:51:24.795Z</time>
      </trkpt>
      <trkpt lat="52.25737" lon="6.01126">
        <ele>5.23545400614</ele>
        <time>2022-03-19T23:51:39.311Z</time>
      </trkpt>
      <trkpt lat="52.25766" lon="6.01076">
        <ele>5.41486527938</ele>
        <time>2022-03-19T23:51:53.834Z</time>
      </trkpt>
      <trkpt lat="52.2578" lon="6.01043">
        <ele>5.43588182074</ele>
        <time>2022-03-19T23:52:08.361Z</time>
      </trkpt>
      <trkpt lat="52.25785" lon="6.01021">
        <ele>5.48233317191</ele>
        <time>2022-03-19T23:52:22.890Z</time>
      </trkpt>
      <trkpt lat="52.25788" lon="6.00993">
        <ele>5.53039226701</ele>
        <time>2022-03-19T23:52:37.422Z</time>
      </trkpt>
      <trkpt lat="52.25787" lon="6.00968">
        <ele>5.64947163239</ele>
        <time>2022-03-19T23:52:51.957Z</time>
      </trkpt>
      <trkpt lat="52.25781" lon="6.00935">
        <ele>5.75791332588</ele>
        <time>2022-03-19T23:53:06.495Z</time>
      </trkpt>
      <trkpt lat="52.25774" lon="6.00912">
        <ele>5.85312535588</ele>
        <time>2022-03-19T23:53:21.035Z</time>
      </trkpt>
      <trkpt lat="52.25733" lon="6.0082">
        <ele>5.86625867401</ele>
        <time>2022-03-19T23:53:35.587Z</time>
      </trkpt>
      <trkpt lat="52.25712" lon="6.00763">
        <ele>6.0094613854</ele>
        <time>2022-03-19T23:53:50.145Z</time>
      </trkpt>
      <trkpt lat="52.25679" lon="6.00651">
        <ele>6.16204640461</ele>
        <time>2022-03-19T23:54:04.715Z</time>
      </trkpt>
      <trkpt lat="52.25661667419" lon="6.00556665934">
        <ele>6.35592569357</ele>
        <time>2022-03-19T23:54:19.295Z</time>
      </trkpt>
      <trkpt lat="52.25644334087" lon="6.00462332605">
        <ele>6.53286254918</ele>
        <time>2022-03-19T23:54:33.885Z</time>
      </trkpt>
      <trkpt lat="52.25627" lon="6.00368">
        <ele>6.69530398453</ele>
        <time>2022-03-19T23:54:48.484Z</time>
      </trkpt>
      <trkpt lat="52.25609667535" lon="6.00266665877">
        <ele>6.6973927416</ele>
        <time>2022-03-19T23:55:03.094Z</time>
      </trkpt>
      <trkpt lat="52.25592334202" lon="6.00165332546">
        <ele>6.85003103406</ele>
        <time>2022-03-19T23:55:17.714Z</time>
      </trkpt>
      <trkpt lat="52.25575" lon="6.00064">
        <ele>6.87035301896</ele>
        <time>2022-03-19T23:55:32.344Z</time>
      </trkpt>
      <trkpt lat="52.2556" lon="5.99938">
        <ele>7.07736209686</ele>
        <time>2022-03-19T23:55:46.987Z</time>
      </trkpt>
      <trkpt lat="52.25557" lon="5.99888">
        <ele>7.11048372681</ele>
        <time>2022-03-19T23:56:01.635Z</time>
      </trkpt>
      <trkpt lat="52.25562" lon="5.99764">
        <ele>6.97952812013</ele>
        <time>2022-03-19T23:56:16.295Z</time>
      </trkpt>
      <trkpt lat="52.25580000669" lon="5.99638000526">
        <ele>7.23079632022</ele>
        <time>2022-03-19T23:56:30.968Z</time>
      </trkpt>
      <trkpt lat="52.25598" lon="5.99512">
        <ele>7.16349509645</ele>
        <time>2022-03-19T23:56:45.654Z</time>
      </trkpt>
      <trkpt lat="52.2561" lon="5.9945">
        <ele>7.1575811417</ele>
        <time>2022-03-19T23:57:00.346Z</time>
      </trkpt>
      <trkpt lat="52.25612" lon="5.9943">
        <ele>7.20685326313</ele>
        <time>2022-03-19T23:57:15.040Z</time>
      </trkpt>
      <trkpt lat="52.25611" lon="5.99406">
        <ele>7.27433050857</ele>
        <time>2022-03-19T23:57:29.736Z</time>
      </trkpt>
      <trkpt lat="52.25594" lon="5.99321">
        <ele>7.34364690057</ele>
        <time>2022-03-19T23:57:44.441Z</time>
      </trkpt>
      <trkpt lat="52.25592" lon="5.99297">
        <ele>7.46053745184</ele>
        <time>2022-03-19T23:57:59.149Z</time>
      </trkpt>
      <trkpt lat="52.25592" lon="5.99267">
        <ele>7.54028020458</ele>
        <time>2022-03-19T23:58:13.860Z</time>
      </trkpt>
      <trkpt lat="52.25609" lon="5.99156">
        <ele>7.73723138053</ele>
        <time>2022-03-19T23:58:28.582Z</time>
      </trkpt>
      <trkpt lat="52.2562" lon="5.99087">
        <ele>7.76480966951</ele>
        <time>2022-03-19T23:58:43.311Z</time>
      </trkpt>
      <trkpt lat="52.25619" lon="5.99073">
        <ele>7.85325584936</ele>
        <time>2022-03-19T23:58:58.041Z</time>
      </trkpt>
      <trkpt lat="52.25614" lon="5.9904">
        <ele>7.95778130803</ele>
        <time>2022-03-19T23:59:12.775Z</time>
      </trkpt>
      <trkpt lat="52.25622" lon="5.99033">
        <ele>7.97440205558</ele>
        <time>2022-03-19T23:59:27.510Z</time>
      </trkpt>
      <trkpt lat="52.25627" lon="5.99024">
        <ele>8.01849494487</ele>
        <time>2022-03-19T23:59:42.246Z</time>
      </trkpt>
      <trkpt lat="52.25648" lon="5.98979">
        <ele>8.01163462124</ele>
        <time>2022-03-19T23:59:56.988Z</time>
      </trkpt>
      <trkpt lat="52.25688" lon="5.98919">
        <ele>7.98043640502</ele>
        <time>2022-03-20T00:00:11.738Z</time>
      </trkpt>
      <trkpt lat="52.25692500238" lon="5.98843500119">
        <ele>8.07528639715</ele>
        <time>2022-03-20T00:00:26.496Z</time>
      </trkpt>
      <trkpt lat="52.25697" lon="5.98768">
        <ele>8.08867667418</ele>
        <time>2022-03-20T00:00:41.261Z</time>
      </trkpt>
      <trkpt lat="52.25696" lon="5.98661">
        <ele>8.26133567431</ele>
        <time>2022-03-20T00:00:56.037Z</time>
      </trkpt>
      <trkpt lat="52.2569" lon="5.98599">
        <ele>8.2778097658</ele>
        <time>2022-03-20T00:01:10.819Z</time>
      </trkpt>
      <trkpt lat="52.25681" lon="5.98545">
        <ele>8.43831832761</ele>
        <time>2022-03-20T00:01:25.607Z</time>
      </trkpt>
      <trkpt lat="52.25645" lon="5.98429">
        <ele>8.43791158796</ele>
        <time>2022-03-20T00:01:40.407Z</time>
      </trkpt>
      <trkpt lat="52.2563" lon="5.98389">
        <ele>8.53064011798</ele>
        <time>2022-03-20T00:01:55.212Z</time>
      </trkpt>
      <trkpt lat="52.2563" lon="5.98388">
        <ele>8.62646072182</ele>
        <time>2022-03-20T00:02:10.017Z</time>
      </trkpt>
      <trkpt lat="52.25609" lon="5.98329">
        <ele>8.77932953208</ele>
        <time>2022-03-20T00:02:24.829Z</time>
      </trkpt>
      <trkpt lat="52.25602" lon="5.98305">
        <ele>8.8954717234</ele>
        <time>2022-03-20T00:02:39.643Z</time>
      </trkpt>
      <trkpt lat="52.25599" lon="5.98278">
        <ele>9.00549302135</ele>
        <time>2022-03-20T00:02:54.460Z</time>
      </trkpt>
      <trkpt lat="52.25601" lon="5.98251">
        <ele>9.10417754926</ele>
        <time>2022-03-20T00:03:09.280Z</time>
      </trkpt>
      <trkpt lat="52.25554999997" lon="5.98239999884">
        <ele>9.15015190679</ele>
        <time>2022-03-20T00:03:24.107Z</time>
      </trkpt>
      <trkpt lat="52.25509" lon="5.98229">
        <ele>9.43231653912</ele>
        <time>2022-03-20T00:03:38.942Z</time>
      </trkpt>
      <trkpt lat="52.25522" lon="5.98137">
        <ele>9.64103778983</ele>
        <time>2022-03-20T00:03:53.786Z</time>
      </trkpt>
      <trkpt lat="52.25524" lon="5.98036">
        <ele>9.74679384768</ele>
        <time>2022-03-20T00:04:08.640Z</time>
      </trkpt>
      <trkpt lat="52.2552" lon="5.97944">
        <ele>9.87101827061</ele>
        <time>2022-03-20T00:04:23.503Z</time>
      </trkpt>
      <trkpt lat="52.25522" lon="5.97889">
        <ele>9.99797864072</ele>
        <time>2022-03-20T00:04:38.371Z</time>
      </trkpt>
      <trkpt lat="52.25534000747" lon="5.97756000361">
        <ele>10.11935003604</ele>
        <time>2022-03-20T00:04:53.253Z</time>
      </trkpt>
      <trkpt lat="52.25546" lon="5.97623">
        <ele>10.24039074117</ele>
        <time>2022-03-20T00:05:08.148Z</time>
      </trkpt>
      <trkpt lat="52.25571" lon="5.97629">
        <ele>10.34049909045</ele>
        <time>2022-03-20T00:05:23.047Z</time>
      </trkpt>
      <trkpt lat="52.25602" lon="5.97648">
        <ele>10.49743290133</ele>
        <time>2022-03-20T00:05:37.951Z</time>
      </trkpt>
      <trkpt lat="52.25653" lon="5.97694">
        <ele>10.74449856795</ele>
        <time>2022-03-20T00:05:52.865Z</time>
      </trkpt>
      <trkpt lat="52.25702" lon="5.97729">
        <ele>10.75794366616</ele>
        <time>2022-03-20T00:06:07.787Z</time>
      </trkpt>
      <trkpt lat="52.25717" lon="5.97732">
        <ele>10.83302433282</ele>
        <time>2022-03-20T00:06:22.712Z</time>
      </trkpt>
      <trkpt lat="52.25747" lon="5.97717">
        <ele>10.93859528476</ele>
        <time>2022-03-20T00:06:37.642Z</time>
      </trkpt>
      <trkpt lat="52.25759" lon="5.97715">
        <ele>10.96314092065</ele>
        <time>2022-03-20T00:06:52.573Z</time>
      </trkpt>
      <trkpt lat="52.2577" lon="5.97719">
        <ele>10.97872721374</ele>
        <time>2022-03-20T00:07:07.506Z</time>
      </trkpt>
      <trkpt lat="52.25855" lon="5.97759">
        <ele>10.79466317281</ele>
        <time>2022-03-20T00:07:22.453Z</time>
      </trkpt>
      <trkpt lat="52.25854" lon="5.97759">
        <ele>10.8080544502</ele>
        <time>2022-03-20T00:07:37.401Z</time>
      </trkpt>
      <trkpt lat="52.25875" lon="5.9777">
        <ele>10.8287599895</ele>
        <time>2022-03-20T00:07:52.352Z</time>
      </trkpt>
      <trkpt lat="52.25889" lon="5.97782">
        <ele>10.86057646178</ele>
        <time>2022-03-20T00:08:07.306Z</time>
      </trkpt>
      <trkpt lat="52.2592" lon="5.97818">
        <ele>10.90677371309</ele>
        <time>2022-03-20T00:08:22.266Z</time>
      </trkpt>
      <trkpt lat="52.25933" lon="5.97822">
        <ele>10.970028728</ele>
        <time>2022-03-20T00:08:37.228Z</time>
      </trkpt>
      <trkpt lat="52.25948" lon="5.97816">
        <ele>11.04575195194</ele>
        <time>2022-03-20T00:08:52.192Z</time>
      </trkpt>
      <trkpt lat="52.25979" lon="5.97792">
        <ele>11.09041096323</ele>
        <time>2022-03-20T00:09:07.162Z</time>
      </trkpt>
      <trkpt lat="52.2604" lon="5.97729">
        <ele>11.21536513543</ele>
        <time>2022-03-20T00:09:22.143Z</time>
      </trkpt>
      <trkpt lat="52.26101000087" lon="5.97683500626">
        <ele>11.36979334943</ele>
        <time>2022-03-20T00:09:37.135Z</time>
      </trkpt>
      <trkpt lat="52.26162" lon="5.97638">
        <ele>11.69323316199</ele>
        <time>2022-03-20T00:09:52.138Z</time>
      </trkpt>
      <trkpt lat="52.26194" lon="5.97616">
        <ele>11.88064619042</ele>
        <time>2022-03-20T00:10:07.147Z</time>
      </trkpt>
      <trkpt lat="52.2615" lon="5.97493">
        <ele>12.02874523543</ele>
        <time>2022-03-20T00:10:22.170Z</time>
      </trkpt>
      <trkpt lat="52.26106" lon="5.97376">
        <ele>12.40783904728</ele>
        <time>2022-03-20T00:10:37.206Z</time>
      </trkpt>
      <trkpt lat="52.26085" lon="5.97304">
        <ele>12.6492917928</ele>
        <time>2022-03-20T00:10:52.250Z</time>
      </trkpt>
      <trkpt lat="52.2607" lon="5.97241">
        <ele>12.87074458561</ele>
        <time>2022-03-20T00:11:07.300Z</time>
      </trkpt>
      <trkpt lat="52.26058" lon="5.97128">
        <ele>12.94631425416</ele>
        <time>2022-03-20T00:11:22.362Z</time>
      </trkpt>
      <trkpt lat="52.26061" lon="5.9709">
        <ele>13.12260913907</ele>
        <time>2022-03-20T00:11:37.428Z</time>
      </trkpt>
      <trkpt lat="52.26072" lon="5.97047">
        <ele>13.29417833217</ele>
        <time>2022-03-20T00:11:52.498Z</time>
      </trkpt>
      <trkpt lat="52.2609" lon="5.96997">
        <ele>13.3805202753</ele>
        <time>2022-03-20T00:12:07.574Z</time>
      </trkpt>
      <trkpt lat="52.26100500235" lon="5.96922000199">
        <ele>13.69959737348</ele>
        <time>2022-03-20T00:12:22.657Z</time>
      </trkpt>
      <trkpt lat="52.26111" lon="5.96847">
        <ele>13.78904645879</ele>
        <time>2022-03-20T00:12:37.748Z</time>
      </trkpt>
      <trkpt lat="52.26126000316" lon="5.96760500295">
        <ele>13.76600622326</ele>
        <time>2022-03-20T00:12:52.848Z</time>
      </trkpt>
      <trkpt lat="52.26141" lon="5.96674">
        <ele>13.98641349727</ele>
        <time>2022-03-20T00:13:07.957Z</time>
      </trkpt>
      <trkpt lat="52.26143" lon="5.96651">
        <ele>14.0821982936</ele>
        <time>2022-03-20T00:13:23.068Z</time>
      </trkpt>
      <trkpt lat="52.26139" lon="5.96612">
        <ele>14.09939342881</ele>
        <time>2022-03-20T00:13:38.183Z</time>
      </trkpt>
      <trkpt lat="52.26138" lon="5.9661">
        <ele>14.18368355577</ele>
        <time>2022-03-20T00:13:53.298Z</time>
      </trkpt>
      <trkpt lat="52.26126" lon="5.96567">
        <ele>14.10161684044</ele>
        <time>2022-03-20T00:14:08.418Z</time>
      </trkpt>
      <trkpt lat="52.26063" lon="5.96536">
        <ele>14.26671635578</ele>
        <time>2022-03-20T00:14:23.548Z</time>
      </trkpt>
      <trkpt lat="52.26032" lon="5.96515">
        <ele>14.41358956862</ele>
        <time>2022-03-20T00:14:38.684Z</time>
      </trkpt>
      <trkpt lat="52.25998" lon="5.96488">
        <ele>14.66058487224</ele>
        <time>2022-03-20T00:14:53.826Z</time>
      </trkpt>
      <trkpt lat="52.2595650006" lon="5.96449499637">
        <ele>14.73423413818</ele>
        <time>2022-03-20T00:15:08.975Z</time>
      </trkpt>
      <trkpt lat="52.25915" lon="5.96411">
        <ele>14.85365293952</ele>
        <time>2022-03-20T00:15:24.132Z</time>
      </trkpt>
      <trkpt lat="52.25899" lon="5.96401">
        <ele>15.00008619082</ele>
        <time>2022-03-20T00:15:39.292Z</time>
      </trkpt>
      <trkpt lat="52.25873" lon="5.96398">
        <ele>15.15934755404</ele>
        <time>2022-03-20T00:15:54.456Z</time>
      </trkpt>
      <trkpt lat="52.25858" lon="5.964">
        <ele>15.27595100062</ele>
        <time>2022-03-20T00:16:09.622Z</time>
      </trkpt>
      <trkpt lat="52.25833" lon="5.9641">
        <ele>15.33722000295</ele>
        <time>2022-03-20T00:16:24.792Z</time>
      </trkpt>
      <trkpt lat="52.25824" lon="5.96416">
        <ele>15.41485662753</ele>
        <time>2022-03-20T00:16:39.964Z</time>
      </trkpt>
      <trkpt lat="52.25809" lon="5.96432">
        <ele>15.47674758732</ele>
        <time>2022-03-20T00:16:55.139Z</time>
      </trkpt>
      <trkpt lat="52.25764" lon="5.9649">
        <ele>15.86453389666</ele>
        <time>2022-03-20T00:17:10.323Z</time>
      </trkpt>
      <trkpt lat="52.25756" lon="5.96498">
        <ele>16.00491796863</ele>
        <time>2022-03-20T00:17:25.509Z</time>
      </trkpt>
      <trkpt lat="52.25711" lon="5.9652">
        <ele>16.03142325831</ele>
        <time>2022-03-20T00:17:40.702Z</time>
      </trkpt>
      <trkpt lat="52.25685" lon="5.96527">
        <ele>15.9826561459</ele>
        <time>2022-03-20T00:17:55.899Z</time>
      </trkpt>
      <trkpt lat="52.25656" lon="5.96528">
        <ele>15.85251901601</ele>
        <time>2022-03-20T00:18:11.101Z</time>
      </trkpt>
      <trkpt lat="52.25626" lon="5.96525">
        <ele>15.78929032237</ele>
        <time>2022-03-20T00:18:26.308Z</time>
      </trkpt>
      <trkpt lat="52.2561" lon="5.96521">
        <ele>15.78994222453</ele>
        <time>2022-03-20T00:18:41.517Z</time>
      </trkpt>
      <trkpt lat="52.2558" lon="5.96502">
        <ele>15.75314665697</ele>
        <time>2022-03-20T00:18:56.732Z</time>
      </trkpt>
      <trkpt lat="52.25536000062" lon="5.96463499617">
        <ele>15.65694697018</ele>
        <time>2022-03-20T00:19:11.955Z</time>
      </trkpt>
      <trkpt lat="52.25492" lon="5.96425">
        <ele>15.62300677637</ele>
        <time>2022-03-20T00:19:27.186Z</time>
      </trkpt>
      <trkpt lat="52.25468" lon="5.96402">
        <ele>15.54832820432</ele>
        <time>2022-03-20T00:19:42.421Z</time>
      </trkpt>
      <trkpt lat="52.25462" lon="5.96404">
        <ele>15.47094023703</ele>
        <time>2022-03-20T00:19:57.657Z</time>
      </trkpt>
      <trkpt lat="52.25453" lon="5.96393">
        <ele>15.39407663935</ele>
        <time>2022-03-20T00:20:12.895Z</time>
      </trkpt>
      <trkpt lat="52.25418" lon="5.96361">
        <ele>15.32118476895</ele>
        <time>2022-03-20T00:20:28.139Z</time>
      </trkpt>
      <trkpt lat="52.25402" lon="5.9635">
        <ele>15.25590229117</ele>
        <time>2022-03-20T00:20:43.386Z</time>
      </trkpt>
      <trkpt lat="52.25333" lon="5.96318">
        <ele>15.0876346116</ele>
        <time>2022-03-20T00:20:58.644Z</time>
      </trkpt>
      <trkpt lat="52.25259800172" lon="5.96286197901">
        <ele>15.12677241752</ele>
        <time>2022-03-20T00:21:13.915Z</time>
      </trkpt>
      <trkpt lat="52.25186600258" lon="5.96254396852">
        <ele>15.14642902247</ele>
        <time>2022-03-20T00:21:29.198Z</time>
      </trkpt>
      <trkpt lat="52.25113400258" lon="5.96222596852">
        <ele>15.00954132163</ele>
        <time>2022-03-20T00:21:44.493Z</time>
      </trkpt>
      <trkpt lat="52.25040200173" lon="5.96190797902">
        <ele>15.07573798219</ele>
        <time>2022-03-20T00:21:59.800Z</time>
      </trkpt>
      <trkpt lat="52.24967" lon="5.96159">
        <ele>15.18217061489</ele>
        <time>2022-03-20T00:22:15.119Z</time>
      </trkpt>
      <trkpt lat="52.24966" lon="5.96158">
        <ele>15.27294166178</ele>
        <time>2022-03-20T00:22:30.438Z</time>
      </trkpt>
      <trkpt lat="52.24884143188" lon="5.96121853141">
        <ele>15.32398260201</ele>
        <time>2022-03-20T00:22:45.771Z</time>
      </trkpt>
      <trkpt lat="52.24802286265" lon="5.96085707617">
        <ele>15.4171957313</ele>
        <time>2022-03-20T00:23:01.118Z</time>
      </trkpt>
      <trkpt lat="52.24720429232" lon="5.96049563426">
        <ele>15.80517681677</ele>
        <time>2022-03-20T00:23:16.478Z</time>
      </trkpt>
      <trkpt lat="52.24638572088" lon="5.96013420568">
        <ele>16.00685023791</ele>
        <time>2022-03-20T00:23:31.852Z</time>
      </trkpt>
      <trkpt lat="52.24556714834" lon="5.95977279045">
        <ele>16.22125322833</ele>
        <time>2022-03-20T00:23:47.239Z</time>
      </trkpt>
      <trkpt lat="52.2447485747" lon="5.95941138855">
        <ele>16.3273428586</ele>
        <time>2022-03-20T00:24:02.640Z</time>
      </trkpt>
      <trkpt lat="52.24393" lon="5.95905">
        <ele>16.80653774077</ele>
        <time>2022-03-20T00:24:18.054Z</time>
      </trkpt>
      <trkpt lat="52.24309" lon="5.95857">
        <ele>17.11667837472</ele>
        <time>2022-03-20T00:24:33.483Z</time>
      </trkpt>
      <trkpt lat="52.24287" lon="5.9585">
        <ele>17.40516409347</ele>
        <time>2022-03-20T00:24:48.915Z</time>
      </trkpt>
      <trkpt lat="52.24204000028" lon="5.95830665943">
        <ele>17.73161455774</ele>
        <time>2022-03-20T00:25:04.361Z</time>
      </trkpt>
      <trkpt lat="52.24121000024" lon="5.95811332608">
        <ele>18.12713501171</ele>
        <time>2022-03-20T00:25:19.820Z</time>
      </trkpt>
      <trkpt lat="52.24038" lon="5.95792">
        <ele>18.34266946609</ele>
        <time>2022-03-20T00:25:35.293Z</time>
      </trkpt>
      <trkpt lat="52.23983" lon="5.95767">
        <ele>18.68976376469</ele>
        <time>2022-03-20T00:25:50.775Z</time>
      </trkpt>
      <trkpt lat="52.23975" lon="5.9576">
        <ele>18.95079172237</ele>
        <time>2022-03-20T00:26:06.258Z</time>
      </trkpt>
      <trkpt lat="52.2397" lon="5.95745">
        <ele>19.22233028143</ele>
        <time>2022-03-20T00:26:21.743Z</time>
      </trkpt>
      <trkpt lat="52.23967" lon="5.95719">
        <ele>19.46989040475</ele>
        <time>2022-03-20T00:26:37.231Z</time>
      </trkpt>
      <trkpt lat="52.23951" lon="5.95723">
        <ele>19.58607995708</ele>
        <time>2022-03-20T00:26:52.721Z</time>
      </trkpt>
      <trkpt lat="52.23924" lon="5.95724">
        <ele>19.67096445676</ele>
        <time>2022-03-20T00:27:08.215Z</time>
      </trkpt>
      <trkpt lat="52.23897" lon="5.95718">
        <ele>19.71367030039</ele>
        <time>2022-03-20T00:27:23.714Z</time>
      </trkpt>
      <trkpt lat="52.23841" lon="5.95679">
        <ele>19.54814576207</ele>
        <time>2022-03-20T00:27:39.223Z</time>
      </trkpt>
      <trkpt lat="52.23796" lon="5.9566">
        <ele>19.38626115295</ele>
        <time>2022-03-20T00:27:54.739Z</time>
      </trkpt>
      <trkpt lat="52.23768" lon="5.95657">
        <ele>19.36160744749</ele>
        <time>2022-03-20T00:28:10.260Z</time>
      </trkpt>
      <trkpt lat="52.23706" lon="5.95668">
        <ele>19.55112957963</ele>
        <time>2022-03-20T00:28:25.791Z</time>
      </trkpt>
      <trkpt lat="52.23631" lon="5.95693">
        <ele>19.59645111161</ele>
        <time>2022-03-20T00:28:41.334Z</time>
      </trkpt>
      <trkpt lat="52.23556" lon="5.9574">
        <ele>19.53166238129</ele>
        <time>2022-03-20T00:28:56.890Z</time>
      </trkpt>
      <trkpt lat="52.23523" lon="5.95755">
        <ele>19.57032687826</ele>
        <time>2022-03-20T00:29:12.451Z</time>
      </trkpt>
      <trkpt lat="52.23472" lon="5.95763">
        <ele>19.73105312863</ele>
        <time>2022-03-20T00:29:28.020Z</time>
      </trkpt>
      <trkpt lat="52.23456668192" lon="5.9562866574">
        <ele>19.9410611438</ele>
        <time>2022-03-20T00:29:43.603Z</time>
      </trkpt>
      <trkpt lat="52.23441334858" lon="5.95494332408">
        <ele>20.15707716948</ele>
        <time>2022-03-20T00:29:59.199Z</time>
      </trkpt>
      <trkpt lat="52.23426" lon="5.9536">
        <ele>20.44410228766</ele>
        <time>2022-03-20T00:30:14.809Z</time>
      </trkpt>
      <trkpt lat="52.23418500386" lon="5.95264499841">
        <ele>20.66712406843</ele>
        <time>2022-03-20T00:30:30.428Z</time>
      </trkpt>
      <trkpt lat="52.23411" lon="5.95169">
        <ele>20.93806744709</ele>
        <time>2022-03-20T00:30:46.057Z</time>
      </trkpt>
      <trkpt lat="52.23406000799" lon="5.95031499838">
        <ele>21.31961187683</ele>
        <time>2022-03-20T00:31:01.699Z</time>
      </trkpt>
      <trkpt lat="52.23401" lon="5.94894">
        <ele>21.63316409019</ele>
        <time>2022-03-20T00:31:17.355Z</time>
      </trkpt>
      <trkpt lat="52.23397" lon="5.94876">
        <ele>21.90790673534</ele>
        <time>2022-03-20T00:31:33.013Z</time>
      </trkpt>
      <trkpt lat="52.23386" lon="5.94854">
        <ele>22.18501077455</ele>
        <time>2022-03-20T00:31:48.673Z</time>
      </trkpt>
      <trkpt lat="52.23374" lon="5.94847">
        <ele>22.47923996957</ele>
        <time>2022-03-20T00:32:04.335Z</time>
      </trkpt>
      <trkpt lat="52.23362" lon="5.94844">
        <ele>22.78090892337</ele>
        <time>2022-03-20T00:32:19.999Z</time>
      </trkpt>
      <trkpt lat="52.2334" lon="5.94844">
        <ele>23.13229182053</ele>
        <time>2022-03-20T00:32:35.667Z</time>
      </trkpt>
      <trkpt lat="52.23318" lon="5.94847">
        <ele>23.49149886517</ele>
        <time>2022-03-20T00:32:51.338Z</time>
      </trkpt>
      <trkpt lat="52.23253" lon="5.94861">
        <ele>23.77541396216</ele>
        <time>2022-03-20T00:33:07.020Z</time>
      </trkpt>
      <trkpt lat="52.23184250029" lon="5.94876750732">
        <ele>24.0704957513</ele>
        <time>2022-03-20T00:33:22.713Z</time>
      </trkpt>
      <trkpt lat="52.23115500037" lon="5.94892500977">
        <ele>24.37858618015</ele>
        <time>2022-03-20T00:33:38.417Z</time>
      </trkpt>
      <trkpt lat="52.23046750025" lon="5.94908250733">
        <ele>24.30416741052</ele>
        <time>2022-03-20T00:33:54.132Z</time>
      </trkpt>
      <trkpt lat="52.22978" lon="5.94924">
        <ele>24.40348128899</ele>
        <time>2022-03-20T00:34:09.858Z</time>
      </trkpt>
      <trkpt lat="52.22957" lon="5.9493">
        <ele>24.6579366059</ele>
        <time>2022-03-20T00:34:25.588Z</time>
      </trkpt>
      <trkpt lat="52.22952" lon="5.94933">
        <ele>24.90239986581</ele>
        <time>2022-03-20T00:34:41.319Z</time>
      </trkpt>
      <trkpt lat="52.22909500321" lon="5.94846499183">
        <ele>25.33215755264</ele>
        <time>2022-03-20T00:34:57.061Z</time>
      </trkpt>
      <trkpt lat="52.22867" lon="5.9476">
        <ele>25.67888618208</ele>
        <time>2022-03-20T00:35:12.814Z</time>
      </trkpt>
      <trkpt lat="52.22829000236" lon="5.94685999376">
        <ele>26.03423681365</ele>
        <time>2022-03-20T00:35:28.576Z</time>
      </trkpt>
      <trkpt lat="52.22791" lon="5.94612">
        <ele>26.38947041</ele>
        <time>2022-03-20T00:35:44.348Z</time>
      </trkpt>
      <trkpt lat="52.22763" lon="5.94573">
        <ele>26.80905223305</ele>
        <time>2022-03-20T00:36:00.125Z</time>
      </trkpt>
      <trkpt lat="52.22766" lon="5.94545">
        <ele>27.32241050689</ele>
        <time>2022-03-20T00:36:15.905Z</time>
      </trkpt>
      <trkpt lat="52.22766" lon="5.94513">
        <ele>27.85487391671</ele>
        <time>2022-03-20T00:36:31.688Z</time>
      </trkpt>
      <trkpt lat="52.22747" lon="5.94374">
        <ele>28.86937497315</ele>
        <time>2022-03-20T00:36:47.485Z</time>
      </trkpt>
      <trkpt lat="52.22739" lon="5.94299">
        <ele>29.24829170177</ele>
        <time>2022-03-20T00:37:03.290Z</time>
      </trkpt>
      <trkpt lat="52.22738" lon="5.94297">
        <ele>29.74706723898</ele>
        <time>2022-03-20T00:37:19.095Z</time>
      </trkpt>
      <trkpt lat="52.22720668229" lon="5.94160998936">
        <ele>30.29004602401</ele>
        <time>2022-03-20T00:37:34.914Z</time>
      </trkpt>
      <trkpt lat="52.22703334896" lon="5.94024998933">
        <ele>30.87282961329</ele>
        <time>2022-03-20T00:37:50.746Z</time>
      </trkpt>
      <trkpt lat="52.22686" lon="5.93889">
        <ele>31.42975090146</ele>
        <time>2022-03-20T00:38:06.592Z</time>
      </trkpt>
      <trkpt lat="52.22691861512" lon="5.93757715324">
        <ele>32.28683659504</ele>
        <time>2022-03-20T00:38:22.451Z</time>
      </trkpt>
      <trkpt lat="52.22697721568" lon="5.93626430302">
        <ele>32.82458636629</ele>
        <time>2022-03-20T00:38:38.323Z</time>
      </trkpt>
      <trkpt lat="52.22703580168" lon="5.93495144934">
        <ele>33.63592253076</ele>
        <time>2022-03-20T00:38:54.208Z</time>
      </trkpt>
      <trkpt lat="52.22709437311" lon="5.93363859218">
        <ele>34.49340016834</ele>
        <time>2022-03-20T00:39:10.106Z</time>
      </trkpt>
      <trkpt lat="52.22715292997" lon="5.93232573157">
        <ele>35.76413444907</ele>
        <time>2022-03-20T00:39:26.017Z</time>
      </trkpt>
      <trkpt lat="52.22721147227" lon="5.93101286749">
        <ele>36.92550977795</ele>
        <time>2022-03-20T00:39:41.941Z</time>
      </trkpt>
      <trkpt lat="52.22727" lon="5.9297">
        <ele>38.26566019483</ele>
        <time>2022-03-20T00:39:57.878Z</time>
      </trkpt>
      <trkpt lat="52.22734002005" lon="5.92844250588">
        <ele>39.58715559769</ele>
        <time>2022-03-20T00:40:13.827Z</time>
      </trkpt>
      <trkpt lat="52.22741002673" lon="5.9271850078">
        <ele>41.31722779182</ele>
        <time>2022-03-20T00:40:29.789Z</time>
      </trkpt>
      <trkpt lat="52.22748002006" lon="5.92592750575">
        <ele>42.82894286713</ele>
        <time>2022-03-20T00:40:45.763Z</time>
      </trkpt>
      <trkpt lat="52.22755" lon="5.92467">
        <ele>44.71270817901</ele>
        <time>2022-03-20T00:41:01.749Z</time>
      </trkpt>
      <trkpt lat="52.22762667857" lon="5.92348333741">
        <ele>46.69775639064</ele>
        <time>2022-03-20T00:41:17.747Z</time>
      </trkpt>
      <trkpt lat="52.22770334524" lon="5.92229667072">
        <ele>48.6509043405</ele>
        <time>2022-03-20T00:41:33.757Z</time>
      </trkpt>
      <trkpt lat="52.22778" lon="5.92111">
        <ele>50.89578648119</ele>
        <time>2022-03-20T00:41:49.779Z</time>
      </trkpt>
      <trkpt lat="52.22782500361" lon="5.920185001">
        <ele>53.14908464058</ele>
        <time>2022-03-20T00:42:05.810Z</time>
      </trkpt>
      <trkpt lat="52.22787" lon="5.91926">
        <ele>55.32552052691</ele>
        <time>2022-03-20T00:42:21.850Z</time>
      </trkpt>
      <trkpt lat="52.22792000263" lon="5.91847000107">
        <ele>57.53682156611</ele>
        <time>2022-03-20T00:42:37.898Z</time>
      </trkpt>
      <trkpt lat="52.22797" lon="5.91768">
        <ele>59.6173002716</ele>
        <time>2022-03-20T00:42:53.954Z</time>
      </trkpt>
      <trkpt lat="52.22803667925" lon="5.91646000362">
        <ele>61.47687624842</ele>
        <time>2022-03-20T00:43:10.022Z</time>
      </trkpt>
      <trkpt lat="52.22810334592" lon="5.91524000359">
        <ele>63.95459441874</ele>
        <time>2022-03-20T00:43:26.102Z</time>
      </trkpt>
      <trkpt lat="52.22817" lon="5.91402">
        <ele>66.03922881325</ele>
        <time>2022-03-20T00:43:42.194Z</time>
      </trkpt>
      <trkpt lat="52.22815" lon="5.91364">
        <ele>68.19785869285</ele>
        <time>2022-03-20T00:43:58.289Z</time>
      </trkpt>
      <trkpt lat="52.22822505766" lon="5.91224376652">
        <ele>70.55660566699</ele>
        <time>2022-03-20T00:44:14.398Z</time>
      </trkpt>
      <trkpt lat="52.22830009884" lon="5.91084752833">
        <ele>72.8117769259</ele>
        <time>2022-03-20T00:44:30.521Z</time>
      </trkpt>
      <trkpt lat="52.22837512355" lon="5.90945128541">
        <ele>74.82022928451</ele>
        <time>2022-03-20T00:44:46.658Z</time>
      </trkpt>
      <trkpt lat="52.22845013179" lon="5.90805503778">
        <ele>76.67434006226</ele>
        <time>2022-03-20T00:45:02.809Z</time>
      </trkpt>
      <trkpt lat="52.22852512355" lon="5.90665878543">
        <ele>78.95823961054</ele>
        <time>2022-03-20T00:45:18.973Z</time>
      </trkpt>
      <trkpt lat="52.22860009884" lon="5.90526252836">
        <ele>80.72471591935</ele>
        <time>2022-03-20T00:45:35.151Z</time>
      </trkpt>
      <trkpt lat="52.22867505766" lon="5.90386626658">
        <ele>82.15097295826</ele>
        <time>2022-03-20T00:45:51.343Z</time>
      </trkpt>
      <trkpt lat="52.22875" lon="5.90247">
        <ele>84.04790426749</ele>
        <time>2022-03-20T00:46:07.549Z</time>
      </trkpt>
      <trkpt lat="52.2288" lon="5.90129">
        <ele>85.63770781278</ele>
        <time>2022-03-20T00:46:23.766Z</time>
      </trkpt>
      <trkpt lat="52.2289" lon="5.90086">
        <ele>87.21122003594</ele>
        <time>2022-03-20T00:46:39.988Z</time>
      </trkpt>
      <trkpt lat="52.22931000456" lon="5.89981500979">
        <ele>88.618588704</ele>
        <time>2022-03-20T00:46:56.222Z</time>
      </trkpt>
      <trkpt lat="52.22972" lon="5.89877">
        <ele>90.30520224738</ele>
        <time>2022-03-20T00:47:12.468Z</time>
      </trkpt>
      <trkpt lat="52.2300000029" lon="5.89792000582">
        <ele>91.54795113921</ele>
        <time>2022-03-20T00:47:28.724Z</time>
      </trkpt>
      <trkpt lat="52.23028" lon="5.89707">
        <ele>92.84387513346</ele>
        <time>2022-03-20T00:47:44.989Z</time>
      </trkpt>
      <trkpt lat="52.23070500533" lon="5.89594501082">
        <ele>94.16477393615</ele>
        <time>2022-03-20T00:48:01.267Z</time>
      </trkpt>
      <trkpt lat="52.23113" lon="5.89482">
        <ele>95.0513260996</ele>
        <time>2022-03-20T00:48:17.558Z</time>
      </trkpt>
      <trkpt lat="52.23139500237" lon="5.8940700045">
        <ele>95.91433301501</ele>
        <time>2022-03-20T00:48:33.858Z</time>
      </trkpt>
      <trkpt lat="52.23166" lon="5.89332">
        <ele>96.59192959113</ele>
        <time>2022-03-20T00:48:50.166Z</time>
      </trkpt>
      <trkpt lat="52.23198334008" lon="5.89243001282">
        <ele>97.29612532841</ele>
        <time>2022-03-20T00:49:06.485Z</time>
      </trkpt>
      <trkpt lat="52.23230667347" lon="5.89154001267">
        <ele>98.21777643464</ele>
        <time>2022-03-20T00:49:22.814Z</time>
      </trkpt>
      <trkpt lat="52.23263" lon="5.89065">
        <ele>99.09434614906</ele>
        <time>2022-03-20T00:49:39.153Z</time>
      </trkpt>
      <trkpt lat="52.23279" lon="5.89016">
        <ele>99.75295505374</ele>
        <time>2022-03-20T00:49:55.497Z</time>
      </trkpt>
      <trkpt lat="52.233" lon="5.88917">
        <ele>100.44377498791</ele>
        <time>2022-03-20T00:50:11.852Z</time>
      </trkpt>
      <trkpt lat="52.23301" lon="5.88885">
        <ele>100.93741842973</ele>
        <time>2022-03-20T00:50:28.210Z</time>
      </trkpt>
      <trkpt lat="52.23298" lon="5.88826">
        <ele>101.39765139229</ele>
        <time>2022-03-20T00:50:44.574Z</time>
      </trkpt>
      <trkpt lat="52.23300000324" lon="5.88738500019">
        <ele>101.97608537293</ele>
        <time>2022-03-20T00:51:00.946Z</time>
      </trkpt>
      <trkpt lat="52.23302" lon="5.88651">
        <ele>102.15490609356</ele>
        <time>2022-03-20T00:51:17.327Z</time>
      </trkpt>
      <trkpt lat="52.23301" lon="5.88553">
        <ele>102.42524008605</ele>
        <time>2022-03-20T00:51:33.718Z</time>
      </trkpt>
      <trkpt lat="52.23297500564" lon="5.88437499919">
        <ele>102.6855724049</ele>
        <time>2022-03-20T00:51:50.120Z</time>
      </trkpt>
      <trkpt lat="52.23294" lon="5.88322">
        <ele>103.0057640431</ele>
        <time>2022-03-20T00:52:06.533Z</time>
      </trkpt>
      <trkpt lat="52.23299" lon="5.88184">
        <ele>103.00572371044</ele>
        <time>2022-03-20T00:52:22.960Z</time>
      </trkpt>
      <trkpt lat="52.23305500239" lon="5.88108500128">
        <ele>103.10879014253</ele>
        <time>2022-03-20T00:52:39.394Z</time>
      </trkpt>
      <trkpt lat="52.23312" lon="5.88033">
        <ele>103.15537163552</ele>
        <time>2022-03-20T00:52:55.836Z</time>
      </trkpt>
      <trkpt lat="52.2332" lon="5.87984">
        <ele>103.11099718499</ele>
        <time>2022-03-20T00:53:12.283Z</time>
      </trkpt>
      <trkpt lat="52.23338000199" lon="5.879145003">
        <ele>102.94348591654</ele>
        <time>2022-03-20T00:53:28.737Z</time>
      </trkpt>
      <trkpt lat="52.23356" lon="5.87845">
        <ele>102.65352057362</ele>
        <time>2022-03-20T00:53:45.199Z</time>
      </trkpt>
      <trkpt lat="52.23359" lon="5.87828">
        <ele>102.59635024398</ele>
        <time>2022-03-20T00:54:01.662Z</time>
      </trkpt>
      <trkpt lat="52.2336" lon="5.87809">
        <ele>102.59374253317</ele>
        <time>2022-03-20T00:54:18.127Z</time>
      </trkpt>
      <trkpt lat="52.23358" lon="5.8779">
        <ele>102.64203834718</ele>
        <time>2022-03-20T00:54:34.594Z</time>
      </trkpt>
      <trkpt lat="52.23317" lon="5.87661">
        <ele>102.48018642663</ele>
        <time>2022-03-20T00:54:51.076Z</time>
      </trkpt>
      <trkpt lat="52.23293" lon="5.87551">
        <ele>102.58121417946</ele>
        <time>2022-03-20T00:55:07.569Z</time>
      </trkpt>
      <trkpt lat="52.23292003622" lon="5.87404599866">
        <ele>102.79359792239</ele>
        <time>2022-03-20T00:55:24.076Z</time>
      </trkpt>
      <trkpt lat="52.23291005433" lon="5.87258199798">
        <ele>103.16938735226</ele>
        <time>2022-03-20T00:55:40.598Z</time>
      </trkpt>
      <trkpt lat="52.23290005433" lon="5.87111799796">
        <ele>103.63394557467</ele>
        <time>2022-03-20T00:55:57.134Z</time>
      </trkpt>
      <trkpt lat="52.23289003622" lon="5.8696539986">
        <ele>104.16071784656</ele>
        <time>2022-03-20T00:56:13.685Z</time>
      </trkpt>
      <trkpt lat="52.23288" lon="5.86819">
        <ele>104.58136680385</ele>
        <time>2022-03-20T00:56:30.250Z</time>
      </trkpt>
      <trkpt lat="52.23289" lon="5.8673">
        <ele>105.03712447634</ele>
        <time>2022-03-20T00:56:46.824Z</time>
      </trkpt>
      <trkpt lat="52.23284000316" lon="5.866434999">
        <ele>105.40904682949</ele>
        <time>2022-03-20T00:57:03.406Z</time>
      </trkpt>
      <trkpt lat="52.23279" lon="5.86557">
        <ele>105.77280568976</ele>
        <time>2022-03-20T00:57:19.997Z</time>
      </trkpt>
      <trkpt lat="52.23263000641" lon="5.86433999571">
        <ele>106.15338446407</ele>
        <time>2022-03-20T00:57:36.600Z</time>
      </trkpt>
      <trkpt lat="52.23247" lon="5.86311">
        <ele>106.69911113715</ele>
        <time>2022-03-20T00:57:53.216Z</time>
      </trkpt>
      <trkpt lat="52.23236" lon="5.86313">
        <ele>107.12928380276</ele>
        <time>2022-03-20T00:58:09.833Z</time>
      </trkpt>
      <trkpt lat="52.23231" lon="5.86275">
        <ele>108.30674400712</ele>
        <time>2022-03-20T00:58:26.454Z</time>
      </trkpt>
      <trkpt lat="52.2322" lon="5.86279">
        <ele>108.61727712328</ele>
        <time>2022-03-20T00:58:43.077Z</time>
      </trkpt>
      <trkpt lat="52.23214" lon="5.8629">
        <ele>109.14995347886</ele>
        <time>2022-03-20T00:58:59.701Z</time>
      </trkpt>
      <trkpt lat="52.23184" lon="5.86368">
        <ele>109.33208699751</ele>
        <time>2022-03-20T00:59:16.335Z</time>
      </trkpt>
      <trkpt lat="52.23146500294" lon="5.86451000694">
        <ele>108.78327050261</ele>
        <time>2022-03-20T00:59:32.979Z</time>
      </trkpt>
      <trkpt lat="52.23109" lon="5.86534">
        <ele>109.7829154042</ele>
        <time>2022-03-20T00:59:49.633Z</time>
      </trkpt>
      <trkpt lat="52.23081" lon="5.86593">
        <ele>109.99933605717</ele>
        <time>2022-03-20T01:00:06.294Z</time>
      </trkpt>
      <trkpt lat="52.23041" lon="5.86664">
        <ele>110.01514188742</ele>
        <time>2022-03-20T01:00:22.965Z</time>
      </trkpt>
      <trkpt lat="52.23005500131" lon="5.86721000466">
        <ele>109.39366399135</ele>
        <time>2022-03-20T01:00:39.644Z</time>
      </trkpt>
      <trkpt lat="52.2297" lon="5.86778">
        <ele>109.82529308572</ele>
        <time>2022-03-20T01:00:56.331Z</time>
      </trkpt>
      <trkpt lat="52.22918" lon="5.86856">
        <ele>109.61113536774</ele>
        <time>2022-03-20T01:01:13.029Z</time>
      </trkpt>
      <trkpt lat="52.22868000424" lon="5.86926668255">
        <ele>108.87131033867</ele>
        <time>2022-03-20T01:01:29.738Z</time>
      </trkpt>
      <trkpt lat="52.22818000426" lon="5.86997334919">
        <ele>108.49495522074</ele>
        <time>2022-03-20T01:01:46.457Z</time>
      </trkpt>
      <trkpt lat="52.22768" lon="5.87068">
        <ele>108.03732672903</ele>
        <time>2022-03-20T01:02:03.187Z</time>
      </trkpt>
      <trkpt lat="52.22727500212" lon="5.87141000689">
        <ele>107.25423264509</ele>
        <time>2022-03-20T01:02:19.926Z</time>
      </trkpt>
      <trkpt lat="52.22687" lon="5.87214">
        <ele>106.56036607275</ele>
        <time>2022-03-20T01:02:36.675Z</time>
      </trkpt>
      <trkpt lat="52.22652000284" lon="5.87296500659">
        <ele>105.56555554823</ele>
        <time>2022-03-20T01:02:53.434Z</time>
      </trkpt>
      <trkpt lat="52.22617" lon="5.87379">
        <ele>104.42153917715</ele>
        <time>2022-03-20T01:03:10.203Z</time>
      </trkpt>
      <trkpt lat="52.22593500189" lon="5.87446500366">
        <ele>103.56057570317</ele>
        <time>2022-03-20T01:03:26.979Z</time>
      </trkpt>
      <trkpt lat="52.2257" lon="5.87514">
        <ele>102.57962387131</ele>
        <time>2022-03-20T01:03:43.763Z</time>
      </trkpt>
      <trkpt lat="52.22553" lon="5.8756">
        <ele>101.62044170035</ele>
        <time>2022-03-20T01:04:00.552Z</time>
      </trkpt>
      <trkpt lat="52.22525" lon="5.8762">
        <ele>100.50245542164</ele>
        <time>2022-03-20T01:04:17.349Z</time>
      </trkpt>
      <trkpt lat="52.22489" lon="5.87675">
        <ele>99.43339997543</ele>
        <time>2022-03-20T01:04:34.154Z</time>
      </trkpt>
      <trkpt lat="52.22446" lon="5.87736">
        <ele>98.39828868356</ele>
        <time>2022-03-20T01:04:50.968Z</time>
      </trkpt>
      <trkpt lat="52.2243" lon="5.87753">
        <ele>97.45892182878</ele>
        <time>2022-03-20T01:05:07.785Z</time>
      </trkpt>
      <trkpt lat="52.22363000164" lon="5.87817000974">
        <ele>97.13854745974</ele>
        <time>2022-03-20T01:05:24.614Z</time>
      </trkpt>
      <trkpt lat="52.22296" lon="5.87881">
        <ele>95.34032386068</ele>
        <time>2022-03-20T01:05:41.456Z</time>
      </trkpt>
      <trkpt lat="52.2228" lon="5.87893">
        <ele>94.5014649616</ele>
        <time>2022-03-20T01:05:58.301Z</time>
      </trkpt>
      <trkpt lat="52.22223000106" lon="5.87942000625">
        <ele>94.79783431564</ele>
        <time>2022-03-20T01:06:15.156Z</time>
      </trkpt>
      <trkpt lat="52.22166" lon="5.87991">
        <ele>92.82993983784</ele>
        <time>2022-03-20T01:06:32.021Z</time>
      </trkpt>
      <trkpt lat="52.22093500034" lon="5.88013000355">
        <ele>93.85667701717</ele>
        <time>2022-03-20T01:06:48.898Z</time>
      </trkpt>
      <trkpt lat="52.22021" lon="5.88035">
        <ele>91.87364268874</ele>
        <time>2022-03-20T01:07:05.787Z</time>
      </trkpt>
      <trkpt lat="52.21943" lon="5.88065">
        <ele>91.98487120749</ele>
        <time>2022-03-20T01:07:22.689Z</time>
      </trkpt>
      <trkpt lat="52.21947" lon="5.88102">
        <ele>93.48069157546</ele>
        <time>2022-03-20T01:07:39.594Z</time>
      </trkpt>
      <trkpt lat="52.21941" lon="5.88191">
        <ele>93.25973261565</ele>
        <time>2022-03-20T01:07:56.508Z</time>
      </trkpt>
      <trkpt lat="52.21942" lon="5.88246">
        <ele>93.14780338144</ele>
        <time>2022-03-20T01:08:13.428Z</time>
      </trkpt>
      <trkpt lat="52.21947" lon="5.88307">
        <ele>92.96877930541</ele>
        <time>2022-03-20T01:08:30.354Z</time>
      </trkpt>
      <trkpt lat="52.21957" lon="5.88377">
        <ele>92.65383506094</ele>
        <time>2022-03-20T01:08:47.287Z</time>
      </trkpt>
      <trkpt lat="52.21957" lon="5.88376">
        <ele>92.53986143004</ele>
        <time>2022-03-20T01:09:04.220Z</time>
      </trkpt>
      <trkpt lat="52.21970000348" lon="5.88466999717">
        <ele>92.40885709039</ele>
        <time>2022-03-20T01:09:21.162Z</time>
      </trkpt>
      <trkpt lat="52.21983" lon="5.88558">
        <ele>92.5205332529</ele>
        <time>2022-03-20T01:09:38.113Z</time>
      </trkpt>
      <trkpt lat="52.21988" lon="5.88579">
        <ele>92.41420781027</ele>
        <time>2022-03-20T01:09:55.067Z</time>
      </trkpt>
      <trkpt lat="52.21998" lon="5.88652">
        <ele>92.24856419888</ele>
        <time>2022-03-20T01:10:12.028Z</time>
      </trkpt>
      <trkpt lat="52.22" lon="5.88717">
        <ele>92.13891955995</ele>
        <time>2022-03-20T01:10:28.995Z</time>
      </trkpt>
      <trkpt lat="52.22009500297" lon="5.88800999814">
        <ele>91.90804926588</ele>
        <time>2022-03-20T01:10:45.971Z</time>
      </trkpt>
      <trkpt lat="52.22019" lon="5.88885">
        <ele>91.53940372496</ele>
        <time>2022-03-20T01:11:02.955Z</time>
      </trkpt>
      <trkpt lat="52.22026500338" lon="5.88974499849">
        <ele>91.22219345066</ele>
        <time>2022-03-20T01:11:19.948Z</time>
      </trkpt>
      <trkpt lat="52.22034" lon="5.89064">
        <ele>91.04725397687</ele>
        <time>2022-03-20T01:11:36.950Z</time>
      </trkpt>
      <trkpt lat="52.2204" lon="5.89109">
        <ele>90.83941324331</ele>
        <time>2022-03-20T01:11:53.956Z</time>
      </trkpt>
      <trkpt lat="52.22049" lon="5.89157">
        <ele>90.77497113041</ele>
        <time>2022-03-20T01:12:10.967Z</time>
      </trkpt>
      <trkpt lat="52.22056" lon="5.89223">
        <ele>90.8666308904</ele>
        <time>2022-03-20T01:12:27.985Z</time>
      </trkpt>
      <trkpt lat="52.22058" lon="5.89288">
        <ele>90.9743585986</ele>
        <time>2022-03-20T01:12:45.009Z</time>
      </trkpt>
      <trkpt lat="52.22052" lon="5.8934">
        <ele>91.11842994803</ele>
        <time>2022-03-20T01:13:02.039Z</time>
      </trkpt>
      <trkpt lat="52.22022" lon="5.89466">
        <ele>91.28428701632</ele>
        <time>2022-03-20T01:13:19.082Z</time>
      </trkpt>
      <trkpt lat="52.21992" lon="5.89582">
        <ele>91.31663026007</ele>
        <time>2022-03-20T01:13:36.137Z</time>
      </trkpt>
      <trkpt lat="52.21982" lon="5.89635">
        <ele>91.31061791479</ele>
        <time>2022-03-20T01:13:53.198Z</time>
      </trkpt>
      <trkpt lat="52.21934" lon="5.89744">
        <ele>91.1150946624</ele>
        <time>2022-03-20T01:14:10.272Z</time>
      </trkpt>
      <trkpt lat="52.21911" lon="5.89801">
        <ele>90.95903344091</ele>
        <time>2022-03-20T01:14:27.353Z</time>
      </trkpt>
      <trkpt lat="52.21877" lon="5.89865">
        <ele>90.86613687944</ele>
        <time>2022-03-20T01:14:44.442Z</time>
      </trkpt>
      <trkpt lat="52.21865" lon="5.89894">
        <ele>90.70063046163</ele>
        <time>2022-03-20T01:15:01.534Z</time>
      </trkpt>
      <trkpt lat="52.21855" lon="5.89927">
        <ele>90.40878184108</ele>
        <time>2022-03-20T01:15:18.630Z</time>
      </trkpt>
      <trkpt lat="52.21849" lon="5.89967">
        <ele>90.04028704828</ele>
        <time>2022-03-20T01:15:35.730Z</time>
      </trkpt>
      <trkpt lat="52.21847" lon="5.89998">
        <ele>89.54975235712</ele>
        <time>2022-03-20T01:15:52.833Z</time>
      </trkpt>
      <trkpt lat="52.21852" lon="5.90035">
        <ele>88.97560708628</ele>
        <time>2022-03-20T01:16:09.940Z</time>
      </trkpt>
      <trkpt lat="52.21865" lon="5.90088">
        <ele>88.15876335177</ele>
        <time>2022-03-20T01:16:27.052Z</time>
      </trkpt>
      <trkpt lat="52.21877" lon="5.90163">
        <ele>87.37561882919</ele>
        <time>2022-03-20T01:16:44.172Z</time>
      </trkpt>
      <trkpt lat="52.21903" lon="5.90278">
        <ele>86.46140112381</ele>
        <time>2022-03-20T01:17:01.304Z</time>
      </trkpt>
      <trkpt lat="52.21924" lon="5.90383">
        <ele>85.61371364542</ele>
        <time>2022-03-20T01:17:18.447Z</time>
      </trkpt>
      <trkpt lat="52.21929000233" lon="5.90456999937">
        <ele>84.21701677583</ele>
        <time>2022-03-20T01:17:35.597Z</time>
      </trkpt>
      <trkpt lat="52.21934" lon="5.90531">
        <ele>82.79879633011</ele>
        <time>2022-03-20T01:17:52.755Z</time>
      </trkpt>
      <trkpt lat="52.21936751633" lon="5.90644499792">
        <ele>81.19426756601</ele>
        <time>2022-03-20T01:18:09.924Z</time>
      </trkpt>
      <trkpt lat="52.21939502178" lon="5.90757999726">
        <ele>79.12472031854</ele>
        <time>2022-03-20T01:18:27.104Z</time>
      </trkpt>
      <trkpt lat="52.21942251633" lon="5.90871499799">
        <ele>77.20778682557</ele>
        <time>2022-03-20T01:18:44.295Z</time>
      </trkpt>
      <trkpt lat="52.21945" lon="5.90985">
        <ele>75.24941037177</ele>
        <time>2022-03-20T01:19:01.497Z</time>
      </trkpt>
      <trkpt lat="52.21936" lon="5.91006">
        <ele>73.14775289528</ele>
        <time>2022-03-20T01:19:18.702Z</time>
      </trkpt>
      <trkpt lat="52.21936" lon="5.91042">
        <ele>70.98927734974</ele>
        <time>2022-03-20T01:19:35.910Z</time>
      </trkpt>
      <trkpt lat="52.21899" lon="5.91163">
        <ele>68.6958029583</ele>
        <time>2022-03-20T01:19:53.132Z</time>
      </trkpt>
      <trkpt lat="52.21887" lon="5.91215">
        <ele>66.39979283828</ele>
        <time>2022-03-20T01:20:10.359Z</time>
      </trkpt>
      <trkpt lat="52.21879" lon="5.91297">
        <ele>64.09395418549</ele>
        <time>2022-03-20T01:20:27.594Z</time>
      </trkpt>
      <trkpt lat="52.21868" lon="5.91433">
        <ele>61.68476300034</ele>
        <time>2022-03-20T01:20:44.843Z</time>
      </trkpt>
      <trkpt lat="52.21855" lon="5.9151">
        <ele>59.34588997514</ele>
        <time>2022-03-20T01:21:02.100Z</time>
      </trkpt>
      <trkpt lat="52.21845" lon="5.91547">
        <ele>57.10216651448</ele>
        <time>2022-03-20T01:21:19.361Z</time>
      </trkpt>
      <trkpt lat="52.21817000209" lon="5.91618000457">
        <ele>54.79331720004</ele>
        <time>2022-03-20T01:21:36.630Z</time>
      </trkpt>
      <trkpt lat="52.21789" lon="5.91689">
        <ele>52.52602662995</ele>
        <time>2022-03-20T01:21:53.907Z</time>
      </trkpt>
      <trkpt lat="52.21745000854" lon="5.91789335313">
        <ele>50.02420830225</ele>
        <time>2022-03-20T01:22:11.196Z</time>
      </trkpt>
      <trkpt lat="52.21701000858" lon="5.91889668639">
        <ele>47.72262406752</ele>
        <time>2022-03-20T01:22:28.498Z</time>
      </trkpt>
      <trkpt lat="52.21657" lon="5.9199">
        <ele>45.84437080444</ele>
        <time>2022-03-20T01:22:45.812Z</time>
      </trkpt>
      <trkpt lat="52.21621" lon="5.92057">
        <ele>43.81581367817</ele>
        <time>2022-03-20T01:23:03.134Z</time>
      </trkpt>
      <trkpt lat="52.21588" lon="5.92109">
        <ele>42.09291736641</ele>
        <time>2022-03-20T01:23:20.464Z</time>
      </trkpt>
      <trkpt lat="52.21549000109" lon="5.92163000493">
        <ele>40.55470334843</ele>
        <time>2022-03-20T01:23:37.802Z</time>
      </trkpt>
      <trkpt lat="52.2151" lon="5.92217">
        <ele>39.13775379236</ele>
        <time>2022-03-20T01:23:55.148Z</time>
      </trkpt>
      <trkpt lat="52.21507" lon="5.92206">
        <ele>37.82918584442</ele>
        <time>2022-03-20T01:24:12.495Z</time>
      </trkpt>
      <trkpt lat="52.21476" lon="5.92254">
        <ele>36.58371912007</ele>
        <time>2022-03-20T01:24:29.849Z</time>
      </trkpt>
      <trkpt lat="52.21454" lon="5.92296">
        <ele>35.26540136734</ele>
        <time>2022-03-20T01:24:47.209Z</time>
      </trkpt>
      <trkpt lat="52.2144" lon="5.9233">
        <ele>34.31127916409</ele>
        <time>2022-03-20T01:25:04.573Z</time>
      </trkpt>
      <trkpt lat="52.21427" lon="5.92374">
        <ele>33.51771917558</ele>
        <time>2022-03-20T01:25:21.942Z</time>
      </trkpt>
      <trkpt lat="52.21415" lon="5.92428">
        <ele>32.83803727983</ele>
        <time>2022-03-20T01:25:39.316Z</time>
      </trkpt>
      <trkpt lat="52.21401" lon="5.92558">
        <ele>32.37348592055</ele>
        <time>2022-03-20T01:25:56.703Z</time>
      </trkpt>
      <trkpt lat="52.21402" lon="5.92595">
        <ele>31.74586036974</ele>
        <time>2022-03-20T01:26:14.094Z</time>
      </trkpt>
      <trkpt lat="52.21398" lon="5.92634">
        <ele>31.29950709621</ele>
        <time>2022-03-20T01:26:31.489Z</time>
      </trkpt>
      <trkpt lat="52.21391" lon="5.92659">
        <ele>30.99238927986</ele>
        <time>2022-03-20T01:26:48.886Z</time>
      </trkpt>
      <trkpt lat="52.21365" lon="5.92718">
        <ele>30.87337677277</ele>
        <time>2022-03-20T01:27:06.291Z</time>
      </trkpt>
      <trkpt lat="52.2134" lon="5.92763">
        <ele>30.7062313996</ele>
        <time>2022-03-20T01:27:23.702Z</time>
      </trkpt>
      <trkpt lat="52.21300000124" lon="5.9281600047">
        <ele>30.58373032831</ele>
        <time>2022-03-20T01:27:41.121Z</time>
      </trkpt>
      <trkpt lat="52.2126" lon="5.92869">
        <ele>30.39279395476</ele>
        <time>2022-03-20T01:27:58.548Z</time>
      </trkpt>
      <trkpt lat="52.21206000165" lon="5.92929500724">
        <ele>30.21359518253</ele>
        <time>2022-03-20T01:28:15.986Z</time>
      </trkpt>
      <trkpt lat="52.21152" lon="5.9299">
        <ele>30.19228297014</ele>
        <time>2022-03-20T01:28:33.434Z</time>
      </trkpt>
      <trkpt lat="52.2112" lon="5.93024">
        <ele>30.19636731795</ele>
        <time>2022-03-20T01:28:50.888Z</time>
      </trkpt>
      <trkpt lat="52.21098" lon="5.93041">
        <ele>30.31178723304</ele>
        <time>2022-03-20T01:29:08.346Z</time>
      </trkpt>
      <trkpt lat="52.21053" lon="5.93091">
        <ele>30.61425625548</ele>
        <time>2022-03-20T01:29:25.813Z</time>
      </trkpt>
      <trkpt lat="52.21041" lon="5.9309">
        <ele>30.95471872685</ele>
        <time>2022-03-20T01:29:43.282Z</time>
      </trkpt>
      <trkpt lat="52.21004" lon="5.93071">
        <ele>31.31618473697</ele>
        <time>2022-03-20T01:30:00.757Z</time>
      </trkpt>
      <trkpt lat="52.20982" lon="5.93067">
        <ele>31.76428300712</ele>
        <time>2022-03-20T01:30:18.236Z</time>
      </trkpt>
      <trkpt lat="52.20982" lon="5.93066">
        <ele>32.34917394477</ele>
        <time>2022-03-20T01:30:35.715Z</time>
      </trkpt>
      <trkpt lat="52.20943" lon="5.93058">
        <ele>33.08377193824</ele>
        <time>2022-03-20T01:30:53.200Z</time>
      </trkpt>
      <trkpt lat="52.20911" lon="5.93044">
        <ele>33.88479586554</ele>
        <time>2022-03-20T01:31:10.690Z</time>
      </trkpt>
      <trkpt lat="52.20866" lon="5.93027">
        <ele>34.8442927275</ele>
        <time>2022-03-20T01:31:28.188Z</time>
      </trkpt>
      <trkpt lat="52.20821" lon="5.93013">
        <ele>35.79944211642</ele>
        <time>2022-03-20T01:31:45.693Z</time>
      </trkpt>
      <trkpt lat="52.20747" lon="5.93008">
        <ele>36.74858173142</ele>
        <time>2022-03-20T01:32:03.210Z</time>
      </trkpt>
      <trkpt lat="52.2074" lon="5.9293">
        <ele>37.90749871191</ele>
        <time>2022-03-20T01:32:20.735Z</time>
      </trkpt>
      <trkpt lat="52.20737" lon="5.92914">
        <ele>38.91908989458</ele>
        <time>2022-03-20T01:32:38.261Z</time>
      </trkpt>
      <trkpt lat="52.20724" lon="5.92869">
        <ele>39.95410267421</ele>
        <time>2022-03-20T01:32:55.792Z</time>
      </trkpt>
      <trkpt lat="52.20712" lon="5.92754">
        <ele>41.10432265052</ele>
        <time>2022-03-20T01:33:13.335Z</time>
      </trkpt>
      <trkpt lat="52.20707" lon="5.92709">
        <ele>42.25864982454</ele>
        <time>2022-03-20T01:33:30.882Z</time>
      </trkpt>
      <trkpt lat="52.20694336548" lon="5.9258566491">
        <ele>43.6661877096</ele>
        <time>2022-03-20T01:33:48.441Z</time>
      </trkpt>
      <trkpt lat="52.20681671809" lon="5.92462330523">
        <ele>44.99174032335</ele>
        <time>2022-03-20T01:34:06.013Z</time>
      </trkpt>
      <trkpt lat="52.20669005786" lon="5.92338996839">
        <ele>46.36679171878</ele>
        <time>2022-03-20T01:34:23.597Z</time>
      </trkpt>
      <trkpt lat="52.20656338476" lon="5.92215663858">
        <ele>47.44575489837</ele>
        <time>2022-03-20T01:34:41.193Z</time>
      </trkpt>
      <trkpt lat="52.20643669881" lon="5.9209233158">
        <ele>48.50008167335</ele>
        <time>2022-03-20T01:34:58.802Z</time>
      </trkpt>
      <trkpt lat="52.20631" lon="5.91969">
        <ele>49.20582764813</ele>
        <time>2022-03-20T01:35:16.423Z</time>
      </trkpt>
      <trkpt lat="52.20622000274" lon="5.9188849984">
        <ele>49.97499343106</ele>
        <time>2022-03-20T01:35:34.052Z</time>
      </trkpt>
      <trkpt lat="52.20613" lon="5.91808">
        <ele>50.57415635669</ele>
        <time>2022-03-20T01:35:51.689Z</time>
      </trkpt>
      <trkpt lat="52.20568" lon="5.91789">
        <ele>50.92297663713</ele>
        <time>2022-03-20T01:36:09.334Z</time>
      </trkpt>
      <trkpt lat="52.20545" lon="5.9178">
        <ele>51.22531043329</ele>
        <time>2022-03-20T01:36:26.982Z</time>
      </trkpt>
      <trkpt lat="52.20544" lon="5.9178">
        <ele>51.49132291356</ele>
        <time>2022-03-20T01:36:44.630Z</time>
      </trkpt>
      <trkpt lat="52.2054" lon="5.91779">
        <ele>51.66098269072</ele>
        <time>2022-03-20T01:37:02.279Z</time>
      </trkpt>
      <trkpt lat="52.20521" lon="5.91778">
        <ele>51.73992527404</ele>
        <time>2022-03-20T01:37:19.931Z</time>
      </trkpt>
      <trkpt lat="52.20505" lon="5.91779">
        <ele>51.6774236225</ele>
        <time>2022-03-20T01:37:37.586Z</time>
      </trkpt>
      <trkpt lat="52.20432" lon="5.91797">
        <ele>51.46034866339</ele>
        <time>2022-03-20T01:37:55.253Z</time>
      </trkpt>
      <trkpt lat="52.20395" lon="5.91811">
        <ele>49.08187177634</ele>
        <time>2022-03-20T01:38:12.926Z</time>
      </trkpt>
      <trkpt lat="52.20433" lon="5.91931">
        <ele>49.1170287394</ele>
        <time>2022-03-20T01:38:30.612Z</time>
      </trkpt>
      <trkpt lat="52.20444" lon="5.91975">
        <ele>48.98337385129</ele>
        <time>2022-03-20T01:38:48.303Z</time>
      </trkpt>
      <trkpt lat="52.2045" lon="5.92028">
        <ele>48.82994620384</ele>
        <time>2022-03-20T01:39:05.999Z</time>
      </trkpt>
      <trkpt lat="52.20449" lon="5.92078">
        <ele>48.74322161616</ele>
        <time>2022-03-20T01:39:23.700Z</time>
      </trkpt>
      <trkpt lat="52.20441" lon="5.9213">
        <ele>48.74867385383</ele>
        <time>2022-03-20T01:39:41.406Z</time>
      </trkpt>
      <trkpt lat="52.20426" lon="5.92169">
        <ele>48.71488603084</ele>
        <time>2022-03-20T01:39:59.117Z</time>
      </trkpt>
      <trkpt lat="52.20414" lon="5.92188">
        <ele>48.60921461643</ele>
        <time>2022-03-20T01:40:16.830Z</time>
      </trkpt>
      <trkpt lat="52.20401" lon="5.92203">
        <ele>48.40354032198</ele>
        <time>2022-03-20T01:40:34.546Z</time>
      </trkpt>
      <trkpt lat="52.20384" lon="5.92217">
        <ele>47.94737906564</ele>
        <time>2022-03-20T01:40:52.265Z</time>
      </trkpt>
      <trkpt lat="52.20348" lon="5.92237">
        <ele>47.23583944311</ele>
        <time>2022-03-20T01:41:09.990Z</time>
      </trkpt>
      <trkpt lat="52.2036" lon="5.92248">
        <ele>46.35775291564</ele>
        <time>2022-03-20T01:41:27.717Z</time>
      </trkpt>
      <trkpt lat="52.20404" lon="5.92307">
        <ele>45.14824436381</ele>
        <time>2022-03-20T01:41:45.453Z</time>
      </trkpt>
      <trkpt lat="52.20411" lon="5.92323">
        <ele>44.37227264577</ele>
        <time>2022-03-20T01:42:03.191Z</time>
      </trkpt>
      <trkpt lat="52.20412" lon="5.92333">
        <ele>43.57146013573</ele>
        <time>2022-03-20T01:42:20.930Z</time>
      </trkpt>
      <trkpt lat="52.2041" lon="5.92352">
        <ele>42.70547518894</ele>
        <time>2022-03-20T01:42:38.671Z</time>
      </trkpt>
      <trkpt lat="52.20404" lon="5.92378">
        <ele>41.7526555533</ele>
        <time>2022-03-20T01:42:56.415Z</time>
      </trkpt>
      <trkpt lat="52.20387000191" lon="5.92447000304">
        <ele>40.95238090245</ele>
        <time>2022-03-20T01:43:14.166Z</time>
      </trkpt>
      <trkpt lat="52.2037" lon="5.92516">
        <ele>39.85620276897</ele>
        <time>2022-03-20T01:43:31.925Z</time>
      </trkpt>
      <trkpt lat="52.2035" lon="5.92592">
        <ele>38.74102745984</ele>
        <time>2022-03-20T01:43:49.692Z</time>
      </trkpt>
      <trkpt lat="52.20368" lon="5.92617">
        <ele>37.83192880307</ele>
        <time>2022-03-20T01:44:07.463Z</time>
      </trkpt>
      <trkpt lat="52.2037" lon="5.92628">
        <ele>37.12948455494</ele>
        <time>2022-03-20T01:44:25.235Z</time>
      </trkpt>
      <trkpt lat="52.2037" lon="5.9264">
        <ele>37.07829810301</ele>
        <time>2022-03-20T01:44:43.008Z</time>
      </trkpt>
      <trkpt lat="52.20367" lon="5.92653">
        <ele>36.51288445559</ele>
        <time>2022-03-20T01:45:00.782Z</time>
      </trkpt>
      <trkpt lat="52.20358" lon="5.9267">
        <ele>35.96354707981</ele>
        <time>2022-03-20T01:45:18.558Z</time>
      </trkpt>
    </trkseg>
  </trk>
</gpx>
